# Wetter Temperatur Luftdruck Luftfeuchtigkeit Sichtweite Windgeschwindigkeit Windrichtung Zeit
1 Clouds -3 1015 73 10000 4 330 20:20 17.10.2019
2 Snow -3 1015 68 10000 5 330 19:59 17.10.2019
3 Snow -3 1015 68 10000 5 330 19:59 17.10.2019
4 Clouds -3 1015 73 10000 4 310 19:40 17.10.2019
5 Clouds -3 1015 73 10000 4 310 19:20 17.10.2019
6 Clouds -3 1015 73 10000 4 310 19:20 17.10.2019
7 Clouds -3 1015 73 10000 4 310 19:20 17.10.2019
8 Snow -3 1015 73 10000 4 330 18:58 17.10.2019
9 Snow -3 1015 68 10000 5 350 18:38 17.10.2019
10 Snow -3 1015 68 10000 5 350 18:20 17.10.2019
11 Snow -3 1015 68 10000 5 340 17:42 17.10.2019
12 Snow -4 1015 79 9000 5 340 17:23 17.10.2019
13 Clouds -4 1015 79 9000 6 360 16:57 17.10.2019
14 Clouds -3 1014 73 10000 4 330 16:39 17.10.2019
15 Clouds -3 1014 73 10000 4 330 16:18 17.10.2019
16 Clouds -3 1014 79 10000 3 340 15:56 17.10.2019
17 Clouds -3 1014 79 10000 3 340 15:56 17.10.2019
18 Clouds -3 1014 79 10000 4 330 15:38 17.10.2019
19 Clouds -3 1014 79 10000 4 330 15:19 17.10.2019
20 Clouds -3 1014 73 10000 6 340 14:55 17.10.2019
21 Clouds -3 1014 73 10000 5 350 14:36 17.10.2019
22 Clouds -3 1014 73 10000 5 350 14:18 17.10.2019
23 Clouds -3 1014 73 10000 4 350 13:39 17.10.2019
24 Clouds -3 1014 73 10000 4 350 13:19 17.10.2019
25 Clouds -4 1013 79 10000 5 360 12:43 17.10.2019
26 Clouds -4 1013 73 10000 7 340 12:22 17.10.2019
27 Clouds -4 1013 73 10000 7 330 11:59 17.10.2019
28 Clouds -4 1013 73 10000 7 330 11:41 17.10.2019
29 Clouds -4 1013 73 10000 7 330 11:21 17.10.2019
30 Clouds -4 1012 73 10000 7 340 10:57 17.10.2019
31 Clouds -4 1012 73 10000 6 340 10:39 17.10.2019
32 Clouds -4 1012 73 10000 6 340 10:19 17.10.2019
33 Clouds -4 1012 73 10000 5 360 09:55 17.10.2019
34 Snow -4 1012 73 10000 7 340 09:36 17.10.2019
35 Snow -4 1012 73 10000 7 340 09:18 17.10.2019
36 Snow -4 1012 73 10000 7 340 09:18 17.10.2019
37 Clouds -4 1012 73 10000 5 350 08:46 17.10.2019
38 Clouds -4 1011 73 10000 6 360 08:26 17.10.2019
39 Snow -4 1011 85 10000 7 340 07:56 17.10.2019
40 Clouds -4 1010 79 10000 7 340 07:38 17.10.2019
41 Clouds -4 1010 79 10000 7 340 07:18 17.10.2019
42 Clouds -4 1010 79 10000 7 340 06:40 17.10.2019
43 Clouds -4 1010 79 10000 7 340 06:21 17.10.2019
44 Clouds -4 1009 85 10000 7 340 05:57 17.10.2019
45 Snow -4 1009 85 10000 6 340 05:32 17.10.2019
46 Clouds -4 1009 85 10000 6 350 04:56 17.10.2019
47 Clouds -4 1008 85 10000 6 350 03:55 17.10.2019
48 Clouds -4 1007 85 10000 7 340 02:50 17.10.2019
49 Snow -3 1007 92 8000 6 340 01:39 17.10.2019
50 Clouds -2 1006 86 10000 6 350 00:40 17.10.2019
51 Clouds -2 1006 86 10000 6 350 00:19 17.10.2019
52 Clouds -2 1005 86 10000 6 350 23:42 16.10.2019
53 Snow -2 1005 86 10000 6 340 23:21 16.10.2019
54 Snow -2 1005 100 10000 4 350 22:56 16.10.2019
55 Snow -2 1005 100 10000 4 350 22:56 16.10.2019
56 Snow -2 1005 100 6000 7 340 22:37 16.10.2019
57 Snow -2 1005 100 6000 7 340 22:37 16.10.2019
58 Snow -2 1005 100 6000 7 340 22:19 16.10.2019
59 Snow -2 1005 100 6000 7 340 22:19 16.10.2019
60 Snow -2 1005 100 6000 7 340 22:19 16.10.2019
61 Snow -2 1004 92 10000 6 350 21:57 16.10.2019
62 Clouds -1 1004 86 10000 7 350 21:37 16.10.2019
63 Clouds -1 1004 86 10000 7 350 21:19 16.10.2019
64 Snow -1 1004 100 8000 6 340 20:58 16.10.2019
65 Clouds -1 1004 100 10000 7 340 20:39 16.10.2019
66 Clouds -1 1004 100 10000 7 340 20:20 16.10.2019
67 Snow -1 1003 100 9000 7 340 19:59 16.10.2019
68 Snow -1 1003 100 4200 6 340 19:38 16.10.2019
69 Snow -1 1003 100 4200 6 340 19:20 16.10.2019
70 Snow 0 1002 90 8000 6 350 18:40 16.10.2019
71 Snow 0 1002 92 8000 6 350 18:20 16.10.2019
72 Snow 0 1002 92 7000 6 340 17:58 16.10.2019
73 Snow 0 1002 92 7000 6 340 17:58 16.10.2019
74 Snow 0 1002 92 5000 6 340 17:39 16.10.2019
75 Snow 0 1002 92 5000 6 340 17:21 16.10.2019
76 Snow 1 1001 100 5000 6 340 17:00 16.10.2019
77 Snow 1 1001 100 5000 6 340 16:41 16.10.2019
78 Snow 1 1001 100 9000 6 330 16:21 16.10.2019
79 Rain 2 1001 100 10000 5 330 15:57 16.10.2019
80 Snow 0 1002 92 0 7.97 351 15:38 16.10.2019
81 Clouds 3 1000 100 10000 3 290 15:18 16.10.2019
82 Clouds 3 1000 100 10000 3 290 14:56 16.10.2019
83 Clouds 3 1000 100 10000 3 290 14:38 16.10.2019
84 Clouds 3 1000 100 10000 3 290 14:18 16.10.2019
85 Rain 3 1000 100 9000 4 290 13:56 16.10.2019
86 Clouds 3 1000 100 10000 3 290 13:38 16.10.2019
87 Clouds 3 1000 100 10000 3 290 13:38 16.10.2019
88 Clouds 3 1000 100 10000 3 290 13:19 16.10.2019
89 Clouds 3 1000 100 10000 4 300 12:42 16.10.2019
90 Clouds 3 1000 100 10000 3 290 12:19 16.10.2019
91 Rain 3 999 100 10000 3 290 11:45 16.10.2019
92 Rain 3 999 100 8000 4 290 11:19 16.10.2019
93 Rain 3 999 100 10000 3 290 10:41 16.10.2019
94 Clouds 3 999 100 10000 4 290 10:22 16.10.2019
95 Clouds 3 999 100 10000 4 290 09:58 16.10.2019
96 Clouds 3 999 100 10000 4 290 09:58 16.10.2019
97 Rain 3 999 100 10000 4 290 09:39 16.10.2019
98 Rain 3 999 100 10000 4 290 09:39 16.10.2019
99 Rain 3 999 100 10000 4 290 09:20 16.10.2019
100 Rain 3 998 100 10000 4 290 08:44 16.10.2019
101 Rain 3 998 100 10000 4 300 08:26 16.10.2019
102 Rain 3 998 100 10000 4 290 07:56 16.10.2019
103 Rain 3 998 100 10000 4 290 07:38 16.10.2019
104 Clouds 4 998 100 10000 4 280 07:20 16.10.2019
105 Rain 4 998 100 10000 5 280 06:40 16.10.2019
106 Rain 4 998 100 10000 5 280 06:19 16.10.2019
107 Rain 4 997 100 10000 5 250 03:46 16.10.2019
108 Rain 4 997 100 9000 5 250 02:50 16.10.2019
109 Rain 4 996 100 4300 5 250 01:20 16.10.2019
110 Clouds 4 996 100 10000 5 250 00:56 16.10.2019
111 Clouds 4 996 100 10000 5 250 00:37 16.10.2019
112 Clouds 4 996 100 10000 5 250 23:42 15.10.2019
113 Rain 4 996 100 10000 5 250 23:22 15.10.2019
114 Rain 4 996 100 10000 6 250 22:57 15.10.2019
115 Rain 4 996 100 8000 4 240 22:38 15.10.2019
116 Rain 4 996 100 8000 4 240 22:20 15.10.2019
117 Rain 5 996 100 10000 4 240 21:57 15.10.2019
118 Rain 5 996 100 9000 4 240 21:38 15.10.2019
119 Rain 5 996 100 9000 4 240 21:20 15.10.2019
120 Rain 5 996 100 9000 4 240 21:20 15.10.2019
121 Clouds 5 996 100 10000 3 240 20:58 15.10.2019
122 Clouds 5 996 100 10000 4 240 20:39 15.10.2019
123 Clouds 5 996 100 10000 4 240 20:21 15.10.2019
124 Clouds 5 996 100 10000 4 240 19:59 15.10.2019
125 Clouds 5 996 100 10000 4 240 19:40 15.10.2019
126 Clouds 5 996 100 10000 4 240 19:40 15.10.2019
127 Clouds 5 996 100 10000 3 240 19:20 15.10.2019
128 Rain 5 996 100 10000 4 250 18:48 15.10.2019
129 Rain 5 996 100 10000 4 240 18:30 15.10.2019
130 Clouds 5 996 100 10000 3 240 17:59 15.10.2019
131 -273 0 0 0 0 0 17:41 15.10.2019
132 Clouds 5 996 100 10000 3 240 17:41 15.10.2019
133 Clouds 5 996 100 10000 3 240 17:41 15.10.2019
134 Clouds 5 996 100 10000 5 250 17:20 15.10.2019
135 Clouds 5 996 100 10000 5 250 17:20 15.10.2019
136 Clouds 6 996 100 10000 5 250 16:57 15.10.2019
137 Clouds 6 996 100 10000 4 250 16:38 15.10.2019
138 Clouds 6 996 100 10000 4 250 16:20 15.10.2019
139 Clouds 6 996 100 10000 5 250 15:43 15.10.2019
140 Clouds 6 996 100 10000 5 250 15:43 15.10.2019
141 Clouds 6 996 100 10000 3 240 15:21 15.10.2019
142 Rain 6 996 78 0 4.404 251 14:59 15.10.2019
143 Rain 6 996 80 0 4.014 242 14:38 15.10.2019
144 Rain 6 996 80 0 4.014 242 14:20 15.10.2019
145 Rain 6 996 80 0 4.014 242 14:20 15.10.2019
146 Rain 6 996 80 0 4.014 242 13:58 15.10.2019
147 Rain 6 996 80 0 4.014 242 13:40 15.10.2019
148 Rain 6 996 80 0 4.014 242 13:19 15.10.2019
149 Rain 6 996 80 0 4.014 242 12:43 15.10.2019
150 Rain 7 995 87 0 3.858 246 12:22 15.10.2019
151 Rain 7 995 87 0 3.858 246 11:57 15.10.2019
152 Rain 7 995 87 0 3.858 246 11:38 15.10.2019
153 Rain 7 995 87 0 3.858 246 11:19 15.10.2019
154 Rain 7 995 87 0 3.858 246 10:45 15.10.2019
155 Rain 6 995 86 0 3.86 260.262 10:22 15.10.2019
156 Rain 6 995 86 0 3.86 260.262 09:58 15.10.2019
157 Rain 6 995 86 0 3.86 260.262 09:38 15.10.2019
158 Rain 8 994 82 0 7.19 227.773 09:20 15.10.2019
159 Rain 7 995 86 0 5.85 221.425 08:56 15.10.2019
160 Rain 7 995 86 0 5.85 221.425 08:36 15.10.2019
161 Rain 7 995 86 0 5.85 221.425 08:18 15.10.2019
162 Rain 7 995 86 0 5.85 221.425 07:41 15.10.2019
163 Rain 7 995 86 0 5.85 221.425 07:21 15.10.2019
164 Rain 7 995 86 0 5.85 221.425 06:45 15.10.2019
165 Rain 7 995 86 0 5.85 221.425 06:27 15.10.2019
166 Rain 6 994 93 0 7.21 207.489 05:48 15.10.2019
167 Rain 6 994 93 0 7.21 207.489 05:29 15.10.2019
168 Rain 6 994 93 0 7.21 207.489 04:39 15.10.2019
169 Rain 6 994 93 0 7.21 207.489 03:38 15.10.2019
170 Rain 6 995 93 0 6.3 199.579 02:51 15.10.2019
171 Rain 6 995 93 0 6.3 199.579 01:49 15.10.2019
172 Clouds 5 995 94 0 5.96 203.89 01:22 15.10.2019
173 Clouds 5 995 94 0 5.96 203.89 00:50 15.10.2019
174 Clouds 6 995 94 0 5.09 199.314 00:22 15.10.2019
175 Clouds 6 995 94 0 5.09 199.314 23:45 14.10.2019
176 Clouds 6 995 94 0 5.09 199.314 23:21 14.10.2019
177 Clouds 6 995 94 0 5.09 199.314 22:59 14.10.2019
178 Clouds 6 995 94 0 5.09 199.314 22:38 14.10.2019
179 Clouds 6 995 94 0 5.09 199.314 22:19 14.10.2019
180 Clouds 6 995 94 0 5.09 199.314 22:19 14.10.2019
181 Clouds 6 995 94 0 5.09 199.314 21:56 14.10.2019
182 Clouds 6 995 94 0 5.09 199.314 21:56 14.10.2019
183 Clouds 6 995 94 0 5.09 199.314 21:37 14.10.2019
184 Rain 6 995 93 0 5.85 207.012 21:19 14.10.2019
185 -273 0 0 0 0 0 20:55 14.10.2019
186 Rain 6 995 91 0 5.67 206.244 20:37 14.10.2019
187 Rain 6 995 91 0 5.67 206.244 20:18 14.10.2019
188 Rain 6 995 91 0 4.432 203 19:42 14.10.2019
189 Rain 6 995 91 0 4.432 203 19:23 14.10.2019
190 Rain 6 995 91 0 5.67 206.244 18:59 14.10.2019
191 Rain 6 995 91 0 5.67 206.244 18:39 14.10.2019
192 Rain 7 996 91 0 7.25 200.609 18:19 14.10.2019
193 Rain 7 996 91 0 7.25 200.609 18:19 14.10.2019
194 Rain 7 996 91 0 7.25 200.609 18:19 14.10.2019
195 Rain 7 996 91 0 7.25 200.609 17:57 14.10.2019
196 Rain 7 996 91 0 7.25 200.609 17:57 14.10.2019
197 Rain 7 996 91 0 7.25 200.609 17:39 14.10.2019
198 Rain 7 996 91 0 7.25 200.609 17:20 14.10.2019
199 Rain 7 996 91 0 7.25 200.609 16:44 14.10.2019
200 Rain 7 996 91 0 7.25 200.609 16:44 14.10.2019
201 Rain 7 996 91 0 7.25 200.609 16:21 14.10.2019
202 Rain 7 996 91 0 7.25 200.609 15:54 14.10.2019
203 Rain 7 996 91 0 7.25 200.609 15:36 14.10.2019
204 Rain 7 997 90 0 6.67 188.845 15:18 14.10.2019
205 Rain 7 997 90 0 6.67 188.845 14:43 14.10.2019
206 Rain 7 997 90 0 6.67 188.845 14:23 14.10.2019
207 Rain 7 997 90 0 6.67 188.845 13:45 14.10.2019
208 Rain 7 997 91 0 6.36 193.938 13:22 14.10.2019
209 Rain 7 997 91 0 6.36 193.938 12:59 14.10.2019
210 Rain 7 997 91 0 6.36 193.938 12:40 14.10.2019
211 Rain 7 998 91 0 6.77 175.137 12:19 14.10.2019
212 Rain 7 998 91 0 6.77 175.137 11:46 14.10.2019
213 Rain 7 998 91 0 6.77 175.137 11:26 14.10.2019
214 Rain 7 998 91 0 6.77 175.137 11:26 14.10.2019
215 Rain 7 998 91 0 6.77 175.137 10:57 14.10.2019
216 Rain 7 998 91 0 6.77 175.137 10:38 14.10.2019
217 Rain 7 998 91 0 6.77 175.137 10:20 14.10.2019
218 Rain 7 998 91 0 6.77 175.137 09:54 14.10.2019
219 Rain 7 998 91 0 6.77 175.137 09:36 14.10.2019
220 Clouds 8 1000 87 0 6.31 176.364 09:18 14.10.2019
221 Clouds 8 1000 87 0 6.31 176.364 08:42 14.10.2019
222 Clouds 8 1000 87 0 6.31 176.364 08:20 14.10.2019
223 Clouds 8 1000 87 0 6.31 176.364 07:41 14.10.2019
224 Clouds 8 1000 87 0 6.31 176.364 07:41 14.10.2019
225 Clouds 8 1000 87 0 6.31 176.364 07:18 14.10.2019
226 Clouds 8 1000 87 0 6.31 176.364 06:37 14.10.2019
227 Rain 6 1002 94 0 5.72 165.477 06:18 14.10.2019
228 Rain 6 1002 94 0 5.72 165.477 05:42 14.10.2019
229 Rain 6 1002 94 0 5.72 165.477 04:42 14.10.2019
230 Rain 6 1002 94 0 5.72 165.477 03:27 14.10.2019
231 Rain 6 1004 93 0 5.91 163.84 02:42 14.10.2019
232 Rain 6 1004 93 0 6.37 168.54 01:23 14.10.2019
233 Rain 6 1004 93 0 6.37 168.54 00:53 14.10.2019
234 Rain 6 1004 93 0 6.37 168.54 00:53 14.10.2019
235 Rain 7 1006 92 0 6.9 167.417 00:19 14.10.2019
236 Rain 7 1006 92 0 6.9 167.417 23:44 13.10.2019
237 Rain 7 1006 92 0 6.9 167.417 23:20 13.10.2019
238 Rain 7 1006 92 0 6.9 167.417 22:58 13.10.2019
239 Rain 7 1006 92 0 6.9 167.417 22:40 13.10.2019
240 Rain 7 1006 92 0 6.9 167.417 22:21 13.10.2019
241 Rain 7 1006 92 0 6.9 167.417 22:21 13.10.2019
242 Rain 7 1006 92 0 6.9 167.417 21:58 13.10.2019
243 Rain 7 1006 92 0 6.9 167.417 21:37 13.10.2019
244 Rain 7 1010 95 0 6 172.906 21:18 13.10.2019
245 Rain 7 1010 95 0 6 172.906 21:18 13.10.2019
246 Rain 7 1010 95 0 6 172.906 20:57 13.10.2019
247 Rain 7 1010 95 0 6 172.906 20:57 13.10.2019
248 Rain 7 1010 95 0 6 172.906 20:57 13.10.2019
249 Rain 7 1010 95 0 5.11 167.002 20:38 13.10.2019
250 Rain 7 1010 95 0 5.11 167.002 20:20 13.10.2019
251 Rain 7 1010 95 0 5.11 167.002 19:57 13.10.2019
252 Rain 7 1010 95 0 5.11 167.002 19:39 13.10.2019
253 Rain 7 1010 95 0 5.11 167.002 19:39 13.10.2019
254 Rain 7 1010 95 0 5.11 167.002 19:21 13.10.2019
255 -273 0 0 0 0 0 18:56 13.10.2019
256 Rain 7 1010 95 0 5.11 167.002 18:56 13.10.2019
257 Rain 7 1010 95 0 5.11 167.002 18:36 13.10.2019
258 Rain 7 1010 95 0 5.11 167.002 18:36 13.10.2019
259 Clouds 7 1013 94 0 4.48 178.899 18:18 13.10.2019
260 Clouds 7 1013 94 0 4.48 178.899 17:55 13.10.2019
261 Clouds 7 1013 94 0 4.48 178.899 17:36 13.10.2019
262 Clouds 7 1013 94 0 4.48 178.899 17:18 13.10.2019
263 Clouds 7 1013 94 0 4.48 178.899 16:41 13.10.2019
264 Clouds 7 1013 94 0 4.48 178.899 16:18 13.10.2019
265 -273 0 0 0 0 0 15:56 13.10.2019
266 Clouds 7 1013 94 0 4.48 178.899 15:56 13.10.2019
267 Clouds 7 1013 94 0 4.48 178.899 15:56 13.10.2019
268 Clouds 7 1013 94 0 4.48 178.899 15:37 13.10.2019
269 Clouds 7 1013 94 0 4.48 178.899 15:37 13.10.2019
270 Clouds 7 1014 89 0 3.57 203.104 15:18 13.10.2019
271 Clouds 7 1014 89 0 3.57 203.104 15:18 13.10.2019
272 -273 0 0 0 0 0 14:56 13.10.2019
273 Clouds 7 1014 89 0 3.57 203.104 14:56 13.10.2019
274 Clouds 7 1014 89 0 3.57 203.104 14:37 13.10.2019
275 Clouds 7 1014 89 0 3.57 203.104 14:18 13.10.2019
276 Clouds 7 1014 89 0 3.57 203.104 13:39 13.10.2019
277 Clouds 7 1014 88 0 3.18 208.193 13:21 13.10.2019
278 Clouds 7 1014 88 0 3.18 208.193 12:57 13.10.2019
279 Clouds 7 1014 88 0 3.18 208.193 12:39 13.10.2019
280 Clouds 7 1015 85 0 5.48 224.304 12:20 13.10.2019
281 Clouds 7 1015 85 0 5.48 224.304 11:58 13.10.2019
282 Clouds 7 1015 85 0 5.48 224.304 11:38 13.10.2019
283 Clouds 7 1015 85 0 5.48 224.304 11:19 13.10.2019
284 Clouds 7 1015 85 0 5.48 224.304 10:42 13.10.2019
285 Clouds 7 1015 85 0 5.48 224.304 10:24 13.10.2019
286 Clouds 7 1015 85 0 5.48 224.304 09:58 13.10.2019
287 Clouds 7 1015 85 0 5.48 224.304 09:39 13.10.2019
288 Clouds 6 1015 88 0 6.58 232.158 09:20 13.10.2019
289 Clouds 6 1015 88 0 6.73 230.935 08:43 13.10.2019
290 Clouds 6 1015 88 0 6.73 230.935 08:43 13.10.2019
291 Clouds 6 1015 88 0 6.73 230.935 08:23 13.10.2019
292 Clouds 6 1015 88 0 6.73 230.935 08:23 13.10.2019
293 Clouds 6 1015 88 0 6.73 230.935 07:50 13.10.2019
294 Clouds 6 1015 88 0 6.73 230.935 07:30 13.10.2019
295 Clouds 6 1015 88 0 6.73 230.935 06:49 13.10.2019
296 Clouds 5 1015 94 0 5.46 224.629 05:59 13.10.2019
297 Clouds 5 1015 94 0 5.46 224.629 04:59 13.10.2019
298 Clouds 5 1015 94 0 5.46 224.629 04:33 13.10.2019
299 Clouds 6 1015 92 0 5.59 235.082 02:48 13.10.2019
300 Clouds 6 1015 92 0 5.59 235.082 02:23 13.10.2019
301 Clouds 6 1015 92 0 5.59 235.082 01:34 13.10.2019
302 Clouds 6 1015 92 0 5.59 235.082 01:34 13.10.2019
303 Clouds 6 1016 92 0 5.53 233.972 00:52 13.10.2019
304 Clouds 6 1016 91 0 5.78 209.712 00:22 13.10.2019
305 Clouds 6 1016 91 0 5.78 209.712 23:59 12.10.2019
306 Clouds 6 1016 91 0 5.78 209.712 23:40 12.10.2019
307 Clouds 6 1016 91 0 5.78 209.712 23:21 12.10.2019
308 Clouds 6 1016 91 0 5.78 209.712 22:58 12.10.2019
309 Clouds 6 1016 91 0 5.78 209.712 22:39 12.10.2019
310 Clouds 6 1016 91 0 5.78 209.712 22:21 12.10.2019
311 Clouds 6 1016 91 0 5.78 209.712 21:55 12.10.2019
312 Clouds 6 1016 91 0 5.78 209.712 21:37 12.10.2019
313 Rain 6 1016 87 0 6.42 215.303 21:19 12.10.2019
314 Rain 6 1017 87 0 6.96 217.435 20:43 12.10.2019
315 Rain 6 1017 87 0 6.96 217.435 20:25 12.10.2019
316 Rain 6 1017 87 0 6.96 217.435 19:40 12.10.2019
317 Rain 6 1017 87 0 6.96 217.435 19:22 12.10.2019
318 Rain 6 1017 87 0 6.96 217.435 19:22 12.10.2019
319 Rain 6 1017 87 0 6.96 217.435 18:59 12.10.2019
320 Rain 6 1017 87 0 6.96 217.435 18:41 12.10.2019
321 Rain 5 1017 89 0 7.21 202.266 18:23 12.10.2019
322 Rain 5 1017 89 0 7.21 202.266 17:45 12.10.2019
323 Rain 5 1017 89 0 7.21 202.266 17:20 12.10.2019
324 Rain 5 1017 89 0 7.21 202.266 16:55 12.10.2019
325 Rain 5 1017 89 0 7.21 202.266 16:37 12.10.2019
326 Rain 5 1017 89 0 7.21 202.266 16:18 12.10.2019
327 Rain 5 1017 89 0 7.21 202.266 15:44 12.10.2019
328 Rain 5 1017 89 0 7.21 202.266 15:25 12.10.2019
329 Rain 5 1018 79 0 6.66 181.8 14:55 12.10.2019
330 Rain 5 1018 79 0 6.66 181.8 14:55 12.10.2019
331 Rain 5 1018 79 0 6.66 181.8 14:37 12.10.2019
332 Rain 5 1018 79 0 6.66 181.8 14:18 12.10.2019
333 Rain 5 1018 79 0 6.66 181.8 13:43 12.10.2019
334 Rain 5 1019 79 0 6.27 181.535 13:25 12.10.2019
335 Rain 5 1019 79 0 6.27 181.535 12:40 12.10.2019
336 Clouds 6 1018 68 0 5.88 197.948 12:22 12.10.2019
337 Clouds 6 1018 68 0 5.88 197.948 11:59 12.10.2019
338 Clouds 6 1018 68 0 5.88 197.948 11:39 12.10.2019
339 Clouds 6 1018 68 0 5.88 197.948 11:20 12.10.2019
340 Clouds 6 1018 68 0 5.88 197.948 10:45 12.10.2019
341 Clouds 6 1018 68 0 5.88 197.948 10:25 12.10.2019
342 Clouds 6 1018 68 0 5.88 197.948 09:58 12.10.2019
343 Clouds 6 1018 68 0 5.88 197.948 09:40 12.10.2019
344 Clouds 4 1019 77 0 5.24 186.82 09:22 12.10.2019
345 Clouds 4 1020 75 0 5.08 190.735 08:58 12.10.2019
346 Clouds 4 1020 75 0 5.08 190.735 08:38 12.10.2019
347 Clouds 4 1020 75 0 5.08 190.735 08:20 12.10.2019
348 Clouds 4 1020 75 0 5.08 190.735 07:35 12.10.2019
349 Clouds 4 1020 75 0 5.08 190.735 06:57 12.10.2019
350 Clouds 2 1020 84 0 3.68 202.916 05:48 12.10.2019
351 Clouds 2 1020 84 0 3.68 202.916 05:23 12.10.2019
352 Clouds 2 1020 84 0 3.68 202.916 04:24 12.10.2019
353 Clouds 2 1020 84 0 3.68 202.916 03:33 12.10.2019
354 Clouds 2 1021 86 0 1.38 244.81 01:50 12.10.2019
355 Clouds 2 1021 86 0 1.31 265.585 01:21 12.10.2019
356 Clouds 2 1021 86 0 1.31 265.585 00:42 12.10.2019
357 Clouds 3 1020 86 0 2.18 305.985 23:59 11.10.2019
358 Clouds 3 1020 86 0 2.18 305.985 23:40 11.10.2019
359 Clouds 3 1020 86 0 2.18 305.985 23:20 11.10.2019
360 Clouds 3 1020 86 0 2.18 305.985 22:41 11.10.2019
361 Clouds 3 1020 86 0 2.18 305.985 22:22 11.10.2019
362 Clouds 3 1020 86 0 2.18 305.985 21:58 11.10.2019
363 Clouds 3 1020 86 0 2.18 305.985 21:39 11.10.2019
364 Clouds 4 1021 92 0 2.49 297.944 21:21 11.10.2019
365 Clouds 3 1021 93 0 2.17 319.184 20:45 11.10.2019
366 Clouds 3 1021 93 0 2.17 319.184 20:27 11.10.2019
367 Clouds 3 1021 93 0 2.17 319.184 19:58 11.10.2019
368 Clouds 3 1021 93 0 2.17 319.184 19:39 11.10.2019
369 Clouds 3 1021 93 0 2.17 319.184 19:39 11.10.2019
370 Clouds 3 1021 93 0 2.17 319.184 19:18 11.10.2019
371 Clouds 3 1021 93 0 2.17 319.184 19:18 11.10.2019
372 Clouds 3 1021 93 0 2.17 319.184 19:18 11.10.2019
373 Clouds 3 1021 93 0 2.17 319.184 19:18 11.10.2019
374 Clouds 3 1021 93 0 2.17 319.184 18:59 11.10.2019
375 Clouds 3 1021 93 0 2.17 319.184 18:38 11.10.2019
376 Clouds 3 1021 95 0 2.62 347.146 18:19 11.10.2019
377 Clouds 3 1021 95 0 2.62 347.146 18:19 11.10.2019
378 Clouds 3 1021 95 0 2.62 347.146 17:58 11.10.2019
379 Clouds 3 1021 95 0 2.62 347.146 17:38 11.10.2019
380 Clouds 3 1021 95 0 2.62 347.146 17:19 11.10.2019
381 Clouds 3 1021 95 0 2.62 347.146 16:58 11.10.2019
382 Clouds 3 1021 95 0 2.62 347.146 16:39 11.10.2019
383 Clouds 3 1021 95 0 2.62 347.146 16:19 11.10.2019
384 Clouds 3 1021 95 0 2.62 347.146 15:41 11.10.2019
385 Clouds 3 1021 95 0 2.62 347.146 15:41 11.10.2019
386 Clouds 3 1021 95 0 2.62 347.146 15:41 11.10.2019
387 Rain 4 1021 94 0 3.6 346.484 15:20 11.10.2019
388 Rain 4 1021 94 0 3.6 346.484 14:58 11.10.2019
389 Rain 4 1021 94 0 3.6 346.484 14:58 11.10.2019
390 Rain 4 1021 94 0 3.6 346.484 14:38 11.10.2019
391 Rain 4 1021 94 0 3.6 346.484 14:19 11.10.2019
392 Rain 4 1021 94 0 3.6 346.484 14:19 11.10.2019
393 Rain 4 1021 94 0 3.6 346.484 13:44 11.10.2019
394 Rain 4 1021 94 0 1.99 9.116 13:25 11.10.2019
395 Rain 4 1021 94 0 1.99 9.116 12:57 11.10.2019
396 Rain 4 1021 94 0 1.99 9.116 12:38 11.10.2019
397 Rain 5 1020 93 0 0.58 193.069 12:20 11.10.2019
398 Rain 5 1020 93 0 0.58 193.069 11:57 11.10.2019
399 Rain 5 1020 93 0 0.58 193.069 11:38 11.10.2019
400 Rain 5 1020 93 0 0.58 193.069 11:20 11.10.2019
401 Rain 5 1020 93 0 0.58 193.069 10:54 11.10.2019
402 Rain 5 1020 93 0 0.58 193.069 10:36 11.10.2019
403 Rain 5 1020 93 0 0.58 193.069 10:18 11.10.2019
404 Rain 5 1020 92 0 0.48 352.037 09:41 11.10.2019
405 Rain 5 1019 93 0 1.81 147.327 09:20 11.10.2019
406 Rain 5 1019 93 0 1.81 147.327 08:56 11.10.2019
407 Rain 5 1019 93 0 1.81 147.327 08:38 11.10.2019
408 Rain 5 1019 93 0 1.81 147.327 08:19 11.10.2019
409 Rain 5 1019 93 0 1.81 147.327 07:51 11.10.2019
410 Rain 5 1019 93 0 1.81 147.327 07:33 11.10.2019
411 Rain 5 1019 93 0 1.81 147.327 06:49 11.10.2019
412 Rain 5 1019 93 0 1.81 147.327 06:24 11.10.2019
413 Rain 5 1018 91 0 2.51 148.27 05:41 11.10.2019
414 Rain 5 1018 91 0 2.51 148.27 05:23 11.10.2019
415 Rain 5 1018 91 0 2.51 148.27 04:38 11.10.2019
416 Rain 6 1018 92 0 3.02 23.816 02:47 11.10.2019
417 Rain 7 1018 84 0 2.25 100.093 00:52 11.10.2019
418 Rain 7 1018 84 0 2.25 100.093 00:29 11.10.2019
419 Rain 7 1017 92 0 2.91 355.727 23:48 10.10.2019
420 Rain 7 1017 92 0 2.91 355.727 23:23 10.10.2019
421 Rain 7 1017 92 0 2.91 355.727 22:58 10.10.2019
422 Rain 7 1017 92 0 2.91 355.727 22:40 10.10.2019
423 Rain 7 1017 92 0 2.91 355.727 22:21 10.10.2019
424 Rain 7 1017 92 0 2.91 355.727 22:21 10.10.2019
425 Rain 7 1017 92 0 2.91 355.727 21:58 10.10.2019
426 Rain 7 1017 92 0 2.91 355.727 21:40 10.10.2019
427 Rain 7 1016 92 0 4.05 336.482 21:21 10.10.2019
428 Clouds 7 1017 91 0 3.61 334.931 20:57 10.10.2019
429 Clouds 7 1017 91 0 3.61 334.931 20:57 10.10.2019
430 Clouds 7 1017 91 0 3.61 334.931 20:38 10.10.2019
431 Clouds 7 1017 91 0 3.61 334.931 20:18 10.10.2019
432 Clouds 7 1017 91 0 3.61 334.931 20:18 10.10.2019
433 Clouds 7 1017 91 0 3.61 334.931 20:18 10.10.2019
434 Clouds 7 1017 91 0 3.61 334.931 19:54 10.10.2019
435 Clouds 7 1017 91 0 3.61 334.931 19:36 10.10.2019
436 Clouds 7 1017 91 0 3.61 334.931 19:18 10.10.2019
437 Clouds 7 1017 91 0 3.61 334.931 18:41 10.10.2019
438 Clouds 10 1016 78 0 5.53 167.987 18:20 10.10.2019
439 Clouds 10 1016 78 0 5.53 167.987 17:55 10.10.2019
440 Clouds 10 1016 78 0 5.53 167.987 17:37 10.10.2019
441 Clouds 10 1016 78 0 5.53 167.987 17:18 10.10.2019
442 Clouds 10 1016 78 0 5.53 167.987 16:46 10.10.2019
443 Clouds 10 1016 78 0 5.53 167.987 16:26 10.10.2019
444 Clouds 10 1016 78 0 5.53 167.987 16:26 10.10.2019
445 Clouds 10 1016 78 0 5.53 167.987 15:58 10.10.2019
446 Clouds 10 1016 78 0 5.53 167.987 15:38 10.10.2019
447 Clouds 11 1015 73 0 4.73 175.31 15:19 10.10.2019
448 Clouds 11 1015 73 0 4.73 175.31 14:55 10.10.2019
449 Clouds 11 1015 73 0 4.73 175.31 14:36 10.10.2019
450 Clear 13 1014 58 10000 4 170 14:18 10.10.2019
451 Clear 13 1014 58 10000 4 170 13:42 10.10.2019
452 Clear 13 1014 58 10000 4 170 13:24 10.10.2019
453 Clear 13 1014 58 10000 4 160 12:58 10.10.2019
454 Clear 13 1014 58 10000 4 160 12:40 10.10.2019
455 Clear 13 1014 58 10000 4 160 12:20 10.10.2019
456 Clear 13 1014 58 10000 4 170 11:57 10.10.2019
457 Clear 13 1014 54 10000 4 170 11:38 10.10.2019
458 Clear 13 1014 54 10000 4 170 11:19 10.10.2019
459 Clear 13 1013 54 10000 5 160 10:44 10.10.2019
460 Clear 13 1013 54 10000 4 160 10:26 10.10.2019
461 Clear 12 1013 58 10000 4 160 09:56 10.10.2019
462 Clear 12 1013 58 10000 4 160 09:38 10.10.2019
463 Clear 12 1013 58 10000 4 160 09:20 10.10.2019
464 Clear 11 1013 62 10000 4 160 08:57 10.10.2019
465 Clear 11 1013 62 10000 4 160 08:37 10.10.2019
466 Clear 11 1013 62 10000 4 160 08:18 10.10.2019
467 Clear 10 1013 66 10000 5 160 07:45 10.10.2019
468 Clear 10 1013 66 10000 5 170 07:22 10.10.2019
469 Clear 10 1013 66 10000 6 160 06:48 10.10.2019
470 Clear 10 1013 66 10000 5 150 06:29 10.10.2019
471 Clear 9 1013 70 10000 6 150 05:28 10.10.2019
472 Clear 9 1013 70 10000 6 140 04:47 10.10.2019
473 Clear 9 1013 70 10000 5 150 04:26 10.10.2019
474 Clear 9 1013 70 10000 5 150 04:26 10.10.2019
475 Clear 9 1014 76 10000 6 140 01:44 10.10.2019
476 Clear 9 1014 76 10000 6 140 01:25 10.10.2019
477 Clear 9 1014 76 10000 5 140 00:54 10.10.2019
478 Clear 9 1014 76 10000 5 140 00:54 10.10.2019
479 Clear 9 1014 76 10000 5 140 00:22 10.10.2019
480 Clear 9 1015 76 10000 5 140 23:40 09.10.2019
481 Clear 9 1015 76 10000 5 140 23:21 09.10.2019
482 Clear 9 1015 76 10000 6 140 22:56 09.10.2019
483 Clear 9 1015 76 10000 5 130 22:38 09.10.2019
484 Clear 9 1015 76 10000 5 130 22:20 09.10.2019
485 Clear 9 1016 76 10000 5 130 21:40 09.10.2019
486 Clear 9 1016 76 10000 5 130 21:21 09.10.2019
487 Clear 9 1016 76 10000 6 130 20:56 09.10.2019
488 Clear 9 1017 76 10000 5 130 20:38 09.10.2019
489 Clear 9 1017 76 10000 5 130 20:19 09.10.2019
490 Clear 9 1017 76 10000 5 130 19:58 09.10.2019
491 Clear 9 1017 76 10000 5 130 19:39 09.10.2019
492 Clear 9 1017 76 10000 5 130 19:20 09.10.2019
493 Clear 9 1018 76 10000 6 130 18:38 09.10.2019
494 Clear 9 1018 76 10000 6 130 18:38 09.10.2019
495 Clear 9 1018 76 10000 6 130 18:19 09.10.2019
496 Clear 9 1018 76 10000 6 130 17:57 09.10.2019
497 Clear 9 1018 70 10000 5 130 17:37 09.10.2019
498 Clear 9 1018 70 10000 5 130 17:19 09.10.2019
499 Clear 9 1018 70 10000 5 130 16:55 09.10.2019
500 Clear 9 1019 70 10000 5 130 16:36 09.10.2019
501 Clear 9 1019 70 10000 5 130 16:18 09.10.2019
502 Clear 10 1019 66 10000 5 120 15:55 09.10.2019
503 Clear 10 1019 66 10000 5 120 15:55 09.10.2019
504 Clear 10 1019 66 10000 5 130 15:36 09.10.2019
505 Clear 10 1019 66 10000 5 130 15:36 09.10.2019
506 Clear 10 1019 66 10000 5 130 15:18 09.10.2019
507 Clear 10 1019 66 10000 5 120 14:42 09.10.2019
508 Clear 10 1019 66 10000 5 120 14:42 09.10.2019
509 Clear 10 1019 66 10000 5 130 14:18 09.10.2019
510 Clear 11 1019 62 10000 5 130 13:55 09.10.2019
511 Clear 11 1019 66 10000 5 130 13:36 09.10.2019
512 Clear 11 1019 66 10000 5 130 13:36 09.10.2019
513 Clear 11 1019 66 10000 5 130 13:18 09.10.2019
514 Clear 12 1020 62 10000 4 120 12:42 09.10.2019
515 Clear 12 1020 58 10000 5 120 12:22 09.10.2019
516 Clear 12 1020 58 10000 5 130 11:57 09.10.2019
517 Clear 12 1020 58 10000 5 130 11:39 09.10.2019
518 Clear 12 1020 58 10000 5 130 11:20 09.10.2019
519 Clear 12 1020 58 10000 5 130 10:55 09.10.2019
520 -273 0 0 0 0 0 10:37 09.10.2019
521 Clouds 11 1020 62 10000 5 130 10:18 09.10.2019
522 Clear 10 1021 66 10000 5 130 09:42 09.10.2019
523 Clear 9 1021 70 10000 4 130 09:19 09.10.2019
524 Clear 9 1021 70 10000 4 140 08:55 09.10.2019
525 Clear 8 1022 75 10000 5 130 08:37 09.10.2019
526 Clear 8 1022 75 10000 5 130 08:18 09.10.2019
527 Clear 7 1022 75 10000 4 140 07:42 09.10.2019
528 Clear 6 1022 81 10000 4 130 07:22 09.10.2019
529 Clear 6 1022 81 10000 4 130 06:52 09.10.2019
530 Clear 5 1022 86 10000 4 130 06:20 09.10.2019
531 Clear 4 1022 93 10000 4 130 05:46 09.10.2019
532 Clear 3 1022 93 10000 4 120 04:27 09.10.2019
533 Clear 3 1022 93 10000 3 120 02:54 09.10.2019
534 Clear 3 1023 93 10000 4 130 01:44 09.10.2019
535 Clear 3 1023 93 10000 3 130 01:21 09.10.2019
536 Clear 3 1023 93 10000 3 130 01:21 09.10.2019
537 Clear 3 1023 93 10000 3 130 00:57 09.10.2019
538 Clear 3 1023 86 10000 3 130 00:39 09.10.2019
539 Clear 3 1023 86 10000 3 130 00:20 09.10.2019
540 Clear 3 1023 86 10000 3 130 23:40 08.10.2019
541 Clear 3 1023 86 10000 3 130 23:19 08.10.2019
542 Clear 3 1024 86 10000 3 130 22:58 08.10.2019
543 Clear 3 1024 86 10000 3 130 22:39 08.10.2019
544 Clear 3 1024 86 10000 3 130 22:20 08.10.2019
545 Clear 4 1024 80 10000 3 130 21:57 08.10.2019
546 Clear 4 1024 80 10000 3 130 21:39 08.10.2019
547 Clear 4 1024 80 10000 3 130 21:39 08.10.2019
548 Clear 4 1024 80 10000 3 130 21:19 08.10.2019
549 Clear 4 1024 80 10000 3 120 20:56 08.10.2019
550 Clear 4 1024 80 10000 4 120 20:38 08.10.2019
551 Clear 4 1024 80 10000 4 120 20:20 08.10.2019
552 Clear 4 1024 92 10000 4 120 19:58 08.10.2019
553 Clear 4 1024 92 10000 3 130 19:39 08.10.2019
554 Clear 4 1024 92 10000 3 130 19:20 08.10.2019
555 Clear 5 1024 92 10000 4 130 18:54 08.10.2019
556 Clear 5 1024 92 10000 4 130 18:36 08.10.2019
557 Clear 5 1024 83 10000 4 130 18:18 08.10.2019
558 Clear 6 1024 83 10000 5 130 17:40 08.10.2019
559 Clear 6 1024 83 10000 5 130 17:40 08.10.2019
560 Clear 6 1024 83 10000 5 130 17:20 08.10.2019
561 Clear 6 1024 70 10000 5 130 16:58 08.10.2019
562 Clear 7 1024 65 10000 5 130 16:38 08.10.2019
563 Clear 7 1024 65 10000 5 130 16:20 08.10.2019
564 Clear 7 1024 65 10000 4 120 15:41 08.10.2019
565 Clear 7 1024 65 10000 4 120 15:41 08.10.2019
566 Clear 8 1024 61 10000 5 120 15:21 08.10.2019
567 Clear 8 1024 65 10000 6 120 14:58 08.10.2019
568 Clear 9 1024 61 10000 6 110 14:39 08.10.2019
569 Clear 9 1024 61 10000 6 110 14:20 08.10.2019
570 Clear 10 1024 57 10000 5 120 13:56 08.10.2019
571 Clear 10 1024 61 10000 5 120 13:37 08.10.2019
572 Clear 10 1024 61 10000 5 120 13:18 08.10.2019
573 Clear 10 1024 57 10000 6 120 12:42 08.10.2019
574 Clear 10 1024 57 10000 5 120 12:22 08.10.2019
575 Clear 10 1024 57 10000 6 120 11:59 08.10.2019
576 Clear 10 1024 57 10000 5 120 11:40 08.10.2019
577 Clear 10 1024 57 10000 5 120 11:21 08.10.2019
578 Clear 10 1024 57 10000 5 120 10:55 08.10.2019
579 Clear 10 1024 61 10000 5 120 10:36 08.10.2019
580 Clear 10 1024 61 10000 5 120 10:18 08.10.2019
581 Clear 10 1025 57 10000 5 110 09:41 08.10.2019
582 Clear 9 1025 61 10000 4 120 09:22 08.10.2019
583 Clear 9 1025 61 10000 5 120 08:55 08.10.2019
584 Clear 8 1025 65 10000 5 130 08:36 08.10.2019
585 Clear 8 1025 65 10000 5 130 08:18 08.10.2019
586 Clear 7 1025 65 10000 4 130 07:41 08.10.2019
587 Clear 7 1025 65 10000 4 130 07:19 08.10.2019
588 Clear 7 1025 65 10000 4 140 06:46 08.10.2019
589 Clear 6 1025 70 10000 4 130 06:23 08.10.2019
590 Clear 5 1025 75 10000 3 130 05:44 08.10.2019
591 Clear 5 1025 75 10000 3 130 05:44 08.10.2019
592 Clear 4 1025 80 10000 3 120 05:21 08.10.2019
593 Clear 3 1024 93 10000 3 110 03:32 08.10.2019
594 Clear 3 1024 93 10000 3 100 02:46 08.10.2019
595 Clear 3 1024 93 10000 4 110 02:26 08.10.2019
596 Clear 3 1024 93 10000 3 90 01:42 08.10.2019
597 Clear 3 1024 93 10000 4 90 00:57 08.10.2019
598 Clear 3 1024 93 10000 5 70 00:36 08.10.2019
599 Clear 3 1024 93 10000 5 70 00:18 08.10.2019
600 Clear 2 1023 100 10000 2 90 23:38 07.10.2019
601 Clear 2 1023 100 10000 2 90 23:19 07.10.2019
602 Clear 2 1023 100 10000 2 90 23:19 07.10.2019
603 Clear 2 1023 100 10000 1 60 22:55 07.10.2019
604 Clear 2 1023 100 10000 1 40 22:37 07.10.2019
605 Clear 2 1023 100 10000 1 40 22:18 07.10.2019
606 Clear 3 1023 93 10000 2 40 21:54 07.10.2019
607 Clear 3 1022 93 10000 3 60 21:36 07.10.2019
608 Clear 3 1022 93 10000 3 60 21:36 07.10.2019
609 Clear 3 1022 93 10000 3 60 21:18 07.10.2019
610 Clear 2 1022 100 10000 2 70 20:56 07.10.2019
611 Clear 2 1022 100 10000 2 70 20:56 07.10.2019
612 Clear 3 1023 93 10000 3 40 20:37 07.10.2019
613 Clear 3 1023 93 10000 3 40 20:18 07.10.2019
614 Clear 2 1023 100 10000 2 30 19:42 07.10.2019
615 Clear 2 1023 100 10000 2 30 19:42 07.10.2019
616 Clear 2 1022 100 10000 2 60 19:21 07.10.2019
617 Clear 3 1022 93 10000 2 60 18:59 07.10.2019
618 Clear 3 1022 100 10000 1 0 18:41 07.10.2019
619 Clear 3 1022 100 10000 1 0 18:19 07.10.2019
620 Clear 4 1022 86 10000 2 60 17:56 07.10.2019
621 Clear 4 1022 93 10000 3 50 17:38 07.10.2019
622 Clear 4 1022 93 10000 3 50 17:18 07.10.2019
623 Clear 5 1022 86 10000 3 50 16:44 07.10.2019
624 Clear 5 1022 86 10000 2 70 16:25 07.10.2019
625 Clear 5 1022 86 10000 2 40 15:57 07.10.2019
626 Clear 6 1022 81 10000 2 60 15:38 07.10.2019
627 Clear 6 1022 81 10000 2 60 15:20 07.10.2019
628 Clear 8 1022 70 10000 2 70 14:41 07.10.2019
629 Clear 8 1022 75 10000 2 60 14:23 07.10.2019
630 Clear 10 1022 66 10000 2 20 13:45 07.10.2019
631 Clouds 10 1022 61 10000 2 30 13:21 07.10.2019
632 Clouds 10 1021 61 10000 2 40 12:57 07.10.2019
633 Clouds 10 1021 66 10000 2 50 12:39 07.10.2019
634 Clouds 10 1021 66 10000 2 50 12:20 07.10.2019
635 Clouds 10 1021 66 10000 2 20 11:59 07.10.2019
636 Clouds 9 1021 66 10000 1.19 30.025 11:39 07.10.2019
637 Clouds 9 1021 66 10000 1.19 30.025 11:20 07.10.2019
638 Clouds 9 1021 70 10000 1 360 10:43 07.10.2019
639 Clouds 9 1021 66 10000 1 0 10:23 07.10.2019
640 Clouds 9 1021 66 10000 1 0 09:57 07.10.2019
641 Clouds 9 1021 66 10000 1 0 09:38 07.10.2019
642 Clouds 9 1021 66 10000 1 0 09:38 07.10.2019
643 Clouds 9 1021 66 10000 1 0 09:20 07.10.2019
644 Clouds 9 1021 66 10000 1 0 08:43 07.10.2019
645 Clouds 9 1021 66 10000 1 0 08:20 07.10.2019
646 Clear 9 1021 61 10000 2 210 07:47 07.10.2019
647 Clear 8 1021 70 10000 2 190 07:27 07.10.2019
648 Clear 8 1021 75 10000 2.17 255.007 06:58 07.10.2019
649 Clear 7 1021 75 10000 1 240 06:38 07.10.2019
650 Clear 7 1021 75 10000 1 240 06:18 07.10.2019
651 Clear 6 1020 100 10000 1 0 05:26 07.10.2019
652 Clear 5 1020 100 10000 1.9 250.22 04:49 07.10.2019
653 Clouds 5 1020 100 10000 1.9 250.22 03:46 07.10.2019
654 Clouds 5 1020 100 10000 1.9 250.22 03:46 07.10.2019
655 Clear 5 1020 100 10000 1.9 250.22 03:27 07.10.2019
656 Clear 5 1020 100 10000 2 320 02:37 07.10.2019
657 Clear 5 1020 100 10000 2 320 02:18 07.10.2019
658 Clear 5 1020 100 10000 2 320 02:18 07.10.2019
659 Clear 5 1019 93 10000 2 300 01:23 07.10.2019
660 Clear 6 1019 81 10000 2 330 00:49 07.10.2019
661 Clear 6 1019 81 10000 3 320 00:23 07.10.2019
662 Clear 6 1018 87 10000 2 310 23:59 06.10.2019
663 Clear 6 1018 87 10000 2 290 23:40 06.10.2019
664 Clear 6 1018 87 10000 2 290 23:19 06.10.2019
665 Clear 7 1018 93 10000 3 290 22:55 06.10.2019
666 Clear 7 1018 93 10000 3 290 22:55 06.10.2019
667 Clear 6 1018 100 10000 3 300 22:37 06.10.2019
668 Clear 6 1018 100 10000 3 300 22:18 06.10.2019
669 Clear 7 1017 87 10000 3 300 21:55 06.10.2019
670 Clear 7 1017 87 10000 3 300 21:54 06.10.2019
671 Clear 7 1017 87 10000 3 290 21:36 06.10.2019
672 Clear 7 1017 87 10000 3 290 21:36 06.10.2019
673 Clear 7 1017 87 10000 3 290 21:36 06.10.2019
674 Clear 7 1017 87 10000 3 290 21:18 06.10.2019
675 Clear 7 1017 87 10000 3 290 21:18 06.10.2019
676 Clear 7 1017 87 10000 4 280 20:54 06.10.2019
677 Clear 9 1016 76 10000 4 280 20:36 06.10.2019
678 Clear 9 1016 76 10000 4 280 20:36 06.10.2019
679 Clear 9 1016 76 10000 4 280 20:36 06.10.2019
680 Clear 9 1016 76 10000 4 280 20:18 06.10.2019
681 Clear 9 1016 76 10000 5 280 19:54 06.10.2019
682 Clear 9 1015 76 10000 4 260 19:36 06.10.2019
683 Clear 9 1015 76 10000 4 260 19:18 06.10.2019
684 Clear 11 1015 66 10000 5 250 18:54 06.10.2019
685 Clear 11 1015 62 10000 5 250 18:36 06.10.2019
686 Clear 11 1015 62 10000 5 250 18:18 06.10.2019
687 Clear 12 1015 58 10000 4 240 17:42 06.10.2019
688 Clear 12 1014 58 10000 4 240 17:19 06.10.2019
689 Clear 12 1014 58 10000 4 240 16:54 06.10.2019
690 Clear 12 1014 58 10000 4 240 16:54 06.10.2019
691 Clear 12 1014 58 10000 4 240 16:36 06.10.2019
692 Clear 12 1014 58 10000 4 240 16:18 06.10.2019
693 Clear 12 1014 58 10000 3 240 15:42 06.10.2019
694 Clear 13 1013 54 10000 4 240 15:19 06.10.2019
695 Clear 13 1013 58 10000 3 240 14:44 06.10.2019
696 Clear 14 1013 54 10000 4 240 14:25 06.10.2019
697 Clear 15 1012 51 10000 4 230 13:58 06.10.2019
698 Clear 15 1012 51 10000 4 230 13:39 06.10.2019
699 Clear 15 1012 51 10000 4 230 13:21 06.10.2019
700 Clear 15 1011 51 10000 4 220 12:57 06.10.2019
701 Clear 15 1011 51 10000 6 230 12:39 06.10.2019
702 Clear 15 1011 51 10000 6 230 12:20 06.10.2019
703 Clear 16 1011 48 10000 6 230 11:57 06.10.2019
704 Clear 16 1011 51 10000 6 240 11:38 06.10.2019
705 Clear 16 1011 51 10000 6 240 11:20 06.10.2019
706 Clear 15 1011 51 10000 6 240 10:44 06.10.2019
707 Clear 15 1011 54 10000 6 240 10:26 06.10.2019
708 Clear 14 1011 58 10000 6 240 09:58 06.10.2019
709 Clear 14 1011 58 10000 6 240 09:39 06.10.2019
710 Clear 14 1011 58 10000 6 240 09:19 06.10.2019
711 Clear 14 1010 58 10000 6 230 08:43 06.10.2019
712 Clear 14 1010 62 10000 6 230 08:21 06.10.2019
713 Clear 14 1010 62 10000 6 230 07:56 06.10.2019
714 Clear 14 1010 62 10000 6 230 07:56 06.10.2019
715 Clear 13 1010 66 10000 6 230 07:33 06.10.2019
716 Clear 12 1010 71 10000 5 220 06:20 06.10.2019
717 Clear 11 1010 76 10000 6 220 05:34 06.10.2019
718 Clear 11 1010 76 10000 5 210 03:56 06.10.2019
719 Clear 11 1011 81 10000 5 210 02:44 06.10.2019
720 Clear 11 1011 81 10000 5 210 02:22 06.10.2019
721 Clear 11 1011 81 10000 5 210 01:45 06.10.2019
722 Clear 11 1011 87 10000 4 200 01:27 06.10.2019
723 Clear 11 1012 87 10000 4 210 00:53 06.10.2019
724 Clear 11 1012 93 10000 4 200 00:27 06.10.2019
725 Clear 10 1012 100 10000 4 210 23:45 05.10.2019
726 Clear 10 1012 100 10000 4 200 23:22 05.10.2019
727 Clear 10 1012 100 10000 4 190 22:58 05.10.2019
728 Clear 10 1012 100 10000 4 200 22:40 05.10.2019
729 Clear 10 1012 100 10000 4 200 22:40 05.10.2019
730 Clear 10 1012 100 10000 4 200 22:20 05.10.2019
731 Clear 10 1012 100 10000 4 200 21:57 05.10.2019
732 Clear 10 1012 100 10000 4 210 21:38 05.10.2019
733 Clear 10 1012 100 10000 4 210 21:18 05.10.2019
734 Clear 10 1012 100 10000 4 210 20:56 05.10.2019
735 Clear 10 1012 100 10000 3 200 20:37 05.10.2019
736 Clear 10 1012 100 10000 3 200 20:37 05.10.2019
737 Clear 10 1012 100 10000 3 200 20:18 05.10.2019
738 Clear 9 1013 100 10000 2 160 19:38 05.10.2019
739 Clear 9 1013 100 10000 2 160 19:19 05.10.2019
740 Clear 9 1013 100 10000 2 150 18:55 05.10.2019
741 Clear 9 1014 100 10000 2 150 18:37 05.10.2019
742 Clear 9 1014 100 10000 2 150 18:19 05.10.2019
743 Clear 8 1014 100 10000 2 150 17:43 05.10.2019
744 Clear 8 1014 93 10000 3 150 17:24 05.10.2019
745 Clear 9 1014 81 10000 3 160 16:57 05.10.2019
746 Clear 9 1014 81 10000 3 160 16:57 05.10.2019
747 Clear 9 1014 81 10000 3 150 16:39 05.10.2019
748 Clear 9 1014 81 10000 3 150 16:20 05.10.2019
749 Clear 9 1015 81 10000 3 140 15:57 05.10.2019
750 Clear 9 1015 81 10000 3 150 15:38 05.10.2019
751 Clear 9 1015 81 10000 3 150 15:20 05.10.2019
752 Clear 9 1015 76 10000 3 140 14:44 05.10.2019
753 Clear 10 1015 71 10000 3 150 14:25 05.10.2019
754 Clear 10 1015 71 10000 3 140 13:58 05.10.2019
755 Clouds 10 1015 71 10000 4 150 13:40 05.10.2019
756 Clouds 10 1015 71 10000 4 150 13:19 05.10.2019
757 Clouds 10 1015 71 10000 3 150 12:43 05.10.2019
758 Clouds 10 1015 66 10000 3 160 12:19 05.10.2019
759 Clouds 9 1015 70 10000 3 160 11:44 05.10.2019
760 Clouds 9 1015 66 10000 3 140 11:21 05.10.2019
761 Clouds 9 1015 61 10000 2 190 10:58 05.10.2019
762 Clouds 9 1016 57 10000 2 170 10:40 05.10.2019
763 Clouds 9 1016 57 10000 2 170 10:21 05.10.2019
764 Clouds 9 1016 61 10000 3 190 09:55 05.10.2019
765 Clear 8 1016 61 10000 3 220 09:37 05.10.2019
766 Clear 8 1016 61 10000 3 220 09:18 05.10.2019
767 Clear 8 1016 65 10000 3 190 08:39 05.10.2019
768 Clear 8 1016 65 10000 3 190 08:19 05.10.2019
769 Clear 6 1016 75 10000 3 210 07:52 05.10.2019
770 Clear 6 1016 81 10000 3 210 07:30 05.10.2019
771 Clear 5 1016 86 10000 2 220 06:56 05.10.2019
772 Clear 5 1016 86 10000 2 230 06:24 05.10.2019
773 Clear 5 1016 80 10000 2 230 05:39 05.10.2019
774 Clear 4 1015 86 10000 2 260 03:34 05.10.2019
775 Clear 4 1015 86 10000 2 260 02:45 05.10.2019
776 Clear 4 1015 86 10000 3 270 01:27 05.10.2019
777 Clear 4 1015 80 10000 3 250 00:49 05.10.2019
778 Clear 4 1014 80 10000 3 280 00:28 05.10.2019
779 Clear 5 1015 75 10000 4 260 23:58 04.10.2019
780 Clear 4 1014 80 10000 3 280 23:40 04.10.2019
781 Clear 4 1014 80 10000 3 280 23:22 04.10.2019
782 Clear 5 1014 75 10000 4 280 22:57 04.10.2019
783 Clear 5 1014 75 10000 4 280 22:57 04.10.2019
784 Clear 5 1014 75 10000 4 260 22:37 04.10.2019
785 Clear 5 1014 75 10000 4 260 22:19 04.10.2019
786 Clear 5 1014 75 10000 4 270 21:40 04.10.2019
787 Clear 5 1014 75 10000 5 260 21:22 04.10.2019
788 Clear 5 1014 75 10000 5 260 21:22 04.10.2019
789 Clear 5 1014 75 10000 5 270 20:59 04.10.2019
790 Clear 5 1014 75 10000 5 270 20:41 04.10.2019
791 Clear 5 1013 75 10000 6 270 20:22 04.10.2019
792 Clear 5 1014 75 10000 5 270 19:56 04.10.2019
793 Clear 6 1014 70 10000 6 270 19:37 04.10.2019
794 Clear 6 1014 70 10000 6 270 19:19 04.10.2019
795 -273 0 0 0 0 0 18:54 04.10.2019
796 Clear 6 1014 83 10000 7 250 18:36 04.10.2019
797 Clear 6 1014 78 10000 7 250 18:18 04.10.2019
798 Clear 6 1014 78 10000 7 250 17:39 04.10.2019
799 Clear 6 1014 78 10000 7 250 17:21 04.10.2019
800 Clear 6 1013 78 10000 7 250 16:58 04.10.2019
801 Clear 6 1013 78 10000 6 250 16:39 04.10.2019
802 Clear 6 1013 78 10000 6 250 16:18 04.10.2019
803 Clear 6 1013 78 10000 6 250 16:18 04.10.2019
804 Clear 6 1013 60 10000 6 240 15:56 04.10.2019
805 Clear 6 1013 60 10000 4 240 15:37 04.10.2019
806 Clear 6 1013 60 10000 4 240 15:19 04.10.2019
807 Clear 6 1013 60 10000 5 250 14:55 04.10.2019
808 Clear 6 1013 60 10000 5 250 14:55 04.10.2019
809 Clear 6 1013 60 10000 6 240 14:36 04.10.2019
810 Clear 6 1013 60 10000 6 240 14:18 04.10.2019
811 Clear 7 1013 56 10000 7 250 13:43 04.10.2019
812 Clouds 7 1013 56 10000 7 240 13:21 04.10.2019
813 Clouds 8 1013 52 10000 6 250 12:47 04.10.2019
814 Clouds 7 1013 56 10000 7 250 12:29 04.10.2019
815 Clouds 7 1013 61 10000 8 250 11:59 04.10.2019
816 Clouds 7 1013 61 10000 8 250 11:59 04.10.2019
817 Clouds 7 1013 61 10000 8 250 11:59 04.10.2019
818 Clouds 7 1013 61 10000 8 250 11:59 04.10.2019
819 Clouds 7 1013 61 10000 8 250 11:41 04.10.2019
820 Clouds 7 1013 61 10000 8 250 11:40 04.10.2019
821 Clouds 6 1013 61 10000 7 260 11:20 04.10.2019
822 Clouds 6 1013 61 10000 8 260 10:41 04.10.2019
823 Clouds 6 1013 61 10000 9 260 10:21 04.10.2019
824 Clouds 6 1013 61 10000 7 250 09:47 04.10.2019
825 Clouds 6 1013 70 10000 8 270 09:28 04.10.2019
826 Clouds 6 1012 70 10000 8 260 08:56 04.10.2019
827 Clouds 6 1012 70 10000 7 270 08:38 04.10.2019
828 Clouds 6 1012 70 10000 7 270 08:19 04.10.2019
829 Clouds 5 1012 75 10000 8 280 07:44 04.10.2019
830 Clouds 6 1011 70 10000 9 280 07:22 04.10.2019
831 Clouds 5 1011 75 10000 8 270 06:44 04.10.2019
832 Clouds 5 1011 75 10000 8 270 06:44 04.10.2019
833 Clouds 5 1011 75 10000 9 280 06:25 04.10.2019
834 Clouds 5 1011 75 10000 9 280 06:25 04.10.2019
835 Clouds 5 1010 80 10000 8 270 05:42 04.10.2019
836 Clouds 5 1010 75 10000 9 280 05:18 04.10.2019
837 Clouds 5 1008 93 10000 10 270 03:48 04.10.2019
838 Clouds 5 1008 100 10000 6 260 02:53 04.10.2019
839 Clouds 5 1008 100 10000 6 260 02:53 04.10.2019
840 Clouds 7 1007 100 10000 8 260 01:56 04.10.2019
841 Clouds 7 1007 100 10000 8 250 01:30 04.10.2019
842 Clouds 8 1007 100 10000 7 250 00:58 04.10.2019
843 Clouds 8 1006 100 10000 6 250 23:58 03.10.2019
844 Clouds 9 1006 100 10000 5 250 23:37 03.10.2019
845 Clouds 9 1006 100 10000 5 250 23:18 03.10.2019
846 Clouds 9 1006 100 10000 6 250 22:56 03.10.2019
847 Clouds 9 1006 100 10000 5 250 22:37 03.10.2019
848 Clouds 9 1006 100 10000 5 250 22:19 03.10.2019
849 Rain 9 1006 100 6000 5 240 21:56 03.10.2019
850 Rain 9 1006 100 2700 5 240 21:37 03.10.2019
851 Rain 9 1006 100 2700 5 240 21:19 03.10.2019
852 Clouds 9 1006 100 10000 6 230 20:55 03.10.2019
853 Clouds 9 1006 100 10000 6 230 20:55 03.10.2019
854 Rain 9 1006 100 9000 6 220 20:37 03.10.2019
855 Rain 9 1006 100 9000 6 220 20:37 03.10.2019
856 Rain 9 1006 100 9000 6 220 20:19 03.10.2019
857 Rain 9 1006 100 10000 5 220 19:41 03.10.2019
858 Rain 9 1006 100 10000 5 220 19:22 03.10.2019
859 Rain 9 1006 87 10000 6 210 18:58 03.10.2019
860 Clouds 10 1006 76 10000 6 210 18:39 03.10.2019
861 Clouds 10 1006 76 10000 6 210 18:19 03.10.2019
862 Clear 10 1006 76 10000 6 210 17:56 03.10.2019
863 Clear 10 1006 76 10000 7 200 17:37 03.10.2019
864 Clear 10 1006 76 10000 7 200 17:19 03.10.2019
865 Clear 10 1006 76 10000 7 200 17:19 03.10.2019
866 Clear 10 1006 71 10000 6 210 16:41 03.10.2019
867 Clouds 10 1006 71 10000 6 200 16:23 03.10.2019
868 -273 0 0 0 0 0 15:55 03.10.2019
869 Clouds 10 1007 71 10000 5 200 15:55 03.10.2019
870 Clouds 10 1007 71 10000 4 200 15:37 03.10.2019
871 Clouds 10 1007 71 10000 4 200 15:19 03.10.2019
872 Clouds 10 1007 71 10000 4 200 14:45 03.10.2019
873 Clear 10 1007 71 10000 5 200 14:26 03.10.2019
874 Clouds 10 1007 71 10000 5 200 13:57 03.10.2019
875 Clouds 10 1007 71 10000 6 190 13:39 03.10.2019
876 Clouds 10 1007 71 10000 6 190 13:19 03.10.2019
877 Clouds 10 1007 71 10000 6 190 12:55 03.10.2019
878 Clouds 10 1008 71 10000 6 200 12:36 03.10.2019
879 Clouds 10 1008 71 10000 6 200 12:18 03.10.2019
880 Clouds 10 1008 71 10000 7 200 11:41 03.10.2019
881 Clouds 10 1008 71 10000 6 200 11:22 03.10.2019
882 Clouds 11 1008 62 10000 6 200 10:58 03.10.2019
883 Clouds 11 1008 62 10000 6 190 10:40 03.10.2019
884 Clouds 11 1008 62 10000 6 190 10:18 03.10.2019
885 Clouds 11 1008 62 10000 6 200 09:57 03.10.2019
886 Clouds 11 1008 62 10000 7 200 09:39 03.10.2019
887 Clouds 11 1008 62 10000 7 200 09:20 03.10.2019
888 Clouds 11 1009 62 10000 6 200 08:44 03.10.2019
889 Clouds 10 1009 66 10000 6 200 08:26 03.10.2019
890 Clouds 10 1009 66 10000 6 210 07:57 03.10.2019
891 Clouds 10 1009 66 10000 6 200 07:38 03.10.2019
892 Clouds 10 1009 66 10000 6 200 07:19 03.10.2019
893 Rain 9 1010 76 10000 5 210 06:46 03.10.2019
894 Rain 9 1010 76 10000 6 210 06:20 03.10.2019
895 Clouds 9 1010 76 10000 5 200 05:43 03.10.2019
896 Rain 9 1010 81 10000 6 200 04:51 03.10.2019
897 Rain 8 1010 87 10000 5 200 04:25 03.10.2019
898 Rain 9 1010 87 10000 5 210 03:21 03.10.2019
899 Clouds 10 1010 71 10000 6 210 02:37 03.10.2019
900 Clouds 11 1010 66 10000 6 220 01:51 03.10.2019
901 Clouds 11 1010 66 10000 6 210 01:32 03.10.2019
902 Clouds 11 1010 66 10000 5 210 00:47 03.10.2019
903 Clouds 11 1010 66 10000 5 220 00:18 03.10.2019
904 Clouds 11 1010 66 10000 5 230 23:43 02.10.2019
905 Clouds 11 1010 66 10000 5 220 23:21 02.10.2019
906 Clouds 11 1010 66 10000 6 220 22:44 02.10.2019
907 Clouds 11 1010 66 10000 6 220 22:21 02.10.2019
908 Clouds 11 1010 66 10000 6 210 21:56 02.10.2019
909 Clouds 11 1010 66 10000 6 210 21:56 02.10.2019
910 Clouds 11 1010 66 10000 6 210 21:38 02.10.2019
911 Clouds 11 1010 66 10000 6 210 21:20 02.10.2019
912 Clouds 11 1010 66 10000 7 220 20:56 02.10.2019
913 Clouds 11 1011 66 10000 7 220 20:38 02.10.2019
914 Clouds 11 1011 66 10000 7 220 20:20 02.10.2019
915 Clouds 11 1011 71 10000 7 210 19:54 02.10.2019
916 Clouds 10 1011 76 10000 7 220 19:36 02.10.2019
917 Clouds 10 1011 76 10000 7 220 19:36 02.10.2019
918 Clouds 10 1011 76 10000 7 220 19:18 02.10.2019
919 Rain 10 1011 76 10000 7 230 18:55 02.10.2019
920 Rain 10 1011 76 10000 7 230 18:36 02.10.2019
921 Rain 10 1011 76 10000 7 230 18:18 02.10.2019
922 Rain 11 1012 66 10000 7 230 17:42 02.10.2019
923 Clouds 12 1011 54 10000 6 230 17:21 02.10.2019
924 Clouds 12 1011 54 10000 6 230 17:21 02.10.2019
925 Clouds 12 1011 58 10000 6 220 16:58 02.10.2019
926 Clouds 12 1011 58 10000 6 220 16:39 02.10.2019
927 Clear 12 1011 62 10000 5 210 16:20 02.10.2019
928 Clear 12 1011 62 10000 5 210 15:56 02.10.2019
929 Clouds 11 1011 66 10000 4 210 15:37 02.10.2019
930 Clouds 11 1011 66 10000 4 210 15:18 02.10.2019
931 Clouds 11 1011 66 10000 4 200 14:45 02.10.2019
932 Clouds 11 1011 66 10000 4 210 14:27 02.10.2019
933 Clear 11 1011 66 10000 4 210 13:58 02.10.2019
934 Clouds 10 1011 71 10000 4 210 13:40 02.10.2019
935 Clouds 10 1011 71 10000 4 210 13:21 02.10.2019
936 Rain 9 1011 76 10000 5 210 12:41 02.10.2019
937 Rain 9 1011 76 10000 5 210 12:22 02.10.2019
938 Rain 9 1011 76 10000 6 210 11:59 02.10.2019
939 Rain 9 1011 70 10000 6 210 11:41 02.10.2019
940 Rain 9 1011 70 10000 6 210 11:20 02.10.2019
941 Clear 9 1011 70 10000 7 210 10:39 02.10.2019
942 Clear 9 1011 70 10000 7 210 10:19 02.10.2019
943 Clear 9 1011 70 10000 7 210 10:19 02.10.2019
944 Clouds 9 1011 76 10000 6 220 09:41 02.10.2019
945 Clouds 9 1011 76 10000 6 220 09:20 02.10.2019
946 Clouds 8 1011 87 10000 5 210 08:56 02.10.2019
947 Clouds 8 1011 87 10000 5 210 08:56 02.10.2019
948 Rain 7 1011 93 10000 6 210 08:38 02.10.2019
949 Rain 7 1011 93 10000 6 210 08:19 02.10.2019
950 Clouds 7 1011 100 10000 5 210 07:41 02.10.2019
951 Clouds 7 1011 100 10000 5 210 07:22 02.10.2019
952 Rain 7 1011 100 10000 5 210 06:57 02.10.2019
953 Rain 6 1011 100 9000 5 210 06:27 02.10.2019
954 Rain 6 1011 100 10000 5 210 05:49 02.10.2019
955 Rain 6 1011 100 10000 5 210 05:20 02.10.2019
956 Rain 7 1011 100 10000 5 230 03:53 02.10.2019
957 Rain 7 1011 100 10000 6 230 03:24 02.10.2019
958 Rain 7 1011 100 10000 6 230 02:26 02.10.2019
959 Rain 7 1011 100 8000 6 230 01:56 02.10.2019
960 Rain 7 1011 100 9000 5 230 00:52 02.10.2019
961 Rain 7 1011 100 9000 4 220 00:29 02.10.2019
962 Rain 7 1011 100 9000 5 230 23:54 01.10.2019
963 Rain 7 1011 100 7000 6 230 23:36 01.10.2019
964 Rain 7 1011 100 7000 6 230 23:18 01.10.2019
965 Rain 7 1011 100 8000 5 230 22:57 01.10.2019
966 Rain 6 1011 100 9000 5 230 22:36 01.10.2019
967 Rain 6 1011 100 9000 5 230 22:18 01.10.2019
968 Clouds 7 1011 100 10000 6 230 21:42 01.10.2019
969 Clouds 7 1011 100 10000 6 230 21:22 01.10.2019
970 Clouds 7 1011 100 10000 6 230 21:22 01.10.2019
971 Clouds 6 1011 100 10000 5 230 20:57 01.10.2019
972 Rain 6 1011 100 10000 5 230 20:38 01.10.2019
973 Rain 6 1011 100 10000 5 230 20:20 01.10.2019
974 Rain 6 1011 100 10000 5 230 20:20 01.10.2019
975 Rain 6 1011 100 10000 5 230 19:57 01.10.2019
976 Rain 6 1011 100 4400 5 240 19:38 01.10.2019
977 Rain 6 1011 100 4400 5 240 19:20 01.10.2019
978 Rain 6 1011 100 6000 5 230 18:55 01.10.2019
979 Rain 6 1011 100 10000 5 230 18:36 01.10.2019
980 Rain 6 1012 100 10000 5 220 18:18 01.10.2019
981 Rain 5 1012 100 9000 5 210 17:42 01.10.2019
982 Rain 5 1012 100 9000 5 210 17:20 01.10.2019
983 Rain 5 1012 100 6000 5 200 16:59 01.10.2019
984 Rain 5 1012 100 8000 5 210 16:40 01.10.2019
985 Rain 5 1012 100 8000 5 210 16:22 01.10.2019
986 Rain 5 1012 100 5000 6 190 15:48 01.10.2019
987 Clouds 5 1013 93 10000 6 190 15:24 01.10.2019
988 Rain 5 1013 100 10000 5 200 14:58 01.10.2019
989 Rain 5 1013 93 10000 6 210 14:37 01.10.2019
990 Rain 5 1013 93 10000 6 210 14:19 01.10.2019
991 Rain 7 1013 70 10000 7 210 13:55 01.10.2019
992 -273 0 0 0 0 0 13:55 01.10.2019
993 Rain 7 1013 70 10000 7 210 13:55 01.10.2019
994 Rain 7 1013 70 10000 7 210 13:55 01.10.2019
995 Clouds 7 1013 65 10000 7 210 13:36 01.10.2019
996 Clouds 7 1013 65 10000 6 220 13:18 01.10.2019
997 Clouds 7 1013 65 10000 7 220 12:42 01.10.2019
998 Clouds 7 1013 65 10000 7 220 12:20 01.10.2019
999 Clouds 7 1013 65 10000 6 220 11:58 01.10.2019
1000 Clouds 8 1013 61 10000 6 230 11:39 01.10.2019
1001 Clouds 8 1013 61 10000 6 230 11:19 01.10.2019
1002 Clouds 8 1013 61 10000 6 230 11:19 01.10.2019
1003 Clouds 8 1013 61 10000 8 230 10:58 01.10.2019
1004 Clouds 8 1013 65 10000 6 220 10:40 01.10.2019
1005 Clouds 8 1013 65 10000 6 220 10:22 01.10.2019
1006 Clouds 8 1013 70 10000 6 230 09:42 01.10.2019
1007 Clouds 8 1013 70 10000 6 230 09:21 01.10.2019
1008 Clouds 7 1013 70 10000 7 230 08:43 01.10.2019
1009 Clouds 7 1013 70 10000 7 230 08:43 01.10.2019
1010 Clouds 7 1013 70 10000 7 230 08:25 01.10.2019
1011 Clouds 6 1014 81 10000 6 230 07:49 01.10.2019
1012 Clouds 6 1014 81 10000 7 230 07:25 01.10.2019
1013 Clouds 6 1014 81 10000 7 230 07:25 01.10.2019
1014 Clouds 6 1014 87 10000 6 220 06:50 01.10.2019
1015 Clouds 5 1014 100 10000 5 230 06:22 01.10.2019
1016 Clouds 5 1014 100 10000 5 230 05:46 01.10.2019
1017 Clouds 5 1014 100 10000 5 230 05:18 01.10.2019
1018 Clouds 5 1014 100 10000 5 220 04:30 01.10.2019
1019 Clouds 6 1014 100 10000 4 220 02:29 01.10.2019
1020 Clouds 6 1014 100 10000 4 220 01:59 01.10.2019
1021 Clouds 6 1014 100 10000 4 220 01:59 01.10.2019
1022 Rain 6 1014 100 10000 4 220 01:25 01.10.2019
1023 Clouds 5 1014 100 10000 4 210 00:40 01.10.2019
1024 Clouds 5 1014 100 10000 4 210 00:40 01.10.2019
1025 Clouds 5 1014 100 10000 4 210 00:22 01.10.2019
1026 Clouds 5 1014 100 10000 4 230 23:41 30.09.2019
1027 Clouds 5 1014 100 10000 4 230 23:21 30.09.2019
1028 Clouds 5 1014 100 10000 4 230 22:45 30.09.2019
1029 Clouds 5 1014 100 10000 4 220 22:26 30.09.2019
1030 Clouds 5 1014 100 10000 4 220 21:58 30.09.2019
1031 Clouds 5 1014 100 10000 4 230 21:39 30.09.2019
1032 Clouds 5 1014 100 10000 4 230 21:39 30.09.2019
1033 Clouds 5 1014 100 10000 4 230 21:20 30.09.2019
1034 Clouds 5 1014 100 10000 4 230 21:20 30.09.2019
1035 Drizzle 4 1014 100 9000 4 210 20:58 30.09.2019
1036 Clouds 4 1014 100 10000 4 210 20:39 30.09.2019
1037 Clouds 4 1014 100 10000 4 210 20:20 30.09.2019
1038 Drizzle 4 1014 100 9000 4 210 19:57 30.09.2019
1039 Drizzle 4 1014 100 10000 4 210 19:39 30.09.2019
1040 Drizzle 4 1014 100 10000 4 210 19:19 30.09.2019
1041 Drizzle 4 1014 100 10000 4 210 18:57 30.09.2019
1042 Drizzle 4 1014 100 8000 4 210 18:39 30.09.2019
1043 Drizzle 4 1014 100 8000 4 210 18:20 30.09.2019
1044 Mist 4 1014 100 5000 5 210 17:43 30.09.2019
1045 Mist 4 1014 100 5000 5 210 17:23 30.09.2019
1046 Rain 3 1014 100 2300 4 200 16:58 30.09.2019
1047 Rain 4 1014 100 3200 4 210 16:40 30.09.2019
1048 Rain 4 1014 100 3200 4 210 16:19 30.09.2019
1049 Rain 4 1014 100 3200 4 210 16:19 30.09.2019
1050 Clouds 4 1014 86 10000 5 220 15:58 30.09.2019
1051 Clouds 5 1014 80 10000 4 220 15:38 30.09.2019
1052 Clouds 5 1014 80 10000 4 220 15:19 30.09.2019
1053 Clouds 5 1014 80 10000 4 210 14:57 30.09.2019
1054 Clouds 5 1014 75 10000 5 220 14:37 30.09.2019
1055 Clouds 5 1014 75 10000 5 220 14:19 30.09.2019
1056 Clouds 5 1013 80 10000 5 220 13:57 30.09.2019
1057 Clouds 5 1013 75 10000 5 230 13:38 30.09.2019
1058 Clouds 5 1013 75 10000 5 230 13:20 30.09.2019
1059 Clouds 5 1013 92 10000 6 210 12:43 30.09.2019
1060 Clouds 5 1013 70 10000 6 210 12:22 30.09.2019
1061 Clouds 6 1013 70 10000 5 210 11:57 30.09.2019
1062 Clouds 5 1013 70 10000 6 220 11:38 30.09.2019
1063 Clouds 5 1013 70 10000 6 220 11:19 30.09.2019
1064 Clouds 5 1012 65 10000 6 200 10:41 30.09.2019
1065 Clouds 5 1012 65 10000 6 200 10:20 30.09.2019
1066 Clouds 5 1012 65 10000 4 210 09:59 30.09.2019
1067 Clear 5 1012 65 10000 5 220 09:40 30.09.2019
1068 Clear 5 1012 65 10000 5 220 09:40 30.09.2019
1069 Clear 5 1012 65 10000 5 220 09:21 30.09.2019
1070 Clear 4 1012 69 10000 4 210 08:51 30.09.2019
1071 Clear 4 1012 69 10000 4 220 08:33 30.09.2019
1072 Clear 4 1012 69 10000 4 210 07:46 30.09.2019
1073 Clear 4 1012 70 10000 4 220 07:28 30.09.2019
1074 Clear 4 1012 70 10000 4 210 06:57 30.09.2019
1075 Clear 3 1012 86 10000 3 220 06:34 30.09.2019
1076 Clear 2 1012 100 10000 3 240 05:49 30.09.2019
1077 Clear 2 1012 100 10000 3 240 05:25 30.09.2019
1078 Clear 1 1010 100 10000 2 240 02:49 30.09.2019
1079 Clear 1 1010 100 10000 3 280 01:39 30.09.2019
1080 Clear 1 1009 100 10000 3 280 00:44 30.09.2019
1081 Clear 1 1009 100 10000 3 280 00:24 30.09.2019
1082 Clear 1 1009 100 10000 2 280 23:57 29.09.2019
1083 Clear 1 1009 100 10000 3 280 23:39 29.09.2019
1084 Clear 1 1009 100 10000 3 280 23:19 29.09.2019
1085 Clear 0 1008 78 10000 2 280 22:43 29.09.2019
1086 Clear 0 1008 78 10000 2 280 22:23 29.09.2019
1087 Clear 1 1008 100 10000 2 280 21:58 29.09.2019
1088 Clear 1 1008 100 10000 2 250 21:38 29.09.2019
1089 Clear 1 1008 100 10000 2 250 21:19 29.09.2019
1090 Clear 1 1008 100 10000 2 290 20:58 29.09.2019
1091 Clear 1 1008 100 10000 2 290 20:40 29.09.2019
1092 Clear 1 1008 100 10000 2 290 20:19 29.09.2019
1093 Clear 1 1008 100 10000 2 320 19:55 29.09.2019
1094 Clear 1 1008 100 10000 3 290 19:36 29.09.2019
1095 Clear 1 1008 100 10000 3 290 19:36 29.09.2019
1096 Clear 2 1007 100 10000 2 280 19:18 29.09.2019
1097 Clear 2 1007 100 10000 2 280 18:54 29.09.2019
1098 Clear 2 1007 100 10000 2 280 18:36 29.09.2019
1099 Clear 2 1007 100 10000 2 280 18:18 29.09.2019
1100 Clear 2 1007 100 10000 2 330 17:54 29.09.2019
1101 Clear 2 1007 100 10000 2 330 17:54 29.09.2019
1102 Clouds 2 1007 100 10000 3 320 17:36 29.09.2019
1103 Clouds 2 1007 100 10000 3 320 17:18 29.09.2019
1104 Clouds 2 1007 100 10000 2 320 16:41 29.09.2019
1105 Clouds 2 1007 100 10000 2 320 16:20 29.09.2019
1106 Clouds 2 1006 100 10000 2 330 15:58 29.09.2019
1107 Clouds 3 1006 100 10000 2 310 15:37 29.09.2019
1108 Clouds 3 1006 100 10000 2 310 15:18 29.09.2019
1109 Clouds 3 1006 100 10000 2 310 15:18 29.09.2019
1110 Clouds 3 1006 100 10000 2 300 14:57 29.09.2019
1111 Clouds 3 1006 100 10000 3 300 14:37 29.09.2019
1112 Clouds 3 1006 100 10000 3 300 14:19 29.09.2019
1113 Clouds 3 1005 100 10000 3 300 13:55 29.09.2019
1114 Clouds 3 1005 100 10000 3 300 13:36 29.09.2019
1115 Clouds 3 1005 100 10000 3 300 13:18 29.09.2019
1116 Clouds 3 1005 100 10000 4 300 12:55 29.09.2019
1117 Clouds 3 1005 100 10000 4 300 12:55 29.09.2019
1118 Clouds 3 1005 100 10000 5 290 12:37 29.09.2019
1119 Clouds 3 1005 100 10000 5 290 12:18 29.09.2019
1120 Clouds 3 1004 100 10000 1 0 11:41 29.09.2019
1121 Clouds 3 1004 100 10000 1 0 11:19 29.09.2019
1122 Clouds 3 1004 100 10000 1 240 10:58 29.09.2019
1123 Clouds 3 1004 100 10000 1 240 10:58 29.09.2019
1124 Snow 2 1004 100 7000 2 280 10:38 29.09.2019
1125 Snow 2 1004 100 7000 2 280 10:20 29.09.2019
1126 Clouds 3 1004 86 10000 3 10 09:56 29.09.2019
1127 Clouds 3 1004 86 10000 3 10 09:56 29.09.2019
1128 Clouds 4 1004 80 10000 2 50 09:38 29.09.2019
1129 Clouds 4 1004 80 10000 2 50 09:18 29.09.2019
1130 Clouds 3 1004 93 10000 1 0 08:42 29.09.2019
1131 Clouds 3 1004 93 10000 1 0 08:21 29.09.2019
1132 Clouds 2 1003 100 10000 1 0 07:43 29.09.2019
1133 Clouds 2 1003 100 10000 1 0 07:25 29.09.2019
1134 Clouds 2 1003 100 10000 1.67 45.655 06:49 29.09.2019
1135 Clouds 2 1003 100 10000 2 100 05:58 29.09.2019
1136 Fog 1 1003 100 2400 2 50 04:45 29.09.2019
1137 Mist 1 1003 100 1300 1 350 04:23 29.09.2019
1138 Clouds 1 1003 100 10000 2 290 02:58 29.09.2019
1139 Clouds 1 1003 100 10000 2 300 02:19 29.09.2019
1140 Clouds 1 1002 100 10000 3 270 01:40 29.09.2019
1141 Snow 1 1002 100 6000 2 280 00:55 29.09.2019
1142 Mist 1 1002 100 8000 2 320 00:36 29.09.2019
1143 Mist 1 1002 100 8000 2 320 00:18 29.09.2019
1144 Snow 1 1002 100 6000 0.72 218.498 23:37 28.09.2019
1145 Snow 1 1002 100 6000 0.72 218.498 23:19 28.09.2019
1146 Mist 1 1002 100 3200 1 0 22:40 28.09.2019
1147 Mist 1 1002 100 3200 1 0 22:21 28.09.2019
1148 Clouds 1 1002 100 6000 0.72 218.498 21:57 28.09.2019
1149 Clouds 1 1002 100 6000 0.72 218.498 21:39 28.09.2019
1150 Clouds 1 1002 100 6000 1.91 179.489 21:21 28.09.2019
1151 Clouds 1 1002 100 7000 1.91 179.489 20:57 28.09.2019
1152 Clouds 1 1002 100 8000 0.62 76.77 20:38 28.09.2019
1153 Clouds 1 1002 100 8000 0.62 76.77 20:19 28.09.2019
1154 Clouds 1 1002 100 6000 0.62 76.77 19:56 28.09.2019
1155 Mist 1 1002 100 5000 1 30 19:38 28.09.2019
1156 Mist 1 1002 100 5000 1 30 19:19 28.09.2019
1157 Clouds 1 1002 100 7000 2 280 18:54 28.09.2019
1158 Clouds 2 1003 100 7000 2 250 18:36 28.09.2019
1159 Clouds 2 1003 100 7000 2 250 18:18 28.09.2019
1160 Clouds 2 1003 100 9000 2 240 17:54 28.09.2019
1161 Mist 2 1003 100 4900 2 260 17:36 28.09.2019
1162 Mist 2 1003 100 4900 2 260 17:18 28.09.2019
1163 Clouds 2 1003 100 9000 1 0 16:41 28.09.2019
1164 Clouds 2 1003 100 9000 1 0 16:22 28.09.2019
1165 Clouds 1 1003 100 10000 1 0 15:41 28.09.2019
1166 Clouds 1 1003 100 10000 1 0 15:23 28.09.2019
1167 Snow 1 1002 100 3800 2 270 14:56 28.09.2019
1168 Snow 2 1002 100 6000 3 230 14:38 28.09.2019
1169 Snow 2 1002 100 6000 3 230 14:19 28.09.2019
1170 Clouds 3 1002 93 10000 3 120 13:56 28.09.2019
1171 Clouds 4 1002 86 10000 3 120 13:37 28.09.2019
1172 Clouds 4 1002 86 10000 3 120 13:19 28.09.2019
1173 Clouds 5 1001 75 10000 2 280 12:40 28.09.2019
1174 Clouds 5 1001 80 10000 3 290 12:19 28.09.2019
1175 Clouds 5 1001 80 10000 3 290 11:54 28.09.2019
1176 Clouds 4 1001 86 10000 4 220 11:36 28.09.2019
1177 Clouds 4 1001 86 10000 4 220 11:18 28.09.2019
1178 Clouds 4 1001 80 10000 1 0 10:40 28.09.2019
1179 Clouds 4 1001 80 10000 1 0 10:20 28.09.2019
1180 Clouds 4 1001 66 10000 2 220 09:42 28.09.2019
1181 Clouds 4 1001 73 10000 2 220 09:23 28.09.2019
1182 Clouds 4 1001 73 10000 2 210 08:58 28.09.2019
1183 Clouds 3 1001 79 10000 2 250 08:40 28.09.2019
1184 Clouds 3 1001 79 10000 2 250 08:22 28.09.2019
1185 Clouds 3 1001 86 10000 1 0 07:44 28.09.2019
1186 Clouds 2 1001 93 10000 2.14 277.926 07:21 28.09.2019
1187 Clouds 2 1001 93 10000 2.14 277.926 06:53 28.09.2019
1188 Clouds 2 1001 93 10000 1 0 06:31 28.09.2019
1189 Fog 1 1001 100 700 2 260 05:43 28.09.2019
1190 Fog 1 1001 100 700 2 260 05:20 28.09.2019
1191 Clouds 1 1001 100 8000 2.82 245.378 04:38 28.09.2019
1192 Clouds 2 1002 100 10000 1 0 03:55 28.09.2019
1193 Clouds 2 1002 100 10000 2 240 03:21 28.09.2019
1194 Clouds 2 1002 100 10000 2.5 203.884 02:45 28.09.2019
1195 Clouds 2 1002 100 10000 1 0 02:27 28.09.2019
1196 Clouds 2 1002 100 9000 2 210 01:48 28.09.2019
1197 Clouds 2 1002 100 10000 1 0 01:26 28.09.2019
1198 Clouds 1 1002 100 10000 2.51 218.553 00:52 28.09.2019
1199 Clouds 1 1002 100 10000 2.51 218.553 00:31 28.09.2019
1200 Clear 1 1002 100 10000 1 0 23:58 27.09.2019
1201 Clear 1 1002 100 10000 1 0 23:36 27.09.2019
1202 Clear 1 1002 100 10000 1 0 23:18 27.09.2019
1203 Clear 1 1003 100 10000 3 190 22:44 27.09.2019
1204 Clear 1 1003 100 10000 3 190 22:19 27.09.2019
1205 Clear 2 1003 100 10000 2 190 21:56 27.09.2019
1206 Clouds 2 1003 100 10000 2 200 21:37 27.09.2019
1207 Clouds 2 1003 100 10000 2 200 21:19 27.09.2019
1208 Clouds 3 1003 100 10000 4 190 20:55 27.09.2019
1209 Clouds 2 1003 100 10000 2 170 20:37 27.09.2019
1210 Clouds 2 1003 100 10000 2 170 20:18 27.09.2019
1211 Clear 3 1004 100 10000 1 0 19:43 27.09.2019
1212 Clear 3 1004 100 10000 1 0 19:23 27.09.2019
1213 Clear 3 1004 100 10000 2 160 18:58 27.09.2019
1214 Clear 3 1004 100 10000 3 140 18:39 27.09.2019
1215 Clear 3 1004 100 10000 3 140 18:20 27.09.2019
1216 Clear 3 1004 100 10000 3 140 18:20 27.09.2019
1217 Clear 3 1004 93 10000 4 150 17:54 27.09.2019
1218 Clear 4 1004 86 10000 3 150 17:36 27.09.2019
1219 Clear 4 1004 86 10000 3 150 17:18 27.09.2019
1220 Clear 4 1004 86 10000 3 150 16:54 27.09.2019
1221 Clear 4 1004 80 10000 3 150 16:36 27.09.2019
1222 Clear 4 1004 80 10000 3 150 16:18 27.09.2019
1223 Clouds 4 1005 92 10000 3 190 15:42 27.09.2019
1224 Clouds 4 1005 85 10000 3 190 15:20 27.09.2019
1225 Clouds 5 1005 75 10000 4 190 14:56 27.09.2019
1226 Clouds 5 1005 75 10000 4 190 14:38 27.09.2019
1227 Clouds 5 1005 75 10000 4 190 14:38 27.09.2019
1228 Clouds 5 1005 75 10000 4 190 14:18 27.09.2019
1229 Clouds 6 1005 85 10000 3 200 13:56 27.09.2019
1230 Clouds 6 1005 85 10000 3 190 13:38 27.09.2019
1231 Clouds 6 1005 86 10000 3 190 13:18 27.09.2019
1232 Clouds 6 1005 86 10000 5 200 12:43 27.09.2019
1233 Clouds 6 1005 76 10000 5 200 12:21 27.09.2019
1234 Clouds 6 1005 76 10000 4 190 11:40 27.09.2019
1235 Clouds 6 1005 76 10000 4 190 11:22 27.09.2019
1236 Clouds 6 1005 76 10000 5 190 10:59 27.09.2019
1237 Clouds 6 1005 70 10000 4 180 10:40 27.09.2019
1238 Clouds 6 1005 70 10000 4 180 10:21 27.09.2019
1239 Clouds 5 1006 75 10000 5 180 09:44 27.09.2019
1240 Clouds 5 1006 75 10000 5 180 09:23 27.09.2019
1241 Clouds 5 1006 75 10000 5 190 08:58 27.09.2019
1242 Clouds 4 1006 80 10000 5 190 08:40 27.09.2019
1243 Clouds 4 1006 80 10000 5 190 08:20 27.09.2019
1244 Clouds 4 1006 80 10000 5 180 07:49 27.09.2019
1245 Clouds 4 1006 80 10000 4 190 07:24 27.09.2019
1246 Clouds 3 1006 86 10000 4 190 06:43 27.09.2019
1247 Clouds 3 1006 86 10000 4 190 06:25 27.09.2019
1248 Clouds 3 1006 86 10000 4 190 05:52 27.09.2019
1249 Clouds 2 1006 100 10000 4 190 05:33 27.09.2019
1250 Clouds 2 1007 100 10000 3 190 03:57 27.09.2019
1251 Clouds 2 1007 100 10000 3 190 03:36 27.09.2019
1252 Clouds 3 1007 93 10000 4 200 01:53 27.09.2019
1253 Clouds 3 1007 86 10000 4 200 01:28 27.09.2019
1254 Clear 3 1007 86 10000 5 210 00:30 27.09.2019
1255 Clouds 3 1007 86 10000 4 200 23:56 26.09.2019
1256 Clear 3 1007 93 10000 4 200 23:38 26.09.2019
1257 Clear 3 1007 93 10000 4 200 23:19 26.09.2019
1258 Clear 3 1007 93 10000 4 210 22:57 26.09.2019
1259 Clear 3 1007 93 10000 4 210 22:39 26.09.2019
1260 Clear 3 1007 93 10000 4 210 22:18 26.09.2019
1261 Clear 3 1007 93 10000 4 210 21:57 26.09.2019
1262 Clear 3 1007 93 10000 4 210 21:37 26.09.2019
1263 Clear 3 1007 93 10000 4 210 21:18 26.09.2019
1264 Clear 3 1007 93 10000 4 200 20:58 26.09.2019
1265 Clear 3 1007 86 10000 4 210 20:39 26.09.2019
1266 Clear 3 1007 86 10000 4 210 20:21 26.09.2019
1267 Clear 3 1007 86 10000 4 210 19:41 26.09.2019
1268 Clear 3 1007 86 10000 4 210 19:21 26.09.2019
1269 Clouds 3 1007 86 10000 5 210 18:59 26.09.2019
1270 Clear 3 1007 86 10000 5 210 18:41 26.09.2019
1271 Clear 3 1007 86 10000 5 210 18:22 26.09.2019
1272 Clear 3 1007 86 10000 4 210 17:59 26.09.2019
1273 Clear 3 1007 86 10000 5 210 17:37 26.09.2019
1274 Clear 3 1007 86 10000 5 210 17:18 26.09.2019
1275 Clear 3 1007 86 10000 5 200 16:55 26.09.2019
1276 Clear 4 1007 80 10000 4 200 16:37 26.09.2019
1277 Clear 4 1007 80 10000 4 200 16:18 26.09.2019
1278 Clear 4 1007 80 10000 6 210 15:41 26.09.2019
1279 Clear 4 1007 80 10000 6 210 15:23 26.09.2019
1280 Clear 4 1007 80 10000 4 220 14:58 26.09.2019
1281 Clouds 4 1007 86 10000 5 220 14:40 26.09.2019
1282 Clouds 4 1007 86 10000 5 220 14:21 26.09.2019
1283 Rain 3 1006 93 10000 4 230 13:57 26.09.2019
1284 Clouds 6 1006 91 10000 7 230 13:39 26.09.2019
1285 Clouds 6 1006 94 10000 6 230 13:19 26.09.2019
1286 Clouds 6 1006 70 10000 7 230 12:41 26.09.2019
1287 Clouds 6 1006 70 10000 7 230 12:22 26.09.2019
1288 Clouds 5 1005 80 10000 6 220 11:55 26.09.2019
1289 Clouds 5 1005 80 10000 6 230 11:37 26.09.2019
1290 Clouds 5 1005 80 10000 6 230 11:37 26.09.2019
1291 Clouds 5 1005 80 10000 6 230 11:19 26.09.2019
1292 Rain 4 1005 86 8000 7 220 10:42 26.09.2019
1293 Rain 4 1005 86 8000 7 220 10:42 26.09.2019
1294 Rain 4 1005 86 8000 7 220 10:23 26.09.2019
1295 Rain 4 1005 86 9000 8 230 09:57 26.09.2019
1296 Rain 5 1004 75 10000 8 220 09:39 26.09.2019
1297 Rain 5 1004 75 10000 8 220 09:39 26.09.2019
1298 Rain 5 1004 75 10000 8 220 09:18 26.09.2019
1299 Clouds 4 1004 93 10000 7 230 08:47 26.09.2019
1300 Clouds 4 1004 80 10000 7 230 08:29 26.09.2019
1301 Clouds 4 1004 80 10000 7 210 07:45 26.09.2019
1302 Clouds 4 1004 80 10000 7 210 07:22 26.09.2019
1303 Clouds 3 1004 93 10000 6 210 06:50 26.09.2019
1304 Snow 3 1003 86 10000 6 210 06:28 26.09.2019
1305 Snow 2 1003 93 10000 6 200 05:52 26.09.2019
1306 Snow 2 1003 100 10000 6 210 05:26 26.09.2019
1307 Clear 3 1003 94 10000 5 210 03:27 26.09.2019
1308 Clear 2 1003 100 10000 5 210 01:56 26.09.2019
1309 Clear 2 1003 100 10000 5 210 01:38 26.09.2019
1310 Clear 2 1003 100 10000 5 210 01:19 26.09.2019
1311 Rain 2 1003 100 10000 4 210 00:41 26.09.2019
1312 Rain 2 1003 100 10000 4 210 00:21 26.09.2019
1313 Rain 3 1003 74 10000 7 230 23:43 25.09.2019
1314 Rain 3 1003 74 10000 7 230 23:19 25.09.2019
1315 Rain 4 1003 64 10000 6 240 22:54 25.09.2019
1316 Clouds 4 1003 64 10000 5 230 22:36 25.09.2019
1317 Clouds 4 1003 64 10000 5 230 22:18 25.09.2019
1318 Clear 4 1003 64 10000 5 220 21:55 25.09.2019
1319 Clear 4 1003 64 10000 5 230 21:36 25.09.2019
1320 Clear 4 1003 60 10000 5 220 21:18 25.09.2019
1321 Clear 4 1003 60 10000 5 220 20:55 25.09.2019
1322 Clear 4 1003 60 10000 5 210 20:37 25.09.2019
1323 Clear 4 1003 60 10000 5 210 20:18 25.09.2019
1324 Clear 4 1003 60 10000 5 210 19:38 25.09.2019
1325 Clear 4 1004 60 10000 4 210 19:20 25.09.2019
1326 Clear 4 1004 60 10000 4 210 18:56 25.09.2019
1327 Clear 4 1004 55 10000 5 210 18:37 25.09.2019
1328 Clear 4 1004 55 10000 5 210 18:37 25.09.2019
1329 Clear 4 1004 55 10000 5 210 18:18 25.09.2019
1330 Clear 4 1004 55 10000 5 210 18:18 25.09.2019
1331 Clear 4 1004 55 10000 4 210 17:40 25.09.2019
1332 Clear 4 1004 55 10000 4 210 17:21 25.09.2019
1333 Clear 5 1004 52 10000 4 210 16:57 25.09.2019
1334 Clear 5 1004 52 10000 4 210 16:37 25.09.2019
1335 Clear 5 1004 52 10000 4 210 16:19 25.09.2019
1336 Clear 6 1004 48 10000 5 220 15:42 25.09.2019
1337 Clear 6 1004 48 10000 5 220 15:23 25.09.2019
1338 Clear 6 1004 45 10000 5 230 14:59 25.09.2019
1339 Clear 6 1004 45 10000 5 230 14:59 25.09.2019
1340 Clear 6 1004 45 10000 6 230 14:41 25.09.2019
1341 Clear 6 1004 45 10000 6 230 14:22 25.09.2019
1342 Clear 6 1004 45 10000 6 220 13:56 25.09.2019
1343 Clear 6 1004 45 10000 6 230 13:38 25.09.2019
1344 Clear 6 1004 45 10000 6 230 13:19 25.09.2019
1345 Clear 7 1004 39 10000 8 220 12:42 25.09.2019
1346 Clear 7 1004 39 10000 8 220 12:24 25.09.2019
1347 Clear 6 1004 41 10000 8 220 11:59 25.09.2019
1348 Clear 6 1004 41 10000 8 220 11:59 25.09.2019
1349 Clear 6 1004 41 10000 7 230 11:40 25.09.2019
1350 Clear 6 1004 41 10000 7 230 11:40 25.09.2019
1351 Clear 6 1004 41 10000 7 230 11:19 25.09.2019
1352 Clear 6 1004 41 10000 7 230 11:19 25.09.2019
1353 Clear 6 1004 38 10000 10 230 10:45 25.09.2019
1354 Clear 6 1004 38 10000 10 230 10:26 25.09.2019
1355 Clear 6 1004 41 10000 9 230 09:58 25.09.2019
1356 Clear 5 1004 41 10000 8 240 09:38 25.09.2019
1357 Clear 5 1004 41 10000 8 240 09:20 25.09.2019
1358 Clear 6 1004 41 10000 7 230 08:45 25.09.2019
1359 Clear 6 1004 48 10000 7 230 08:21 25.09.2019
1360 Clear 5 1004 52 10000 7 230 07:59 25.09.2019
1361 Clear 5 1004 60 10000 8 230 07:39 25.09.2019
1362 Clear 4 1003 64 10000 7 230 07:21 25.09.2019
1363 Clear 4 1003 69 10000 6 230 06:45 25.09.2019
1364 Clear 4 1003 69 10000 6 230 06:22 25.09.2019
1365 Clear 3 1003 80 10000 6 230 05:35 25.09.2019
1366 Clear 3 1003 80 10000 6 220 04:55 25.09.2019
1367 Clear 3 1002 87 10000 5 230 02:31 25.09.2019
1368 Clear 4 1001 80 10000 5 230 00:46 25.09.2019
1369 Clear 4 1001 80 10000 5 230 00:27 25.09.2019
1370 Clear 4 1001 80 10000 6 230 23:59 24.09.2019
1371 Clear 4 1001 80 10000 6 230 23:40 24.09.2019
1372 Clear 4 1001 80 10000 6 230 23:21 24.09.2019
1373 Clear 4 1001 89 10000 6 230 22:39 24.09.2019
1374 Clear 4 1001 89 10000 6 230 22:21 24.09.2019
1375 Clear 4 1001 80 10000 6 230 21:58 24.09.2019
1376 Clear 4 1001 80 10000 6 230 21:58 24.09.2019
1377 Clear 4 1001 80 10000 5 230 21:38 24.09.2019
1378 Clear 4 1001 80 10000 5 230 21:19 24.09.2019
1379 Clear 4 1001 86 10000 5 230 20:58 24.09.2019
1380 Clear 4 1001 80 10000 5 230 20:40 24.09.2019
1381 Clear 4 1001 80 10000 5 230 20:22 24.09.2019
1382 Clear 5 1001 75 10000 5 230 19:59 24.09.2019
1383 Clouds 5 1001 75 10000 5 230 19:41 24.09.2019
1384 Clouds 5 1000 75 10000 4 240 19:18 24.09.2019
1385 Clouds 5 1000 75 10000 4 240 18:55 24.09.2019
1386 Clouds 5 1000 75 10000 4 240 18:55 24.09.2019
1387 Rain 5 1000 75 10000 4 240 18:36 24.09.2019
1388 Clouds 5 1000 80 10000 8 280 18:18 24.09.2019
1389 Clouds 5 1000 80 10000 8 280 17:54 24.09.2019
1390 Clear 6 1000 86 10000 5 230 17:36 24.09.2019
1391 Clear 6 1000 86 10000 5 230 17:18 24.09.2019
1392 Clear 7 999 86 10000 7 250 16:41 24.09.2019
1393 Clear 7 999 86 10000 7 250 16:20 24.09.2019
1394 Clear 7 999 86 10000 6 240 15:57 24.09.2019
1395 Clear 7 999 56 10000 5 240 15:37 24.09.2019
1396 Clear 7 999 56 10000 5 240 15:19 24.09.2019
1397 Clear 7 997 56 10000 7 240 14:37 24.09.2019
1398 Clear 7 997 56 10000 7 240 14:18 24.09.2019
1399 Clear 7 997 56 10000 7 240 14:18 24.09.2019
1400 Clear 8 996 49 10000 8 250 13:41 24.09.2019
1401 Clouds 8 996 52 10000 8 250 13:21 24.09.2019
1402 Clear 8 996 49 10000 8 250 13:21 24.09.2019
1403 Clouds 8 996 52 10000 9 250 12:42 24.09.2019
1404 Clouds 7 995 56 10000 8 260 12:21 24.09.2019
1405 Clouds 7 995 56 10000 8 260 11:57 24.09.2019
1406 Clouds 8 994 65 10000 7 260 11:39 24.09.2019
1407 Clouds 8 994 65 10000 7 260 11:21 24.09.2019
1408 Clouds 6 993 65 10000 7 260 10:40 24.09.2019
1409 Clouds 6 993 65 10000 7 260 10:21 24.09.2019
1410 Clouds 6 993 65 10000 8 280 09:57 24.09.2019
1411 Clouds 6 992 65 10000 9 280 09:39 24.09.2019
1412 Clouds 6 992 75 10000 9 280 09:19 24.09.2019
1413 Clouds 6 991 70 10000 10 280 08:55 24.09.2019
1414 Clouds 4 991 80 10000 8 270 08:37 24.09.2019
1415 Clouds 4 991 80 10000 8 270 08:18 24.09.2019
1416 Clear 2 989 93 10000 6 290 07:42 24.09.2019
1417 Clear 2 989 93 10000 6 290 07:42 24.09.2019
1418 Clear 2 989 93 10000 6 290 07:23 24.09.2019
1419 Clouds 2 988 100 10000 7 300 06:47 24.09.2019
1420 Clouds 2 988 100 10000 7 300 06:27 24.09.2019
1421 Clouds 2 986 100 10000 4 290 05:26 24.09.2019
1422 Clouds 2 986 100 10000 4 280 04:58 24.09.2019
1423 Rain 2 985 100 10000 4 350 03:42 24.09.2019
1424 Rain 2 985 100 10000 4 360 02:45 24.09.2019
1425 Clouds 3 986 100 10000 3 40 01:44 24.09.2019
1426 Rain 2 987 100 10000 3 50 00:42 24.09.2019
1427 Rain 2 987 100 10000 3 50 00:23 24.09.2019
1428 Rain 2 989 100 10000 3 90 23:43 23.09.2019
1429 Rain 2 989 100 10000 3 90 23:24 23.09.2019
1430 Rain 3 990 86 10000 2 120 22:57 23.09.2019
1431 Clear 3 990 94 10000 3 110 22:38 23.09.2019
1432 Clear 3 990 94 10000 3 110 22:20 23.09.2019
1433 Clear 4 991 94 10000 3 110 21:56 23.09.2019
1434 Clear 4 992 94 10000 2 150 21:37 23.09.2019
1435 Clear 4 992 84 10000 2 150 21:18 23.09.2019
1436 Clear 4 993 69 10000 2 160 20:41 23.09.2019
1437 Clear 4 993 69 10000 2 160 20:20 23.09.2019
1438 Clouds 4 994 69 10000 4 190 19:56 23.09.2019
1439 Clear 4 994 69 10000 4 190 19:38 23.09.2019
1440 Clear 4 994 69 10000 4 190 19:20 23.09.2019
1441 Clear 5 995 65 10000 4 190 18:42 23.09.2019
1442 Clear 5 995 65 10000 4 190 18:21 23.09.2019
1443 Clear 5 996 65 10000 4 200 17:59 23.09.2019
1444 Clear 6 996 56 10000 6 220 17:39 23.09.2019
1445 Clear 6 996 56 10000 6 220 17:21 23.09.2019
1446 Clear 6 996 56 10000 6 210 16:58 23.09.2019
1447 Clear 6 996 56 10000 6 210 16:37 23.09.2019
1448 Clear 6 996 56 10000 6 210 16:19 23.09.2019
1449 Clear 6 996 56 10000 6 210 15:57 23.09.2019
1450 Clear 6 996 56 10000 6 220 15:39 23.09.2019
1451 Clear 6 996 56 10000 6 220 15:19 23.09.2019
1452 Clear 6 995 52 10000 10 220 14:40 23.09.2019
1453 Clear 6 995 52 10000 10 220 14:21 23.09.2019
1454 Clear 6 994 52 10000 9 230 13:59 23.09.2019
1455 Clouds 6 994 52 10000 10 240 13:39 23.09.2019
1456 Clouds 6 994 52 10000 10 230 13:18 23.09.2019
1457 Clouds 6 994 52 10000 10 230 12:56 23.09.2019
1458 Clouds 6 993 52 10000 11 240 12:37 23.09.2019
1459 Clouds 7 992 48 10000 12 230 12:19 23.09.2019
1460 Clouds 6 992 56 10000 11 230 11:44 23.09.2019
1461 Clouds 6 992 56 10000 11 230 11:26 23.09.2019
1462 Clouds 6 992 75 10000 11 230 10:55 23.09.2019
1463 Clouds 6 991 75 10000 11 230 10:37 23.09.2019
1464 Clouds 6 991 75 10000 11 230 10:19 23.09.2019
1465 Clouds 5 990 80 10000 10 230 09:40 23.09.2019
1466 Clouds 5 990 80 10000 10 230 09:21 23.09.2019
1467 Rain 5 990 86 10000 10 230 08:51 23.09.2019
1468 Clouds 5 989 86 10000 9 230 08:33 23.09.2019
1469 Clouds 5 989 86 10000 10 230 07:59 23.09.2019
1470 Rain 5 988 93 10000 10 220 07:33 23.09.2019
1471 Rain 4 987 100 10000 8 230 06:50 23.09.2019
1472 Clouds 4 987 100 10000 8 230 06:18 23.09.2019
1473 Rain 4 987 100 9000 8 230 05:22 23.09.2019
1474 Clouds 4 986 100 10000 8 240 04:55 23.09.2019
1475 Rain 4 985 100 6000 8 230 03:56 23.09.2019
1476 Rain 5 983 93 10000 10 240 01:22 23.09.2019
1477 Rain 6 982 100 10000 8 230 00:23 23.09.2019
1478 Clouds 7 982 100 10000 7 230 23:57 22.09.2019
1479 Clouds 7 982 100 9000 8 240 23:33 22.09.2019
1480 Clouds 8 981 93 10000 7 230 22:59 22.09.2019
1481 Rain 9 981 100 10000 7 210 22:41 22.09.2019
1482 Rain 9 981 100 10000 7 210 22:41 22.09.2019
1483 Rain 9 981 100 10000 7 210 22:23 22.09.2019
1484 Rain 9 981 100 10000 5 200 21:59 22.09.2019
1485 Clouds 9 981 100 10000 7 200 21:39 22.09.2019
1486 Clouds 9 981 100 10000 7 200 21:19 22.09.2019
1487 Clouds 10 981 100 10000 5 200 20:42 22.09.2019
1488 Clouds 10 981 100 10000 5 200 20:24 22.09.2019
1489 Rain 10 982 100 5000 6 190 19:56 22.09.2019
1490 Rain 9 982 100 3400 5 170 19:38 22.09.2019
1491 Rain 9 982 100 5000 5 160 19:19 22.09.2019
1492 Rain 9 982 100 5000 5 160 18:56 22.09.2019
1493 Rain 9 982 100 8000 5 150 18:36 22.09.2019
1494 Rain 9 982 100 8000 5 150 18:36 22.09.2019
1495 Rain 8 983 100 8000 6 150 18:18 22.09.2019
1496 Rain 8 983 100 8000 6 140 17:42 22.09.2019
1497 Rain 8 983 100 8000 6 140 17:24 22.09.2019
1498 Rain 8 983 100 9000 8 140 16:46 22.09.2019
1499 Rain 8 984 100 9000 9 130 16:27 22.09.2019
1500 Rain 7 986 100 9000 8 130 15:58 22.09.2019
1501 Rain 7 987 100 9000 7 130 15:40 22.09.2019
1502 Rain 7 987 100 9000 7 130 15:22 22.09.2019
1503 Rain 7 988 100 9000 8 130 14:46 22.09.2019
1504 Rain 7 990 100 8000 8 130 14:26 22.09.2019
1505 Rain 6 990 100 9000 9 120 13:59 22.09.2019
1506 Rain 6 990 100 9000 9 120 13:59 22.09.2019
1507 Rain 6 991 100 9000 10 120 13:41 22.09.2019
1508 Rain 6 991 100 9000 10 120 13:22 22.09.2019
1509 Rain 6 992 100 9000 10 110 12:56 22.09.2019
1510 Rain 6 992 100 9000 10 110 12:56 22.09.2019
1511 Rain 6 993 100 9000 11 110 12:37 22.09.2019
1512 Rain 6 995 100 8000 10 110 12:18 22.09.2019
1513 Rain 6 996 100 9000 11 100 11:42 22.09.2019
1514 Rain 6 996 100 9000 11 100 11:24 22.09.2019
1515 Rain 5 998 100 10000 9 110 10:55 22.09.2019
1516 Rain 5 999 100 10000 9 120 10:37 22.09.2019
1517 Rain 5 999 100 10000 9 120 10:18 22.09.2019
1518 Rain 5 1001 100 10000 8 120 09:42 22.09.2019
1519 Rain 5 1001 100 10000 8 120 09:21 22.09.2019
1520 Rain 5 1003 100 10000 7 120 08:48 22.09.2019
1521 Rain 5 1004 100 10000 5 120 08:26 22.09.2019
1522 Rain 5 1005 100 10000 6 130 07:57 22.09.2019
1523 Rain 4 1006 100 10000 5 130 07:39 22.09.2019
1524 Rain 4 1006 100 10000 5 120 07:19 22.09.2019
1525 Rain 4 1006 100 10000 5 120 06:55 22.09.2019
1526 Clouds 3 1008 86 10000 4 120 05:36 22.09.2019
1527 Clear 1 1010 100 10000 5 110 03:49 22.09.2019
1528 Clear 1 1012 100 10000 4 110 02:38 22.09.2019
1529 Clear 1 1012 100 10000 4 110 02:20 22.09.2019
1530 Clear 0 1013 85 10000 4 100 01:23 22.09.2019
1531 Clear 0 1014 85 10000 2 120 00:33 22.09.2019
1532 Clear 0 1013 84 10000 3 110 23:59 21.09.2019
1533 Clear 0 1014 84 10000 2 100 23:40 21.09.2019
1534 Clear 0 1014 84 10000 2 100 23:20 21.09.2019
1535 Clear -1 1014 100 10000 1 110 22:39 21.09.2019
1536 Clear -1 1014 100 10000 1 110 22:21 21.09.2019
1537 Clear -1 1014 100 10000 1 110 22:21 21.09.2019
1538 Clear 1 1014 100 10000 4.21 165.347 21:55 21.09.2019
1539 Clear 1 1014 100 10000 4.21 165.347 21:55 21.09.2019
1540 Clear 1 1014 100 10000 1 0 21:36 21.09.2019
1541 Clear 1 1014 100 10000 1 0 21:18 21.09.2019
1542 Clear 1 1015 100 10000 1 180 20:39 21.09.2019
1543 Clear 1 1015 100 10000 1 180 20:39 21.09.2019
1544 Clear 1 1015 100 10000 1 180 20:39 21.09.2019
1545 Clear 1 1015 100 10000 1 180 20:21 21.09.2019
1546 Clear 1 1015 100 10000 1 0 19:47 21.09.2019
1547 Clear 1 1015 100 10000 1 0 19:24 21.09.2019
1548 Clear 1 1015 100 10000 3.99 200.344 18:55 21.09.2019
1549 Mist 2 1015 93 9000 1 0 18:37 21.09.2019
1550 Mist 2 1015 93 9000 1 0 18:37 21.09.2019
1551 Mist 3 1015 86 9000 2 200 18:18 21.09.2019
1552 Clouds 4 1015 86 8000 2 200 17:40 21.09.2019
1553 Clouds 4 1015 86 8000 2 200 17:21 21.09.2019
1554 Clear 4 1014 86 10000 1 0 16:44 21.09.2019
1555 Clear 4 1014 86 10000 1 0 16:24 21.09.2019
1556 Clear 6 1014 70 10000 2 240 15:56 21.09.2019
1557 Clear 6 1014 70 10000 2 240 15:38 21.09.2019
1558 Clear 6 1014 70 10000 2 240 15:19 21.09.2019
1559 Clear 8 1014 66 10000 6 250 14:43 21.09.2019
1560 Clear 8 1014 66 10000 6 250 14:43 21.09.2019
1561 Clear 8 1014 66 10000 6 250 14:24 21.09.2019
1562 Clouds 7 1014 66 10000 7 260 13:42 21.09.2019
1563 Clouds 7 1014 65 10000 7 260 13:23 21.09.2019
1564 Clouds 8 1014 61 10000 6 250 12:57 21.09.2019
1565 Clear 8 1013 65 10000 7 250 12:38 21.09.2019
1566 Clouds 8 1013 68 10000 7 260 12:20 21.09.2019
1567 Clouds 8 1013 68 10000 7 260 11:50 21.09.2019
1568 Clouds 8 1013 61 10000 7 280 11:25 21.09.2019
1569 Clouds 9 1012 61 10000 8 270 10:56 21.09.2019
1570 Clouds 8 1012 61 10000 8 250 10:37 21.09.2019
1571 Clouds 8 1012 61 10000 8 250 10:19 21.09.2019
1572 Clouds 6 1011 68 10000 9 270 09:40 21.09.2019
1573 Clouds 6 1011 79 10000 9 270 09:21 21.09.2019
1574 Clouds 6 1011 70 10000 9 260 08:59 21.09.2019
1575 Clouds 6 1011 81 10000 8 260 08:40 21.09.2019
1576 Rain 5 1010 100 10000 6 250 07:55 21.09.2019
1577 Rain 5 1010 100 10000 6 250 07:55 21.09.2019
1578 Rain 5 1010 100 10000 6 250 07:55 21.09.2019
1579 Clouds 6 1010 100 10000 7 270 07:37 21.09.2019
1580 Clouds 5 1009 100 10000 7 270 07:18 21.09.2019
1581 Clouds 5 1009 100 10000 8 270 06:35 21.09.2019
1582 Rain 5 1008 100 9000 7 260 05:51 21.09.2019
1583 Rain 5 1007 100 6000 6 250 04:39 21.09.2019
1584 Rain 5 1007 100 6000 6 250 04:39 21.09.2019
1585 Rain 5 1006 100 9000 7 250 03:25 21.09.2019
1586 Rain 5 1005 100 8000 6 250 02:23 21.09.2019
1587 Rain 5 1004 100 9000 7 260 01:47 21.09.2019
1588 Rain 5 1004 100 9000 7 260 01:21 21.09.2019
1589 Rain 6 1004 100 8000 7 250 00:23 21.09.2019
1590 Rain 6 1003 100 5000 6 250 23:48 20.09.2019
1591 Rain 6 1003 100 5000 6 250 23:48 20.09.2019
1592 Rain 6 1003 100 6000 6 250 23:30 20.09.2019
1593 Rain 6 1003 100 9000 7 250 22:46 20.09.2019
1594 Rain 6 1002 100 10000 6 250 22:26 20.09.2019
1595 Rain 6 1002 100 10000 7 250 21:57 20.09.2019
1596 Rain 6 1001 100 5000 8 250 21:39 20.09.2019
1597 Rain 6 1001 100 5000 8 250 21:21 20.09.2019
1598 Rain 6 1001 100 5000 8 250 21:21 20.09.2019
1599 Rain 6 1001 100 10000 7 250 20:59 20.09.2019
1600 Rain 6 1001 100 10000 7 250 20:59 20.09.2019
1601 Rain 7 1001 100 8000 7 250 20:41 20.09.2019
1602 Rain 7 1001 100 8000 7 250 20:20 20.09.2019
1603 Rain 7 1000 100 9000 6 260 19:56 20.09.2019
1604 Clouds 7 1000 100 10000 7 250 19:36 20.09.2019
1605 Clouds 7 999 100 10000 7 250 19:18 20.09.2019
1606 Rain 7 999 100 9000 7 250 18:39 20.09.2019
1607 Rain 7 999 100 10000 8 250 18:20 20.09.2019
1608 Rain 8 998 100 10000 7 250 17:47 20.09.2019
1609 Rain 8 998 100 10000 7 250 17:27 20.09.2019
1610 Rain 8 997 100 10000 8 250 16:59 20.09.2019
1611 Rain 8 997 100 10000 9 250 16:37 20.09.2019
1612 Rain 8 997 100 10000 9 250 16:19 20.09.2019
1613 Clouds 8 995 100 10000 7 260 15:42 20.09.2019
1614 Clouds 8 995 100 10000 7 260 15:23 20.09.2019
1615 Rain 8 994 100 10000 8 250 14:55 20.09.2019
1616 Rain 8 994 100 10000 8 250 14:36 20.09.2019
1617 Rain 8 994 100 10000 8 250 14:36 20.09.2019
1618 Rain 8 994 83 0 9.2 283.19 14:18 20.09.2019
1619 Rain 8 994 83 0 9.2 283.19 14:18 20.09.2019
1620 Clouds 10 991 87 10000 10 280 13:41 20.09.2019
1621 Clouds 10 991 87 10000 10 280 13:22 20.09.2019
1622 Rain 9 990 100 10000 10 280 12:42 20.09.2019
1623 Rain 9 990 100 10000 10 280 12:23 20.09.2019
1624 Rain 9 989 100 10000 10 280 11:52 20.09.2019
1625 Rain 9 988 93 10000 11 290 11:27 20.09.2019
1626 Rain 9 987 100 10000 11 290 10:59 20.09.2019
1627 Rain 9 985 100 9000 11 280 10:41 20.09.2019
1628 Rain 9 985 100 9000 11 280 10:22 20.09.2019
1629 Rain 8 983 100 10000 13 290 09:38 20.09.2019
1630 Rain 8 983 100 10000 13 290 09:19 20.09.2019
1631 Rain 8 981 100 8000 11 290 08:48 20.09.2019
1632 Rain 7 980 100 4800 10 290 08:28 20.09.2019
1633 Rain 6 978 100 8000 9 290 07:59 20.09.2019
1634 Rain 6 977 100 6000 12 290 07:40 20.09.2019
1635 Rain 6 977 100 6000 12 290 07:40 20.09.2019
1636 Rain 6 975 100 10000 13 270 07:20 20.09.2019
1637 Rain 7 974 100 7000 9 240 06:42 20.09.2019
1638 Rain 7 974 100 10000 10 220 06:18 20.09.2019
1639 Clouds 8 976 93 10000 7 200 04:31 20.09.2019
1640 Clouds 8 976 93 10000 8 200 03:27 20.09.2019
1641 Clouds 9 977 93 10000 7 200 02:18 20.09.2019
1642 Clouds 10 977 93 10000 8 200 01:39 20.09.2019
1643 Clouds 11 977 100 10000 6 160 00:42 20.09.2019
1644 Rain 10 978 100 10000 8 90 23:50 19.09.2019
1645 Rain 10 978 100 10000 8 90 23:29 19.09.2019
1646 Rain 10 980 100 7000 7 80 22:59 19.09.2019
1647 Rain 10 983 100 8000 7 100 22:40 19.09.2019
1648 Rain 10 983 100 8000 7 100 22:22 19.09.2019
1649 Rain 10 984 100 8000 5 100 21:57 19.09.2019
1650 Rain 10 985 100 8000 6 80 21:39 19.09.2019
1651 Rain 10 985 100 8000 6 80 21:39 19.09.2019
1652 Rain 10 985 100 8000 6 80 21:19 19.09.2019
1653 Rain 10 985 100 8000 6 80 21:19 19.09.2019
1654 Rain 10 986 100 6000 5 80 20:57 19.09.2019
1655 Rain 10 986 100 6000 5 80 20:57 19.09.2019
1656 Rain 10 988 100 9000 5 100 20:38 19.09.2019
1657 Rain 10 988 100 9000 5 100 20:19 19.09.2019
1658 Rain 11 990 100 10000 5 120 19:40 19.09.2019
1659 Rain 11 992 100 10000 4 100 19:22 19.09.2019
1660 Rain 11 992 100 10000 4 100 18:59 19.09.2019
1661 Rain 11 993 100 10000 3 100 18:41 19.09.2019
1662 Clouds 11 994 100 10000 4 120 18:21 19.09.2019
1663 Clouds 11 995 100 10000 2 110 17:43 19.09.2019
1664 Clouds 11 995 100 10000 2 110 17:24 19.09.2019
1665 Clouds 11 995 100 10000 2 110 16:59 19.09.2019
1666 Clouds 11 996 100 10000 2 130 16:40 19.09.2019
1667 Clouds 11 996 100 10000 2 130 16:20 19.09.2019
1668 Clouds 11 997 87 10000 1 0 15:40 19.09.2019
1669 Clouds 11 997 87 10000 1 0 15:21 19.09.2019
1670 Clouds 11 997 81 10000 2 60 14:58 19.09.2019
1671 Clouds 12 997 66 10000 3 260 14:38 19.09.2019
1672 Clouds 12 997 66 10000 3 260 14:20 19.09.2019
1673 Clouds 13 997 76 10000 4 200 13:40 19.09.2019
1674 Clouds 13 997 76 10000 4 200 13:40 19.09.2019
1675 Clouds 13 997 76 10000 4 200 13:40 19.09.2019
1676 Clouds 13 997 76 10000 4 200 13:21 19.09.2019
1677 Thunderstorm 13 997 82 10000 5 200 12:58 19.09.2019
1678 Clouds 12 997 87 10000 5 200 12:36 19.09.2019
1679 Clouds 13 997 87 10000 4 210 12:18 19.09.2019
1680 Clouds 13 997 82 10000 6 230 11:41 19.09.2019
1681 Clouds 13 997 82 10000 6 230 11:21 19.09.2019
1682 Clouds 12 998 93 10000 4 240 10:58 19.09.2019
1683 Clouds 12 997 100 10000 6 230 10:37 19.09.2019
1684 Clouds 12 997 100 10000 6 230 10:18 19.09.2019
1685 Clouds 11 997 100 10000 5 210 09:55 19.09.2019
1686 Clouds 11 997 100 10000 5 210 09:55 19.09.2019
1687 Clouds 11 997 100 10000 5 210 09:55 19.09.2019
1688 Clouds 11 997 100 10000 5 210 09:55 19.09.2019
1689 Clouds 11 997 100 10000 4 200 09:36 19.09.2019
1690 Clouds 11 997 100 10000 4 200 09:36 19.09.2019
1691 Clouds 11 997 100 10000 4 200 09:18 19.09.2019
1692 Rain 10 997 100 10000 4 230 08:41 19.09.2019
1693 Rain 10 997 100 10000 4 230 08:22 19.09.2019
1694 Rain 10 997 100 8000 2 210 07:43 19.09.2019
1695 Rain 10 997 100 8000 2 210 07:43 19.09.2019
1696 Rain 10 997 100 8000 2 210 07:22 19.09.2019
1697 Rain 10 997 100 9000 4 230 06:48 19.09.2019
1698 Rain 10 997 100 9000 4 230 06:28 19.09.2019
1699 Clouds 10 996 100 10000 2 210 05:52 19.09.2019
1700 Clouds 10 996 100 10000 2 210 04:58 19.09.2019
1701 Rain 9 997 100 10000 1 0 03:54 19.09.2019
1702 Clouds 10 997 100 10000 2 210 02:47 19.09.2019
1703 Clear 10 997 100 10000 2 210 01:32 19.09.2019
1704 Clear 9 998 100 10000 1 0 00:50 19.09.2019
1705 Clear 9 998 100 10000 1 0 00:50 19.09.2019
1706 Clear 9 998 100 10000 2 210 00:26 19.09.2019
1707 Clear 9 998 100 10000 2 210 00:26 19.09.2019
1708 Clear 10 998 100 10000 2 210 23:42 18.09.2019
1709 Clear 10 998 100 10000 2 210 23:22 18.09.2019
1710 Clear 10 998 100 10000 3 230 22:55 18.09.2019
1711 Clear 11 998 100 10000 3 210 22:36 18.09.2019
1712 Clear 11 998 100 10000 3 210 22:18 18.09.2019
1713 Clear 11 998 100 10000 3 190 21:54 18.09.2019
1714 Clear 11 998 100 10000 3 190 21:54 18.09.2019
1715 Clear 11 999 100 10000 3 200 21:36 18.09.2019
1716 Clear 11 999 100 10000 3 200 21:18 18.09.2019
1717 Clear 11 999 100 10000 3 200 20:55 18.09.2019
1718 Clear 11 999 100 10000 3 200 20:37 18.09.2019
1719 Clear 11 999 100 10000 3 190 20:18 18.09.2019
1720 Clear 11 999 100 10000 3 200 19:41 18.09.2019
1721 Clear 12 999 93 10000 4 190 19:20 18.09.2019
1722 Clear 12 999 93 10000 4 190 18:57 18.09.2019
1723 Clouds 12 999 93 10000 2 200 18:38 18.09.2019
1724 Clouds 12 999 93 10000 2 200 18:19 18.09.2019
1725 Clouds 10 999 100 10000 3 160 17:59 18.09.2019
1726 Clouds 9 1000 100 10000 2 130 17:40 18.09.2019
1727 Clouds 9 1000 100 10000 2 130 17:19 18.09.2019
1728 Clouds 9 1000 100 10000 3 100 16:57 18.09.2019
1729 Clouds 10 1000 100 10000 2 150 16:38 18.09.2019
1730 Clouds 10 1000 100 10000 2 150 16:20 18.09.2019
1731 Thunderstorm 10 1000 100 10000 1 0 15:56 18.09.2019
1732 Thunderstorm 10 1000 100 10000 1 0 15:56 18.09.2019
1733 Thunderstorm 10 1001 100 6000 5 270 15:38 18.09.2019
1734 Thunderstorm 10 1001 100 6000 5 270 15:19 18.09.2019
1735 Rain 12 1001 100 9000 4 200 14:57 18.09.2019
1736 Rain 12 1001 100 9000 4 190 14:39 18.09.2019
1737 Rain 12 1001 100 9000 4 190 14:21 18.09.2019
1738 Rain 12 1002 100 9000 4 190 13:54 18.09.2019
1739 Rain 13 1001 87 10000 5 170 13:36 18.09.2019
1740 Clouds 14 1001 71 10000 6 170 13:18 18.09.2019
1741 Clouds 14 1001 71 10000 5 160 12:37 18.09.2019
1742 Clear 14 1002 71 10000 6 180 12:19 18.09.2019
1743 Clouds 14 1002 71 10000 5 180 11:40 18.09.2019
1744 Clouds 14 1002 71 10000 5 180 11:20 18.09.2019
1745 Clouds 14 1002 71 10000 6 190 10:56 18.09.2019
1746 Clouds 13 1002 76 10000 5 200 10:37 18.09.2019
1747 Clouds 13 1002 76 10000 5 200 10:18 18.09.2019
1748 Clouds 12 1002 81 10000 6 200 09:42 18.09.2019
1749 Clouds 12 1002 81 10000 6 200 09:22 18.09.2019
1750 Clouds 12 1002 81 10000 6 200 09:22 18.09.2019
1751 Clouds 12 1002 81 10000 5 210 08:58 18.09.2019
1752 Clouds 11 1002 93 10000 5 210 08:39 18.09.2019
1753 Clouds 11 1002 93 10000 5 210 08:21 18.09.2019
1754 Clouds 11 1002 100 10000 5 200 07:43 18.09.2019
1755 Clouds 11 1002 100 10000 4 200 07:23 18.09.2019
1756 Clouds 10 1002 100 10000 4 200 06:46 18.09.2019
1757 Clouds 10 1002 100 10000 4 200 06:21 18.09.2019
1758 Clouds 10 1002 100 10000 4 200 06:21 18.09.2019
1759 Clouds 10 1002 100 10000 5 200 05:27 18.09.2019
1760 Clouds 9 1001 100 10000 4 220 03:40 18.09.2019
1761 Clouds 10 1001 100 10000 4 230 02:40 18.09.2019
1762 Clouds 9 1000 100 10000 4 220 01:44 18.09.2019
1763 Clouds 9 1000 100 10000 4 220 00:56 18.09.2019
1764 Clouds 9 1000 100 10000 4 230 00:32 18.09.2019
1765 Rain 9 999 100 8000 3 220 23:48 17.09.2019
1766 Rain 9 999 100 8000 3 220 23:25 17.09.2019
1767 Rain 9 999 100 8000 3 220 23:25 17.09.2019
1768 Clouds 9 999 100 10000 3 210 22:56 17.09.2019
1769 Rain 9 999 100 4100 3 220 22:38 17.09.2019
1770 Rain 9 999 100 4100 3 220 22:19 17.09.2019
1771 Rain 9 999 100 9000 3 210 21:54 17.09.2019
1772 Clouds 9 999 100 10000 2 190 21:36 17.09.2019
1773 Clouds 9 999 100 10000 2 210 21:18 17.09.2019
1774 Clouds 9 999 100 10000 2 210 20:55 17.09.2019
1775 Clouds 9 999 100 10000 2 210 20:55 17.09.2019
1776 Clouds 9 999 100 10000 3 210 20:37 17.09.2019
1777 Clouds 9 999 100 10000 3 210 20:37 17.09.2019
1778 Clouds 9 999 100 10000 3 210 20:19 17.09.2019
1779 Clouds 9 999 100 10000 3 210 20:19 17.09.2019
1780 Clouds 9 999 100 10000 2 210 19:40 17.09.2019
1781 Rain 9 999 100 10000 3 210 19:20 17.09.2019
1782 Rain 9 999 100 10000 3 210 18:59 17.09.2019
1783 Rain 9 999 100 10000 3 210 18:59 17.09.2019
1784 Clouds 10 999 100 10000 3 210 18:41 17.09.2019
1785 Clouds 10 999 100 10000 3 210 18:41 17.09.2019
1786 Clouds 10 999 100 10000 3 230 18:22 17.09.2019
1787 Clouds 10 999 93 10000 3 210 17:55 17.09.2019
1788 Clouds 10 999 93 10000 3 210 17:36 17.09.2019
1789 Clouds 10 999 93 10000 3 210 17:18 17.09.2019
1790 Clouds 10 999 93 10000 3 210 17:18 17.09.2019
1791 Clouds 11 999 93 10000 2 230 16:41 17.09.2019
1792 Clouds 11 999 93 10000 2 230 16:22 17.09.2019
1793 Clouds 11 999 93 10000 3 210 15:56 17.09.2019
1794 Clouds 11 999 93 10000 2 230 15:37 17.09.2019
1795 Clouds 11 999 93 10000 2 230 15:19 17.09.2019
1796 Clouds 11 998 87 10000 2 210 14:55 17.09.2019
1797 Clouds 12 998 76 10000 3 230 14:37 17.09.2019
1798 Clouds 12 998 76 10000 3 230 14:18 17.09.2019
1799 Clouds 12 998 76 10000 4 230 13:42 17.09.2019
1800 Clouds 12 998 76 10000 4 230 13:23 17.09.2019
1801 Clouds 12 998 71 10000 5 230 12:56 17.09.2019
1802 Clouds 12 998 81 10000 3 220 12:37 17.09.2019
1803 Clouds 12 998 76 10000 4 230 12:18 17.09.2019
1804 Clouds 11 998 76 10000 5 230 11:42 17.09.2019
1805 Clouds 11 998 76 10000 5 230 11:22 17.09.2019
1806 Clouds 12 998 76 10000 2 210 10:42 17.09.2019
1807 Clouds 12 998 76 10000 2 210 10:24 17.09.2019
1808 Clouds 12 998 81 10000 2 220 09:59 17.09.2019
1809 Clouds 11 998 87 10000 2 250 09:40 17.09.2019
1810 Clouds 11 998 87 10000 2 250 09:20 17.09.2019
1811 Clouds 10 998 100 10000 1 0 08:45 17.09.2019
1812 Clouds 10 998 100 10000 1 0 08:26 17.09.2019
1813 Clouds 10 998 100 10000 2 270 07:56 17.09.2019
1814 Clouds 10 998 100 10000 2 270 07:56 17.09.2019
1815 Clouds 10 998 100 10000 1 290 07:38 17.09.2019
1816 Clouds 10 998 100 10000 1 0 07:19 17.09.2019
1817 Clouds 9 998 100 10000 1 0 06:45 17.09.2019
1818 Rain 9 998 100 10000 2 300 06:19 17.09.2019
1819 Rain 9 998 100 10000 2 310 05:38 17.09.2019
1820 Rain 9 999 100 9000 2 310 04:27 17.09.2019
1821 Rain 9 999 100 10000 4 280 02:55 17.09.2019
1822 Rain 10 999 100 10000 3 280 02:35 17.09.2019
1823 Rain 10 999 100 10000 2 280 01:24 17.09.2019
1824 Rain 10 999 100 5000 2 320 00:32 17.09.2019
1825 Rain 10 999 100 2800 1 0 23:38 16.09.2019
1826 Rain 10 999 100 2800 1 0 23:18 16.09.2019
1827 Rain 11 1000 100 4000 1 0 22:42 16.09.2019
1828 Rain 11 1000 100 4000 1 0 22:24 16.09.2019
1829 Rain 11 1001 100 5000 2 230 21:59 16.09.2019
1830 Clouds 11 1001 100 10000 3 240 21:40 16.09.2019
1831 Clouds 11 1001 100 10000 3 240 21:21 16.09.2019
1832 Rain 10 1000 100 6000 1 0 20:58 16.09.2019
1833 Rain 11 1000 100 5000 1 0 20:39 16.09.2019
1834 Rain 11 1000 100 5000 1 0 20:19 16.09.2019
1835 Rain 11 1001 100 2200 2 280 19:56 16.09.2019
1836 Rain 10 1001 100 3900 1 0 19:38 16.09.2019
1837 Thunderstorm 10 1001 100 4000 2.83 240.503 19:18 16.09.2019
1838 Thunderstorm 11 1001 100 7000 1 0 18:44 16.09.2019
1839 Thunderstorm 11 1001 100 7000 1 0 18:25 16.09.2019
1840 Thunderstorm 11 1002 100 6000 2 240 17:55 16.09.2019
1841 Thunderstorm 10 1001 100 10000 6.92 245.951 17:37 16.09.2019
1842 Thunderstorm 10 1001 100 10000 6.92 245.951 17:19 16.09.2019
1843 Fog 10 1001 100 8000 6.92 245.951 16:43 16.09.2019
1844 Fog 10 1001 100 8000 6.92 245.951 16:21 16.09.2019
1845 Fog 10 1001 100 10000 1 0 15:57 16.09.2019
1846 Clouds 10 1001 100 9000 1 0 15:39 16.09.2019
1847 Clouds 10 1001 100 9000 1 0 15:20 16.09.2019
1848 Clouds 10 1002 100 10000 2 300 14:58 16.09.2019
1849 Thunderstorm 17 1001 72 10000 2 120 14:39 16.09.2019
1850 Thunderstorm 17 1001 72 10000 2 120 14:20 16.09.2019
1851 Clouds 19 1002 55 10000 4 200 13:43 16.09.2019
1852 Clouds 19 1002 55 10000 4 200 13:22 16.09.2019
1853 Clouds 19 1003 59 10000 3 210 12:57 16.09.2019
1854 Clouds 19 1003 55 10000 4 210 12:38 16.09.2019
1855 Clouds 19 1003 55 10000 4 220 12:19 16.09.2019
1856 Clear 19 1003 59 10000 5 220 11:45 16.09.2019
1857 Clear 19 1003 59 10000 5 220 11:23 16.09.2019
1858 Clear 19 1003 59 10000 5 220 10:56 16.09.2019
1859 Clear 18 1003 63 10000 5 220 10:37 16.09.2019
1860 Clear 18 1003 63 10000 5 220 10:18 16.09.2019
1861 Clear 17 1003 67 10000 5 230 09:41 16.09.2019
1862 Clear 17 1003 67 10000 5 230 09:21 16.09.2019
1863 Clear 17 1003 67 10000 5 230 09:21 16.09.2019
1864 Clear 17 1004 67 10000 6 230 08:55 16.09.2019
1865 Clear 16 1004 72 10000 5 220 08:35 16.09.2019
1866 Clouds 15 1004 77 10000 5 220 07:59 16.09.2019
1867 Clear 14 1004 82 10000 4 210 07:41 16.09.2019
1868 Clear 14 1004 82 10000 4 210 07:21 16.09.2019
1869 Clear 15 1004 77 10000 6 220 06:55 16.09.2019
1870 Clear 13 1004 87 10000 5 220 06:36 16.09.2019
1871 Clear 14 1004 82 10000 5 220 06:18 16.09.2019
1872 Clear 13 1003 82 10000 5 220 05:41 16.09.2019
1873 Clear 13 1003 82 10000 5 220 05:18 16.09.2019
1874 Clear 13 1003 87 10000 5 210 03:36 16.09.2019
1875 Clouds 13 1004 100 10000 3 200 00:58 16.09.2019
1876 Clouds 13 1004 100 10000 3 200 00:58 16.09.2019
1877 Rain 13 1004 100 10000 3 190 00:38 16.09.2019
1878 Rain 13 1004 100 10000 3 190 00:20 16.09.2019
1879 Clear 14 1004 82 10000 4 200 23:39 15.09.2019
1880 Clear 14 1004 82 10000 4 200 23:20 15.09.2019
1881 Clear 15 1004 82 10000 4 200 22:39 15.09.2019
1882 Clear 15 1004 82 10000 4 200 22:39 15.09.2019
1883 Clear 15 1004 82 10000 4 200 22:20 15.09.2019
1884 Clear 15 1005 82 10000 4 210 21:58 15.09.2019
1885 Clear 15 1005 82 10000 4 210 21:39 15.09.2019
1886 Clear 15 1005 82 10000 4 210 21:20 15.09.2019
1887 Clear 15 1005 82 10000 4 210 21:20 15.09.2019
1888 Clear 15 1005 82 10000 4 220 20:55 15.09.2019
1889 Clear 16 1005 82 10000 4 220 20:37 15.09.2019
1890 Clear 16 1005 82 10000 4 220 20:19 15.09.2019
1891 Clear 16 1006 82 10000 4 220 19:42 15.09.2019
1892 Clear 16 1006 82 10000 4 220 19:22 15.09.2019
1893 Clear 16 1006 93 10000 3 210 18:42 15.09.2019
1894 Clear 16 1006 93 10000 3 210 18:24 15.09.2019
1895 Clear 16 1006 100 10000 3 210 17:56 15.09.2019
1896 Clear 16 1006 100 10000 3 200 17:36 15.09.2019
1897 Clear 16 1006 100 10000 3 200 17:18 15.09.2019
1898 Clear 17 1006 100 10000 3 190 16:42 15.09.2019
1899 Clear 17 1006 100 10000 3 190 16:24 15.09.2019
1900 Clear 16 1006 100 10000 2 170 15:58 15.09.2019
1901 Clear 16 1006 100 10000 2 170 15:58 15.09.2019
1902 Clear 16 1006 100 10000 2 150 15:39 15.09.2019
1903 Clear 16 1006 100 10000 2 150 15:19 15.09.2019
1904 Clear 16 1006 100 10000 3 160 14:56 15.09.2019
1905 Clear 16 1006 100 10000 3 160 14:38 15.09.2019
1906 Clear 16 1006 100 10000 3 160 14:19 15.09.2019
1907 Clear 16 1007 100 10000 4 170 13:45 15.09.2019
1908 Clear 16 1007 100 10000 4 170 13:23 15.09.2019
1909 Clouds 16 1007 100 10000 4 160 12:43 15.09.2019
1910 Clouds 16 1007 100 10000 4 160 12:25 15.09.2019
1911 Clouds 15 1007 100 10000 5 150 11:59 15.09.2019
1912 Clouds 15 1007 100 10000 5 150 11:41 15.09.2019
1913 Clouds 15 1007 100 10000 5 150 11:22 15.09.2019
1914 Clouds 14 1008 100 10000 4 150 10:55 15.09.2019
1915 Clouds 14 1008 93 10000 3 180 10:37 15.09.2019
1916 Clouds 14 1008 93 10000 3 180 10:18 15.09.2019
1917 Clouds 13 1008 100 8000 3 170 09:39 15.09.2019
1918 Clouds 13 1008 100 8000 3 170 09:19 15.09.2019
1919 Mist 12 1008 100 5000 4 170 08:46 15.09.2019
1920 Mist 12 1008 100 5000 3 160 08:27 15.09.2019
1921 Clouds 12 1009 100 6000 3 160 07:49 15.09.2019
1922 Mist 12 1008 100 1700 3 140 07:30 15.09.2019
1923 Fog 11 1009 100 4200 2 120 06:43 15.09.2019
1924 Fog 9 1009 100 500 2 120 03:31 15.09.2019
1925 Fog 9 1009 100 1000 3 110 02:41 15.09.2019
1926 Mist 9 1009 100 4600 2 120 01:41 15.09.2019
1927 Mist 9 1009 100 4600 2 120 01:41 15.09.2019
1928 Mist 9 1009 100 4600 2 120 01:21 15.09.2019
1929 Mist 9 1009 100 3500 2 100 00:43 15.09.2019
1930 Fog 9 1009 100 1200 2 100 00:22 15.09.2019
1931 Fog 9 1009 100 1200 2 100 23:58 14.09.2019
1932 Fog 9 1009 100 300 2 90 23:40 14.09.2019
1933 Fog 9 1009 100 300 2 90 23:40 14.09.2019
1934 Fog 9 1009 100 300 2 90 23:21 14.09.2019
1935 Fog 9 1009 100 300 2 90 22:59 14.09.2019
1936 Fog 9 1009 100 500 2 70 22:40 14.09.2019
1937 Fog 9 1009 100 500 2 70 22:20 14.09.2019
1938 Fog 9 1009 100 900 2 70 21:56 14.09.2019
1939 Fog 9 1009 100 7000 2 60 21:38 14.09.2019
1940 Fog 9 1009 100 7000 2 60 21:19 14.09.2019
1941 Clouds 9 1008 100 8000 3 160 20:40 14.09.2019
1942 Clouds 9 1008 100 8000 3 160 20:40 14.09.2019
1943 Clouds 9 1008 100 8000 3 160 20:22 14.09.2019
1944 Mist 9 1009 100 4100 3 140 19:59 14.09.2019
1945 Mist 9 1009 100 4100 3 140 19:59 14.09.2019
1946 Clouds 9 1009 100 10000 3 110 19:40 14.09.2019
1947 Clouds 9 1009 100 10000 3 110 19:19 14.09.2019
1948 Clouds 9 1009 100 10000 3 110 18:41 14.09.2019
1949 Clouds 9 1009 100 10000 3 110 18:21 14.09.2019
1950 Clouds 9 1009 100 10000 3 110 17:58 14.09.2019
1951 Rain 9 1009 100 10000 3 110 17:39 14.09.2019
1952 Rain 9 1009 100 10000 3 110 17:21 14.09.2019
1953 Rain 9 1009 100 9000 3 110 16:44 14.09.2019
1954 Rain 9 1009 100 9000 3 110 16:22 14.09.2019
1955 Rain 9 1009 100 9000 3 110 15:56 14.09.2019
1956 Rain 9 1009 100 9000 3 140 15:36 14.09.2019
1957 Rain 9 1009 100 9000 3 140 15:18 14.09.2019
1958 Clouds 10 1010 100 10000 4 120 14:42 14.09.2019
1959 Clouds 10 1010 100 10000 4 120 14:19 14.09.2019
1960 Clouds 10 1009 100 10000 4 120 13:47 14.09.2019
1961 Clouds 10 1009 100 10000 4 120 13:22 14.09.2019
1962 Clouds 11 1010 100 10000 3 100 12:48 14.09.2019
1963 Clouds 11 1010 100 10000 3 100 12:27 14.09.2019
1964 Clouds 11 1010 100 10000 2 80 11:44 14.09.2019
1965 Clouds 11 1010 100 10000 2 80 11:22 14.09.2019
1966 Clouds 11 1010 100 10000 3 60 10:58 14.09.2019
1967 Clouds 11 1010 100 10000 1 0 10:37 14.09.2019
1968 Clouds 11 1010 100 10000 1 0 10:18 14.09.2019
1969 Clouds 11 1009 100 10000 1 0 09:56 14.09.2019
1970 Clouds 11 1009 100 10000 1 0 09:38 14.09.2019
1971 Clouds 11 1009 100 10000 1 0 09:18 14.09.2019
1972 Clouds 10 1009 100 10000 2 50 08:44 14.09.2019
1973 Clouds 10 1009 100 10000 2 50 08:44 14.09.2019
1974 Clouds 10 1009 100 10000 2 50 08:23 14.09.2019
1975 Clouds 10 1009 100 10000 2 50 08:23 14.09.2019
1976 Clouds 9 1009 100 10000 2 50 07:45 14.09.2019
1977 Clouds 9 1009 100 10000 2 50 07:45 14.09.2019
1978 Clouds 9 1009 100 10000 2 50 07:45 14.09.2019
1979 Clouds 9 1009 100 10000 2 50 07:27 14.09.2019
1980 Clouds 9 1009 100 10000 2 50 06:39 14.09.2019
1981 Clouds 9 1009 100 10000 2 40 06:18 14.09.2019
1982 Clouds 9 1008 100 10000 3 350 04:55 14.09.2019
1983 Clouds 10 1007 100 10000 3 340 03:38 14.09.2019
1984 Mist 10 1007 100 2800 2 360 02:51 14.09.2019
1985 Fog 11 1007 100 900 3 330 01:47 14.09.2019
1986 Fog 11 1007 100 900 3 330 01:21 14.09.2019
1987 Mist 11 1007 100 1700 3 310 00:56 14.09.2019
1988 Mist 12 1007 100 2700 3 300 00:37 14.09.2019
1989 Mist 12 1006 100 2100 3 310 00:18 14.09.2019
1990 Mist 11 1007 100 2100 2 280 23:38 13.09.2019
1991 Mist 11 1007 100 2100 2 280 23:19 13.09.2019
1992 Drizzle 11 1007 100 2800 2 300 22:56 13.09.2019
1993 Drizzle 11 1007 100 2800 2 280 22:38 13.09.2019
1994 Drizzle 11 1007 100 2800 2 280 22:38 13.09.2019
1995 Drizzle 11 1007 100 2800 2 280 22:19 13.09.2019
1996 Drizzle 11 1007 100 4300 3 250 21:41 13.09.2019
1997 Drizzle 11 1007 100 4300 3 250 21:20 13.09.2019
1998 Drizzle 11 1007 100 4300 3 250 21:20 13.09.2019
1999 Drizzle 11 1007 100 3500 3 250 20:58 13.09.2019
2000 Drizzle 11 1007 100 3500 3 250 20:58 13.09.2019
2001 Drizzle 11 1007 100 6000 3 250 20:39 13.09.2019
2002 Drizzle 11 1007 100 6000 3 250 20:21 13.09.2019
2003 Drizzle 11 1008 100 8000 3 250 19:56 13.09.2019
2004 Rain 10 1008 100 3500 3 240 19:37 13.09.2019
2005 Rain 10 1008 100 3900 3 240 19:19 13.09.2019
2006 Rain 10 1008 100 3200 3 230 18:54 13.09.2019
2007 Rain 10 1008 100 3200 3 230 18:36 13.09.2019
2008 Rain 10 1008 100 1800 3 230 18:18 13.09.2019
2009 Drizzle 9 1009 100 1800 3 220 17:37 13.09.2019
2010 Drizzle 9 1009 100 1800 3 220 17:37 13.09.2019
2011 Drizzle 9 1009 100 1800 3 220 17:18 13.09.2019
2012 Rain 9 1009 100 2400 4 210 16:40 13.09.2019
2013 Rain 9 1009 100 2400 4 210 16:20 13.09.2019
2014 Rain 8 1010 100 10000 3 200 15:45 13.09.2019
2015 Rain 8 1010 100 10000 3 200 15:27 13.09.2019
2016 Rain 8 1010 100 6000 4 190 14:57 13.09.2019
2017 Rain 8 1011 100 9000 4 190 14:38 13.09.2019
2018 Rain 8 1011 100 9000 4 190 14:19 13.09.2019
2019 Rain 7 1012 100 4500 5 180 13:44 13.09.2019
2020 Rain 7 1012 100 4500 5 180 13:22 13.09.2019
2021 Rain 7 1013 100 9000 5 180 12:46 13.09.2019
2022 Rain 7 1013 100 9000 5 180 12:26 13.09.2019
2023 Rain 7 1013 100 9000 6 180 11:58 13.09.2019
2024 Rain 7 1014 100 9000 5 180 11:21 13.09.2019
2025 Rain 7 1014 100 9000 4 190 10:59 13.09.2019
2026 Rain 7 1015 100 9000 5 190 10:37 13.09.2019
2027 Rain 7 1015 100 9000 5 190 10:18 13.09.2019
2028 Clouds 7 1016 87 10000 4 190 09:44 13.09.2019
2029 Clouds 7 1016 87 10000 4 190 09:23 13.09.2019
2030 Clouds 7 1016 93 10000 3 190 08:58 13.09.2019
2031 Rain 7 1016 93 10000 4 200 08:39 13.09.2019
2032 Rain 6 1017 100 10000 3 200 08:20 13.09.2019
2033 Clouds 6 1017 100 10000 3 200 07:43 13.09.2019
2034 Rain 6 1017 100 10000 3 220 07:24 13.09.2019
2035 Clouds 6 1018 100 10000 3 220 06:39 13.09.2019
2036 Clear 5 1018 100 10000 3 230 05:43 13.09.2019
2037 Clear 4 1018 100 10000 2 210 04:39 13.09.2019
2038 Clear 3 1019 100 10000 1 230 03:37 13.09.2019
2039 Clear 2 1019 100 10000 1.98 269.017 02:20 13.09.2019
2040 Clear 2 1019 100 10000 1 0 01:38 13.09.2019
2041 Clear 1 1019 100 10000 2.04 265.099 01:18 13.09.2019
2042 Clear 1 1019 100 10000 2.04 265.099 00:36 13.09.2019
2043 Clear 1 1019 100 10000 1.67 310.538 23:54 12.09.2019
2044 Clear 1 1020 100 10000 1.67 310.538 23:30 12.09.2019
2045 Clear 1 1020 100 10000 1.67 310.538 22:59 12.09.2019
2046 Clear 1 1020 100 10000 1.67 310.538 22:40 12.09.2019
2047 Clear 1 1020 100 10000 1.67 310.538 22:22 12.09.2019
2048 Clear 1 1020 100 10000 1.67 310.538 21:56 12.09.2019
2049 Clear 1 1020 100 10000 1.67 310.538 21:37 12.09.2019
2050 Clear 1 1020 100 10000 2.36 348.234 21:19 12.09.2019
2051 Clear 2 1020 100 10000 2.19 1.386 20:44 12.09.2019
2052 Clear 2 1020 100 10000 2.19 1.386 20:23 12.09.2019
2053 Clear 3 1020 100 10000 1 20 19:58 12.09.2019
2054 Clear 4 1020 80 10000 2 20 19:40 12.09.2019
2055 Clear 4 1020 80 10000 2 10 19:20 12.09.2019
2056 Clear 4 1020 80 10000 2 10 18:57 12.09.2019
2057 Clear 5 1020 80 10000 2 10 18:36 12.09.2019
2058 Clear 5 1020 86 10000 2 350 18:18 12.09.2019
2059 Clouds 5 1020 86 10000 2 320 17:41 12.09.2019
2060 Clouds 5 1020 86 10000 2 320 17:20 12.09.2019
2061 Clouds 5 1020 86 10000 2 330 16:56 12.09.2019
2062 Clear 6 1020 75 10000 2 330 16:38 12.09.2019
2063 Clear 6 1020 75 10000 2 330 16:19 12.09.2019
2064 Clouds 7 1019 70 10000 2 330 15:41 12.09.2019
2065 Clouds 7 1019 70 10000 2 330 15:23 12.09.2019
2066 Clear 8 1019 61 10000 2 340 14:46 12.09.2019
2067 Clouds 8 1019 61 10000 4 360 14:22 12.09.2019
2068 Clouds 8 1019 65 10000 3 10 13:58 12.09.2019
2069 Clouds 8 1019 70 10000 4 20 13:38 12.09.2019
2070 Clouds 8 1019 70 10000 4 20 13:19 12.09.2019
2071 Clouds 8 1019 70 10000 4 20 12:45 12.09.2019
2072 Clouds 8 1019 70 10000 3 50 12:19 12.09.2019
2073 Clouds 8 1019 70 10000 3 50 12:19 12.09.2019
2074 Clouds 8 1019 70 10000 3 50 11:57 12.09.2019
2075 Clouds 8 1019 70 10000 4 40 11:39 12.09.2019
2076 Clouds 8 1019 70 10000 4 40 11:19 12.09.2019
2077 Clouds 8 1019 75 10000 3 40 10:45 12.09.2019
2078 Clouds 8 1019 75 10000 3 40 10:26 12.09.2019
2079 Clouds 8 1019 75 10000 3 80 09:45 12.09.2019
2080 Clouds 8 1019 75 10000 3 80 09:25 12.09.2019
2081 Clouds 7 1018 81 10000 2 70 08:59 12.09.2019
2082 Clouds 7 1019 87 10000 2 70 08:40 12.09.2019
2083 Clouds 7 1019 87 10000 2 70 08:22 12.09.2019
2084 Clouds 7 1019 93 10000 3 30 07:44 12.09.2019
2085 Clouds 6 1019 100 10000 3 50 07:20 12.09.2019
2086 Clouds 6 1019 100 10000 2 70 06:51 12.09.2019
2087 Clouds 6 1019 100 10000 2 70 06:23 12.09.2019
2088 Rain 6 1019 100 10000 3 70 05:51 12.09.2019
2089 Rain 6 1019 100 10000 3 60 05:32 12.09.2019
2090 Rain 6 1018 100 10000 2 70 04:40 12.09.2019
2091 Rain 6 1019 100 10000 1 0 02:28 12.09.2019
2092 Rain 5 1019 100 10000 1 0 01:36 12.09.2019
2093 Rain 6 1019 100 9000 3.69 243.928 01:18 12.09.2019
2094 Rain 6 1020 100 9000 3.69 243.928 00:42 12.09.2019
2095 Rain 6 1020 100 9000 4.46 237.518 00:23 12.09.2019
2096 Rain 6 1020 100 10000 1 160 23:42 11.09.2019
2097 Rain 6 1020 100 10000 1 160 23:22 11.09.2019
2098 Rain 6 1020 100 9000 1 0 22:56 11.09.2019
2099 Rain 6 1021 100 10000 4.46 237.518 22:37 11.09.2019
2100 Rain 6 1021 100 10000 4.46 237.518 22:19 11.09.2019
2101 Rain 6 1021 100 10000 2 270 21:43 11.09.2019
2102 Rain 6 1021 100 10000 2 270 21:24 11.09.2019
2103 Clouds 6 1022 100 10000 2 300 20:58 11.09.2019
2104 Clouds 6 1022 100 10000 2 300 20:39 11.09.2019
2105 Clouds 6 1022 100 10000 2 300 20:19 11.09.2019
2106 Clouds 6 1022 100 10000 2 320 19:58 11.09.2019
2107 Rain 6 1022 100 9000 2 340 19:39 11.09.2019
2108 Rain 6 1022 100 9000 2 340 19:21 11.09.2019
2109 Rain 6 1022 100 8000 2 310 18:58 11.09.2019
2110 Rain 6 1022 100 8000 3 330 18:38 11.09.2019
2111 Rain 7 1022 81 10000 6 270 18:19 11.09.2019
2112 Rain 7 1022 81 10000 6 270 17:55 11.09.2019
2113 Rain 7 1022 75 10000 6 250 17:37 11.09.2019
2114 Rain 7 1022 75 10000 6 250 17:19 11.09.2019
2115 Clouds 8 1022 65 10000 6 250 16:46 11.09.2019
2116 Clear 8 1022 65 10000 4 250 16:25 11.09.2019
2117 Clouds 8 1023 65 10000 4 260 15:54 11.09.2019
2118 Clouds 8 1023 65 10000 4 280 15:36 11.09.2019
2119 Clouds 8 1023 65 10000 4 280 15:18 11.09.2019
2120 Clouds 8 1023 65 10000 6 290 14:42 11.09.2019
2121 Clouds 8 1023 65 10000 6 290 14:21 11.09.2019
2122 Clouds 8 1024 65 10000 7 290 13:59 11.09.2019
2123 Clouds 8 1024 61 10000 6 290 13:37 11.09.2019
2124 Clouds 8 1024 61 10000 6 290 13:37 11.09.2019
2125 Clouds 8 1024 61 10000 6 290 13:19 11.09.2019
2126 Clouds 8 1024 61 10000 7 300 12:55 11.09.2019
2127 Clouds 8 1024 61 10000 6 300 12:37 11.09.2019
2128 Clouds 8 1024 61 10000 6 310 12:19 11.09.2019
2129 Clouds 8 1024 58 10000 7 310 11:39 11.09.2019
2130 Clouds 8 1024 58 10000 7 310 11:21 11.09.2019
2131 Clouds 8 1024 58 10000 7 310 10:55 11.09.2019
2132 Clouds 8 1024 58 10000 7 310 10:37 11.09.2019
2133 Clouds 8 1024 58 10000 7 310 10:19 11.09.2019
2134 Clouds 7 1024 56 10000 6 330 09:38 11.09.2019
2135 Clouds 7 1024 56 10000 6 330 09:19 11.09.2019
2136 Clouds 7 1024 61 10000 6 340 08:42 11.09.2019
2137 Clouds 7 1024 61 10000 6 340 08:22 11.09.2019
2138 Clouds 7 1024 65 10000 7 330 07:59 11.09.2019
2139 Clouds 6 1024 61 10000 5 330 07:39 11.09.2019
2140 Clouds 6 1023 70 10000 6 330 07:20 11.09.2019
2141 Clouds 5 1023 61 10000 7 330 06:44 11.09.2019
2142 Clouds 5 1023 76 10000 7 330 06:21 11.09.2019
2143 Clouds 5 1022 80 10000 5 340 05:35 11.09.2019
2144 Clouds 5 1022 80 10000 4 340 04:53 11.09.2019
2145 Clouds 5 1021 86 10000 4 340 04:18 11.09.2019
2146 Rain 5 1020 100 9000 5 360 03:27 11.09.2019
2147 Clouds 6 1020 70 10000 6 360 02:32 11.09.2019
2148 Clouds 7 1018 75 10000 5 360 01:33 11.09.2019
2149 Clouds 7 1017 75 10000 5 10 00:37 11.09.2019
2150 Clouds 7 1017 75 10000 5 10 00:19 11.09.2019
2151 Clouds 7 1016 81 10000 6 360 23:40 10.09.2019
2152 Clouds 7 1016 81 10000 6 360 23:22 10.09.2019
2153 Clouds 7 1015 87 10000 6 360 22:55 10.09.2019
2154 Clouds 7 1015 93 10000 6 360 22:37 10.09.2019
2155 Clouds 7 1015 93 10000 6 360 22:18 10.09.2019
2156 Rain 7 1014 100 9000 6 350 21:54 10.09.2019
2157 Rain 8 1014 100 8000 6 360 21:36 10.09.2019
2158 Rain 8 1014 100 8000 6 360 21:18 10.09.2019
2159 Rain 8 1013 100 8000 5 340 20:55 10.09.2019
2160 Clouds 8 1013 100 10000 5 330 20:37 10.09.2019
2161 Clouds 8 1013 100 10000 5 330 20:18 10.09.2019
2162 Clouds 8 1012 100 10000 5 330 19:55 10.09.2019
2163 Rain 8 1012 100 9000 5 320 19:36 10.09.2019
2164 Rain 8 1012 100 9000 5 320 19:36 10.09.2019
2165 Rain 8 1012 100 10000 5 320 19:18 10.09.2019
2166 Rain 8 1011 100 10000 6 310 18:43 10.09.2019
2167 Rain 8 1011 100 10000 6 310 18:22 10.09.2019
2168 Rain 8 1011 100 8000 5 290 17:57 10.09.2019
2169 Rain 8 1011 100 6000 6 280 17:39 10.09.2019
2170 Rain 8 1011 100 6000 6 280 17:19 10.09.2019
2171 Rain 8 1011 100 8000 6 260 16:57 10.09.2019
2172 Rain 8 1012 100 8000 6 250 16:38 10.09.2019
2173 Rain 8 1012 100 8000 6 250 16:19 10.09.2019
2174 Rain 8 1013 100 9000 5 250 15:43 10.09.2019
2175 Rain 8 1013 100 9000 5 250 15:23 10.09.2019
2176 Rain 8 1013 87 10000 7 250 14:57 10.09.2019
2177 Rain 9 1013 81 10000 5 240 14:39 10.09.2019
2178 Rain 9 1013 81 10000 5 240 14:20 10.09.2019
2179 Rain 9 1014 76 10000 7 250 13:47 10.09.2019
2180 Rain 9 1014 76 10000 7 250 13:47 10.09.2019
2181 Clear 9 1014 70 10000 6 240 13:23 10.09.2019
2182 Clear 9 1014 66 10000 6 240 12:54 10.09.2019
2183 Clear 9 1015 66 10000 6 240 12:36 10.09.2019
2184 Clear 10 1015 61 10000 7 240 12:18 10.09.2019
2185 Clear 10 1016 57 10000 6 240 11:41 10.09.2019
2186 Clear 10 1016 57 10000 6 240 11:22 10.09.2019
2187 Clear 10 1016 57 10000 6 240 10:57 10.09.2019
2188 Clear 10 1017 61 10000 7 240 10:36 10.09.2019
2189 Clear 10 1018 57 10000 6 240 10:18 10.09.2019
2190 Clear 10 1018 53 10000 6 270 09:44 10.09.2019
2191 Clear 10 1019 53 10000 5 240 09:20 10.09.2019
2192 Clear 10 1019 53 10000 5 270 08:49 10.09.2019
2193 Clear 10 1019 53 10000 5 270 08:29 10.09.2019
2194 Clear 10 1019 53 10000 5 270 08:29 10.09.2019
2195 Clear 10 1019 53 10000 5 260 07:59 10.09.2019
2196 Clear 9 1020 59 10000 4 270 07:41 10.09.2019
2197 Clear 9 1020 59 10000 4 270 07:41 10.09.2019
2198 Clear 9 1020 57 10000 4 270 07:23 10.09.2019
2199 Clear 9 1021 61 10000 3 270 06:42 10.09.2019
2200 Clear 8 1021 75 10000 2 260 06:21 10.09.2019
2201 Clear 4 1022 100 10000 2 280 04:24 10.09.2019
2202 Clear 1 1023 100 10000 1 310 02:40 10.09.2019
2203 Clear 2 1023 100 10000 2 350 02:21 10.09.2019
2204 Clear 2 1023 100 10000 2 350 02:21 10.09.2019
2205 Clear 2 1023 100 10000 2 350 02:21 10.09.2019
2206 Clear 2 1023 100 10000 2 350 02:21 10.09.2019
2207 Clear 2 1023 100 10000 1 0 01:50 10.09.2019
2208 Clear 2 1023 100 10000 1 0 01:23 10.09.2019
2209 Clear 3 1023 93 10000 2 340 00:42 10.09.2019
2210 Clear 4 1023 86 10000 2 20 00:22 10.09.2019
2211 Clear 4 1023 86 10000 3 10 23:40 09.09.2019
2212 Clear 4 1023 93 10000 3 360 23:19 09.09.2019
2213 Clear 4 1023 93 10000 3 360 22:55 09.09.2019
2214 Clear 4 1023 93 10000 3 360 22:55 09.09.2019
2215 Clear 4 1023 93 10000 3 360 22:55 09.09.2019
2216 -273 0 0 0 0 0 22:55 09.09.2019
2217 Clear 5 1023 80 10000 3 20 22:36 09.09.2019
2218 Clear 5 1023 80 10000 3 20 22:36 09.09.2019
2219 Clear 5 1023 80 10000 2 30 22:18 09.09.2019
2220 Clear 5 1023 80 10000 2 30 21:55 09.09.2019
2221 Clear 5 1023 80 10000 2 30 21:55 09.09.2019
2222 Clear 5 1023 80 10000 3 30 21:37 09.09.2019
2223 Clear 6 1023 75 10000 3 20 21:18 09.09.2019
2224 Clear 6 1023 75 10000 3 20 20:55 09.09.2019
2225 Clear 6 1023 75 10000 3 30 20:36 09.09.2019
2226 Clear 7 1024 75 10000 3 30 20:18 09.09.2019
2227 Clear 7 1024 75 10000 3 30 19:56 09.09.2019
2228 Clear 7 1023 75 10000 3 20 19:37 09.09.2019
2229 Clear 7 1024 75 10000 3 30 19:19 09.09.2019
2230 Clear 7 1024 75 10000 3 30 19:19 09.09.2019
2231 Clouds 8 1024 70 10000 3 40 18:55 09.09.2019
2232 Clouds 8 1024 70 10000 3 40 18:36 09.09.2019
2233 Clouds 8 1024 70 10000 4 20 18:18 09.09.2019
2234 Clouds 8 1024 70 10000 4 20 17:56 09.09.2019
2235 Clouds 9 1024 66 10000 3 20 17:37 09.09.2019
2236 Clouds 9 1024 66 10000 2 20 17:19 09.09.2019
2237 Clouds 9 1023 66 10000 2 30 16:40 09.09.2019
2238 Clouds 9 1023 70 10000 3 40 16:21 09.09.2019
2239 Clouds 9 1023 70 10000 3 40 15:56 09.09.2019
2240 Clouds 10 1023 66 10000 4 30 15:38 09.09.2019
2241 Clouds 10 1024 66 10000 5 20 15:20 09.09.2019
2242 Clouds 10 1024 66 10000 5 20 14:57 09.09.2019
2243 Clouds 10 1024 66 10000 5 30 14:39 09.09.2019
2244 Clouds 10 1024 71 10000 6 30 14:20 09.09.2019
2245 Clouds 10 1024 71 10000 6 30 13:54 09.09.2019
2246 Clouds 10 1024 71 10000 5 30 13:36 09.09.2019
2247 Clouds 11 1023 66 10000 6 10 13:18 09.09.2019
2248 Clouds 11 1023 71 10000 6 10 12:41 09.09.2019
2249 Clouds 11 1023 71 10000 7 30 12:21 09.09.2019
2250 Clouds 11 1023 71 10000 7 30 11:58 09.09.2019
2251 Clouds 12 1023 66 10000 6 10 11:40 09.09.2019
2252 Clouds 13 1023 66 10000 5 30 11:18 09.09.2019
2253 Clouds 11 1023 76 10000 6 40 10:42 09.09.2019
2254 Clouds 12 1023 71 10000 6 30 10:23 09.09.2019
2255 Clouds 12 1023 71 10000 6 30 09:58 09.09.2019
2256 Clouds 12 1023 76 10000 6 20 09:39 09.09.2019
2257 Clouds 12 1023 76 10000 6 40 09:21 09.09.2019
2258 Clouds 12 1023 76 10000 7 10 08:39 09.09.2019
2259 Clouds 13 1023 76 10000 6 360 08:21 09.09.2019
2260 Clouds 13 1023 76 10000 6 360 07:57 09.09.2019
2261 Clear 13 1023 76 10000 6 10 07:38 09.09.2019
2262 Clear 14 1022 71 10000 5 360 07:19 09.09.2019
2263 Clouds 14 1022 76 10000 5 10 06:46 09.09.2019
2264 Clouds 13 1022 87 10000 5 20 05:34 09.09.2019
2265 Clouds 12 1021 100 10000 3 360 02:59 09.09.2019
2266 Rain 11 1021 100 10000 3 350 02:40 09.09.2019
2267 Clouds 12 1021 81 10000 4 320 00:54 09.09.2019
2268 Clouds 12 1021 81 10000 3 320 00:23 09.09.2019
2269 Clouds 12 1021 81 10000 2 330 23:46 08.09.2019
2270 Clouds 12 1021 81 10000 2 330 23:26 08.09.2019
2271 Clouds 11 1021 93 10000 1 300 22:57 08.09.2019
2272 Clear 10 1021 100 10000 2 300 22:38 08.09.2019
2273 Clear 9 1022 100 10000 1 280 22:20 08.09.2019
2274 Clear 9 1022 100 10000 1 280 21:55 08.09.2019
2275 Clear 10 1022 100 10000 1 0 21:36 08.09.2019
2276 Clear 10 1022 100 10000 1 300 21:18 08.09.2019
2277 -273 0 0 0 0 0 20:40 08.09.2019
2278 Clear 11 1022 100 10000 2 340 20:22 08.09.2019
2279 Clear 11 1022 100 10000 2 340 19:59 08.09.2019
2280 Clear 12 1022 87 10000 2 340 19:38 08.09.2019
2281 Clear 13 1022 82 10000 2 340 19:20 08.09.2019
2282 Clear 13 1022 82 10000 2 340 18:57 08.09.2019
2283 Clear 14 1022 76 10000 2 350 18:38 08.09.2019
2284 Clear 14 1022 71 10000 1 340 18:19 08.09.2019
2285 Clear 14 1022 71 10000 1 340 17:56 08.09.2019
2286 Clear 14 1022 71 10000 1 340 17:56 08.09.2019
2287 Clear 15 1022 67 10000 1 350 17:36 08.09.2019
2288 Clear 14 1022 76 10000 2 340 17:18 08.09.2019
2289 Clouds 15 1022 72 10000 2.48 27.559 16:44 08.09.2019
2290 Clouds 15 1022 72 10000 2.48 27.559 16:22 08.09.2019
2291 Clouds 15 1022 72 10000 2.48 27.559 15:58 08.09.2019
2292 Clouds 16 1022 59 10000 2.48 27.559 15:40 08.09.2019
2293 Clouds 16 1022 59 10000 3.79 25.869 15:21 08.09.2019
2294 Clear 16 1022 63 10000 1 140 14:57 08.09.2019
2295 Clear 16 1022 63 10000 1 140 14:57 08.09.2019
2296 Clear 16 1022 59 10000 1 0 14:38 08.09.2019
2297 Clear 17 1022 55 10000 2 100 14:20 08.09.2019
2298 Clear 17 1022 55 10000 2 100 13:56 08.09.2019
2299 Clear 17 1022 51 10000 3 90 13:37 08.09.2019
2300 Clear 17 1022 55 10000 3 110 13:19 08.09.2019
2301 Clouds 17 1022 51 10000 3 70 12:41 08.09.2019
2302 Clouds 17 1022 51 10000 3 70 12:41 08.09.2019
2303 Clouds 17 1022 55 10000 3 130 12:23 08.09.2019
2304 Clouds 17 1022 55 10000 3 130 11:58 08.09.2019
2305 Clouds 16 1022 59 10000 3 90 11:39 08.09.2019
2306 Clouds 16 1022 55 10000 3 80 11:20 08.09.2019
2307 Clouds 16 1022 55 10000 3 80 10:57 08.09.2019
2308 Clouds 16 1022 55 10000 3 80 10:57 08.09.2019
2309 Clouds 17 1022 55 10000 4 80 10:39 08.09.2019
2310 Clouds 17 1022 55 10000 3 130 10:21 08.09.2019
2311 Clouds 16 1022 55 10000 3 110 09:38 08.09.2019
2312 Clouds 16 1022 59 10000 3 120 09:20 08.09.2019
2313 Clouds 16 1022 59 10000 3 120 08:56 08.09.2019
2314 Clouds 16 1023 59 10000 4 100 08:37 08.09.2019
2315 Clouds 15 1023 62 10000 4 70 08:18 08.09.2019
2316 Clear 15 1023 62 10000 4 80 07:39 08.09.2019
2317 Clear 14 1023 67 10000 2 100 07:20 08.09.2019
2318 Clear 14 1023 71 10000 2 90 06:49 08.09.2019
2319 Clear 14 1023 71 10000 2 90 06:31 08.09.2019
2320 Clear 11 1023 87 10000 2 80 05:37 08.09.2019
2321 Clear 7 1023 100 10000 2 40 03:54 08.09.2019
2322 Clouds 5 1023 100 10000 0.84 49.984 02:57 08.09.2019
2323 Clear 5 1023 100 10000 1 70 02:26 08.09.2019
2324 Clear 5 1023 100 10000 1 70 02:26 08.09.2019
2325 Clear 5 1023 100 10000 0.84 49.984 01:45 08.09.2019
2326 Clear 5 1023 100 10000 0.74 66.508 01:19 08.09.2019
2327 Clear 6 1023 100 10000 1 80 00:44 08.09.2019
2328 Clear 6 1023 100 10000 1 80 00:26 08.09.2019
2329 Clear 6 1023 100 10000 1 70 23:38 07.09.2019
2330 Clear 6 1023 100 10000 2 50 23:20 07.09.2019
2331 Clear 6 1023 100 10000 2 50 22:57 07.09.2019
2332 Clear 7 1023 100 10000 2 60 22:38 07.09.2019
2333 Clear 7 1023 100 10000 2 50 22:19 07.09.2019
2334 Clear 8 1023 100 10000 2 50 21:42 07.09.2019
2335 Clear 8 1023 100 10000 2 50 21:23 07.09.2019
2336 Clear 8 1023 100 10000 2 60 20:57 07.09.2019
2337 Clear 9 1023 100 10000 2.12 91.814 20:37 07.09.2019
2338 Clear 8 1023 100 10000 2.12 91.814 20:18 07.09.2019
2339 Clear 8 1023 100 10000 2.12 91.814 19:54 07.09.2019
2340 Clear 9 1023 100 10000 2.12 91.814 19:36 07.09.2019
2341 Clear 9 1024 100 10000 2.12 91.814 19:18 07.09.2019
2342 Clear 9 1024 100 10000 2.12 91.814 18:54 07.09.2019
2343 Clear 10 1024 87 10000 2.12 91.814 18:36 07.09.2019
2344 Clear 10 1024 87 10000 2.5 79.089 18:18 07.09.2019
2345 Clear 10 1024 87 10000 2.5 79.089 17:54 07.09.2019
2346 Clear 11 1023 81 10000 1 0 17:36 07.09.2019
2347 Clear 11 1023 87 10000 2.5 79.089 17:18 07.09.2019
2348 Clear 12 1023 81 10000 2 30 16:42 07.09.2019
2349 Clear 14 1023 71 10000 1 50 16:20 07.09.2019
2350 Clear 15 1023 67 10000 2 60 15:49 07.09.2019
2351 Clear 15 1023 67 10000 2 60 15:26 07.09.2019
2352 Clouds 16 1023 59 10000 2 60 14:58 07.09.2019
2353 Clouds 16 1023 59 10000 2 50 14:37 07.09.2019
2354 Clouds 16 1024 59 10000 4 80 14:19 07.09.2019
2355 Clouds 16 1024 59 10000 4 80 13:58 07.09.2019
2356 Clouds 16 1024 59 10000 4 80 13:58 07.09.2019
2357 Clouds 16 1024 55 10000 3 70 13:39 07.09.2019
2358 Clouds 16 1024 59 10000 2 100 13:21 07.09.2019
2359 Clouds 16 1024 59 10000 2 140 12:44 07.09.2019
2360 Clouds 16 1024 59 10000 2 140 12:25 07.09.2019
2361 Clouds 15 1024 62 10000 4 110 11:58 07.09.2019
2362 Clouds 16 1024 55 10000 4 90 11:39 07.09.2019
2363 Clouds 16 1024 55 10000 4 100 11:19 07.09.2019
2364 Clouds 16 1024 55 10000 4 100 11:19 07.09.2019
2365 Clouds 16 1025 55 10000 4 90 10:40 07.09.2019
2366 Clouds 16 1025 55 10000 3 100 10:22 07.09.2019
2367 Clouds 16 1025 55 10000 3 100 09:56 07.09.2019
2368 Clouds 16 1025 59 10000 2 110 09:37 07.09.2019
2369 Clouds 16 1025 59 10000 2 110 09:37 07.09.2019
2370 Clouds 16 1025 59 10000 2 140 09:19 07.09.2019
2371 Clear 15 1025 62 10000 2 110 08:44 07.09.2019
2372 Clear 15 1025 62 10000 2 110 08:25 07.09.2019
2373 Clear 14 1026 71 10000 1 0 07:46 07.09.2019
2374 Clear 14 1026 71 10000 1 0 07:27 07.09.2019
2375 Clear 13 1026 93 10000 2.84 96.362 06:50 07.09.2019
2376 Clear 12 1026 100 10000 1 90 06:20 07.09.2019
2377 Clouds 11 1026 100 10000 1 110 04:49 07.09.2019
2378 Clouds 11 1025 100 10000 1 0 04:20 07.09.2019
2379 Clear 11 1025 93 10000 2.35 88.563 02:48 07.09.2019
2380 Clear 11 1025 93 10000 2 60 01:46 07.09.2019
2381 Clear 11 1025 100 10000 2.67 86.544 01:20 07.09.2019
2382 Clouds 12 1025 87 10000 2.67 86.544 00:40 07.09.2019
2383 Clouds 12 1025 81 10000 1 0 00:19 07.09.2019
2384 Clouds 12 1025 81 10000 1 0 23:40 06.09.2019
2385 Clouds 12 1025 81 10000 1 0 23:40 06.09.2019
2386 Clouds 12 1025 87 10000 1 0 23:21 06.09.2019
2387 Clouds 12 1025 87 10000 1 0 23:21 06.09.2019
2388 Clouds 12 1025 87 10000 1 0 23:21 06.09.2019
2389 Clouds 12 1025 87 10000 1 0 22:57 06.09.2019
2390 Clear 12 1025 93 10000 1 0 22:37 06.09.2019
2391 Clouds 12 1025 87 10000 1 0 22:19 06.09.2019
2392 Clouds 12 1025 87 10000 1 0 21:57 06.09.2019
2393 Clouds 12 1025 87 10000 1 70 21:38 06.09.2019
2394 Clouds 12 1025 87 10000 1 80 21:20 06.09.2019
2395 Clouds 12 1025 87 10000 1 80 20:57 06.09.2019
2396 Clouds 13 1025 82 10000 2 70 20:38 06.09.2019
2397 Clouds 13 1025 82 10000 2 50 20:18 06.09.2019
2398 Clouds 12 1025 93 10000 1 0 19:42 06.09.2019
2399 Clouds 12 1025 93 10000 1 0 19:24 06.09.2019
2400 Clear 13 1025 82 10000 2 70 18:59 06.09.2019
2401 Clear 13 1025 82 10000 2 60 18:40 06.09.2019
2402 Clear 13 1024 82 10000 2 70 18:22 06.09.2019
2403 Clear 13 1024 82 10000 2 70 17:57 06.09.2019
2404 Clear 13 1024 87 10000 2 80 17:37 06.09.2019
2405 Clouds 14 1024 82 10000 2 90 17:18 06.09.2019
2406 Clouds 14 1024 82 10000 3 90 16:39 06.09.2019
2407 Clear 14 1024 82 10000 2 70 16:18 06.09.2019
2408 Clear 14 1024 82 10000 2 90 15:41 06.09.2019
2409 Clear 14 1024 82 10000 2 90 15:23 06.09.2019
2410 Clear 15 1023 72 10000 3 80 14:48 06.09.2019
2411 Clear 15 1024 77 10000 4 100 14:20 06.09.2019
2412 Clear 15 1024 77 10000 4 100 13:55 06.09.2019
2413 Clear 15 1024 77 10000 4 110 13:37 06.09.2019
2414 Clear 16 1024 67 10000 5 90 13:18 06.09.2019
2415 Clear 16 1024 72 10000 5 100 12:37 06.09.2019
2416 Clear 16 1024 72 10000 4 90 12:18 06.09.2019
2417 Clouds 15 1024 77 10000 5 90 11:43 06.09.2019
2418 Clouds 15 1024 77 10000 5 90 11:24 06.09.2019
2419 Clouds 15 1024 77 10000 5 90 10:58 06.09.2019
2420 Clouds 16 1023 72 10000 5 90 10:40 06.09.2019
2421 Clouds 16 1023 67 10000 4 90 10:21 06.09.2019
2422 Clouds 16 1023 67 10000 5 90 09:40 06.09.2019
2423 Clouds 17 1023 63 10000 5 90 09:21 06.09.2019
2424 Clouds 17 1023 63 10000 5 90 08:58 06.09.2019
2425 Clouds 16 1023 67 10000 5 90 08:39 06.09.2019
2426 Clouds 16 1023 67 10000 5 90 08:39 06.09.2019
2427 Clouds 16 1023 67 10000 3 60 08:20 06.09.2019
2428 Clear 16 1023 67 10000 3 60 07:45 06.09.2019
2429 Clear 16 1023 67 10000 3 60 07:27 06.09.2019
2430 Clear 15 1023 77 10000 3 30 06:56 06.09.2019
2431 Clear 13 1023 87 10000 3 10 06:19 06.09.2019
2432 Clear 12 1023 93 10000 2 10 05:41 06.09.2019
2433 Clear 10 1023 100 10000 2 20 04:45 06.09.2019
2434 Clear 8 1023 100 10000 1 0 03:49 06.09.2019
2435 Clouds 9 1023 100 10000 1 0 01:54 06.09.2019
2436 Clear 8 1022 100 10000 3.23 39.703 00:41 06.09.2019
2437 Clouds 8 1022 100 10000 3.16 44.641 23:45 05.09.2019
2438 Clouds 8 1022 100 10000 3.16 44.641 23:45 05.09.2019
2439 Clouds 8 1022 100 10000 3.16 44.641 23:25 05.09.2019
2440 Clouds 8 1022 100 10000 1 0 22:58 05.09.2019
2441 Clouds 8 1022 100 10000 1 0 22:58 05.09.2019
2442 Clouds 8 1022 100 10000 1 0 22:40 05.09.2019
2443 Clouds 8 1022 100 10000 1 0 22:40 05.09.2019
2444 Clouds 8 1022 100 10000 1 0 22:22 05.09.2019
2445 Clear 9 1022 100 10000 1 0 21:56 05.09.2019
2446 Clouds 9 1022 100 10000 3.16 44.641 21:37 05.09.2019
2447 Clouds 8 1022 100 10000 2.93 32.68 21:19 05.09.2019
2448 Clouds 8 1022 100 10000 2.93 32.68 20:56 05.09.2019
2449 Clear 9 1022 100 10000 2.53 25.865 20:37 05.09.2019
2450 Clear 9 1022 100 10000 2.53 25.865 20:19 05.09.2019
2451 Clear 10 1022 100 10000 2.53 25.865 19:42 05.09.2019
2452 Clear 11 1022 100 10000 3 50 19:24 05.09.2019
2453 Clear 11 1022 100 10000 3 50 18:58 05.09.2019
2454 Clear 10 1021 100 10000 2.53 25.865 18:40 05.09.2019
2455 Clear 10 1021 100 10000 2 40 18:20 05.09.2019
2456 Clear 10 1021 100 10000 2 40 17:56 05.09.2019
2457 Clear 11 1021 100 10000 2 20 17:37 05.09.2019
2458 Clear 11 1021 93 10000 2 20 17:19 05.09.2019
2459 Clear 13 1021 76 10000 2 40 16:41 05.09.2019
2460 Clear 14 1021 76 10000 2 30 16:20 05.09.2019
2461 Clear 14 1021 76 10000 2 30 15:58 05.09.2019
2462 Clear 15 1021 72 10000 2 30 15:39 05.09.2019
2463 Clear 15 1021 72 10000 2 30 15:39 05.09.2019
2464 Clear 16 1020 67 10000 2 60 15:18 05.09.2019
2465 Clouds 16 1020 67 10000 2 40 14:43 05.09.2019
2466 Clouds 16 1020 67 10000 2 40 14:22 05.09.2019
2467 Clear 17 1020 55 10000 3 50 13:44 05.09.2019
2468 Clear 17 1020 55 10000 3 50 13:24 05.09.2019
2469 Clouds 17 1020 59 10000 3 60 12:59 05.09.2019
2470 Clouds 16 1020 63 10000 2 60 12:41 05.09.2019
2471 Clouds 16 1020 63 10000 2 20 12:22 05.09.2019
2472 Clouds 16 1020 59 10000 2 20 11:44 05.09.2019
2473 Clouds 16 1020 63 10000 2 30 11:20 05.09.2019
2474 Clouds 16 1020 63 10000 2 30 10:57 05.09.2019
2475 Clouds 16 1020 63 10000 3 50 10:36 05.09.2019
2476 Clouds 16 1020 59 10000 1 0 10:18 05.09.2019
2477 Clouds 16 1020 63 10000 2 60 09:40 05.09.2019
2478 Clouds 16 1020 67 10000 2 40 09:21 05.09.2019
2479 Clouds 16 1020 67 10000 2 40 08:56 05.09.2019
2480 Clouds 15 1020 72 10000 2 20 08:37 05.09.2019
2481 Clouds 15 1020 72 10000 2 350 08:19 05.09.2019
2482 Clear 14 1020 76 10000 2 10 07:43 05.09.2019
2483 Clear 14 1020 76 10000 2 10 07:24 05.09.2019
2484 Clear 12 1020 100 10000 2 40 06:46 05.09.2019
2485 Clear 12 1020 100 10000 2 40 06:26 05.09.2019
2486 Clear 11 1020 100 10000 1 0 05:43 05.09.2019
2487 Clear 11 1020 100 10000 1 0 05:43 05.09.2019
2488 Clear 11 1020 100 10000 1 0 05:25 05.09.2019
2489 Clear 10 1019 100 10000 2 60 04:30 05.09.2019
2490 Clear 10 1019 100 10000 1 60 03:47 05.09.2019
2491 Clear 10 1019 100 10000 1 0 02:57 05.09.2019
2492 Clear 10 1018 100 10000 2 50 02:29 05.09.2019
2493 Clear 9 1018 100 10000 2 60 01:54 05.09.2019
2494 Clear 9 1018 100 10000 2.28 89.195 00:56 05.09.2019
2495 Clear 10 1018 100 10000 1 0 00:37 05.09.2019
2496 Clear 9 1018 100 10000 2.34 87.037 00:18 05.09.2019
2497 Clear 8 1018 100 10000 2.34 87.037 23:40 04.09.2019
2498 Clear 8 1017 100 10000 2.34 87.037 23:22 04.09.2019
2499 Clear 8 1017 100 10000 2.34 87.037 22:47 04.09.2019
2500 Clear 7 1017 100 10000 2.34 87.037 22:20 04.09.2019
2501 -273 0 0 0 0 0 21:56 04.09.2019
2502 Clear 8 1017 100 10000 2 30 21:38 04.09.2019
2503 Clear 9 1017 100 10000 2 30 21:19 04.09.2019
2504 Clear 9 1017 100 10000 2 30 20:55 04.09.2019
2505 Clear 10 1017 100 10000 2 50 20:36 04.09.2019
2506 Clear 10 1017 100 10000 2 50 20:36 04.09.2019
2507 Clear 9 1017 100 10000 2 50 20:18 04.09.2019
2508 Clear 10 1017 100 10000 2 60 19:40 04.09.2019
2509 Clear 11 1017 100 10000 1 0 19:21 04.09.2019
2510 Clear 12 1016 100 10000 2 30 18:44 04.09.2019
2511 Clear 12 1016 100 10000 2 40 18:26 04.09.2019
2512 Clear 12 1016 100 10000 2 40 17:59 04.09.2019
2513 Clear 12 1016 100 10000 2.26 62.389 17:40 04.09.2019
2514 Clear 12 1016 100 10000 2.26 62.389 17:21 04.09.2019
2515 Clear 12 1016 100 10000 2.26 62.389 17:21 04.09.2019
2516 Clear 12 1016 100 10000 2.26 62.389 17:21 04.09.2019
2517 Clouds 12 1016 100 10000 2.26 62.389 16:54 04.09.2019
2518 Clear 13 1016 93 10000 2 40 16:36 04.09.2019
2519 Clear 13 1015 93 10000 2 50 16:18 04.09.2019
2520 Clear 13 1015 87 10000 2 60 15:40 04.09.2019
2521 Clear 13 1015 87 10000 2 30 15:21 04.09.2019
2522 Clear 13 1015 87 10000 2 30 14:58 04.09.2019
2523 Clouds 13 1014 82 10000 2 100 14:38 04.09.2019
2524 Clouds 13 1015 82 10000 2 90 14:20 04.09.2019
2525 Clouds 13 1015 82 10000 2 90 13:57 04.09.2019
2526 Clouds 13 1015 82 10000 2 70 13:38 04.09.2019
2527 Clouds 13 1015 82 10000 2 70 13:38 04.09.2019
2528 Clouds 13 1015 93 10000 3 80 13:19 04.09.2019
2529 Clouds 13 1015 93 10000 3 70 12:43 04.09.2019
2530 Clouds 13 1015 93 10000 3 70 12:24 04.09.2019
2531 Clouds 14 1014 82 10000 2 80 11:56 04.09.2019
2532 Clouds 14 1014 82 10000 3 70 11:37 04.09.2019
2533 Clouds 13 1014 87 10000 3 90 11:19 04.09.2019
2534 Clouds 13 1014 87 10000 4 70 10:45 04.09.2019
2535 Clouds 13 1014 87 10000 4 70 10:26 04.09.2019
2536 Clouds 13 1014 87 10000 2 80 09:58 04.09.2019
2537 Clouds 13 1014 87 10000 3 80 09:40 04.09.2019
2538 Clear 12 1014 93 10000 3 80 09:19 04.09.2019
2539 Clear 12 1014 93 10000 2 60 08:42 04.09.2019
2540 Clear 12 1014 93 10000 2 60 08:24 04.09.2019
2541 Clouds 12 1014 100 10000 2 30 07:56 04.09.2019
2542 Clouds 12 1014 100 10000 2 20 07:34 04.09.2019
2543 Clouds 11 1013 100 10000 2 360 06:49 04.09.2019
2544 Clouds 11 1013 100 10000 2 360 06:26 04.09.2019
2545 Clouds 10 1013 100 10000 1 0 04:54 04.09.2019
2546 Clouds 10 1013 100 10000 1 0 04:21 04.09.2019
2547 Clouds 9 1012 100 10000 1 0 02:36 04.09.2019
2548 Clouds 9 1012 100 10000 2 10 00:56 04.09.2019
2549 Clouds 9 1012 100 10000 2 10 00:38 04.09.2019
2550 Clouds 8 1012 100 10000 1 0 00:18 04.09.2019
2551 Clouds 8 1012 100 9000 1 0 23:47 03.09.2019
2552 Clouds 8 1012 100 9000 1 0 23:23 03.09.2019
2553 Clouds 7 1012 100 10000 1 0 22:40 03.09.2019
2554 Clouds 8 1012 100 10000 4.38 17.885 22:22 03.09.2019
2555 Clouds 8 1012 100 10000 4.2 16.835 21:56 03.09.2019
2556 Clouds 8 1012 100 10000 2 330 21:38 03.09.2019
2557 Clouds 9 1012 100 10000 3 350 21:20 03.09.2019
2558 Clouds 9 1012 100 10000 3 350 20:55 03.09.2019
2559 Rain 10 1012 100 10000 2 10 20:36 03.09.2019
2560 Rain 10 1012 100 10000 2 10 20:36 03.09.2019
2561 Rain 10 1012 100 10000 2 10 20:36 03.09.2019
2562 Clouds 9 1012 100 10000 2 10 20:18 03.09.2019
2563 Clouds 9 1012 100 10000 2 340 19:42 03.09.2019
2564 Clouds 9 1013 100 10000 3 330 19:19 03.09.2019
2565 Clouds 10 1012 100 10000 2 300 18:56 03.09.2019
2566 Clouds 10 1012 100 10000 2 300 18:38 03.09.2019
2567 Clouds 11 1012 100 10000 3 340 18:18 03.09.2019
2568 Rain 11 1012 100 10000 4 330 17:43 03.09.2019
2569 Clouds 11 1012 100 10000 3 330 17:21 03.09.2019
2570 Clouds 11 1012 100 10000 3 330 17:00 03.09.2019
2571 Rain 12 1012 100 9000 2 330 16:41 03.09.2019
2572 Rain 12 1012 71 10000 3 350 16:22 03.09.2019
2573 Clouds 12 1012 100 10000 4 280 15:42 03.09.2019
2574 Clouds 13 1012 100 10000 3 260 15:22 03.09.2019
2575 Clouds 13 1012 100 10000 3 260 15:00 03.09.2019
2576 Clouds 13 1011 100 10000 1 0 14:41 03.09.2019
2577 Rain 13 1012 100 10000 1 0 14:22 03.09.2019
2578 Rain 13 1012 100 10000 1 0 13:58 03.09.2019
2579 Rain 13 1012 87 8000 5.77 15.628 13:38 03.09.2019
2580 Clouds 14 1012 71 10000 2 240 13:20 03.09.2019
2581 Clouds 14 1012 71 10000 2 240 12:57 03.09.2019
2582 Rain 14 1011 71 10000 3 250 12:39 03.09.2019
2583 Rain 14 1011 71 10000 3 250 12:39 03.09.2019
2584 Clouds 15 1011 72 10000 4 240 12:21 03.09.2019
2585 Rain 15 1011 82 10000 3 280 11:43 03.09.2019
2586 Rain 15 1011 82 10000 3 280 11:23 03.09.2019
2587 Rain 15 1011 82 10000 3 280 11:23 03.09.2019
2588 Rain 14 1011 93 10000 4 260 10:58 03.09.2019
2589 Clouds 14 1011 87 10000 3 240 10:39 03.09.2019
2590 Clouds 14 1011 87 10000 2 210 10:20 03.09.2019
2591 Clouds 14 1011 87 10000 2 270 09:48 03.09.2019
2592 Clouds 14 1011 87 10000 2 270 09:30 03.09.2019
2593 Clouds 15 1011 82 10000 2 190 08:56 03.09.2019
2594 Clouds 15 1011 77 10000 1 0 08:37 03.09.2019
2595 Clouds 14 1011 82 10000 1 0 08:19 03.09.2019
2596 Clouds 13 1012 93 10000 1 0 07:42 03.09.2019
2597 Clouds 12 1011 100 10000 2 300 07:23 03.09.2019
2598 Rain 12 1012 100 10000 2 260 06:45 03.09.2019
2599 Clouds 11 1011 100 10000 2 260 06:18 03.09.2019
2600 Clouds 10 1011 100 10000 2 240 03:43 03.09.2019
2601 Clouds 10 1011 100 10000 2 250 02:47 03.09.2019
2602 Clouds 10 1011 100 10000 2 250 02:25 03.09.2019
2603 Clouds 10 1010 100 10000 2 240 01:51 03.09.2019
2604 Clouds 10 1010 100 10000 2 240 01:32 03.09.2019
2605 Clouds 10 1010 100 10000 1 0 00:44 03.09.2019
2606 Clouds 10 1010 100 10000 1 0 00:25 03.09.2019
2607 Clouds 10 1010 100 10000 2 260 23:40 02.09.2019
2608 Clouds 10 1010 100 10000 2 260 23:40 02.09.2019
2609 Clouds 10 1010 100 10000 1 0 23:20 02.09.2019
2610 Clouds 10 1010 100 10000 1 0 22:56 02.09.2019
2611 Clouds 10 1010 100 10000 1 0 22:56 02.09.2019
2612 Clouds 10 1010 100 10000 1 0 22:56 02.09.2019
2613 Clear 10 1010 100 10000 2 240 22:38 02.09.2019
2614 Clear 10 1010 100 10000 1 210 22:20 02.09.2019
2615 Clear 10 1010 100 10000 1 210 21:58 02.09.2019
2616 Clear 10 1010 100 10000 1 190 21:40 02.09.2019
2617 Clouds 11 1010 100 10000 2 230 21:20 02.09.2019
2618 Clouds 11 1010 100 10000 2 230 21:20 02.09.2019
2619 Clouds 11 1010 100 10000 2 230 20:59 02.09.2019
2620 Clouds 11 1010 100 10000 1 0 20:40 02.09.2019
2621 Clouds 11 1010 100 10000 2 210 20:18 02.09.2019
2622 Clouds 11 1010 100 10000 2 210 19:56 02.09.2019
2623 Clouds 11 1010 100 10000 2 200 19:38 02.09.2019
2624 Clouds 11 1009 100 10000 2 220 19:19 02.09.2019
2625 Clouds 11 1009 100 10000 2 240 18:40 02.09.2019
2626 Clouds 12 1009 100 10000 2 210 18:22 02.09.2019
2627 Clouds 12 1009 100 10000 1 0 17:57 02.09.2019
2628 Clouds 12 1009 100 10000 1 0 17:39 02.09.2019
2629 Clouds 12 1008 100 10000 2 200 17:20 02.09.2019
2630 Clouds 12 1008 100 10000 2 210 16:42 02.09.2019
2631 Clouds 12 1008 100 10000 2 210 16:23 02.09.2019
2632 Clouds 13 1008 93 10000 2 190 15:59 02.09.2019
2633 Clouds 13 1008 87 10000 2 190 15:41 02.09.2019
2634 Clouds 13 1007 87 10000 3 210 15:21 02.09.2019
2635 Clouds 13 1007 87 10000 3 210 14:56 02.09.2019
2636 Clouds 14 1007 76 10000 4 200 14:37 02.09.2019
2637 Clouds 14 1007 82 10000 3 210 14:19 02.09.2019
2638 Clouds 14 1006 76 10000 3 190 13:45 02.09.2019
2639 Clouds 14 1006 76 10000 3 190 13:25 02.09.2019
2640 -273 0 0 0 0 0 13:25 02.09.2019
2641 Clouds 14 1006 76 10000 3 160 12:57 02.09.2019
2642 Clouds 15 1006 72 10000 4 200 12:38 02.09.2019
2643 Clouds 14 1006 76 10000 4 170 12:18 02.09.2019
2644 Clouds 14 1006 76 10000 4 170 11:55 02.09.2019
2645 Clouds 14 1005 82 10000 5 150 11:36 02.09.2019
2646 Clouds 14 1005 76 10000 4 160 11:18 02.09.2019
2647 Clouds 14 1005 82 10000 4 160 10:42 02.09.2019
2648 Clouds 13 1004 93 10000 3 150 10:22 02.09.2019
2649 Clouds 13 1004 93 10000 3 150 09:58 02.09.2019
2650 Clouds 13 1004 87 10000 3 170 09:38 02.09.2019
2651 Clouds 13 1004 93 10000 4 160 09:20 02.09.2019
2652 Rain 12 1003 100 10000 3 150 08:42 02.09.2019
2653 Rain 12 1003 100 10000 3 150 08:42 02.09.2019
2654 Clouds 13 1003 100 10000 2 180 08:21 02.09.2019
2655 Clouds 13 1003 100 10000 2 180 07:54 02.09.2019
2656 Clouds 13 1003 100 10000 2 180 07:54 02.09.2019
2657 Clouds 12 1003 100 10000 4 150 07:36 02.09.2019
2658 Clouds 11 1003 100 10000 3 150 07:18 02.09.2019
2659 Clouds 11 1002 100 10000 4 150 06:39 02.09.2019
2660 Rain 10 1002 100 10000 4 150 05:53 02.09.2019
2661 Clouds 10 1001 100 10000 4 150 05:22 02.09.2019
2662 Rain 10 1001 100 9000 3 150 04:47 02.09.2019
2663 Clouds 10 1000 100 10000 3 150 01:59 02.09.2019
2664 Clouds 10 999 100 10000 2 150 00:58 02.09.2019
2665 Clouds 11 999 100 10000 2 170 00:32 02.09.2019
2666 Clouds 11 999 100 9000 1 0 23:59 01.09.2019
2667 Clouds 11 999 100 9000 1 0 23:38 01.09.2019
2668 Clouds 11 999 100 10000 1 0 23:18 01.09.2019
2669 Clouds 11 999 100 10000 1 0 22:54 01.09.2019
2670 Clouds 11 999 100 10000 1 0 22:36 01.09.2019
2671 Mist 11 999 100 10000 1 0 22:18 01.09.2019
2672 Clouds 11 998 100 9000 2 190 21:41 01.09.2019
2673 Clouds 11 998 100 6000 2 200 21:23 01.09.2019
2674 Clouds 11 998 100 6000 2 200 21:23 01.09.2019
2675 Clouds 11 998 100 6000 2 200 20:57 01.09.2019
2676 Clouds 11 998 100 6000 2 220 20:38 01.09.2019
2677 Rain 11 998 100 5000 2 210 20:19 01.09.2019
2678 Rain 11 998 100 5000 2 210 19:58 01.09.2019
2679 Rain 11 998 100 4400 2 230 19:39 01.09.2019
2680 Rain 11 998 100 3500 2 220 19:20 01.09.2019
2681 Rain 11 998 100 9000 1 240 18:44 01.09.2019
2682 Rain 11 999 100 10000 5.51 180.541 18:25 01.09.2019
2683 Clouds 11 998 100 10000 1 330 17:57 01.09.2019
2684 Clouds 11 998 100 10000 1 330 17:38 01.09.2019
2685 Clouds 11 998 100 10000 2.24 205.327 17:19 01.09.2019
2686 Clouds 11 998 100 10000 1 160 16:41 01.09.2019
2687 Clouds 11 998 100 10000 1 160 16:41 01.09.2019
2688 Rain 11 998 100 10000 2.24 205.327 16:20 01.09.2019
2689 Rain 11 998 100 10000 2.24 205.327 15:56 01.09.2019
2690 Rain 11 998 100 10000 2.24 205.327 15:55 01.09.2019
2691 Clouds 12 998 100 10000 2 20 15:37 01.09.2019
2692 Clouds 12 998 100 10000 2 40 15:19 01.09.2019
2693 Clouds 12 998 100 10000 3 10 14:41 01.09.2019
2694 Clouds 13 998 100 10000 2 340 14:21 01.09.2019
2695 Clouds 13 998 100 10000 2 340 13:57 01.09.2019
2696 Clouds 13 998 82 10000 1 0 13:39 01.09.2019
2697 Rain 13 998 87 10000 2 250 13:20 01.09.2019
2698 Clouds 13 998 93 10000 1 0 12:42 01.09.2019
2699 Clouds 13 998 93 10000 1 0 12:24 01.09.2019
2700 Rain 13 998 87 10000 1 0 11:55 01.09.2019
2701 Rain 13 997 82 10000 2 150 11:36 01.09.2019
2702 Clouds 13 997 82 10000 2 120 11:18 01.09.2019
2703 Clouds 13 997 82 10000 3 110 10:43 01.09.2019
2704 Clouds 13 997 82 10000 3 110 10:23 01.09.2019
2705 Rain 12 997 100 9000 5 80 09:44 01.09.2019
2706 Rain 12 997 100 9000 5 80 09:25 01.09.2019
2707 Clouds 12 996 93 10000 3 120 08:45 01.09.2019
2708 Clouds 12 996 93 10000 3 120 08:25 01.09.2019
2709 Clouds 12 996 93 10000 3 110 07:59 01.09.2019
2710 Clouds 12 996 93 10000 3 100 07:40 01.09.2019
2711 Clouds 11 996 100 10000 3 100 06:59 01.09.2019
2712 Rain 10 996 100 9000 2 110 06:34 01.09.2019
2713 Rain 11 996 100 10000 3 90 05:57 01.09.2019
2714 Rain 11 996 100 10000 3 90 05:57 01.09.2019
2715 Rain 10 995 100 10000 4 90 04:32 01.09.2019
2716 Clouds 10 995 100 10000 4 100 03:42 01.09.2019
2717 Clouds 10 995 100 10000 4 90 02:58 01.09.2019
2718 Clouds 10 995 100 10000 5 100 02:28 01.09.2019
2719 Clouds 10 995 100 10000 4 100 01:51 01.09.2019
2720 Clouds 10 995 100 10000 4 100 01:51 01.09.2019
2721 Clouds 10 994 100 10000 5 100 01:23 01.09.2019
2722 Clouds 10 994 100 10000 4 90 00:46 01.09.2019
2723 Clouds 11 994 100 10000 5 100 00:23 01.09.2019
2724 Clouds 11 994 100 10000 4 90 23:54 31.08.2019
2725 Clouds 11 994 100 10000 4 90 23:36 31.08.2019
2726 Clouds 11 994 100 10000 5 110 23:18 31.08.2019
2727 Clouds 11 994 100 10000 5 110 23:18 31.08.2019
2728 Clouds 11 994 100 10000 5 100 22:44 31.08.2019
2729 Clouds 11 994 100 10000 5 100 22:25 31.08.2019
2730 Clouds 11 994 100 10000 5 100 21:57 31.08.2019
2731 Clouds 12 994 100 10000 5 100 21:38 31.08.2019
2732 Clouds 12 994 100 10000 5 90 21:19 31.08.2019
2733 Clouds 12 994 100 10000 4 100 20:47 31.08.2019
2734 Clouds 12 994 100 10000 4 100 20:29 31.08.2019
2735 Clouds 12 994 100 10000 6 110 19:56 31.08.2019
2736 Clouds 12 994 100 10000 6 100 19:38 31.08.2019
2737 Clouds 12 994 100 10000 6 100 19:38 31.08.2019
2738 Clouds 12 994 100 9000 5 120 19:20 31.08.2019
2739 Clouds 12 994 100 10000 6 110 18:40 31.08.2019
2740 Clouds 12 994 100 10000 5 100 18:20 31.08.2019
2741 Clouds 12 994 100 10000 5 100 17:57 31.08.2019
2742 Clouds 12 994 100 10000 6 100 17:37 31.08.2019
2743 Clouds 12 994 100 10000 6 100 17:37 31.08.2019
2744 Rain 13 994 100 8000 5 110 17:18 31.08.2019
2745 Rain 13 994 100 8000 5 110 16:57 31.08.2019
2746 Rain 13 994 100 6000 5 110 16:39 31.08.2019
2747 Clouds 13 993 100 10000 6 100 16:20 31.08.2019
2748 -273 0 0 0 0 0 15:55 31.08.2019
2749 Rain 13 993 100 10000 6 110 15:36 31.08.2019
2750 Clouds 13 993 100 10000 4 120 15:18 31.08.2019
2751 Rain 13 993 100 10000 4 110 14:41 31.08.2019
2752 Rain 13 993 100 10000 4 110 14:41 31.08.2019
2753 Rain 14 993 100 9000 3 50 14:22 31.08.2019
2754 Rain 13 993 100 9000 3 50 13:41 31.08.2019
2755 Rain 13 993 100 9000 3 80 13:23 31.08.2019
2756 Rain 13 993 100 9000 3 80 13:23 31.08.2019
2757 Rain 13 993 100 9000 3 80 12:59 31.08.2019
2758 Clouds 14 992 87 10000 3 100 12:39 31.08.2019
2759 Clouds 13 992 100 10000 4 100 12:20 31.08.2019
2760 Clouds 13 992 100 9000 5 100 11:48 31.08.2019
2761 Clouds 13 992 100 9000 5 100 11:30 31.08.2019
2762 Clouds 12 992 100 10000 4 100 10:59 31.08.2019
2763 Clouds 12 992 100 10000 5 100 10:41 31.08.2019
2764 Clouds 11 992 100 10000 4 100 10:19 31.08.2019
2765 Clouds 11 992 100 10000 4 100 09:56 31.08.2019
2766 Clouds 11 991 100 10000 3 90 09:37 31.08.2019
2767 Clouds 11 991 100 10000 3 70 09:19 31.08.2019
2768 Drizzle 11 991 100 10000 3 90 08:42 31.08.2019
2769 Drizzle 11 991 100 10000 3 90 08:22 31.08.2019
2770 Drizzle 10 991 100 6000 4 40 07:40 31.08.2019
2771 Drizzle 9 991 100 1500 4 30 07:21 31.08.2019
2772 Rain 9 991 100 2600 4 30 06:28 31.08.2019
2773 Rain 9 991 100 2600 4 30 06:28 31.08.2019
2774 Rain 8 991 100 2800 4 30 05:58 31.08.2019
2775 Rain 8 992 100 9000 5 30 05:31 31.08.2019
2776 Rain 8 992 100 10000 6 30 04:32 31.08.2019
2777 Rain 8 993 100 9000 6 30 03:44 31.08.2019
2778 Rain 8 994 100 9000 5 30 02:30 31.08.2019
2779 Rain 8 995 100 7000 6 20 01:53 31.08.2019
2780 Rain 8 995 100 7000 6 20 01:33 31.08.2019
2781 Rain 8 996 100 8000 6 20 00:49 31.08.2019
2782 Rain 8 996 100 8000 6 20 00:30 31.08.2019
2783 Rain 8 997 100 8000 7 30 23:57 30.08.2019
2784 Rain 8 997 100 8000 7 30 23:38 30.08.2019
2785 Rain 8 997 100 8000 7 20 23:18 30.08.2019
2786 Rain 8 997 100 8000 7 20 23:18 30.08.2019
2787 Rain 9 998 87 9000 7 30 22:40 30.08.2019
2788 Clouds 9 998 81 10000 6 30 22:22 30.08.2019
2789 Clouds 9 998 81 10000 6 30 21:58 30.08.2019
2790 Clear 9 999 81 10000 6 30 21:37 30.08.2019
2791 Clear 9 1000 81 10000 7 20 21:19 30.08.2019
2792 Clear 9 1000 81 10000 7 20 20:58 30.08.2019
2793 Clear 9 1001 87 10000 6 30 20:39 30.08.2019
2794 Clear 10 1001 81 10000 6 30 20:20 30.08.2019
2795 Clear 10 1001 81 10000 6 30 19:57 30.08.2019
2796 Clear 10 1002 81 10000 6 40 19:38 30.08.2019
2797 Clear 10 1002 81 10000 6 40 19:19 30.08.2019
2798 Clear 10 1003 76 10000 5 30 18:47 30.08.2019
2799 Clouds 10 1004 76 10000 5 30 18:25 30.08.2019
2800 Clouds 11 1004 71 10000 4 30 17:58 30.08.2019
2801 Clouds 11 1004 71 10000 4 30 17:40 30.08.2019
2802 Clouds 11 1004 71 10000 4 40 17:19 30.08.2019
2803 Clouds 11 1004 71 10000 4 40 16:57 30.08.2019
2804 Clear 12 1005 66 10000 4 40 16:39 30.08.2019
2805 Clear 12 1005 66 10000 5 40 16:21 30.08.2019
2806 Clear 13 1005 62 10000 6 50 15:43 30.08.2019
2807 Clear 13 1005 62 10000 6 50 15:22 30.08.2019
2808 Clear 13 1006 62 10000 6 50 14:45 30.08.2019
2809 Clear 13 1006 62 10000 6 50 14:26 30.08.2019
2810 Clear 13 1006 58 10000 7 50 13:57 30.08.2019
2811 Clear 14 1006 54 10000 7 50 13:39 30.08.2019
2812 Clear 14 1006 54 10000 7 50 13:39 30.08.2019
2813 Clear 14 1007 54 10000 7 50 13:21 30.08.2019
2814 Clear 14 1007 54 10000 7 40 12:45 30.08.2019
2815 Clear 14 1007 54 10000 7 40 12:26 30.08.2019
2816 Clear 14 1007 54 10000 6 50 11:57 30.08.2019
2817 Clear 14 1008 54 10000 7 60 11:39 30.08.2019
2818 Clear 14 1008 54 10000 7 60 11:39 30.08.2019
2819 Clouds 14 1008 54 10000 7 50 11:21 30.08.2019
2820 Clouds 14 1008 54 10000 6 40 10:37 30.08.2019
2821 Clouds 13 1009 58 10000 7 50 10:19 30.08.2019
2822 Clouds 13 1009 58 10000 7 50 09:55 30.08.2019
2823 Clouds 13 1009 58 10000 4 50 09:36 30.08.2019
2824 Clouds 13 1010 58 10000 5 60 09:18 30.08.2019
2825 Clouds 13 1010 58 10000 5 60 09:18 30.08.2019
2826 Clouds 12 1011 62 10000 5 90 08:43 30.08.2019
2827 Clouds 12 1011 62 10000 5 90 08:23 30.08.2019
2828 Clouds 11 1011 66 10000 4 80 07:46 30.08.2019
2829 Clouds 11 1011 66 10000 4 80 07:26 30.08.2019
2830 Clouds 11 1011 66 10000 4 80 06:58 30.08.2019
2831 Clear 11 1012 71 10000 5 80 06:39 30.08.2019
2832 Clear 11 1012 71 10000 4 70 06:20 30.08.2019
2833 Clear 9 1013 81 10000 4 80 05:28 30.08.2019
2834 Clear 7 1013 87 10000 3 60 03:56 30.08.2019
2835 Clear 5 1013 100 10000 3 100 03:37 30.08.2019
2836 Clear 6 1013 100 10000 4 40 02:41 30.08.2019
2837 Clear 6 1014 100 10000 3 40 01:40 30.08.2019
2838 Clear 7 1014 93 10000 3 50 00:53 30.08.2019
2839 Clear 7 1014 93 10000 3 50 00:20 30.08.2019
2840 Clear 8 1015 81 10000 3 40 23:47 29.08.2019
2841 Clear 8 1015 81 10000 3 40 23:22 29.08.2019
2842 Clear 8 1015 81 10000 3 40 23:22 29.08.2019
2843 Clear 8 1015 87 10000 1 50 22:45 29.08.2019
2844 Clear 8 1015 87 10000 1 50 22:27 29.08.2019
2845 Clear 8 1015 87 10000 1 50 22:27 29.08.2019
2846 Clear 8 1015 93 10000 2 50 21:59 29.08.2019
2847 Clear 8 1015 93 10000 1 0 21:41 29.08.2019
2848 Clear 7 1016 100 10000 3.61 60.747 21:21 29.08.2019
2849 -273 0 0 0 0 0 20:59 29.08.2019
2850 Clear 7 1016 93 10000 3.61 60.747 20:40 29.08.2019
2851 Clear 7 1016 93 10000 3.61 60.747 20:19 29.08.2019
2852 Clear 7 1016 93 10000 3.61 60.747 19:47 29.08.2019
2853 Clear 7 1016 87 10000 3.61 60.747 19:27 29.08.2019
2854 Clear 7 1016 93 10000 3.61 60.747 18:59 29.08.2019
2855 Clear 7 1016 93 10000 3.61 60.747 18:41 29.08.2019
2856 Clear 7 1016 93 10000 3.55 56.565 18:19 29.08.2019
2857 Clear 8 1016 87 10000 2 60 17:56 29.08.2019
2858 Clear 8 1016 87 10000 1 60 17:36 29.08.2019
2859 Clear 8 1016 87 10000 1 60 17:18 29.08.2019
2860 Clear 12 1016 62 10000 2 70 16:43 29.08.2019
2861 Clear 12 1016 62 10000 2 70 16:23 29.08.2019
2862 Clear 12 1016 62 10000 2 70 15:57 29.08.2019
2863 Clear 12 1016 62 10000 3 50 15:37 29.08.2019
2864 Clear 13 1016 58 10000 3 30 15:18 29.08.2019
2865 Clear 13 1016 58 10000 1 0 14:43 29.08.2019
2866 Clear 13 1016 54 10000 2 40 14:21 29.08.2019
2867 Clear 13 1016 54 10000 2 40 13:58 29.08.2019
2868 Clear 13 1016 54 10000 2 340 13:39 29.08.2019
2869 Clear 13 1016 54 10000 2 340 13:39 29.08.2019
2870 Clear 13 1016 54 10000 2 360 13:20 29.08.2019
2871 Clear 13 1016 54 10000 2 360 12:58 29.08.2019
2872 Clear 13 1016 54 10000 2 300 12:38 29.08.2019
2873 Clear 14 1016 50 10000 2 20 12:20 29.08.2019
2874 Clear 14 1016 50 10000 2 20 11:57 29.08.2019
2875 Clear 13 1016 54 10000 2 310 11:36 29.08.2019
2876 Clear 13 1016 54 10000 2 70 11:18 29.08.2019
2877 Clear 13 1016 54 10000 3 40 10:41 29.08.2019
2878 Clear 12 1017 54 10000 3 20 10:23 29.08.2019
2879 Clear 12 1017 58 10000 2 110 09:42 29.08.2019
2880 Clear 12 1017 58 10000 3 340 09:20 29.08.2019
2881 Clear 12 1017 58 10000 3 340 08:56 29.08.2019
2882 Clear 11 1017 62 10000 2 360 08:37 29.08.2019
2883 Clear 10 1017 71 10000 3 300 08:19 29.08.2019
2884 Clouds 10 1017 71 10000 3 290 07:43 29.08.2019
2885 Clouds 10 1017 66 10000 3 290 07:23 29.08.2019
2886 Clouds 10 1017 66 10000 3 280 06:42 29.08.2019
2887 Clouds 10 1017 66 10000 4 290 06:18 29.08.2019
2888 Clouds 9 1016 70 10000 4 270 05:38 29.08.2019
2889 Clouds 8 1016 81 10000 3 280 04:50 29.08.2019
2890 Clouds 8 1016 81 10000 3 280 04:28 29.08.2019
2891 Clouds 8 1016 81 10000 3 280 02:44 29.08.2019
2892 Clouds 8 1015 75 10000 4 290 01:42 29.08.2019
2893 Clouds 8 1015 81 10000 3 290 00:56 29.08.2019
2894 Clouds 8 1015 87 10000 4 280 00:37 29.08.2019
2895 Clouds 8 1015 93 10000 3 260 00:18 29.08.2019
2896 Clouds 8 1014 100 10000 3 280 23:41 28.08.2019
2897 Clouds 8 1014 100 10000 3 280 23:22 28.08.2019
2898 Clouds 8 1014 100 10000 3 250 22:57 28.08.2019
2899 Clouds 8 1014 100 10000 2 260 22:38 28.08.2019
2900 Clouds 8 1014 100 10000 1 0 22:18 28.08.2019
2901 Clouds 8 1014 100 10000 1 0 21:57 28.08.2019
2902 Clouds 8 1014 100 9000 2 310 21:38 28.08.2019
2903 Clouds 8 1013 100 10000 2 280 21:19 28.08.2019
2904 Clouds 8 1013 100 10000 3 270 20:41 28.08.2019
2905 Clouds 8 1013 100 10000 3 290 20:22 28.08.2019
2906 Clouds 8 1013 100 10000 4 280 19:55 28.08.2019
2907 Clouds 8 1013 100 10000 4 280 19:37 28.08.2019
2908 Clouds 8 1013 100 10000 4 280 19:37 28.08.2019
2909 Clouds 9 1013 93 10000 4 280 19:18 28.08.2019
2910 Clouds 9 1013 100 10000 4 280 18:41 28.08.2019
2911 Clouds 9 1012 100 10000 5 280 18:21 28.08.2019
2912 Rain 9 1012 100 10000 5 270 17:40 28.08.2019
2913 Clouds 9 1011 93 10000 6 260 17:21 28.08.2019
2914 Clouds 9 1011 93 10000 6 260 16:59 28.08.2019
2915 Rain 10 1011 93 9000 5 260 16:41 28.08.2019
2916 Rain 10 1011 87 9000 5 280 16:18 28.08.2019
2917 Rain 10 1010 93 10000 7 260 15:39 28.08.2019
2918 Clouds 11 1010 76 10000 7 260 15:20 28.08.2019
2919 Clouds 11 1010 76 10000 7 260 14:59 28.08.2019
2920 Clouds 11 1010 81 10000 8 280 14:41 28.08.2019
2921 Clouds 10 1009 87 10000 9 270 14:21 28.08.2019
2922 Clouds 10 1009 87 10000 9 270 13:59 28.08.2019
2923 Rain 10 1009 100 10000 8 270 13:39 28.08.2019
2924 Rain 10 1009 87 9000 8 260 13:20 28.08.2019
2925 Rain 10 1009 87 9000 8 260 12:56 28.08.2019
2926 Clouds 11 1008 87 10000 8 260 12:38 28.08.2019
2927 Rain 9 1008 100 9000 8 260 12:20 28.08.2019
2928 Rain 10 1007 87 9000 10 260 11:40 28.08.2019
2929 Rain 10 1007 93 9000 9 270 11:21 28.08.2019
2930 Rain 10 1007 93 9000 9 270 10:56 28.08.2019
2931 Rain 10 1007 93 9000 9 270 10:56 28.08.2019
2932 Rain 10 1007 93 9000 9 270 10:56 28.08.2019
2933 Rain 10 1006 100 8000 10 250 10:37 28.08.2019
2934 Rain 9 1006 100 10000 9 260 10:19 28.08.2019
2935 Rain 10 1005 93 10000 10 270 09:41 28.08.2019
2936 Rain 9 1004 93 10000 11 270 09:21 28.08.2019
2937 Rain 10 1004 81 10000 12 270 08:40 28.08.2019
2938 Clouds 9 1003 87 10000 10 260 08:21 28.08.2019
2939 Clouds 9 1003 87 10000 10 260 07:57 28.08.2019
2940 Rain 9 1003 87 10000 9 250 07:36 28.08.2019
2941 Rain 9 1002 87 10000 10 260 07:18 28.08.2019
2942 Clouds 9 1002 87 10000 10 260 06:40 28.08.2019
2943 Drizzle 8 1001 100 10000 10 260 05:47 28.08.2019
2944 Rain 8 1000 100 10000 10 270 03:55 28.08.2019
2945 Rain 8 998 100 6000 9 260 01:53 28.08.2019
2946 Rain 8 998 100 10000 9 260 01:30 28.08.2019
2947 Rain 8 997 100 10000 9 280 00:42 28.08.2019
2948 Rain 8 997 100 10000 9 280 00:18 28.08.2019
2949 Rain 8 997 100 10000 9 280 23:40 27.08.2019
2950 Rain 8 996 100 8000 8 280 23:21 27.08.2019
2951 Rain 8 996 100 8000 8 280 22:57 27.08.2019
2952 Rain 8 996 100 10000 8 280 22:38 27.08.2019
2953 Rain 8 996 100 10000 8 280 22:20 27.08.2019
2954 Rain 8 996 100 10000 8 280 21:55 27.08.2019
2955 Rain 8 996 100 10000 8 280 21:55 27.08.2019
2956 Rain 9 995 100 9000 8 280 21:37 27.08.2019
2957 Rain 9 995 100 9000 8 280 21:37 27.08.2019
2958 Rain 9 995 100 9000 8 280 21:18 27.08.2019
2959 Rain 9 995 100 9000 7 280 20:42 27.08.2019
2960 Rain 9 994 100 5000 7 280 20:21 27.08.2019
2961 Rain 9 994 100 5000 7 280 19:58 27.08.2019
2962 Rain 9 994 100 5000 7 280 19:58 27.08.2019
2963 Rain 9 994 100 6000 7 280 19:40 27.08.2019
2964 Rain 9 994 100 10000 7 280 19:22 27.08.2019
2965 Rain 9 994 100 9000 7 280 18:43 27.08.2019
2966 Rain 9 994 100 10000 7 280 18:19 27.08.2019
2967 Rain 9 994 100 10000 7 280 17:59 27.08.2019
2968 Rain 9 993 100 10000 6 280 17:41 27.08.2019
2969 Rain 9 993 100 10000 6 280 17:22 27.08.2019
2970 Rain 10 993 100 5000 7 290 16:47 27.08.2019
2971 Rain 10 993 100 5000 7 290 16:28 27.08.2019
2972 Rain 10 993 100 5000 7 290 16:28 27.08.2019
2973 Rain 10 993 100 5000 7 290 16:28 27.08.2019
2974 Rain 11 993 100 3500 6 290 15:58 27.08.2019
2975 Rain 12 993 100 1700 6 260 15:40 27.08.2019
2976 Rain 12 993 100 2800 5 250 15:21 27.08.2019
2977 Rain 12 993 100 2800 5 250 14:57 27.08.2019
2978 Rain 12 993 100 10000 5 250 14:39 27.08.2019
2979 Rain 12 993 100 10000 3 250 14:19 27.08.2019
2980 Rain 13 993 100 10000 4 280 13:42 27.08.2019
2981 Rain 12 993 100 9000 4 280 13:21 27.08.2019
2982 Rain 12 993 100 9000 4 280 12:55 27.08.2019
2983 Clouds 13 993 100 10000 4 280 12:36 27.08.2019
2984 Clouds 13 993 100 10000 5 270 12:18 27.08.2019
2985 Clouds 13 993 100 10000 5 270 12:18 27.08.2019
2986 Clouds 13 993 100 10000 3 290 11:42 27.08.2019
2987 Clouds 14 994 100 10000 3 290 11:22 27.08.2019
2988 Clouds 13 994 100 10000 1 0 10:41 27.08.2019
2989 Clouds 13 994 100 10000 1 0 10:20 27.08.2019
2990 Clouds 13 994 100 10000 1 0 09:57 27.08.2019
2991 Clouds 13 994 100 10000 1 0 09:37 27.08.2019
2992 Drizzle 13 995 100 9000 2 320 09:19 27.08.2019
2993 Drizzle 13 995 100 8000 1 0 08:46 27.08.2019
2994 Drizzle 13 995 100 8000 1 0 08:24 27.08.2019
2995 Drizzle 13 995 100 8000 2 10 07:56 27.08.2019
2996 Drizzle 12 995 100 7000 3 20 07:37 27.08.2019
2997 Clouds 12 996 100 10000 3 20 07:18 27.08.2019
2998 Clouds 12 996 100 8000 3 10 06:48 27.08.2019
2999 Drizzle 12 997 100 2800 4 30 06:19 27.08.2019
3000 Drizzle 12 997 100 3600 4 30 05:29 27.08.2019
3001 Mist 12 998 100 2700 6 40 03:45 27.08.2019
3002 Mist 12 999 100 5000 6 40 03:21 27.08.2019
3003 Rain 12 1000 100 5000 6 40 01:48 27.08.2019
3004 Rain 12 1000 100 5000 6 40 01:26 27.08.2019
3005 Rain 11 1001 100 9000 5 60 00:49 27.08.2019
3006 Rain 11 1001 100 9000 5 60 00:28 27.08.2019
3007 Clouds 12 1002 100 10000 5 60 23:44 26.08.2019
3008 Clouds 12 1002 100 10000 5 60 23:26 26.08.2019
3009 Clouds 12 1003 100 10000 5 70 22:59 26.08.2019
3010 Clouds 12 1003 100 10000 6 80 22:37 26.08.2019
3011 Clouds 12 1003 100 10000 7 80 22:19 26.08.2019
3012 Clouds 12 1004 100 10000 6 80 21:40 26.08.2019
3013 Clouds 12 1004 100 10000 6 80 21:22 26.08.2019
3014 Clouds 12 1004 100 10000 5 80 20:59 26.08.2019
3015 Clouds 12 1005 100 10000 6 80 20:41 26.08.2019
3016 Clouds 12 1005 100 10000 6 80 20:20 26.08.2019
3017 Clouds 12 1005 100 10000 5 80 19:58 26.08.2019
3018 Clouds 12 1005 100 10000 5 80 19:58 26.08.2019
3019 Clouds 12 1006 100 10000 5 80 19:40 26.08.2019
3020 Clouds 12 1006 100 10000 5 80 19:19 26.08.2019
3021 Clouds 12 1006 100 10000 5 80 18:55 26.08.2019
3022 Clouds 12 1007 100 10000 6 80 18:37 26.08.2019
3023 Clouds 12 1007 100 10000 6 90 18:18 26.08.2019
3024 Clouds 12 1007 100 10000 6 90 17:43 26.08.2019
3025 Clouds 12 1007 100 10000 6 90 17:19 26.08.2019
3026 Clouds 13 1007 100 10000 5 80 16:56 26.08.2019
3027 Clouds 13 1007 100 10000 5 80 16:56 26.08.2019
3028 Rain 13 1008 100 9000 5 90 16:38 26.08.2019
3029 Rain 13 1008 100 9000 5 90 16:18 26.08.2019
3030 Clouds 14 1008 87 10000 6 90 15:42 26.08.2019
3031 Clouds 14 1008 87 10000 6 90 15:22 26.08.2019
3032 Clouds 14 1008 82 10000 5 90 14:57 26.08.2019
3033 Clouds 14 1009 82 10000 5 120 14:37 26.08.2019
3034 Clouds 14 1009 82 10000 5 120 14:19 26.08.2019
3035 Clouds 14 1009 82 10000 7 100 13:42 26.08.2019
3036 Clouds 14 1009 82 10000 7 100 13:21 26.08.2019
3037 Clouds 14 1009 82 10000 6 100 12:46 26.08.2019
3038 Clouds 14 1009 82 10000 6 100 12:28 26.08.2019
3039 Clouds 14 1010 82 10000 7 100 11:59 26.08.2019
3040 Clouds 14 1010 82 10000 5 100 11:38 26.08.2019
3041 Clouds 14 1010 82 10000 5 100 11:19 26.08.2019
3042 Clouds 14 1010 76 10000 5 100 10:55 26.08.2019
3043 Clouds 14 1010 76 10000 5 100 10:55 26.08.2019
3044 Clouds 13 1010 82 10000 6 100 10:36 26.08.2019
3045 Clouds 13 1010 82 10000 6 100 10:18 26.08.2019
3046 Clouds 12 1010 87 10000 6 90 09:41 26.08.2019
3047 Clouds 12 1010 87 10000 6 90 09:23 26.08.2019
3048 Clouds 12 1011 87 10000 7 100 08:56 26.08.2019
3049 Clouds 11 1011 93 10000 6 100 08:37 26.08.2019
3050 Clouds 11 1011 93 10000 6 100 08:19 26.08.2019
3051 Clouds 10 1011 100 10000 5 90 07:42 26.08.2019
3052 Clouds 10 1011 100 10000 5 90 07:24 26.08.2019
3053 Clouds 10 1011 100 10000 5 90 06:50 26.08.2019
3054 Clouds 10 1011 100 10000 5 80 06:25 26.08.2019
3055 Clouds 10 1011 100 10000 4 90 05:58 26.08.2019
3056 Clouds 9 1011 100 10000 4 100 04:35 26.08.2019
3057 Clear 8 1012 100 10000 3 90 03:48 26.08.2019
3058 Clouds 8 1012 100 10000 3 80 02:19 26.08.2019
3059 Clouds 8 1012 100 10000 2 90 01:22 26.08.2019
3060 Clouds 8 1011 100 10000 4 100 00:42 26.08.2019
3061 Clouds 8 1011 100 10000 4 100 00:24 26.08.2019
3062 Rain 8 1012 100 10000 2 110 23:44 25.08.2019
3063 Rain 8 1012 100 10000 2 110 23:20 25.08.2019
3064 Clouds 8 1012 100 10000 2 90 22:58 25.08.2019
3065 Clouds 8 1012 100 10000 3 100 22:39 25.08.2019
3066 Clouds 8 1012 100 10000 3 100 22:20 25.08.2019
3067 Clouds 8 1012 100 10000 1.47 74.683 21:58 25.08.2019
3068 Clouds 8 1012 100 10000 1.47 74.683 21:58 25.08.2019
3069 Clouds 8 1012 100 10000 1 0 21:39 25.08.2019
3070 Clouds 8 1012 100 10000 1 0 21:18 25.08.2019
3071 Clear 8 1012 100 10000 1 0 20:40 25.08.2019
3072 Clear 8 1012 100 10000 1 0 20:20 25.08.2019
3073 Clear 8 1012 100 10000 2 60 19:58 25.08.2019
3074 Clear 9 1012 100 10000 1 0 19:39 25.08.2019
3075 Clear 9 1012 100 10000 1 0 19:20 25.08.2019
3076 Clear 9 1012 93 10000 1 0 18:58 25.08.2019
3077 Clear 9 1012 93 10000 1 0 18:39 25.08.2019
3078 Clear 10 1012 81 10000 2 10 18:21 25.08.2019
3079 Clear 11 1012 76 10000 3 10 17:46 25.08.2019
3080 Clear 11 1012 76 10000 3 10 17:25 25.08.2019
3081 Clear 12 1012 71 10000 2 10 16:59 25.08.2019
3082 Clear 13 1012 71 10000 3 340 16:37 25.08.2019
3083 Clear 13 1012 71 10000 3 340 16:18 25.08.2019
3084 Clear 15 1011 62 10000 4 310 15:43 25.08.2019
3085 Clear 15 1011 62 10000 4 310 15:25 25.08.2019
3086 Clear 16 1011 55 10000 5 310 14:43 25.08.2019
3087 Clear 16 1011 55 10000 5 310 14:25 25.08.2019
3088 Clear 16 1011 59 10000 5 310 13:57 25.08.2019
3089 Clear 16 1011 59 10000 6 290 13:38 25.08.2019
3090 Clear 16 1011 59 10000 6 290 13:19 25.08.2019
3091 Clear 16 1011 55 10000 5 300 12:48 25.08.2019
3092 Clear 16 1011 59 10000 6 310 12:26 25.08.2019
3093 Clear 16 1010 55 10000 6 290 11:59 25.08.2019
3094 Clear 16 1010 51 10000 7 290 11:40 25.08.2019
3095 Clear 16 1010 51 10000 7 290 11:21 25.08.2019
3096 Clear 16 1010 51 10000 7 290 11:21 25.08.2019
3097 Clear 16 1010 55 10000 7 290 10:57 25.08.2019
3098 Clear 15 1010 58 10000 8 280 10:39 25.08.2019
3099 Clear 15 1010 58 10000 8 280 10:19 25.08.2019
3100 Clear 15 1010 62 10000 8 280 09:44 25.08.2019
3101 Clear 15 1010 62 10000 8 280 09:25 25.08.2019
3102 Clouds 14 1009 62 10000 10 280 08:48 25.08.2019
3103 Clouds 13 1009 66 10000 10 280 08:30 25.08.2019
3104 Clouds 12 1009 76 10000 8 280 07:55 25.08.2019
3105 Clouds 12 1009 71 10000 8 290 07:34 25.08.2019
3106 Clouds 11 1008 76 10000 9 290 06:40 25.08.2019
3107 Clouds 11 1007 81 10000 9 280 05:42 25.08.2019
3108 Clouds 10 1006 87 10000 9 270 04:23 25.08.2019
3109 Clouds 9 1006 100 10000 8 270 02:58 25.08.2019
3110 Clouds 9 1006 100 10000 7 280 02:38 25.08.2019
3111 Clouds 10 1005 100 10000 6 290 01:18 25.08.2019
3112 Rain 10 1004 100 10000 6 300 00:37 25.08.2019
3113 Rain 10 1004 100 10000 6 300 00:18 25.08.2019
3114 Rain 10 1003 100 2600 8 300 23:45 24.08.2019
3115 Rain 10 1003 100 2600 8 300 23:22 24.08.2019
3116 Rain 10 1003 100 3200 10 290 22:54 24.08.2019
3117 Rain 10 1003 100 3200 10 290 22:54 24.08.2019
3118 Rain 10 1003 100 8000 9 290 22:36 24.08.2019
3119 Rain 10 1003 100 8000 9 290 22:18 24.08.2019
3120 Rain 11 1002 100 3400 10 280 21:42 24.08.2019
3121 Rain 11 1002 100 3400 10 280 21:24 24.08.2019
3122 Rain 11 1001 100 2700 10 280 20:59 24.08.2019
3123 Rain 11 1001 100 2700 9 270 20:41 24.08.2019
3124 Rain 11 1001 100 2700 9 270 20:20 24.08.2019
3125 Rain 11 1001 100 3800 10 270 19:59 24.08.2019
3126 Rain 12 1001 100 4300 8 260 19:40 24.08.2019
3127 Rain 12 1001 100 4300 8 260 19:22 24.08.2019
3128 Rain 12 1001 100 5000 9 260 18:56 24.08.2019
3129 Rain 12 1001 100 4800 9 270 18:36 24.08.2019
3130 Rain 13 1000 100 9000 9 280 18:18 24.08.2019
3131 Rain 14 1000 100 10000 8 250 17:42 24.08.2019
3132 Rain 14 1000 100 10000 8 250 17:23 24.08.2019
3133 Rain 14 999 100 10000 6 230 16:42 24.08.2019
3134 Rain 14 999 100 10000 6 230 16:19 24.08.2019
3135 Rain 14 1000 100 9000 6 240 15:55 24.08.2019
3136 Rain 14 1000 100 8000 7 220 15:37 24.08.2019
3137 Rain 14 1000 100 8000 7 220 15:19 24.08.2019
3138 Rain 15 1000 100 10000 6 230 14:42 24.08.2019
3139 Rain 15 1000 100 10000 6 230 14:20 24.08.2019
3140 Rain 15 1000 100 9000 7 230 13:55 24.08.2019
3141 Rain 14 1000 100 5000 7 230 13:37 24.08.2019
3142 Rain 14 1000 100 5000 7 230 13:18 24.08.2019
3143 Rain 15 1001 100 10000 7 230 12:42 24.08.2019
3144 Rain 15 1001 100 10000 7 230 12:42 24.08.2019
3145 Rain 15 1001 100 10000 7 230 12:23 24.08.2019
3146 Rain 15 1001 100 9000 6 220 11:55 24.08.2019
3147 Rain 15 1001 87 9000 7 230 11:37 24.08.2019
3148 Rain 15 1001 87 9000 7 230 11:18 24.08.2019
3149 Clouds 16 1001 77 10000 7 220 10:41 24.08.2019
3150 Clouds 16 1001 77 10000 7 220 10:21 24.08.2019
3151 Rain 15 1001 82 7000 8 240 09:44 24.08.2019
3152 Rain 15 1001 82 7000 8 240 09:19 24.08.2019
3153 Rain 16 1001 77 10000 7 230 08:44 24.08.2019
3154 Rain 16 1001 77 10000 7 230 08:26 24.08.2019
3155 Clouds 17 1001 67 10000 8 240 07:54 24.08.2019
3156 Clouds 17 1001 67 10000 8 240 07:54 24.08.2019
3157 Clouds 17 1002 72 10000 6 240 07:33 24.08.2019
3158 Clouds 16 1002 82 10000 6 250 06:58 24.08.2019
3159 Clouds 16 1002 82 10000 7 230 06:23 24.08.2019
3160 Clouds 16 1002 93 10000 5 260 05:40 24.08.2019
3161 Clear 15 1002 100 10000 5 240 03:51 24.08.2019
3162 Clear 15 1002 100 10000 4 250 03:32 24.08.2019
3163 Clouds 15 1001 100 10000 7 260 02:23 24.08.2019
3164 Rain 16 1001 100 10000 5 240 01:29 24.08.2019
3165 Rain 17 1001 100 3800 5 200 00:49 24.08.2019
3166 Clouds 17 1001 100 10000 3 200 00:24 24.08.2019
3167 Clouds 17 1002 100 10000 4 200 23:47 23.08.2019
3168 Clouds 17 1002 100 10000 4 190 23:23 23.08.2019
3169 Clouds 17 1002 100 10000 4 200 22:58 23.08.2019
3170 Clouds 17 1003 100 10000 5 190 22:40 23.08.2019
3171 Clouds 17 1003 100 10000 5 190 22:20 23.08.2019
3172 Clouds 19 1003 72 10000 4 160 21:38 23.08.2019
3173 Clouds 19 1003 72 10000 4 160 21:19 23.08.2019
3174 Clouds 19 1004 72 10000 4 160 20:53 23.08.2019
3175 Clouds 20 1005 68 10000 5 180 20:35 23.08.2019
3176 Clouds 20 1005 64 10000 4 180 19:54 23.08.2019
3177 Clouds 20 1005 64 10000 4 180 19:54 23.08.2019
3178 Clear 20 1006 68 10000 5 180 19:36 23.08.2019
3179 Clear 20 1007 68 10000 5 180 19:18 23.08.2019
3180 Clear 20 1007 68 10000 5 180 19:18 23.08.2019
3181 Clear 21 1007 64 10000 4 190 18:42 23.08.2019
3182 Clear 21 1007 64 10000 4 190 18:24 23.08.2019
3183 Clear 21 1008 64 10000 3 190 17:46 23.08.2019
3184 Clear 21 1008 64 10000 3 190 17:28 23.08.2019
3185 Clear 21 1008 64 10000 4 190 16:59 23.08.2019
3186 Clear 21 1009 64 10000 4 190 16:40 23.08.2019
3187 Clear 21 1009 64 10000 4 190 16:22 23.08.2019
3188 Clear 22 1009 64 10000 2 180 15:41 23.08.2019
3189 Clear 22 1009 64 10000 2 180 15:22 23.08.2019
3190 Clear 22 1010 60 10000 2 200 14:58 23.08.2019
3191 Clear 22 1010 60 10000 3 200 14:39 23.08.2019
3192 Clear 22 1010 60 10000 3 200 14:20 23.08.2019
3193 Clouds 22 1010 60 10000 3 210 13:56 23.08.2019
3194 Clouds 22 1010 56 10000 3 240 13:37 23.08.2019
3195 Clouds 22 1010 56 10000 3 240 13:19 23.08.2019
3196 Clouds 22 1011 56 10000 5 240 12:42 23.08.2019
3197 Clouds 22 1011 56 10000 5 240 12:24 23.08.2019
3198 Clouds 22 1011 56 10000 5 230 11:59 23.08.2019
3199 Clouds 23 1011 53 10000 5 220 11:40 23.08.2019
3200 Clouds 23 1011 53 10000 5 220 11:20 23.08.2019
3201 Clouds 22 1012 56 10000 5 230 10:58 23.08.2019
3202 Clouds 22 1012 56 10000 5 230 10:40 23.08.2019
3203 Clouds 22 1012 56 10000 5 230 10:21 23.08.2019
3204 Clouds 22 1012 60 10000 4 220 09:45 23.08.2019
3205 Clouds 22 1012 60 10000 4 220 09:26 23.08.2019
3206 Clouds 21 1012 64 10000 3 250 08:57 23.08.2019
3207 Clouds 21 1012 64 10000 4 240 08:37 23.08.2019
3208 Clouds 21 1012 64 10000 4 240 08:18 23.08.2019
3209 Clear 20 1013 72 10000 4 240 07:41 23.08.2019
3210 Clear 20 1013 72 10000 4 240 07:23 23.08.2019
3211 Clear 19 1013 72 10000 3 220 06:43 23.08.2019
3212 Clear 19 1013 72 10000 3 220 06:23 23.08.2019
3213 Clear 17 1013 82 10000 2 230 05:46 23.08.2019
3214 Clear 17 1013 82 10000 2 230 05:26 23.08.2019
3215 Clear 14 1013 100 10000 3.34 281.199 03:59 23.08.2019
3216 Fog 11 1013 100 10000 1 0 02:39 23.08.2019
3217 Fog 11 1013 100 10000 1 0 02:21 23.08.2019
3218 Clear 11 1014 100 10000 2.41 231.577 01:36 23.08.2019
3219 Clear 12 1014 100 10000 2 290 00:43 23.08.2019
3220 Clear 12 1014 100 10000 2 290 00:18 23.08.2019
3221 Clear 12 1014 100 10000 3.24 231.045 23:43 22.08.2019
3222 Clear 12 1014 100 10000 3.24 231.045 23:22 22.08.2019
3223 Clear 13 1014 100 10000 1 310 22:44 22.08.2019
3224 Clear 13 1014 100 10000 1 310 22:24 22.08.2019
3225 Clear 13 1014 100 10000 2 310 21:59 22.08.2019
3226 Clear 13 1014 100 10000 2 310 21:59 22.08.2019
3227 Clear 13 1014 100 10000 1 310 21:41 22.08.2019
3228 Clear 13 1014 100 10000 1 310 21:23 22.08.2019
3229 Clear 13 1014 100 10000 2 310 20:59 22.08.2019
3230 Clear 13 1014 100 10000 2 310 20:59 22.08.2019
3231 Clear 14 1014 100 10000 2 310 20:40 22.08.2019
3232 Clear 14 1014 100 10000 2 310 20:20 22.08.2019
3233 Clear 14 1014 100 10000 1 310 19:57 22.08.2019
3234 Clear 15 1015 87 10000 1 320 19:39 22.08.2019
3235 Clear 15 1015 87 10000 1 320 19:20 22.08.2019
3236 Clear 16 1015 82 10000 2 330 18:58 22.08.2019
3237 Clear 16 1015 82 10000 2 330 18:39 22.08.2019
3238 Clear 16 1015 82 10000 2 310 18:19 22.08.2019
3239 Clear 16 1015 82 10000 2 310 17:56 22.08.2019
3240 Clear 16 1015 82 10000 2 310 17:56 22.08.2019
3241 Clear 16 1015 82 10000 2 310 17:38 22.08.2019
3242 Clear 18 1015 72 10000 2 310 17:19 22.08.2019
3243 Clear 19 1015 68 10000 2 330 16:56 22.08.2019
3244 Clear 19 1015 68 10000 2 330 16:56 22.08.2019
3245 Clear 19 1015 68 10000 2 330 16:37 22.08.2019
3246 Clear 19 1015 68 10000 2 330 16:18 22.08.2019
3247 Clear 19 1015 68 10000 2 330 16:18 22.08.2019
3248 Clear 19 1015 68 10000 2 330 16:18 22.08.2019
3249 Clear 19 1015 68 10000 2 330 16:18 22.08.2019
3250 Clear 19 1015 68 10000 2 330 16:18 22.08.2019
3251 Clear 20 1015 64 10000 4 340 15:41 22.08.2019
3252 Clear 20 1015 64 10000 4 340 15:41 22.08.2019
3253 Clear 20 1015 64 10000 4 340 15:23 22.08.2019
3254 Clear 21 1015 56 10000 5 330 14:58 22.08.2019
3255 Clear 21 1015 56 10000 4 10 14:40 22.08.2019
3256 Clear 21 1015 56 10000 4 10 14:20 22.08.2019
3257 Clear 21 1015 56 10000 4 10 14:20 22.08.2019
3258 Clear 21 1015 56 10000 5 350 13:56 22.08.2019
3259 Clear 21 1015 52 10000 5 360 13:38 22.08.2019
3260 Clear 21 1015 52 10000 5 360 13:18 22.08.2019
3261 Clear 21 1015 60 10000 5 350 12:41 22.08.2019
3262 Clear 21 1015 60 10000 5 350 12:23 22.08.2019
3263 Clear 21 1015 60 10000 4 350 11:58 22.08.2019
3264 Clear 21 1015 60 10000 5 340 11:40 22.08.2019
3265 Clear 21 1015 60 10000 5 340 11:20 22.08.2019
3266 Clear 21 1015 60 10000 5 340 11:20 22.08.2019
3267 Clear 21 1015 64 10000 4 340 10:57 22.08.2019
3268 Clear 21 1015 64 10000 4 330 10:38 22.08.2019
3269 Clear 21 1015 64 10000 4 330 10:19 22.08.2019
3270 Clear 21 1015 64 10000 4 340 09:54 22.08.2019
3271 Clear 20 1015 68 10000 4 340 09:36 22.08.2019
3272 Clear 20 1015 68 10000 4 350 09:18 22.08.2019
3273 Clear 19 1016 72 10000 5 10 08:41 22.08.2019
3274 Clear 19 1016 72 10000 5 10 08:21 22.08.2019
3275 Clear 19 1016 63 10000 5 340 07:56 22.08.2019
3276 Clear 19 1016 63 10000 5 340 07:38 22.08.2019
3277 Clear 18 1016 68 10000 4 360 07:18 22.08.2019
3278 Clear 17 1016 72 10000 4 350 06:45 22.08.2019
3279 Clear 17 1016 77 10000 3 360 06:21 22.08.2019
3280 Clear 16 1016 87 10000 3 10 05:26 22.08.2019
3281 Clear 13 1016 100 10000 1 0 03:22 22.08.2019
3282 Clear 13 1016 100 10000 2 360 02:36 22.08.2019
3283 Clear 13 1016 100 10000 3 10 01:36 22.08.2019
3284 Clear 13 1016 100 10000 3 20 00:52 22.08.2019
3285 Clear 13 1016 100 10000 4 30 00:30 22.08.2019
3286 Clear 14 1016 100 10000 5 20 23:59 21.08.2019
3287 Clear 14 1016 87 10000 3 20 23:40 21.08.2019
3288 Clear 14 1016 87 10000 3 20 23:21 21.08.2019
3289 Clear 14 1016 93 10000 3 10 22:57 21.08.2019
3290 Clear 15 1016 87 10000 3 30 22:39 21.08.2019
3291 Clear 15 1016 87 10000 3 30 22:20 21.08.2019
3292 Clear 15 1016 87 10000 3 30 22:20 21.08.2019
3293 Clear 15 1017 100 10000 3 30 21:55 21.08.2019
3294 Clear 15 1017 93 10000 3 30 21:37 21.08.2019
3295 Clear 15 1017 93 10000 3 30 21:37 21.08.2019
3296 Clear 15 1017 93 10000 3 30 21:18 21.08.2019
3297 Clear 16 1017 82 10000 4 30 20:44 21.08.2019
3298 Clear 16 1017 82 10000 4 30 20:25 21.08.2019
3299 Clear 16 1017 82 10000 4 30 19:59 21.08.2019
3300 Clear 17 1017 77 10000 3 10 19:41 21.08.2019
3301 Clear 17 1017 77 10000 3 10 19:23 21.08.2019
3302 Clear 18 1017 72 10000 4 20 18:56 21.08.2019
3303 Clear 18 1017 72 10000 4 20 18:56 21.08.2019
3304 Clear 18 1017 72 10000 4 20 18:38 21.08.2019
3305 Clear 18 1017 72 10000 4 20 18:20 21.08.2019
3306 Clear 19 1017 72 10000 3 10 17:44 21.08.2019
3307 Clear 19 1017 72 10000 3 10 17:21 21.08.2019
3308 Clear 19 1017 72 10000 3 10 16:56 21.08.2019
3309 Clear 20 1016 68 10000 4 10 16:37 21.08.2019
3310 Clear 20 1016 68 10000 4 10 16:18 21.08.2019
3311 Clear 21 1016 64 10000 5 20 15:56 21.08.2019
3312 Clear 21 1016 64 10000 5 20 15:38 21.08.2019
3313 Clear 21 1016 64 10000 5 20 15:18 21.08.2019
3314 Clear 22 1016 53 10000 4 20 14:54 21.08.2019
3315 Clear 22 1016 56 10000 5 20 14:36 21.08.2019
3316 Clear 22 1016 56 10000 5 20 14:18 21.08.2019
3317 Clear 22 1016 56 10000 5 20 14:18 21.08.2019
3318 Clear 22 1016 60 10000 4 30 13:42 21.08.2019
3319 Clear 22 1016 60 10000 4 30 13:20 21.08.2019
3320 Clear 22 1016 60 10000 6 20 12:57 21.08.2019
3321 Clear 22 1016 60 10000 5 30 12:39 21.08.2019
3322 Clear 22 1016 60 10000 5 30 12:19 21.08.2019
3323 Clear 22 1017 64 10000 5 10 11:44 21.08.2019
3324 Clear 22 1017 64 10000 5 10 11:24 21.08.2019
3325 Clear 21 1017 68 10000 6 360 10:59 21.08.2019
3326 Clear 19 1017 77 10000 5 10 10:40 21.08.2019
3327 Clear 19 1017 77 10000 5 10 10:22 21.08.2019
3328 Clear 19 1017 77 10000 6 10 09:58 21.08.2019
3329 Clouds 17 1017 88 10000 6 360 09:40 21.08.2019
3330 Clouds 17 1017 88 10000 6 360 09:21 21.08.2019
3331 Clouds 17 1017 88 10000 5 10 08:50 21.08.2019
3332 Clouds 16 1017 100 10000 5 10 08:26 21.08.2019
3333 Clouds 15 1017 100 10000 5 360 07:46 21.08.2019
3334 Clouds 15 1017 100 10000 5 360 07:26 21.08.2019
3335 Clouds 15 1017 100 10000 6 360 06:59 21.08.2019
3336 Clouds 15 1017 100 10000 4 360 06:41 21.08.2019
3337 Clouds 14 1018 100 10000 5 350 06:18 21.08.2019
3338 Clouds 14 1018 100 9000 4 350 05:29 21.08.2019
3339 Clouds 14 1018 100 9000 3 20 04:42 21.08.2019
3340 Clouds 13 1018 100 10000 4 20 02:44 21.08.2019
3341 Clouds 14 1018 100 10000 3 20 01:34 21.08.2019
3342 Clouds 14 1018 100 10000 3 20 00:42 21.08.2019
3343 Clouds 14 1018 100 10000 3 20 00:21 21.08.2019
3344 Clouds 14 1018 100 9000 4 20 23:45 20.08.2019
3345 Clouds 14 1018 100 9000 4 20 23:20 20.08.2019
3346 Clouds 14 1018 100 8000 4 20 22:59 20.08.2019
3347 Clouds 14 1018 100 7000 3 360 22:40 20.08.2019
3348 Clouds 14 1018 100 7000 3 360 22:22 20.08.2019
3349 Clouds 14 1019 100 7000 3 360 21:58 20.08.2019
3350 Clouds 14 1019 100 7000 3 360 21:39 20.08.2019
3351 Clouds 14 1019 100 7000 3 360 21:20 20.08.2019
3352 Rain 14 1019 100 7000 3 340 20:59 20.08.2019
3353 Rain 14 1019 100 7000 3 340 20:59 20.08.2019
3354 Rain 14 1019 100 7000 3 330 20:41 20.08.2019
3355 Rain 14 1019 100 7000 3 330 20:22 20.08.2019
3356 Drizzle 13 1019 100 2100 3 330 19:40 20.08.2019
3357 Drizzle 13 1019 100 2100 3 330 19:22 20.08.2019
3358 Drizzle 13 1019 100 2100 3 330 19:22 20.08.2019
3359 Rain 13 1020 100 9000 4 330 18:57 20.08.2019
3360 Clouds 12 1019 91 0 3.91 335.669 18:39 20.08.2019
3361 Clouds 14 1020 100 10000 3 350 18:19 20.08.2019
3362 Clouds 14 1020 100 10000 3 350 17:57 20.08.2019
3363 Clouds 14 1020 100 10000 3 350 17:38 20.08.2019
3364 Clouds 14 1020 100 10000 5 330 17:19 20.08.2019
3365 Clouds 14 1020 93 10000 5 330 16:45 20.08.2019
3366 Clouds 14 1020 93 10000 5 330 16:26 20.08.2019
3367 Clouds 15 1020 87 10000 4 340 15:56 20.08.2019
3368 Clouds 15 1020 82 10000 4 350 15:38 20.08.2019
3369 Clouds 15 1020 82 10000 4 360 15:18 20.08.2019
3370 Clouds 15 1020 87 10000 6 340 14:43 20.08.2019
3371 Clouds 15 1020 87 10000 6 340 14:22 20.08.2019
3372 Clouds 15 1020 87 10000 6 340 14:22 20.08.2019
3373 Clouds 16 1020 77 10000 5 350 13:57 20.08.2019
3374 Clouds 16 1020 77 10000 5 340 13:38 20.08.2019
3375 Clouds 17 1020 77 10000 5 360 13:20 20.08.2019
3376 Clouds 17 1020 72 10000 5 330 12:51 20.08.2019
3377 Clouds 17 1020 72 10000 5 330 12:31 20.08.2019
3378 Clouds 17 1020 72 10000 6 330 11:59 20.08.2019
3379 Clouds 17 1019 72 10000 4 350 11:40 20.08.2019
3380 Clouds 16 1020 72 10000 4 350 11:20 20.08.2019
3381 Clouds 16 1020 72 10000 4 350 10:57 20.08.2019
3382 Clouds 16 1019 77 10000 5 340 10:38 20.08.2019
3383 Clouds 16 1019 72 10000 4 340 10:20 20.08.2019
3384 Clouds 16 1019 72 10000 4 360 09:44 20.08.2019
3385 Clouds 16 1019 72 10000 4 360 09:25 20.08.2019
3386 Clouds 15 1020 77 10000 5 350 08:58 20.08.2019
3387 Clouds 15 1019 77 10000 4 20 08:40 20.08.2019
3388 Clouds 15 1019 72 10000 4 30 08:21 20.08.2019
3389 Clouds 15 1019 72 10000 4 30 07:57 20.08.2019
3390 Clouds 14 1019 82 10000 4 10 07:37 20.08.2019
3391 Clouds 14 1019 82 10000 4 20 07:18 20.08.2019
3392 Clouds 13 1019 87 10000 4 20 06:28 20.08.2019
3393 Clouds 13 1019 87 10000 5 10 05:58 20.08.2019
3394 Clouds 13 1019 100 10000 4 20 05:38 20.08.2019
3395 Clouds 12 1019 100 10000 5 360 04:21 20.08.2019
3396 Clouds 11 1018 100 10000 4 360 02:47 20.08.2019
3397 Rain 11 1018 100 9000 6 360 01:45 20.08.2019
3398 Rain 11 1018 100 5000 5 350 01:19 20.08.2019
3399 Rain 11 1018 100 6000 5 340 00:43 20.08.2019
3400 Rain 11 1018 100 6000 6 350 00:21 20.08.2019
3401 Rain 11 1018 100 5000 6 340 23:40 19.08.2019
3402 Rain 10 1018 100 5000 7 330 23:18 19.08.2019
3403 Rain 10 1018 100 5000 7 330 22:57 19.08.2019
3404 Rain 10 1018 100 4500 7 330 22:39 19.08.2019
3405 Rain 11 1018 100 6000 7 330 22:18 19.08.2019
3406 Rain 11 1018 100 6000 7 330 21:56 19.08.2019
3407 Rain 11 1018 100 10000 7 330 21:37 19.08.2019
3408 Rain 11 1018 100 10000 7 330 21:37 19.08.2019
3409 Rain 11 1018 100 8000 7 330 21:18 19.08.2019
3410 Rain 11 1018 100 6000 6 320 20:40 19.08.2019
3411 Rain 11 1018 100 6000 6 320 20:40 19.08.2019
3412 Rain 11 1019 100 8000 7 320 20:20 19.08.2019
3413 Rain 11 1019 100 8000 7 320 19:59 19.08.2019
3414 Rain 11 1019 100 9000 6 320 19:40 19.08.2019
3415 Rain 11 1019 100 10000 6 320 19:19 19.08.2019
3416 Rain 11 1019 100 10000 6 330 18:58 19.08.2019
3417 Rain 11 1019 100 10000 6 330 18:39 19.08.2019
3418 Rain 11 1020 93 10000 6 330 18:20 19.08.2019
3419 Rain 11 1020 87 10000 6 330 17:54 19.08.2019
3420 Rain 11 1020 87 10000 6 330 17:36 19.08.2019
3421 Rain 11 1020 87 10000 7 320 17:18 19.08.2019
3422 Rain 11 1020 87 10000 6 320 16:38 19.08.2019
3423 Rain 11 1020 87 10000 6 320 16:20 19.08.2019
3424 Rain 11 1020 87 10000 7 330 15:56 19.08.2019
3425 Rain 12 1020 81 10000 6 310 15:37 19.08.2019
3426 Rain 12 1020 81 10000 6 310 15:18 19.08.2019
3427 Clouds 14 1020 62 10000 8 330 14:43 19.08.2019
3428 Clouds 14 1020 62 10000 8 330 14:23 19.08.2019
3429 Clouds 14 1020 62 10000 8 330 13:57 19.08.2019
3430 Clouds 14 1020 67 10000 7 330 13:38 19.08.2019
3431 Clouds 14 1020 67 10000 7 330 13:19 19.08.2019
3432 Clouds 14 1021 67 10000 8 330 12:56 19.08.2019
3433 Clouds 14 1021 67 10000 8 330 12:36 19.08.2019
3434 Clouds 14 1021 67 10000 8 330 12:18 19.08.2019
3435 Rain 13 1021 76 10000 7 320 11:39 19.08.2019
3436 Rain 13 1021 76 10000 7 320 11:21 19.08.2019
3437 Clouds 13 1021 76 10000 7 330 10:56 19.08.2019
3438 Clouds 13 1021 71 10000 8 330 10:37 19.08.2019
3439 Clouds 13 1021 71 10000 8 330 10:37 19.08.2019
3440 Clouds 13 1021 71 10000 8 330 10:18 19.08.2019
3441 Clouds 13 1021 71 10000 8 310 09:44 19.08.2019
3442 Clouds 13 1021 71 10000 8 310 09:24 19.08.2019
3443 Clouds 13 1021 71 10000 7 320 08:56 19.08.2019
3444 Clouds 13 1021 71 10000 9 340 08:38 19.08.2019
3445 Clouds 13 1021 71 10000 9 340 08:19 19.08.2019
3446 Clouds 14 1021 71 10000 7 320 07:45 19.08.2019
3447 Clouds 14 1021 71 10000 7 320 07:27 19.08.2019
3448 Clouds 13 1021 82 10000 6 330 06:48 19.08.2019
3449 Clouds 13 1021 82 10000 6 330 06:26 19.08.2019
3450 Clouds 13 1021 82 10000 6 330 06:26 19.08.2019
3451 Rain 13 1021 100 10000 5 330 04:56 19.08.2019
3452 Clouds 13 1020 93 10000 5 320 04:26 19.08.2019
3453 Clouds 13 1020 87 10000 5 330 03:22 19.08.2019
3454 Clouds 13 1020 100 10000 5 320 02:23 19.08.2019
3455 Rain 12 1020 100 7000 3 320 01:31 19.08.2019
3456 Clouds 13 1020 76 10000 4 330 00:43 19.08.2019
3457 Clouds 13 1020 76 10000 4 330 00:23 19.08.2019
3458 Clouds 14 1020 76 10000 5 330 23:42 18.08.2019
3459 Clouds 14 1020 76 10000 5 330 23:21 18.08.2019
3460 Clouds 13 1019 76 10000 5 330 22:55 18.08.2019
3461 Clear 13 1019 76 10000 5 350 22:37 18.08.2019
3462 Clear 13 1019 76 10000 5 350 22:19 18.08.2019
3463 Clouds 14 1019 76 10000 5 340 21:55 18.08.2019
3464 Clouds 14 1019 82 10000 4 340 21:37 18.08.2019
3465 Clouds 14 1019 82 10000 4 340 21:18 18.08.2019
3466 Clouds 14 1019 82 10000 4 340 21:18 18.08.2019
3467 Clouds 14 1019 87 10000 3 320 20:42 18.08.2019
3468 Clouds 14 1019 87 10000 3 320 20:24 18.08.2019
3469 Clouds 14 1019 82 10000 3 310 19:54 18.08.2019
3470 Clouds 14 1019 82 10000 4 320 19:36 18.08.2019
3471 Clouds 14 1019 82 10000 4 320 19:18 18.08.2019
3472 Clear 15 1018 77 10000 3 320 18:41 18.08.2019
3473 Clear 15 1018 77 10000 3 320 18:23 18.08.2019
3474 Clear 15 1018 77 10000 4 320 17:57 18.08.2019
3475 Clear 16 1018 72 10000 5 330 17:39 18.08.2019
3476 Clear 16 1018 72 10000 5 330 17:19 18.08.2019
3477 Clouds 17 1018 67 10000 6 330 16:56 18.08.2019
3478 Clouds 17 1017 72 10000 5 330 16:38 18.08.2019
3479 Clouds 17 1017 72 10000 5 330 16:19 18.08.2019
3480 Clear 18 1017 63 10000 5 330 15:55 18.08.2019
3481 Clouds 18 1017 68 10000 7 330 15:36 18.08.2019
3482 Clouds 18 1017 68 10000 7 330 15:18 18.08.2019
3483 Clouds 18 1016 68 10000 7 330 14:40 18.08.2019
3484 Clouds 18 1016 68 10000 7 330 14:20 18.08.2019
3485 Clouds 19 1016 68 10000 5 330 13:59 18.08.2019
3486 Clouds 18 1016 77 10000 4 330 13:40 18.08.2019
3487 Clouds 18 1016 77 10000 4 330 13:21 18.08.2019
3488 Clouds 18 1016 82 10000 5 340 12:54 18.08.2019
3489 Clouds 18 1015 77 10000 4 360 12:36 18.08.2019
3490 Clouds 18 1015 77 10000 4 360 12:18 18.08.2019
3491 Clouds 18 1015 77 10000 4 360 12:18 18.08.2019
3492 Clouds 17 1015 93 10000 5 340 11:41 18.08.2019
3493 Clouds 17 1015 93 10000 5 340 11:22 18.08.2019
3494 Clouds 16 1015 100 10000 6 330 10:56 18.08.2019
3495 Clouds 16 1014 100 10000 7 340 10:38 18.08.2019
3496 Rain 16 1014 100 10000 7 330 10:18 18.08.2019
3497 Rain 17 1013 100 4800 5 340 09:42 18.08.2019
3498 Rain 17 1013 100 4800 5 340 09:19 18.08.2019
3499 Drizzle 17 1013 100 4700 3 360 08:43 18.08.2019
3500 Drizzle 17 1013 100 4700 3 360 08:25 18.08.2019
3501 Clouds 18 1013 100 7000 3 340 07:49 18.08.2019
3502 Clouds 18 1012 100 10000 2 10 07:29 18.08.2019
3503 Drizzle 17 1012 100 9000 2 20 06:19 18.08.2019
3504 Clouds 17 1012 100 9000 1 0 04:59 18.08.2019
3505 Clouds 16 1012 100 10000 3 130 03:46 18.08.2019
3506 Clouds 16 1011 100 10000 2 150 02:50 18.08.2019
3507 Clouds 17 1011 100 10000 5 110 02:26 18.08.2019
3508 Rain 17 1012 100 5000 3 80 01:48 18.08.2019
3509 Rain 17 1012 100 8000 3 60 01:25 18.08.2019
3510 Rain 17 1012 100 8000 3 60 01:25 18.08.2019
3511 Rain 17 1012 100 8000 3 60 01:25 18.08.2019
3512 Rain 18 1012 93 9000 2 120 00:40 18.08.2019
3513 Rain 18 1012 93 9000 2 120 00:19 18.08.2019
3514 Clouds 18 1012 93 10000 3 120 23:57 17.08.2019
3515 Clouds 17 1012 100 10000 2 70 23:37 17.08.2019
3516 Clouds 17 1012 100 10000 2 70 23:19 17.08.2019
3517 Clouds 17 1012 100 10000 2 70 23:19 17.08.2019
3518 Clouds 18 1013 100 10000 7.22 12.998 22:56 17.08.2019
3519 Clouds 18 1013 100 10000 7.22 12.998 22:56 17.08.2019
3520 Rain 17 1013 100 10000 1 0 22:38 17.08.2019
3521 Rain 17 1013 100 10000 1 0 22:20 17.08.2019
3522 Clear 18 1013 88 10000 1 80 21:43 17.08.2019
3523 Clear 18 1013 88 10000 1 80 21:24 17.08.2019
3524 Clear 19 1013 82 10000 2 70 20:57 17.08.2019
3525 Clear 19 1013 77 10000 3 60 20:36 17.08.2019
3526 Clear 19 1013 77 10000 3 60 20:18 17.08.2019
3527 Clear 20 1013 72 10000 2 60 19:43 17.08.2019
3528 Clear 20 1013 72 10000 2 60 19:43 17.08.2019
3529 Clear 20 1013 72 10000 2 60 19:24 17.08.2019
3530 Clear 20 1014 72 10000 2 100 18:55 17.08.2019
3531 Clear 20 1014 72 10000 1 80 18:37 17.08.2019
3532 Clear 21 1014 68 10000 2 110 18:18 17.08.2019
3533 Clouds 21 1014 68 10000 2 100 17:42 17.08.2019
3534 Clouds 21 1014 68 10000 2 100 17:22 17.08.2019
3535 Clear 21 1014 68 10000 2 110 16:56 17.08.2019
3536 Clear 22 1014 64 10000 2 120 16:38 17.08.2019
3537 Clear 22 1014 64 10000 2 120 16:19 17.08.2019
3538 Clear 23 1014 60 10000 2 110 15:42 17.08.2019
3539 Clear 23 1014 60 10000 2 110 15:22 17.08.2019
3540 Clear 24 1014 50 10000 1 170 14:58 17.08.2019
3541 Clear 24 1014 50 10000 2 200 14:39 17.08.2019
3542 Clear 24 1014 50 10000 2 200 14:21 17.08.2019
3543 Clear 25 1014 47 10000 3 200 13:45 17.08.2019
3544 Clear 25 1014 47 10000 3 200 13:45 17.08.2019
3545 Clear 25 1014 47 10000 3 200 13:20 17.08.2019
3546 Clear 25 1014 44 10000 4 180 12:45 17.08.2019
3547 Clear 25 1014 44 10000 4 180 12:20 17.08.2019
3548 Clear 25 1014 44 10000 4 210 11:58 17.08.2019
3549 Clear 25 1014 41 10000 5 220 11:39 17.08.2019
3550 Clear 25 1014 41 10000 5 220 11:20 17.08.2019
3551 Clear 24 1014 47 10000 5 200 10:42 17.08.2019
3552 Clear 24 1014 47 10000 5 200 10:21 17.08.2019
3553 Clear 24 1014 47 10000 5 200 09:57 17.08.2019
3554 Clear 24 1014 50 10000 5 210 09:38 17.08.2019
3555 Clear 24 1014 50 10000 5 210 09:20 17.08.2019
3556 Clear 23 1014 53 10000 4 210 08:50 17.08.2019
3557 Clear 22 1015 53 10000 4 200 08:21 17.08.2019
3558 Clear 22 1015 53 10000 4 210 07:42 17.08.2019
3559 Clear 22 1015 53 10000 4 210 07:20 17.08.2019
3560 Clear 22 1015 53 10000 3 210 06:25 17.08.2019
3561 Clear 19 1015 72 10000 1 0 04:48 17.08.2019
3562 Clear 18 1015 77 10000 1 0 04:21 17.08.2019
3563 Fog 12 1015 100 10000 4.14 196.694 02:43 17.08.2019
3564 Fog 12 1015 100 10000 4.14 196.694 01:39 17.08.2019
3565 Fog 12 1015 100 10000 4.13 200.3 01:20 17.08.2019
3566 Clear 13 1015 100 10000 4.13 200.3 00:46 17.08.2019
3567 Clear 13 1015 100 10000 3.67 188.485 00:21 17.08.2019
3568 Clear 13 1014 100 10000 3.67 188.485 23:44 16.08.2019
3569 Clear 13 1014 100 10000 3.67 188.485 23:24 16.08.2019
3570 Clear 12 1015 100 10000 1 100 22:43 16.08.2019
3571 Clear 12 1015 100 10000 1 100 22:20 16.08.2019
3572 Clear 13 1015 100 10000 3.67 188.485 21:58 16.08.2019
3573 Clear 13 1015 100 10000 4.15 186.625 21:38 16.08.2019
3574 Clear 14 1015 93 10000 4.15 155.225 21:18 16.08.2019
3575 Clear 14 1015 100 10000 4.15 155.225 20:43 16.08.2019
3576 Clear 14 1015 100 10000 4.15 155.225 20:20 16.08.2019
3577 Clear 15 1015 87 10000 4.15 155.225 19:58 16.08.2019
3578 Clear 16 1015 82 10000 4.15 155.225 19:39 16.08.2019
3579 Clear 16 1015 82 10000 4.15 155.225 19:19 16.08.2019
3580 Clear 17 1015 77 10000 4.15 155.225 18:42 16.08.2019
3581 Clear 17 1015 77 10000 2.43 136.534 18:23 16.08.2019
3582 Clear 18 1015 72 10000 2.43 136.534 17:48 16.08.2019
3583 Clear 19 1014 68 10000 2.43 136.534 17:28 16.08.2019
3584 Clear 21 1014 64 10000 1 0 16:58 16.08.2019
3585 Clear 22 1014 56 10000 2 110 16:39 16.08.2019
3586 Clear 22 1014 56 10000 2 110 16:19 16.08.2019
3587 Clear 23 1014 49 10000 2 120 15:56 16.08.2019
3588 Clear 23 1014 49 10000 2 120 15:56 16.08.2019
3589 Clear 23 1014 49 10000 2 120 15:37 16.08.2019
3590 Clear 23 1014 49 10000 2 120 15:19 16.08.2019
3591 Clear 23 1014 46 10000 3 130 14:56 16.08.2019
3592 Clear 24 1014 44 10000 2 130 14:37 16.08.2019
3593 Clear 24 1014 44 10000 2 130 14:18 16.08.2019
3594 Clear 24 1014 44 10000 3 170 13:40 16.08.2019
3595 Clear 24 1014 44 10000 3 170 13:21 16.08.2019
3596 Clear 24 1014 41 10000 2 170 12:41 16.08.2019
3597 Clear 24 1014 41 10000 2 170 12:22 16.08.2019
3598 Clear 24 1014 41 10000 3 150 11:55 16.08.2019
3599 Clear 24 1014 41 10000 3 140 11:37 16.08.2019
3600 Clear 24 1014 41 10000 3 140 11:19 16.08.2019
3601 Clouds 24 1015 38 10000 3 160 10:42 16.08.2019
3602 Clouds 24 1015 38 10000 3 160 10:21 16.08.2019
3603 Clouds 23 1015 43 10000 3 140 09:39 16.08.2019
3604 Clouds 23 1015 43 10000 3 140 09:20 16.08.2019
3605 Clear 23 1015 49 10000 3 140 08:59 16.08.2019
3606 Clear 23 1015 53 10000 3 150 08:39 16.08.2019
3607 Clear 23 1015 53 10000 3 150 08:19 16.08.2019
3608 Clear 22 1015 56 10000 3 180 07:48 16.08.2019
3609 Clear 22 1015 56 10000 3 140 07:28 16.08.2019
3610 Clear 22 1015 56 10000 3 160 06:55 16.08.2019
3611 Clear 21 1015 60 10000 3 160 06:19 16.08.2019
3612 Clear 20 1015 72 10000 1 0 05:34 16.08.2019
3613 Clear 14 1015 100 10000 2 80 03:20 16.08.2019
3614 Clear 13 1014 100 10000 1 0 01:53 16.08.2019
3615 Clear 12 1014 100 10000 2 110 01:27 16.08.2019
3616 Clear 13 1014 100 10000 1 80 00:50 16.08.2019
3617 Clear 14 1014 100 10000 1 110 00:24 16.08.2019
3618 Clear 14 1014 100 10000 1 110 00:24 16.08.2019
3619 Clear 15 1014 100 10000 1 0 23:59 15.08.2019
3620 Clear 14 1014 100 10000 2 150 23:41 15.08.2019
3621 Clear 14 1014 100 10000 2 150 23:19 15.08.2019
3622 Clear 15 1014 100 10000 2 150 22:41 15.08.2019
3623 Clear 15 1014 100 10000 2 150 22:23 15.08.2019
3624 Clear 16 1014 100 10000 1.5 164.007 21:59 15.08.2019
3625 Clear 16 1014 100 10000 1 140 21:39 15.08.2019
3626 Clear 16 1014 100 10000 1 140 21:20 15.08.2019
3627 Clear 16 1014 93 10000 2 140 20:58 15.08.2019
3628 Clear 17 1013 88 10000 2 150 20:40 15.08.2019
3629 Clear 17 1013 88 10000 2 150 20:21 15.08.2019
3630 Clear 19 1013 77 10000 1 0 19:40 15.08.2019
3631 Clear 19 1013 77 10000 1 0 19:22 15.08.2019
3632 Clear 19 1013 82 10000 2 130 18:59 15.08.2019
3633 Clear 19 1013 82 10000 2 70 18:41 15.08.2019
3634 Clear 19 1013 82 10000 2 70 18:21 15.08.2019
3635 Clear 20 1013 77 10000 2 110 17:54 15.08.2019
3636 Clear 21 1013 73 10000 3 130 17:36 15.08.2019
3637 Clear 21 1013 73 10000 3 130 17:36 15.08.2019
3638 Clear 21 1013 73 10000 3 130 17:18 15.08.2019
3639 Clear 23 1013 64 10000 2 130 16:43 15.08.2019
3640 Clear 23 1013 64 10000 2 130 16:24 15.08.2019
3641 Clear 23 1012 60 10000 3 130 15:56 15.08.2019
3642 Clear 24 1012 50 10000 2 140 15:37 15.08.2019
3643 Clear 24 1012 50 10000 2 140 15:18 15.08.2019
3644 Clear 24 1012 57 10000 4 120 14:42 15.08.2019
3645 Clear 24 1012 57 10000 4 120 14:23 15.08.2019
3646 Clear 25 1012 53 10000 3 150 13:57 15.08.2019
3647 Clear 25 1012 53 10000 3 160 13:39 15.08.2019
3648 Clear 25 1012 53 10000 3 160 13:20 15.08.2019
3649 Clear 25 1012 50 10000 2 130 12:56 15.08.2019
3650 Clouds 24 1013 53 10000 3 120 12:37 15.08.2019
3651 Clouds 25 1013 47 10000 3 110 12:18 15.08.2019
3652 Clear 25 1012 47 10000 3 140 11:40 15.08.2019
3653 Clear 25 1012 47 10000 3 140 11:21 15.08.2019
3654 Clear 25 1013 50 10000 4 120 10:59 15.08.2019
3655 Clear 24 1013 53 10000 3 110 10:38 15.08.2019
3656 Clear 24 1013 53 10000 3 110 10:38 15.08.2019
3657 Clear 24 1013 53 10000 3 110 10:20 15.08.2019
3658 Clear 24 1013 53 10000 3 110 09:45 15.08.2019
3659 Clear 24 1013 53 10000 3 110 09:24 15.08.2019
3660 Clear 24 1013 53 10000 4 110 08:57 15.08.2019
3661 Clear 24 1013 53 10000 4 100 08:37 15.08.2019
3662 Clear 23 1014 53 10000 2 120 08:19 15.08.2019
3663 Clear 23 1014 56 10000 3 110 07:44 15.08.2019
3664 Clear 23 1014 56 10000 3 110 07:26 15.08.2019
3665 Clear 22 1014 60 10000 2 90 06:54 15.08.2019
3666 Clear 22 1014 60 10000 2 90 06:33 15.08.2019
3667 Clear 21 1014 64 10000 3 70 05:48 15.08.2019
3668 Clear 20 1014 68 10000 3 60 05:28 15.08.2019
3669 Clear 17 1014 88 10000 2 90 04:35 15.08.2019
3670 Clear 14 1014 100 10000 2 100 03:45 15.08.2019
3671 Clear 13 1014 100 10000 1 0 02:45 15.08.2019
3672 Clear 13 1014 100 10000 3 100 01:52 15.08.2019
3673 Clear 13 1014 100 10000 2 100 01:31 15.08.2019
3674 Clear 14 1014 100 10000 3 80 00:41 15.08.2019
3675 Clear 14 1014 100 10000 3 80 00:21 15.08.2019
3676 Clear 14 1014 100 10000 2 90 23:58 14.08.2019
3677 Clear 14 1014 100 10000 2 90 23:38 14.08.2019
3678 Clear 14 1014 100 10000 2 90 23:19 14.08.2019
3679 Clear 15 1014 100 10000 2 90 22:57 14.08.2019
3680 Clear 15 1014 93 10000 2 90 22:39 14.08.2019
3681 Clear 15 1014 93 10000 2 90 22:20 14.08.2019
3682 Clear 15 1014 87 10000 3 90 21:55 14.08.2019
3683 Clear 15 1014 87 10000 3 90 21:55 14.08.2019
3684 Clear 15 1014 87 10000 3 90 21:55 14.08.2019
3685 Clear 16 1014 82 10000 3 90 21:37 14.08.2019
3686 Clear 16 1014 82 10000 3 90 21:18 14.08.2019
3687 Clear 17 1014 77 10000 3 100 20:42 14.08.2019
3688 Clear 17 1014 77 10000 3 100 20:21 14.08.2019
3689 Clear 17 1014 77 10000 3 100 20:21 14.08.2019
3690 Clear 17 1014 77 10000 3 100 20:21 14.08.2019
3691 Clear 18 1014 72 10000 3 120 19:56 14.08.2019
3692 Clear 18 1014 72 10000 3 120 19:38 14.08.2019
3693 Clear 19 1014 68 10000 3 120 19:19 14.08.2019
3694 Clear 19 1014 68 10000 3 120 18:57 14.08.2019
3695 Clear 20 1014 64 10000 3 120 18:38 14.08.2019
3696 Clear 20 1014 64 10000 3 120 18:19 14.08.2019
3697 Clear 21 1014 60 10000 3 120 17:56 14.08.2019
3698 Clear 22 1014 56 10000 4 120 17:37 14.08.2019
3699 Clear 22 1014 56 10000 4 120 17:18 14.08.2019
3700 Clear 24 1013 53 10000 5 130 16:42 14.08.2019
3701 Clear 24 1013 53 10000 5 130 16:20 14.08.2019
3702 Clear 25 1013 50 10000 6 120 15:55 14.08.2019
3703 Clear 25 1013 50 10000 6 120 15:55 14.08.2019
3704 Clear 26 1013 47 10000 5 120 15:36 14.08.2019
3705 Clear 26 1013 47 10000 5 120 15:18 14.08.2019
3706 Clear 27 1013 44 10000 8 90 14:40 14.08.2019
3707 Clear 27 1013 44 10000 8 90 14:19 14.08.2019
3708 Clear 27 1013 44 10000 8 100 13:56 14.08.2019
3709 Clear 27 1013 42 10000 8 100 13:38 14.08.2019
3710 Clear 27 1013 42 10000 8 100 13:20 14.08.2019
3711 Clear 27 1013 42 10000 8 90 12:56 14.08.2019
3712 Clear 27 1014 42 10000 8 90 12:37 14.08.2019
3713 Clear 27 1014 42 10000 8 90 12:37 14.08.2019
3714 Clear 27 1014 42 10000 8 90 12:19 14.08.2019
3715 Clear 27 1014 39 10000 7 90 11:45 14.08.2019
3716 Clear 27 1014 39 10000 7 90 11:23 14.08.2019
3717 Clear 26 1014 44 10000 7 100 10:56 14.08.2019
3718 Clear 26 1014 41 10000 7 90 10:37 14.08.2019
3719 Clear 26 1014 41 10000 7 90 10:37 14.08.2019
3720 Clear 26 1014 41 10000 7 90 10:19 14.08.2019
3721 Clear 25 1015 44 10000 6 100 09:42 14.08.2019
3722 Clear 25 1015 44 10000 6 100 09:21 14.08.2019
3723 Clear 25 1015 44 10000 5 90 08:44 14.08.2019
3724 Clear 25 1015 44 10000 5 90 08:25 14.08.2019
3725 Clear 24 1016 44 10000 6 110 07:56 14.08.2019
3726 Clear 24 1016 44 10000 6 90 07:37 14.08.2019
3727 Clear 23 1016 49 10000 4 110 06:51 14.08.2019
3728 Clear 22 1016 53 10000 4 90 06:28 14.08.2019
3729 Clear 21 1016 56 10000 4 80 05:33 14.08.2019
3730 Clear 16 1016 82 10000 2 110 03:52 14.08.2019
3731 Clear 13 1016 100 10000 3 100 02:37 14.08.2019
3732 Clear 12 1016 100 10000 2 100 02:18 14.08.2019
3733 Clear 12 1016 100 10000 3 90 01:30 14.08.2019
3734 Clear 12 1016 100 10000 3 90 00:31 14.08.2019
3735 Clear 13 1015 100 10000 2 90 23:43 13.08.2019
3736 Clear 13 1015 100 10000 2 90 23:20 13.08.2019
3737 Clear 13 1015 100 10000 3 90 22:56 13.08.2019
3738 Clear 14 1015 100 10000 3 90 22:38 13.08.2019
3739 Clear 14 1015 100 10000 3 90 22:19 13.08.2019
3740 Clear 15 1015 87 10000 2 100 21:55 13.08.2019
3741 Clear 15 1015 87 10000 3 110 21:36 13.08.2019
3742 Clear 15 1015 87 10000 3 110 21:18 13.08.2019
3743 Clear 16 1015 82 10000 3 100 20:42 13.08.2019
3744 Clear 16 1015 82 10000 3 100 20:20 13.08.2019
3745 Clear 16 1014 87 10000 3 100 19:56 13.08.2019
3746 Clear 17 1014 77 10000 3 100 19:38 13.08.2019
3747 Clear 17 1014 77 10000 3 100 19:19 13.08.2019
3748 Clear 18 1014 72 10000 4 100 18:41 13.08.2019
3749 Clear 18 1014 72 10000 4 100 18:22 13.08.2019
3750 Clear 19 1014 72 10000 4 100 17:54 13.08.2019
3751 Clear 20 1014 68 10000 4 100 17:36 13.08.2019
3752 Clear 21 1013 64 10000 5 100 17:18 13.08.2019
3753 Clear 21 1013 64 10000 5 100 16:54 13.08.2019
3754 Clear 21 1013 64 10000 5 100 16:54 13.08.2019
3755 Clear 22 1013 64 10000 5 110 16:36 13.08.2019
3756 Clear 22 1013 64 10000 5 110 16:18 13.08.2019
3757 Clear 23 1013 60 10000 5 120 15:38 13.08.2019
3758 Clear 24 1013 53 10000 6 120 15:20 13.08.2019
3759 Clear 24 1013 53 10000 6 120 14:47 13.08.2019
3760 Clear 25 1013 50 10000 5 120 14:20 13.08.2019
3761 Clear 25 1013 47 10000 5 130 13:59 13.08.2019
3762 Clear 25 1013 47 10000 5 130 13:59 13.08.2019
3763 Clear 25 1013 47 10000 4 130 13:40 13.08.2019
3764 Clear 25 1013 47 10000 4 130 13:20 13.08.2019
3765 Clear 25 1013 50 10000 5 130 12:57 13.08.2019
3766 Clear 25 1013 50 10000 3 140 12:39 13.08.2019
3767 Clear 25 1013 50 10000 3 140 12:20 13.08.2019
3768 Clear 25 1013 50 10000 4 130 11:42 13.08.2019
3769 Clear 25 1013 50 10000 4 130 11:23 13.08.2019
3770 Clear 24 1013 53 10000 4 140 10:58 13.08.2019
3771 Clouds 24 1013 53 10000 4 150 10:38 13.08.2019
3772 Clouds 24 1013 53 10000 4 150 10:20 13.08.2019
3773 Clouds 24 1013 53 10000 4 150 09:46 13.08.2019
3774 Clouds 24 1013 53 10000 4 150 09:25 13.08.2019
3775 Clear 24 1013 57 10000 4 160 08:59 13.08.2019
3776 Clear 23 1013 60 10000 3 160 08:39 13.08.2019
3777 Clear 23 1013 60 10000 3 160 08:20 13.08.2019
3778 Clear 22 1013 64 10000 3 160 07:46 13.08.2019
3779 Clear 22 1013 64 10000 3 160 07:25 13.08.2019
3780 Clear 21 1013 68 10000 3 140 06:44 13.08.2019
3781 Clear 21 1013 68 10000 3 160 05:58 13.08.2019
3782 Clear 20 1013 68 10000 3 170 05:20 13.08.2019
3783 Clear 15 1012 100 10000 2 150 02:22 13.08.2019
3784 Clear 15 1012 100 10000 2 150 01:41 13.08.2019
3785 Clear 16 1012 87 10000 3 140 00:52 13.08.2019
3786 Clear 17 1011 82 10000 3 140 00:22 13.08.2019
3787 Clear 17 1011 88 10000 3 140 23:44 12.08.2019
3788 Clear 17 1011 88 10000 3 140 23:21 12.08.2019
3789 Clear 17 1012 88 10000 3 150 22:55 12.08.2019
3790 Clear 18 1012 82 10000 4 140 22:37 12.08.2019
3791 Clear 18 1012 82 10000 4 140 22:18 12.08.2019
3792 Clear 18 1011 82 10000 3 150 21:54 12.08.2019
3793 Clear 19 1011 77 10000 3 140 21:36 12.08.2019
3794 Clear 19 1011 77 10000 3 140 21:36 12.08.2019
3795 Clear 19 1011 77 10000 3 140 21:36 12.08.2019
3796 Clear 19 1011 77 10000 3 140 21:36 12.08.2019
3797 Clear 19 1011 77 10000 3 140 21:18 12.08.2019
3798 Clear 20 1011 72 10000 4 150 20:41 12.08.2019
3799 Clear 20 1011 72 10000 4 150 20:21 12.08.2019
3800 Clear 20 1011 72 10000 4 150 19:58 12.08.2019
3801 Clear 20 1011 72 10000 3 130 19:39 12.08.2019
3802 Clear 20 1011 72 10000 3 130 19:20 12.08.2019
3803 Clear 20 1011 72 10000 3 130 19:20 12.08.2019
3804 Clear 20 1011 72 10000 4 120 18:58 12.08.2019
3805 Clear 20 1011 72 10000 4 120 18:39 12.08.2019
3806 Clear 20 1011 72 10000 4 120 18:20 12.08.2019
3807 Clear 21 1011 68 10000 4 140 17:55 12.08.2019
3808 Clear 22 1011 64 10000 4 140 17:37 12.08.2019
3809 Clear 22 1011 64 10000 4 140 17:19 12.08.2019
3810 Clear 23 1010 64 10000 4 150 16:39 12.08.2019
3811 Clear 23 1010 64 10000 4 150 16:20 12.08.2019
3812 Clear 23 1010 64 10000 4 150 16:20 12.08.2019
3813 Clear 24 1010 57 10000 4 150 15:59 12.08.2019
3814 Clear 24 1010 57 10000 4 140 15:41 12.08.2019
3815 Clear 24 1010 57 10000 4 140 15:41 12.08.2019
3816 Clear 24 1010 57 10000 4 140 15:21 12.08.2019
3817 Clear 24 1011 57 10000 5 150 14:58 12.08.2019
3818 Clear 25 1011 53 10000 5 150 14:39 12.08.2019
3819 Clear 25 1011 53 10000 5 150 14:39 12.08.2019
3820 Clear 25 1011 53 10000 5 150 14:20 12.08.2019
3821 Clear 25 1011 53 10000 5 150 14:20 12.08.2019
3822 Clear 25 1011 53 10000 5 150 13:54 12.08.2019
3823 Clear 24 1011 53 10000 6 170 13:36 12.08.2019
3824 Clear 24 1011 53 10000 6 170 13:18 12.08.2019
3825 Clear 24 1011 57 10000 5 150 12:41 12.08.2019
3826 Clear 24 1011 57 10000 5 150 12:19 12.08.2019
3827 Clear 25 1011 53 10000 5 170 11:43 12.08.2019
3828 Clear 25 1011 53 10000 5 170 11:25 12.08.2019
3829 -273 0 0 0 0 0 10:54 12.08.2019
3830 Clear 24 1011 57 10000 6 150 10:36 12.08.2019
3831 Clear 24 1011 57 10000 6 150 10:18 12.08.2019
3832 Clear 23 1011 60 10000 5 160 09:42 12.08.2019
3833 Clear 23 1011 60 10000 5 170 09:20 12.08.2019
3834 Clear 23 1011 60 10000 5 170 08:58 12.08.2019
3835 Clear 22 1011 60 10000 5 150 08:39 12.08.2019
3836 Clear 22 1011 60 10000 5 150 08:21 12.08.2019
3837 Clear 22 1011 64 10000 6 160 07:53 12.08.2019
3838 Clear 21 1011 68 10000 4 160 07:33 12.08.2019
3839 Clear 21 1011 68 10000 5 160 06:52 12.08.2019
3840 Clear 18 1011 77 10000 5 150 05:41 12.08.2019
3841 Clear 13 1012 100 10000 3 130 02:45 12.08.2019
3842 Clear 13 1012 100 10000 3 130 01:55 12.08.2019
3843 Clear 13 1012 100 10000 3 130 01:22 12.08.2019
3844 Clear 15 1012 82 10000 3 160 00:58 12.08.2019
3845 Clear 15 1012 87 10000 2 150 00:39 12.08.2019
3846 Clear 15 1012 87 10000 2 150 00:20 12.08.2019
3847 Clear 15 1012 82 10000 3 140 23:56 11.08.2019
3848 Clear 15 1012 82 10000 2 140 23:38 11.08.2019
3849 Clear 15 1012 82 10000 2 140 23:18 11.08.2019
3850 Clear 15 1012 82 10000 2 130 22:40 11.08.2019
3851 Clear 15 1012 82 10000 2 130 22:40 11.08.2019
3852 Clear 15 1012 82 10000 2 130 22:20 11.08.2019
3853 Clear 15 1012 82 10000 3 130 21:59 11.08.2019
3854 Clear 15 1012 82 10000 3 130 21:59 11.08.2019
3855 Clear 14 1012 87 10000 3 130 21:41 11.08.2019
3856 Clear 14 1012 87 10000 3 130 21:22 11.08.2019
3857 Clear 15 1012 82 10000 2 140 20:58 11.08.2019
3858 Clear 16 1012 72 10000 2 130 20:40 11.08.2019
3859 Clear 16 1012 72 10000 2 130 20:22 11.08.2019
3860 Clear 16 1012 72 10000 2 130 20:22 11.08.2019
3861 Clear 15 1012 77 10000 3 120 19:45 11.08.2019
3862 Clear 15 1012 77 10000 3 120 19:20 11.08.2019
3863 Clear 15 1012 77 10000 1 0 18:54 11.08.2019
3864 Clear 16 1012 72 10000 2 110 18:36 11.08.2019
3865 Clear 16 1012 72 10000 2 100 18:18 11.08.2019
3866 Clear 17 1012 63 10000 2 110 17:41 11.08.2019
3867 Clear 17 1012 63 10000 2 110 17:20 11.08.2019
3868 Clear 18 1012 59 10000 2 130 16:57 11.08.2019
3869 Clear 19 1012 55 10000 3 150 16:38 11.08.2019
3870 Clear 20 1012 49 10000 3 150 16:20 11.08.2019
3871 Clear 19 1012 55 10000 3 150 16:20 11.08.2019
3872 Clear 20 1012 49 10000 3 160 15:44 11.08.2019
3873 Clear 20 1012 49 10000 3 160 15:44 11.08.2019
3874 Clear 20 1012 49 10000 3 160 15:25 11.08.2019
3875 Clear 21 1012 49 10000 4 160 14:59 11.08.2019
3876 Clear 21 1012 43 10000 4 110 14:40 11.08.2019
3877 Clear 21 1012 43 10000 4 110 14:21 11.08.2019
3878 Clear 22 1012 37 10000 2 200 13:46 11.08.2019
3879 Clear 22 1012 37 10000 2 200 13:26 11.08.2019
3880 Clear 21 1012 40 10000 3 140 12:58 11.08.2019
3881 Clear 21 1012 40 10000 2 270 12:38 11.08.2019
3882 Clear 21 1012 40 10000 2 270 12:19 11.08.2019
3883 Clouds 21 1012 40 10000 3 210 11:40 11.08.2019
3884 Clouds 21 1012 40 10000 3 210 11:40 11.08.2019
3885 Clouds 21 1012 40 10000 3 210 11:22 11.08.2019
3886 Clouds 20 1012 45 10000 3 220 10:56 11.08.2019
3887 Clouds 20 1012 45 10000 3 220 10:56 11.08.2019
3888 Clouds 20 1012 45 10000 3 210 10:37 11.08.2019
3889 Clouds 20 1012 45 10000 3 210 10:37 11.08.2019
3890 Clouds 20 1012 45 10000 3 210 10:19 11.08.2019
3891 Clouds 20 1012 49 10000 2 220 09:43 11.08.2019
3892 Clouds 20 1012 49 10000 2 220 09:24 11.08.2019
3893 Clouds 20 1012 49 10000 2 250 08:56 11.08.2019
3894 Clouds 19 1012 55 10000 2 180 08:36 11.08.2019
3895 Clouds 19 1012 55 10000 2 180 08:18 11.08.2019
3896 Clouds 19 1012 48 10000 1 0 07:32 11.08.2019
3897 Clouds 18 1012 55 10000 2 160 06:51 11.08.2019
3898 Clear 18 1012 55 10000 1 0 06:31 11.08.2019
3899 Clear 14 1012 87 10000 2 280 04:44 11.08.2019
3900 Clear 10 1012 100 10000 1.13 319.856 02:50 11.08.2019
3901 Fog 9 1011 100 10000 1 0 01:57 11.08.2019
3902 Fog 9 1011 100 10000 1.24 226.631 01:31 11.08.2019
3903 Fog 10 1011 100 10000 1.24 226.631 00:56 11.08.2019
3904 Clear 10 1011 100 10000 1.24 226.631 00:35 11.08.2019
3905 Clear 10 1011 100 10000 1.98 236.624 23:50 10.08.2019
3906 Clear 10 1011 100 10000 1.98 236.624 23:50 10.08.2019
3907 Clear 11 1011 100 10000 1.98 236.624 23:30 10.08.2019
3908 Clear 11 1011 100 10000 1.98 236.624 22:56 10.08.2019
3909 Clouds 11 1011 100 9000 1 0 22:36 10.08.2019
3910 Clouds 11 1011 100 9000 1 0 22:18 10.08.2019
3911 Clouds 13 1011 100 9000 2 290 21:40 10.08.2019
3912 Clouds 13 1011 100 9000 2 290 21:21 10.08.2019
3913 -273 0 0 0 0 0 21:21 10.08.2019
3914 Clouds 13 1011 100 9000 1 250 20:57 10.08.2019
3915 Clear 14 1010 93 10000 2.77 219.951 20:39 10.08.2019
3916 Clear 14 1010 93 10000 2.77 219.951 20:19 10.08.2019
3917 Clear 13 1010 100 10000 2.77 219.951 19:44 10.08.2019
3918 Clear 13 1010 100 10000 2.77 219.951 19:25 10.08.2019
3919 Clear 13 1010 100 10000 2.77 219.951 18:43 10.08.2019
3920 Clear 13 1010 100 10000 1.32 228.377 18:25 10.08.2019
3921 Clear 13 1010 87 10000 1.32 228.377 17:57 10.08.2019
3922 Clear 15 1010 77 10000 1.32 228.377 17:38 10.08.2019
3923 Clear 15 1010 77 10000 1.32 228.377 17:38 10.08.2019
3924 Clear 15 1010 77 10000 1.32 228.377 17:19 10.08.2019
3925 Clear 17 1010 55 10000 1.32 228.377 16:43 10.08.2019
3926 Clear 17 1010 55 10000 1.32 228.377 16:24 10.08.2019
3927 Clear 17 1010 63 10000 1.32 228.377 15:48 10.08.2019
3928 Clear 17 1010 59 10000 2.06 282.212 15:22 10.08.2019
3929 Clear 17 1010 55 10000 2 310 14:44 10.08.2019
3930 Clear 17 1010 55 10000 2 310 14:21 10.08.2019
3931 Clear 16 1010 67 10000 2 280 13:41 10.08.2019
3932 Clear 16 1010 67 10000 2 280 13:20 10.08.2019
3933 Clear 16 1010 67 10000 3 290 12:55 10.08.2019
3934 Clouds 17 1009 63 10000 4 300 12:37 10.08.2019
3935 Clouds 17 1009 63 10000 4 300 12:18 10.08.2019
3936 Clouds 17 1009 63 10000 4 280 11:41 10.08.2019
3937 Clouds 17 1009 63 10000 4 280 11:22 10.08.2019
3938 Clouds 17 1009 63 10000 3 290 10:55 10.08.2019
3939 Clouds 17 1009 63 10000 3 290 10:55 10.08.2019
3940 Clouds 17 1009 67 10000 4 270 10:37 10.08.2019
3941 Clouds 17 1009 67 10000 4 270 10:18 10.08.2019
3942 Clouds 15 1009 77 10000 3 320 09:41 10.08.2019
3943 Clouds 15 1009 77 10000 3 320 09:41 10.08.2019
3944 Clouds 15 1009 77 10000 3 320 09:23 10.08.2019
3945 Clouds 16 1009 72 10000 4 330 08:42 10.08.2019
3946 Clouds 16 1009 72 10000 4 330 08:22 10.08.2019
3947 Clouds 17 1009 72 10000 3 290 07:54 10.08.2019
3948 Clouds 16 1009 77 10000 3 280 07:29 10.08.2019
3949 Clouds 16 1009 77 10000 3 280 07:29 10.08.2019
3950 Clouds 15 1009 87 10000 3 300 06:49 10.08.2019
3951 Clouds 15 1008 100 10000 3 300 06:29 10.08.2019
3952 Clouds 14 1008 100 10000 3 300 05:27 10.08.2019
3953 Clouds 13 1008 100 10000 3 290 04:37 10.08.2019
3954 Clouds 12 1007 100 10000 2 290 02:58 10.08.2019
3955 Rain 12 1007 100 10000 3 290 02:27 10.08.2019
3956 Rain 12 1007 100 10000 3 280 01:43 10.08.2019
3957 Rain 12 1007 100 10000 3 280 01:23 10.08.2019
3958 Clouds 12 1007 100 10000 3 280 00:49 10.08.2019
3959 Rain 12 1007 100 10000 3 280 00:25 10.08.2019
3960 Rain 12 1007 100 10000 3 290 23:57 09.08.2019
3961 Rain 12 1006 100 10000 4 290 23:36 09.08.2019
3962 Rain 12 1006 100 10000 4 290 23:18 09.08.2019
3963 Rain 12 1006 100 7000 4 290 22:39 09.08.2019
3964 Rain 12 1006 100 7000 4 290 22:21 09.08.2019
3965 Rain 12 1006 100 6000 4 280 21:56 09.08.2019
3966 Rain 13 1006 100 5000 2 320 21:38 09.08.2019
3967 Rain 13 1006 100 5000 2 320 21:20 09.08.2019
3968 Rain 12 1006 100 4200 2 330 20:56 09.08.2019
3969 Rain 13 1006 100 2800 2 350 20:37 09.08.2019
3970 Rain 13 1006 100 2800 2 350 20:18 09.08.2019
3971 Rain 13 1006 100 2800 2 350 20:18 09.08.2019
3972 Rain 13 1006 100 2500 2 300 19:41 09.08.2019
3973 Rain 13 1006 100 2500 2 300 19:22 09.08.2019
3974 Rain 13 1006 100 10000 3 250 18:42 09.08.2019
3975 Rain 13 1005 100 10000 3 280 18:23 09.08.2019
3976 Rain 13 1005 100 10000 3 280 17:59 09.08.2019
3977 Clouds 13 1005 100 10000 3 280 17:41 09.08.2019
3978 Clouds 13 1005 100 10000 3 280 17:22 09.08.2019
3979 Clouds 13 1005 100 10000 4 270 16:42 09.08.2019
3980 Clouds 13 1005 100 10000 4 270 16:24 09.08.2019
3981 Clouds 14 1005 100 10000 4 270 15:58 09.08.2019
3982 Rain 14 1005 100 10000 3 240 15:39 09.08.2019
3983 Rain 14 1005 100 10000 3 240 15:20 09.08.2019
3984 Rain 14 1004 100 10000 3 270 14:56 09.08.2019
3985 Rain 13 1004 100 9000 3 270 14:37 09.08.2019
3986 Rain 13 1004 100 9000 3 270 14:19 09.08.2019
3987 Rain 14 1004 100 10000 3 210 13:44 09.08.2019
3988 Rain 14 1004 100 10000 3 210 13:20 09.08.2019
3989 Rain 14 1004 93 10000 5 210 12:47 09.08.2019
3990 Rain 14 1004 93 10000 5 210 12:25 09.08.2019
3991 -273 0 0 0 0 0 11:59 09.08.2019
3992 Rain 14 1004 93 10000 4 200 11:40 09.08.2019
3993 Rain 14 1004 93 10000 4 200 11:19 09.08.2019
3994 Rain 14 1004 100 10000 4 200 10:41 09.08.2019
3995 Rain 14 1004 100 10000 4 200 10:22 09.08.2019
3996 Rain 14 1004 93 10000 4 200 09:57 09.08.2019
3997 Rain 14 1003 87 10000 5 200 09:37 09.08.2019
3998 Rain 14 1003 87 10000 5 200 09:18 09.08.2019
3999 Rain 15 1003 77 10000 5 210 08:44 09.08.2019
4000 Rain 15 1003 77 10000 5 210 08:24 09.08.2019
4001 Clouds 15 1003 77 10000 5 220 07:55 09.08.2019
4002 Clouds 15 1003 77 10000 5 220 07:55 09.08.2019
4003 Rain 15 1003 77 10000 5 200 07:24 09.08.2019
4004 Clouds 14 1003 82 10000 5 220 06:57 09.08.2019
4005 Clouds 14 1003 76 10000 5 200 06:36 09.08.2019
4006 Clouds 14 1002 76 10000 5 220 06:18 09.08.2019
4007 Clear 13 1002 82 10000 3 200 04:37 09.08.2019
4008 Clear 11 1002 100 10000 3 200 02:26 09.08.2019
4009 Clear 11 1002 100 10000 3 200 00:58 09.08.2019
4010 Clear 11 1002 100 10000 3 200 00:40 09.08.2019
4011 Clear 11 1002 100 10000 3 200 00:22 09.08.2019
4012 Clear 11 1002 100 10000 2 200 23:39 08.08.2019
4013 Clear 11 1002 100 10000 2 200 23:20 08.08.2019
4014 Clear 12 1002 87 10000 3 210 22:59 08.08.2019
4015 Clear 12 1002 87 10000 3 210 22:37 08.08.2019
4016 Clear 12 1002 87 10000 3 210 22:19 08.08.2019
4017 Clear 13 1002 82 10000 3 200 21:59 08.08.2019
4018 Clear 13 1002 82 10000 3 220 21:41 08.08.2019
4019 Clear 14 1002 71 10000 3 210 21:22 08.08.2019
4020 Clear 14 1002 71 10000 3 210 20:56 08.08.2019
4021 Clear 14 1002 76 10000 3 190 20:38 08.08.2019
4022 Clear 14 1002 76 10000 3 190 20:19 08.08.2019
4023 Clear 15 1002 67 10000 3 190 19:43 08.08.2019
4024 Clear 15 1002 72 10000 4 190 19:22 08.08.2019
4025 Clear 15 1002 67 10000 2 190 18:43 08.08.2019
4026 Clear 15 1002 67 10000 2 190 18:24 08.08.2019
4027 Clouds 15 1002 72 10000 2 180 17:58 08.08.2019
4028 Clouds 15 1002 72 10000 2 180 17:58 08.08.2019
4029 Clouds 16 1001 67 10000 2 210 17:40 08.08.2019
4030 Clouds 16 1001 67 10000 2 210 17:21 08.08.2019
4031 Clouds 16 1001 67 10000 3 180 16:55 08.08.2019
4032 Clouds 16 1001 67 10000 3 190 16:37 08.08.2019
4033 Clouds 16 1001 67 10000 3 190 16:37 08.08.2019
4034 Clouds 16 1001 67 10000 3 190 16:18 08.08.2019
4035 Clouds 16 1001 67 10000 2 190 15:41 08.08.2019
4036 Clouds 16 1001 67 10000 2 190 15:23 08.08.2019
4037 Clouds 16 1001 63 10000 3 210 14:56 08.08.2019
4038 Rain 16 1001 63 10000 6 230 14:37 08.08.2019
4039 Rain 16 1001 63 10000 6 230 14:18 08.08.2019
4040 Clouds 17 1001 63 10000 4 240 13:39 08.08.2019
4041 Clouds 17 1001 63 10000 4 240 13:20 08.08.2019
4042 Clouds 19 1001 48 10000 6 190 12:40 08.08.2019
4043 Clouds 19 1001 48 10000 6 190 12:21 08.08.2019
4044 Clouds 19 1001 48 10000 7 220 11:59 08.08.2019
4045 Clouds 19 1001 48 10000 6 210 11:39 08.08.2019
4046 Clouds 19 1001 48 10000 6 210 11:21 08.08.2019
4047 Clouds 18 1001 55 10000 6 230 10:41 08.08.2019
4048 Clouds 18 1001 55 10000 6 230 10:21 08.08.2019
4049 Clouds 18 1001 55 10000 7 210 09:52 08.08.2019
4050 Clouds 18 1001 59 10000 6 210 09:31 08.08.2019
4051 Clouds 18 1001 55 10000 8 210 08:57 08.08.2019
4052 Clouds 17 1001 63 10000 7 210 08:39 08.08.2019
4053 Clouds 17 1001 63 10000 7 210 08:19 08.08.2019
4054 Clouds 17 1001 63 10000 6 200 07:41 08.08.2019
4055 Clouds 17 1001 63 10000 6 200 07:20 08.08.2019
4056 Clear 16 1001 72 10000 5 190 06:49 08.08.2019
4057 Clear 15 1001 72 10000 5 190 06:30 08.08.2019
4058 Clear 15 1001 77 10000 4 190 05:53 08.08.2019
4059 Clear 15 1001 72 10000 4 200 05:18 08.08.2019
4060 Clear 13 1001 82 10000 4 210 03:53 08.08.2019
4061 Clear 13 1001 82 10000 3 220 02:30 08.08.2019
4062 Clear 13 1001 82 10000 3 220 01:37 08.08.2019
4063 Clear 14 1001 76 10000 3 220 00:26 08.08.2019
4064 Clear 14 1001 76 10000 2 220 23:51 07.08.2019
4065 Clear 14 1001 76 10000 2 220 23:20 07.08.2019
4066 Clear 15 1001 72 10000 2 220 22:57 07.08.2019
4067 Clear 15 1001 72 10000 3 190 22:39 07.08.2019
4068 Clear 15 1001 72 10000 3 190 22:20 07.08.2019
4069 Clear 15 1001 72 10000 3 190 22:20 07.08.2019
4070 Clear 15 1001 72 10000 2 200 21:56 07.08.2019
4071 Clear 15 1001 72 10000 3 200 21:37 07.08.2019
4072 Clear 15 1001 72 10000 3 200 21:37 07.08.2019
4073 Clear 15 1001 72 10000 3 200 21:18 07.08.2019
4074 Clear 15 1001 72 10000 2 220 20:43 07.08.2019
4075 Clear 15 1001 72 10000 2 220 20:24 07.08.2019
4076 Clear 15 1001 67 10000 2 210 19:58 07.08.2019
4077 Clear 15 1001 67 10000 3 240 19:39 07.08.2019
4078 Clear 15 1001 67 10000 3 240 19:21 07.08.2019
4079 Clear 16 1002 67 10000 3 230 18:44 07.08.2019
4080 Clear 16 1002 67 10000 3 230 18:22 07.08.2019
4081 Clear 17 1001 63 10000 3 230 17:59 07.08.2019
4082 Clear 17 1002 63 10000 2 210 17:40 07.08.2019
4083 Clear 17 1002 63 10000 2 210 17:21 07.08.2019
4084 Clear 17 1002 63 10000 2 210 17:21 07.08.2019
4085 Clear 18 1002 55 10000 4 240 16:57 07.08.2019
4086 Clear 19 1002 52 10000 5 240 16:39 07.08.2019
4087 Clear 19 1002 52 10000 5 240 16:20 07.08.2019
4088 Clear 19 1001 52 10000 6 250 15:57 07.08.2019
4089 Clear 20 1002 52 10000 7 250 15:38 07.08.2019
4090 Clear 20 1002 52 10000 7 250 15:19 07.08.2019
4091 Clear 21 1001 46 10000 7 250 14:49 07.08.2019
4092 Clear 21 1001 46 10000 6 220 14:28 07.08.2019
4093 Clear 21 1000 46 10000 6 210 13:55 07.08.2019
4094 Clear 22 1000 40 10000 7 230 13:36 07.08.2019
4095 Clear 22 1000 40 10000 7 230 13:18 07.08.2019
4096 Clear 22 1000 40 10000 7 220 12:55 07.08.2019
4097 Clear 22 1000 40 10000 6 220 12:36 07.08.2019
4098 Clear 22 1000 40 10000 6 220 12:18 07.08.2019
4099 Clear 21 1000 46 10000 7 210 11:42 07.08.2019
4100 Clear 21 1000 46 10000 7 210 11:20 07.08.2019
4101 Clear 21 1000 46 10000 6 210 10:56 07.08.2019
4102 Clear 21 1000 43 10000 7 200 10:38 07.08.2019
4103 Clouds 21 1000 52 10000 5 220 10:18 07.08.2019
4104 Clouds 21 1000 52 10000 6 230 09:44 07.08.2019
4105 Clouds 21 1000 52 10000 6 230 09:22 07.08.2019
4106 Clouds 21 1000 60 10000 6 240 08:56 07.08.2019
4107 Clouds 20 999 68 10000 6 220 08:38 07.08.2019
4108 Clouds 20 999 68 10000 6 220 08:20 07.08.2019
4109 Clouds 20 999 82 10000 6 200 07:39 07.08.2019
4110 Clouds 20 999 82 10000 6 200 07:20 07.08.2019
4111 Clouds 18 999 100 10000 6 190 06:29 07.08.2019
4112 Clouds 18 999 100 10000 5 190 05:50 07.08.2019
4113 Clouds 17 999 100 10000 5 180 04:53 07.08.2019
4114 Rain 17 999 100 4600 4 160 03:21 07.08.2019
4115 Rain 17 1000 100 8000 4 160 02:47 07.08.2019
4116 Rain 17 1000 100 10000 4 140 01:58 07.08.2019
4117 Rain 17 1001 100 7000 3 150 01:39 07.08.2019
4118 Rain 18 1002 93 8000 3 190 00:43 07.08.2019
4119 Rain 18 1002 93 8000 3 190 00:22 07.08.2019
4120 Clouds 20 1001 68 10000 5 150 23:41 06.08.2019
4121 Clouds 20 1001 68 10000 5 150 23:21 06.08.2019
4122 Clouds 19 1002 72 10000 5 140 22:56 06.08.2019
4123 Clouds 20 1002 68 10000 4 130 22:37 06.08.2019
4124 Clouds 20 1002 68 10000 4 130 22:18 06.08.2019
4125 Clouds 20 1003 68 10000 4 150 21:42 06.08.2019
4126 Clouds 20 1003 68 10000 4 150 21:24 06.08.2019
4127 Clouds 21 1004 64 10000 5 150 20:57 06.08.2019
4128 Clouds 20 1004 68 10000 5 150 20:39 06.08.2019
4129 Clouds 20 1004 68 10000 5 150 20:21 06.08.2019
4130 Clear 21 1005 64 10000 5 140 19:43 06.08.2019
4131 Clear 21 1005 64 10000 5 140 19:25 06.08.2019
4132 Clear 21 1006 60 10000 5 140 18:46 06.08.2019
4133 Clear 21 1006 60 10000 5 140 18:27 06.08.2019
4134 Clear 21 1006 60 10000 5 140 17:59 06.08.2019
4135 Clear 21 1006 60 10000 5 130 17:40 06.08.2019
4136 Clear 21 1006 60 10000 5 130 17:21 06.08.2019
4137 Clear 21 1007 60 10000 5 140 16:59 06.08.2019
4138 Clear 22 1007 56 10000 5 130 16:39 06.08.2019
4139 Clear 22 1007 56 10000 5 130 16:20 06.08.2019
4140 Clear 22 1007 56 10000 5 140 15:57 06.08.2019
4141 Clear 22 1007 56 10000 5 140 15:57 06.08.2019
4142 Clear 22 1008 56 10000 5 140 15:38 06.08.2019
4143 Clear 22 1008 56 10000 5 140 15:19 06.08.2019
4144 Clear 23 1008 46 10000 5 160 14:44 06.08.2019
4145 Clear 23 1008 46 10000 5 160 14:25 06.08.2019
4146 Clear 23 1009 46 10000 5 170 13:58 06.08.2019
4147 Clear 23 1009 46 10000 5 170 13:58 06.08.2019
4148 Clear 23 1009 49 10000 6 170 13:38 06.08.2019
4149 Clear 23 1009 49 10000 6 170 13:20 06.08.2019
4150 Clear 23 1009 46 10000 6 160 12:56 06.08.2019
4151 Clear 23 1009 46 10000 6 160 12:56 06.08.2019
4152 Clear 23 1009 46 10000 6 160 12:56 06.08.2019
4153 Clear 23 1009 49 10000 6 160 12:38 06.08.2019
4154 Clear 23 1009 49 10000 6 160 12:19 06.08.2019
4155 Clouds 23 1010 46 10000 7 160 11:41 06.08.2019
4156 Clouds 23 1010 49 10000 6 170 11:18 06.08.2019
4157 Clouds 23 1010 49 10000 6 170 11:18 06.08.2019
4158 Clouds 23 1010 49 10000 5 160 10:41 06.08.2019
4159 Clouds 23 1010 49 10000 5 160 10:22 06.08.2019
4160 Clouds 23 1011 53 10000 5 150 09:49 06.08.2019
4161 Clouds 23 1011 49 10000 5 180 09:24 06.08.2019
4162 Clouds 23 1011 53 10000 6 190 08:57 06.08.2019
4163 Clouds 23 1011 49 10000 5 170 08:38 06.08.2019
4164 Clouds 23 1011 49 10000 5 170 08:20 06.08.2019
4165 Clear 22 1011 56 10000 5 150 07:36 06.08.2019
4166 Clear 21 1011 64 10000 4 160 06:51 06.08.2019
4167 Clear 21 1012 60 10000 4 160 06:32 06.08.2019
4168 Clear 20 1012 64 10000 3 170 05:48 06.08.2019
4169 Clear 16 1012 82 10000 2 130 03:44 06.08.2019
4170 Clear 15 1011 82 10000 1 0 01:51 06.08.2019
4171 Clear 14 1011 93 10000 2 150 01:22 06.08.2019
4172 Clear 14 1011 100 10000 2 150 00:29 06.08.2019
4173 Clear 13 1011 100 10000 2 140 23:44 05.08.2019
4174 Clear 13 1011 100 10000 2 140 23:18 05.08.2019
4175 Clear 14 1011 100 10000 1 120 22:40 05.08.2019
4176 Clear 14 1011 100 10000 1 120 22:22 05.08.2019
4177 Clear 14 1011 100 10000 1 150 21:54 05.08.2019
4178 Clear 14 1011 100 10000 2 150 21:36 05.08.2019
4179 Clear 14 1011 100 10000 2 150 21:18 05.08.2019
4180 Clear 13 1011 100 10000 2.94 180.41 20:42 05.08.2019
4181 Clear 13 1011 100 10000 2.94 180.41 20:24 05.08.2019
4182 Clear 13 1010 100 10000 2 110 19:59 05.08.2019
4183 Clear 14 1010 100 10000 2.94 180.41 19:39 05.08.2019
4184 Clear 14 1010 100 10000 2.94 180.41 19:21 05.08.2019
4185 Clear 15 1010 87 10000 2.94 180.41 18:45 05.08.2019
4186 Clear 15 1010 87 10000 2.2 244.519 18:22 05.08.2019
4187 Clear 15 1010 87 10000 2.2 244.519 18:22 05.08.2019
4188 Clear 17 1010 77 10000 2.2 244.519 17:58 05.08.2019
4189 Clear 19 1010 63 10000 2 230 17:40 05.08.2019
4190 Clear 19 1010 63 10000 2 230 17:22 05.08.2019
4191 Clear 20 1009 56 10000 3 240 16:45 05.08.2019
4192 Clear 20 1009 56 10000 3 240 16:24 05.08.2019
4193 Clear 21 1009 49 10000 4 220 15:44 05.08.2019
4194 Clear 21 1009 49 10000 4 220 15:21 05.08.2019
4195 Clear 21 1009 52 10000 3 210 14:55 05.08.2019
4196 Clear 21 1009 52 10000 3 230 14:37 05.08.2019
4197 Clear 21 1009 52 10000 3 230 14:19 05.08.2019
4198 Clouds 21 1009 52 10000 5 230 13:40 05.08.2019
4199 Clouds 21 1009 52 10000 5 230 13:20 05.08.2019
4200 Clouds 22 1008 43 10000 4 230 12:44 05.08.2019
4201 Clouds 22 1008 43 10000 4 230 12:20 05.08.2019
4202 Clouds 21 1008 49 10000 5 200 11:45 05.08.2019
4203 Clouds 21 1008 49 10000 5 200 11:45 05.08.2019
4204 Clouds 21 1008 49 10000 5 200 11:45 05.08.2019
4205 Clouds 21 1008 49 10000 5 200 11:26 05.08.2019
4206 Clouds 22 1008 46 10000 4 230 10:50 05.08.2019
4207 Clear 22 1008 49 10000 4 220 10:32 05.08.2019
4208 Clear 22 1008 49 10000 4 260 09:58 05.08.2019
4209 Clear 21 1008 52 10000 4 230 09:40 05.08.2019
4210 Clear 21 1008 52 10000 4 230 09:21 05.08.2019
4211 Clear 21 1008 56 10000 3 240 08:44 05.08.2019
4212 Clear 21 1008 56 10000 3 240 08:25 05.08.2019
4213 Clear 20 1008 60 10000 3 240 07:53 05.08.2019
4214 Clear 20 1008 64 10000 4 280 07:31 05.08.2019
4215 Clear 19 1008 72 10000 2 250 06:58 05.08.2019
4216 Clear 18 1008 77 10000 2 240 06:27 05.08.2019
4217 Clear 17 1007 82 10000 2.33 248.043 05:41 05.08.2019
4218 Clear 16 1007 87 10000 1 0 04:55 05.08.2019
4219 Clear 15 1007 100 10000 1 0 03:53 05.08.2019
4220 Clear 15 1007 100 10000 1 0 03:20 05.08.2019
4221 Clear 14 1006 100 10000 1.72 233.19 02:26 05.08.2019
4222 Clear 14 1006 100 10000 1.87 245.938 01:31 05.08.2019
4223 Clouds 15 1006 100 10000 2 160 00:41 05.08.2019
4224 Clouds 15 1006 100 10000 2 160 00:21 05.08.2019
4225 Clouds 15 1006 100 10000 2 160 00:21 05.08.2019
4226 Clouds 15 1005 100 10000 1 0 23:44 04.08.2019
4227 Clouds 15 1005 100 10000 1 0 23:24 04.08.2019
4228 Clouds 15 1005 100 10000 1.83 210.204 22:58 04.08.2019
4229 Clouds 15 1005 100 10000 1 0 22:38 04.08.2019
4230 Clouds 15 1005 100 10000 1 0 22:20 04.08.2019
4231 Clouds 15 1005 100 10000 2 100 21:59 04.08.2019
4232 Clouds 15 1005 100 10000 2 130 21:41 04.08.2019
4233 Clouds 15 1005 100 10000 2 130 21:20 04.08.2019
4234 Clouds 15 1005 100 10000 3 150 20:43 04.08.2019
4235 Clouds 15 1005 100 10000 3 150 20:19 04.08.2019
4236 Clear 14 1004 100 10000 1 60 19:56 04.08.2019
4237 Clear 15 1004 100 10000 1 20 19:37 04.08.2019
4238 Clear 15 1004 100 10000 1 20 19:18 04.08.2019
4239 Clear 16 1004 100 10000 1 0 18:42 04.08.2019
4240 Clear 16 1004 100 10000 1 0 18:20 04.08.2019
4241 Clouds 18 1004 82 10000 2 280 17:44 04.08.2019
4242 Clouds 18 1004 82 10000 2 280 17:24 04.08.2019
4243 Clouds 19 1003 68 10000 2 240 16:55 04.08.2019
4244 Clouds 19 1003 68 10000 2 190 16:36 04.08.2019
4245 Clouds 19 1003 68 10000 2 190 16:18 04.08.2019
4246 Rain 20 1003 68 10000 4 200 15:39 04.08.2019
4247 Rain 20 1003 68 10000 4 200 15:20 04.08.2019
4248 Clouds 18 1003 88 10000 2 100 14:44 04.08.2019
4249 Clouds 18 1003 88 10000 2 100 14:26 04.08.2019
4250 Clouds 18 1003 88 10000 2 120 13:47 04.08.2019
4251 Rain 18 1003 82 10000 5 240 13:27 04.08.2019
4252 Rain 21 1002 60 10000 4 170 12:57 04.08.2019
4253 Clouds 22 1002 49 10000 5 170 12:39 04.08.2019
4254 Clouds 22 1002 49 10000 5 170 12:21 04.08.2019
4255 Clouds 21 1002 60 10000 4 150 11:48 04.08.2019
4256 Clouds 20 1002 72 10000 3 220 11:23 04.08.2019
4257 Rain 19 1002 72 7000 5 200 10:48 04.08.2019
4258 Clouds 22 1002 53 10000 5 180 10:23 04.08.2019
4259 Rain 21 1002 56 10000 6 190 09:47 04.08.2019
4260 Clouds 21 1002 56 10000 6 210 09:27 04.08.2019
4261 Clouds 20 1001 56 10000 7 200 08:59 04.08.2019
4262 Clouds 21 1001 56 10000 6 200 08:38 04.08.2019
4263 Clouds 21 1001 56 10000 6 200 08:18 04.08.2019
4264 Clouds 19 1001 68 10000 6 180 07:44 04.08.2019
4265 Clouds 18 1000 72 10000 6 170 06:46 04.08.2019
4266 Clouds 18 1000 72 10000 6 170 06:23 04.08.2019
4267 Clouds 15 999 93 10000 5 190 03:38 04.08.2019
4268 Clear 16 998 87 10000 5 180 01:56 04.08.2019
4269 Clear 16 998 82 10000 6 180 01:33 04.08.2019
4270 Clouds 16 997 82 10000 5 190 00:43 04.08.2019
4271 Clouds 16 997 82 10000 5 190 00:25 04.08.2019
4272 Clouds 16 997 82 10000 6 190 23:56 03.08.2019
4273 Clouds 16 997 82 10000 5 180 23:37 03.08.2019
4274 Clouds 16 997 82 10000 5 180 23:18 03.08.2019
4275 Clear 15 996 87 10000 4 160 22:41 03.08.2019
4276 Clear 15 996 87 10000 4 160 22:19 03.08.2019
4277 Clouds 16 996 77 10000 5 160 21:40 03.08.2019
4278 Clouds 16 996 77 10000 5 160 21:40 03.08.2019
4279 Clouds 16 996 77 10000 5 160 21:22 03.08.2019
4280 Clouds 16 996 77 10000 5 160 20:46 03.08.2019
4281 Clouds 16 996 77 10000 5 160 20:25 03.08.2019
4282 Clouds 16 996 77 10000 5 160 19:57 03.08.2019
4283 Clouds 16 996 72 10000 5 150 19:39 03.08.2019
4284 Clouds 16 996 72 10000 5 150 19:21 03.08.2019
4285 Clear 16 996 72 10000 5 150 18:46 03.08.2019
4286 Clear 16 996 72 10000 5 150 18:25 03.08.2019
4287 Clear 18 995 63 10000 6 170 17:46 03.08.2019
4288 Clear 18 995 63 10000 6 170 17:20 03.08.2019
4289 Clouds 18 995 63 10000 5 190 16:39 03.08.2019
4290 Clouds 18 995 63 10000 5 190 16:21 03.08.2019
4291 Clouds 18 994 63 10000 6 190 15:59 03.08.2019
4292 Clouds 18 994 68 10000 5 180 15:39 03.08.2019
4293 Clouds 18 994 68 10000 5 180 15:20 03.08.2019
4294 Clouds 18 994 72 10000 5 190 14:37 03.08.2019
4295 Clouds 18 994 72 10000 5 190 14:18 03.08.2019
4296 Clouds 18 994 72 10000 5 190 14:18 03.08.2019
4297 Clouds 18 993 68 10000 7 170 13:43 03.08.2019
4298 Clouds 18 993 68 10000 7 170 13:23 03.08.2019
4299 Clouds 18 993 72 10000 5 200 12:56 03.08.2019
4300 Clouds 17 992 88 8000 5 200 12:37 03.08.2019
4301 Clouds 17 992 88 8000 5 200 12:19 03.08.2019
4302 Clouds 18 991 68 10000 7 150 11:39 03.08.2019
4303 Clouds 18 991 68 10000 7 150 11:20 03.08.2019
4304 Rain 19 990 59 10000 7 180 10:38 03.08.2019
4305 Rain 19 990 59 10000 7 180 10:20 03.08.2019
4306 Clouds 19 990 55 10000 7 170 09:38 03.08.2019
4307 Clouds 19 990 55 10000 7 170 09:38 03.08.2019
4308 Clouds 19 990 55 10000 7 170 09:18 03.08.2019
4309 Clouds 18 989 63 10000 8 150 08:43 03.08.2019
4310 Clear 19 989 55 10000 7 160 07:40 03.08.2019
4311 Clouds 18 989 63 10000 5 160 06:57 03.08.2019
4312 Clouds 18 989 63 10000 6 170 06:19 03.08.2019
4313 Clear 17 989 93 10000 3 180 03:35 03.08.2019
4314 Fog 16 988 100 10000 1 0 02:26 03.08.2019
4315 Clear 17 989 100 10000 1 150 00:59 03.08.2019
4316 Clear 17 989 100 10000 2 190 00:32 03.08.2019
4317 Clear 18 988 100 10000 1 0 23:42 02.08.2019
4318 Clear 18 988 100 10000 1 0 23:42 02.08.2019
4319 Clear 18 988 100 10000 1 0 23:20 02.08.2019
4320 Clouds 18 988 100 10000 1 0 22:59 02.08.2019
4321 Clouds 18 988 100 10000 2 200 22:40 02.08.2019
4322 Clouds 18 988 100 10000 2 200 22:22 02.08.2019
4323 Rain 19 989 100 9000 2 170 21:56 02.08.2019
4324 Rain 19 988 100 9000 2 190 21:37 02.08.2019
4325 Rain 19 988 100 9000 2 190 21:37 02.08.2019
4326 Rain 19 988 100 9000 2 190 21:19 02.08.2019
4327 Clouds 19 988 100 10000 1 0 20:43 02.08.2019
4328 Clouds 19 988 100 10000 1 0 20:22 02.08.2019
4329 Thunderstorm 19 988 100 10000 3 220 19:53 02.08.2019
4330 Thunderstorm 20 988 94 10000 4 230 19:32 02.08.2019
4331 Thunderstorm 21 987 88 10000 4 100 18:50 02.08.2019
4332 Clouds 20 987 100 10000 2 110 18:32 02.08.2019
4333 Clouds 20 987 100 10000 3 100 17:57 02.08.2019
4334 Clouds 21 988 100 10000 2 120 17:39 02.08.2019
4335 Clouds 21 988 100 10000 2 120 17:20 02.08.2019
4336 Clouds 22 988 88 10000 2 140 16:39 02.08.2019
4337 Clouds 22 988 88 10000 2 140 16:20 02.08.2019
4338 Rain 22 988 88 8000 6 170 15:56 02.08.2019
4339 Clouds 22 988 88 10000 2 160 15:36 02.08.2019
4340 Clouds 22 988 88 10000 2 160 15:18 02.08.2019
4341 Thunderstorm 22 987 83 10000 7 140 14:41 02.08.2019
4342 Thunderstorm 22 987 83 10000 7 140 14:18 02.08.2019
4343 Clouds 28 987 58 10000 6 130 13:45 02.08.2019
4344 Clouds 28 987 58 10000 6 130 13:20 02.08.2019
4345 Clouds 28 987 54 10000 6 140 12:43 02.08.2019
4346 Clear 28 987 54 10000 7 140 12:20 02.08.2019
4347 Clear 27 987 57 10000 8 140 11:41 02.08.2019
4348 Clear 27 987 57 10000 8 140 11:41 02.08.2019
4349 Clear 27 987 57 10000 8 140 11:22 02.08.2019
4350 Clear 27 987 61 10000 8 130 10:48 02.08.2019
4351 Clear 26 987 65 10000 6 120 10:24 02.08.2019
4352 Clear 25 987 65 10000 6 120 09:57 02.08.2019
4353 Clear 25 987 69 10000 7 120 09:38 02.08.2019
4354 Clear 25 987 69 10000 7 120 09:38 02.08.2019
4355 Clear 25 987 69 10000 7 120 09:20 02.08.2019
4356 Clear 24 988 69 10000 7 130 08:40 02.08.2019
4357 Clear 24 988 69 10000 7 130 08:18 02.08.2019
4358 Clouds 23 988 69 10000 6 120 07:42 02.08.2019
4359 Clouds 23 988 69 10000 6 120 07:24 02.08.2019
4360 Clear 22 988 73 10000 6 130 06:33 02.08.2019
4361 Clear 20 988 77 10000 7 110 05:44 02.08.2019
4362 Clouds 17 989 82 10000 6 100 03:35 02.08.2019
4363 Clouds 16 990 82 10000 4 120 02:42 02.08.2019
4364 Clouds 16 990 82 10000 6 100 01:38 02.08.2019
4365 Thunderstorm 16 991 82 10000 7 100 00:32 02.08.2019
4366 Clear 16 991 82 10000 8 90 23:44 01.08.2019
4367 Clear 16 991 82 10000 8 90 23:26 01.08.2019
4368 Clear 16 993 82 10000 7 90 22:45 01.08.2019
4369 Clear 16 993 82 10000 7 90 22:25 01.08.2019
4370 Clear 15 994 82 10000 7 90 21:57 01.08.2019
4371 Clear 15 994 87 10000 6 90 21:39 01.08.2019
4372 Clear 15 994 87 10000 6 90 21:21 01.08.2019
4373 Clouds 15 996 87 10000 6 90 20:46 01.08.2019
4374 Clouds 15 996 87 10000 6 90 20:23 01.08.2019
4375 Clouds 15 996 82 10000 6 100 19:54 01.08.2019
4376 Clouds 15 997 82 10000 5 110 19:36 01.08.2019
4377 Rain 15 997 82 10000 4 100 19:18 01.08.2019
4378 Clouds 16 998 72 10000 5 110 18:42 01.08.2019
4379 Clouds 16 998 72 10000 5 110 18:23 01.08.2019
4380 Clear 15 998 77 10000 4 80 17:47 01.08.2019
4381 Clear 15 998 77 10000 4 80 17:27 01.08.2019
4382 Clear 16 999 67 10000 3 90 16:45 01.08.2019
4383 Clear 16 999 67 10000 3 90 16:45 01.08.2019
4384 Clear 16 999 67 10000 3 90 16:22 01.08.2019
4385 Clear 17 999 59 10000 3 150 15:46 01.08.2019
4386 Clear 17 999 59 10000 3 150 15:21 01.08.2019
4387 Clear 17 1000 55 10000 2 180 14:59 01.08.2019
4388 Clear 16 1000 59 10000 4 170 14:41 01.08.2019
4389 Clear 16 1000 59 10000 4 170 14:18 01.08.2019
4390 Clear 16 1000 59 10000 4 170 14:18 01.08.2019
4391 Clear 17 1000 59 10000 4 150 13:42 01.08.2019
4392 Clear 17 1000 59 10000 4 150 13:22 01.08.2019
4393 Clouds 18 1001 52 10000 5 180 12:59 01.08.2019
4394 Clouds 18 1001 52 10000 5 180 12:41 01.08.2019
4395 Clouds 18 1001 52 10000 5 180 12:22 01.08.2019
4396 Clouds 18 1001 52 10000 5 180 11:42 01.08.2019
4397 Clouds 18 1001 52 10000 5 180 11:23 01.08.2019
4398 Clouds 18 1001 52 10000 5 180 11:23 01.08.2019
4399 Clouds 18 1002 52 10000 4 210 10:46 01.08.2019
4400 Clouds 18 1002 52 10000 4 210 10:28 01.08.2019
4401 Clouds 18 1002 52 10000 5 220 09:59 01.08.2019
4402 Clouds 18 1002 52 10000 4 210 09:40 01.08.2019
4403 Clouds 18 1002 52 10000 4 210 09:22 01.08.2019
4404 Clouds 18 1003 48 10000 5 210 08:43 01.08.2019
4405 Clouds 18 1003 48 10000 5 210 08:20 01.08.2019
4406 Clouds 17 1003 55 10000 6 210 07:47 01.08.2019
4407 Clouds 16 1002 59 10000 5 210 07:24 01.08.2019
4408 Clear 16 1003 67 10000 4 200 06:48 01.08.2019
4409 Clear 15 1003 72 10000 3 220 05:50 01.08.2019
4410 Clear 13 1002 82 10000 4 200 04:23 01.08.2019
4411 Clear 11 1002 93 10000 2 230 02:33 01.08.2019
4412 Clear 11 1002 100 10000 2 220 00:43 01.08.2019
4413 Clear 11 1002 100 10000 2 220 00:24 01.08.2019
4414 Clear 11 1002 93 10000 3 240 23:43 31.07.2019
4415 Clear 11 1002 93 10000 3 240 23:21 31.07.2019
4416 Clear 12 1002 87 10000 3 220 22:48 31.07.2019
4417 Clear 12 1002 87 10000 4 220 22:30 31.07.2019
4418 Clear 12 1002 81 10000 3 230 21:57 31.07.2019
4419 Clear 12 1002 81 10000 4 230 21:37 31.07.2019
4420 Clear 12 1002 81 10000 4 230 21:18 31.07.2019
4421 Clear 12 1002 81 10000 4 230 21:18 31.07.2019
4422 Clear 13 1001 76 10000 4 230 20:41 31.07.2019
4423 Clear 13 1001 76 10000 4 230 20:21 31.07.2019
4424 Clear 14 1001 71 10000 4 230 19:41 31.07.2019
4425 Clear 14 1001 71 10000 4 230 19:23 31.07.2019
4426 Clear 15 1001 72 10000 4 240 18:53 31.07.2019
4427 Clear 15 1001 77 10000 3 240 18:25 31.07.2019
4428 Clouds 15 1001 82 10000 2 210 17:57 31.07.2019
4429 Clouds 15 1001 77 10000 3 220 17:39 31.07.2019
4430 Clouds 15 1001 77 10000 3 220 17:19 31.07.2019
4431 Clouds 16 1000 72 10000 3 200 16:43 31.07.2019
4432 Clouds 16 1000 72 10000 3 200 16:20 31.07.2019
4433 Clouds 17 1000 67 10000 4 210 15:44 31.07.2019
4434 Clouds 17 1000 67 10000 4 210 15:24 31.07.2019
4435 Rain 16 1000 77 10000 2 220 14:43 31.07.2019
4436 Rain 16 1000 77 10000 2 220 14:22 31.07.2019
4437 Clouds 16 1000 67 10000 4 250 13:57 31.07.2019
4438 Clouds 16 1000 72 10000 3 270 13:38 31.07.2019
4439 Clouds 16 1000 72 10000 3 270 13:20 31.07.2019
4440 Rain 18 1000 52 10000 4 190 12:45 31.07.2019
4441 Rain 18 1000 52 10000 4 190 12:45 31.07.2019
4442 Rain 18 1000 52 10000 4 190 12:26 31.07.2019
4443 Clear 18 1000 52 10000 4 200 11:55 31.07.2019
4444 Clear 18 1000 48 10000 5 220 11:36 31.07.2019
4445 Clear 18 1000 48 10000 5 220 11:18 31.07.2019
4446 Clouds 18 1000 48 10000 5 220 10:41 31.07.2019
4447 Clouds 18 1000 48 10000 5 220 10:20 31.07.2019
4448 Clouds 17 1000 51 10000 6 230 09:43 31.07.2019
4449 Clouds 17 1000 51 10000 6 230 09:24 31.07.2019
4450 Clouds 17 1000 55 10000 6 210 08:45 31.07.2019
4451 Clouds 17 1000 55 10000 6 210 08:26 31.07.2019
4452 Clouds 16 1000 59 10000 5 240 07:57 31.07.2019
4453 Clouds 16 1000 59 10000 6 230 07:34 31.07.2019
4454 Clear 16 1000 59 10000 5 230 06:31 31.07.2019
4455 Clear 15 1000 72 10000 4 250 04:49 31.07.2019
4456 Clouds 13 999 100 10000 3 230 01:21 31.07.2019
4457 Clear 14 999 100 10000 4 250 23:57 30.07.2019
4458 Clear 15 999 100 10000 3 230 23:39 30.07.2019
4459 Clear 15 999 100 10000 3 230 23:18 30.07.2019
4460 Clear 15 998 100 10000 3 210 22:42 30.07.2019
4461 Clear 15 998 100 10000 3 210 22:23 30.07.2019
4462 Clear 15 998 100 10000 3 250 21:38 30.07.2019
4463 Clear 15 998 100 10000 3 250 21:20 30.07.2019
4464 Clear 15 998 100 10000 3 250 21:20 30.07.2019
4465 Clear 16 998 100 10000 2 210 20:58 30.07.2019
4466 Clear 16 998 100 10000 3 270 20:39 30.07.2019
4467 Clear 16 998 100 10000 3 270 20:20 30.07.2019
4468 Clear 16 998 100 10000 2 200 19:49 30.07.2019
4469 Clear 16 998 100 10000 3 220 19:30 30.07.2019
4470 Clear 17 998 100 10000 3 220 18:48 30.07.2019
4471 Clear 17 997 100 10000 3 230 18:27 30.07.2019
4472 Clear 17 997 100 10000 2 240 17:59 30.07.2019
4473 Clear 17 997 100 10000 3 260 17:41 30.07.2019
4474 Clear 17 997 100 10000 3 260 17:19 30.07.2019
4475 Clouds 17 996 100 10000 5 270 16:46 30.07.2019
4476 Clouds 17 996 100 10000 5 270 16:20 30.07.2019
4477 Clouds 17 996 100 10000 6 260 15:44 30.07.2019
4478 Clouds 17 996 100 10000 6 260 15:23 30.07.2019
4479 Rain 19 996 100 7000 3 180 14:46 30.07.2019
4480 Rain 19 996 100 7000 3 180 14:27 30.07.2019
4481 Rain 18 995 100 6000 3 180 14:00 30.07.2019
4482 Thunderstorm 19 995 100 7000 3 180 13:40 30.07.2019
4483 Thunderstorm 19 995 100 7000 3 180 13:22 30.07.2019
4484 Thunderstorm 19 996 100 8000 5 160 12:49 30.07.2019
4485 Rain 19 995 100 8000 4 140 12:29 30.07.2019
4486 Rain 19 995 100 10000 3 160 11:58 30.07.2019
4487 Rain 20 995 88 10000 3 150 11:38 30.07.2019
4488 Rain 20 995 88 10000 3 150 11:18 30.07.2019
4489 Clouds 20 995 88 10000 5 140 10:42 30.07.2019
4490 Clouds 20 995 88 10000 5 140 10:21 30.07.2019
4491 Rain 20 995 82 10000 5 150 09:48 30.07.2019
4492 Clouds 20 995 88 10000 4 140 09:29 30.07.2019
4493 Clouds 22 995 73 10000 5 140 08:44 30.07.2019
4494 Clouds 22 995 73 10000 5 140 08:22 30.07.2019
4495 Rain 21 995 83 10000 4 130 07:46 30.07.2019
4496 Rain 21 995 83 10000 4 130 07:23 30.07.2019
4497 Rain 21 995 77 10000 6 140 06:46 30.07.2019
4498 Rain 21 995 77 10000 6 140 06:46 30.07.2019
4499 Clear 21 995 73 10000 6 130 05:47 30.07.2019
4500 Clear 22 995 68 10000 7 130 05:25 30.07.2019
4501 Clear 19 997 77 10000 5 130 01:38 30.07.2019
4502 Clear 19 997 77 10000 5 130 00:36 30.07.2019
4503 Clear 19 997 77 10000 5 130 00:18 30.07.2019
4504 Clear 19 997 77 10000 5 120 23:43 29.07.2019
4505 Clear 19 997 77 10000 5 120 23:24 29.07.2019
4506 Clear 19 997 77 10000 5 120 22:57 29.07.2019
4507 Clouds 20 997 72 10000 5 120 22:38 29.07.2019
4508 Clouds 20 997 72 10000 5 120 22:18 29.07.2019
4509 Clouds 20 998 77 10000 5 130 21:43 29.07.2019
4510 Clouds 20 998 77 10000 5 130 21:24 29.07.2019
4511 Clouds 20 998 77 10000 5 130 20:58 29.07.2019
4512 Clouds 21 998 73 10000 5 130 20:39 29.07.2019
4513 Clouds 21 998 73 10000 5 130 20:20 29.07.2019
4514 Clouds 21 999 73 10000 6 130 19:50 29.07.2019
4515 Clouds 21 999 77 10000 6 130 19:24 29.07.2019
4516 Clouds 22 999 73 10000 6 130 18:58 29.07.2019
4517 Clouds 21 999 77 10000 5 120 18:40 29.07.2019
4518 Clouds 21 999 77 10000 5 120 18:20 29.07.2019
4519 Rain 21 999 77 10000 5 130 17:48 29.07.2019
4520 Clouds 22 999 73 10000 5 140 17:29 29.07.2019
4521 Clouds 22 999 73 10000 6 150 16:57 29.07.2019
4522 Clouds 22 999 73 10000 5 150 16:37 29.07.2019
4523 Clouds 22 999 73 10000 5 150 16:18 29.07.2019
4524 Clouds 22 998 73 10000 6 130 15:45 29.07.2019
4525 Clouds 22 998 73 10000 6 130 15:27 29.07.2019
4526 Clouds 23 999 69 10000 6 140 14:43 29.07.2019
4527 Clouds 23 999 69 10000 6 140 14:21 29.07.2019
4528 Clouds 23 998 69 10000 6 140 13:48 29.07.2019
4529 Clouds 22 999 78 10000 6 130 13:24 29.07.2019
4530 Clouds 23 999 69 10000 7 130 12:57 29.07.2019
4531 Clouds 23 999 69 10000 8 130 12:38 29.07.2019
4532 Clouds 23 999 69 10000 8 130 12:20 29.07.2019
4533 Clouds 23 998 60 10000 8 130 11:41 29.07.2019
4534 Clouds 23 998 60 10000 8 130 11:19 29.07.2019
4535 Clouds 21 999 68 10000 9 120 10:44 29.07.2019
4536 Clouds 21 999 68 10000 9 120 10:22 29.07.2019
4537 Clouds 21 1000 68 10000 7 130 09:44 29.07.2019
4538 Clouds 21 1000 68 10000 7 130 09:21 29.07.2019
4539 Clouds 22 1000 73 10000 6 130 08:49 29.07.2019
4540 Clouds 22 1000 73 10000 6 130 08:27 29.07.2019
4541 Clouds 22 1000 73 10000 5 130 07:50 29.07.2019
4542 Clouds 22 1000 73 10000 6 120 07:30 29.07.2019
4543 Clouds 21 1000 73 10000 6 130 06:40 29.07.2019
4544 Clouds 19 1001 88 10000 6 130 05:37 29.07.2019
4545 Clouds 17 1001 100 10000 5 120 03:57 29.07.2019
4546 Clear 15 1002 100 10000 5 130 01:52 29.07.2019
4547 Clear 14 1002 100 10000 4 120 01:33 29.07.2019
4548 Clear 14 1002 100 10000 5 120 00:58 29.07.2019
4549 Clouds 14 1002 100 10000 5 120 00:29 29.07.2019
4550 Rain 15 1002 100 10000 4 120 23:43 28.07.2019
4551 Rain 15 1002 100 10000 4 120 23:24 28.07.2019
4552 Clouds 16 1002 77 10000 5 100 22:44 28.07.2019
4553 Clouds 16 1002 77 10000 5 100 22:44 28.07.2019
4554 Clouds 16 1002 77 10000 5 100 22:26 28.07.2019
4555 Clear 16 1002 77 10000 4 120 21:54 28.07.2019
4556 Clear 16 1003 77 10000 4 130 21:36 28.07.2019
4557 Clear 16 1003 77 10000 4 130 21:18 28.07.2019
4558 Clouds 16 1003 72 10000 4 110 20:42 28.07.2019
4559 Clouds 16 1003 72 10000 4 110 20:23 28.07.2019
4560 Clouds 17 1003 67 10000 5 120 19:40 28.07.2019
4561 Clouds 17 1003 67 10000 5 120 19:21 28.07.2019
4562 Clouds 17 1003 67 10000 4 100 18:46 28.07.2019
4563 Clouds 17 1003 67 10000 4 100 18:27 28.07.2019
4564 Clouds 18 1003 63 10000 4 100 17:56 28.07.2019
4565 Clouds 18 1003 63 10000 4 100 17:38 28.07.2019
4566 Clouds 18 1003 63 10000 3 120 17:19 28.07.2019
4567 Clouds 19 1003 59 10000 3 130 16:42 28.07.2019
4568 Clouds 19 1003 59 10000 3 130 16:23 28.07.2019
4569 Clear 20 1003 49 10000 1 0 15:46 28.07.2019
4570 Clear 20 1003 49 10000 1 0 15:26 28.07.2019
4571 Clear 19 1003 52 10000 2 230 14:40 28.07.2019
4572 Clear 19 1003 52 10000 2 230 14:20 28.07.2019
4573 Clear 20 1003 49 10000 2 230 13:56 28.07.2019
4574 Clear 20 1003 45 10000 3 190 13:38 28.07.2019
4575 Clear 20 1003 45 10000 3 190 13:19 28.07.2019
4576 Clear 20 1003 42 10000 5 210 12:42 28.07.2019
4577 Clear 20 1003 42 10000 5 210 12:24 28.07.2019
4578 Clear 19 1003 48 10000 2 270 11:50 28.07.2019
4579 Clouds 18 1003 52 10000 3 290 11:29 28.07.2019
4580 Clouds 18 1002 52 10000 2 330 10:56 28.07.2019
4581 Clouds 18 1002 48 10000 4 270 10:37 28.07.2019
4582 Clouds 18 1002 48 10000 4 270 10:18 28.07.2019
4583 Clouds 18 1002 52 10000 5 260 09:40 28.07.2019
4584 Clouds 18 1002 52 10000 5 260 09:20 28.07.2019
4585 Clouds 17 1002 51 10000 5 260 08:41 28.07.2019
4586 Clouds 17 1002 51 10000 5 260 08:21 28.07.2019
4587 Clouds 16 1002 59 10000 6 230 07:40 28.07.2019
4588 Clouds 16 1002 59 10000 6 230 07:21 28.07.2019
4589 Clouds 16 1001 63 10000 5 260 06:33 28.07.2019
4590 Clouds 15 1001 62 10000 6 260 05:19 28.07.2019
4591 Clear 11 1001 87 10000 3 250 02:37 28.07.2019
4592 Clear 9 1001 100 10000 3 270 01:40 28.07.2019
4593 Clear 9 1001 93 10000 3 260 00:54 28.07.2019
4594 Clear 9 1001 93 10000 3 270 00:30 28.07.2019
4595 Clear 9 1001 100 10000 3 270 23:53 27.07.2019
4596 Clear 9 1000 100 10000 3 280 23:28 27.07.2019
4597 Clear 9 1000 93 10000 2 290 22:46 27.07.2019
4598 Clear 9 1000 93 10000 2 290 22:28 27.07.2019
4599 Clear 10 1000 87 10000 3 280 21:47 27.07.2019
4600 Clear 10 1000 87 10000 3 280 21:24 27.07.2019
4601 Clear 10 1000 81 10000 3 280 20:57 27.07.2019
4602 Clear 10 1000 87 10000 3 270 20:39 27.07.2019
4603 Clear 10 1000 87 10000 3 270 20:19 27.07.2019
4604 Clear 11 1000 81 10000 3 280 19:40 27.07.2019
4605 Clear 11 1000 81 10000 3 280 19:22 27.07.2019
4606 Clouds 13 1001 71 10000 3 290 18:47 27.07.2019
4607 Clouds 13 1001 71 10000 3 290 18:29 27.07.2019
4608 Clear 13 1001 71 10000 3 290 17:51 27.07.2019
4609 Clear 14 1001 67 10000 4 300 17:32 27.07.2019
4610 Clear 15 1001 54 10000 5 310 16:56 27.07.2019
4611 Clear 16 1001 59 10000 5 300 16:37 27.07.2019
4612 Clear 16 1001 59 10000 6 310 15:56 27.07.2019
4613 Clear 17 1000 55 10000 5 340 15:38 27.07.2019
4614 Clear 17 1000 55 10000 5 340 15:18 27.07.2019
4615 Clouds 18 1000 55 10000 5 320 14:45 27.07.2019
4616 Clouds 18 1000 55 10000 5 320 14:25 27.07.2019
4617 Clear 18 1000 52 10000 6 320 13:48 27.07.2019
4618 Clouds 18 1000 52 10000 6 340 13:23 27.07.2019
4619 Clouds 20 1000 45 10000 6 290 12:50 27.07.2019
4620 Clouds 19 1000 52 10000 5 340 12:27 27.07.2019
4621 Clouds 19 1000 55 10000 6 310 11:56 27.07.2019
4622 Clouds 19 1000 55 10000 6 300 11:38 27.07.2019
4623 Clouds 19 1000 55 10000 6 300 11:19 27.07.2019
4624 Clouds 19 1000 63 10000 6 330 10:40 27.07.2019
4625 Clouds 19 1000 63 10000 6 330 10:21 27.07.2019
4626 Clouds 18 1000 72 10000 7 310 09:41 27.07.2019
4627 Clouds 18 1000 72 10000 7 310 09:22 27.07.2019
4628 Clouds 17 1000 82 10000 7 310 08:48 27.07.2019
4629 Clouds 17 1000 82 10000 7 310 08:29 27.07.2019
4630 Clouds 18 999 82 10000 6 300 07:54 27.07.2019
4631 Clouds 18 999 82 10000 8 290 07:27 27.07.2019
4632 Clouds 19 999 77 10000 7 250 06:56 27.07.2019
4633 Clouds 19 999 82 10000 5 230 06:31 27.07.2019
4634 Clouds 19 999 88 10000 4 260 05:51 27.07.2019
4635 Clouds 18 1000 93 10000 5 250 05:18 27.07.2019
4636 Clouds 17 1000 100 10000 3 240 04:30 27.07.2019
4637 Rain 16 1000 100 10000 2 190 02:58 27.07.2019
4638 Rain 16 1000 100 10000 2 190 02:58 27.07.2019
4639 Rain 16 1001 100 10000 1 0 02:31 27.07.2019
4640 Rain 16 1001 100 10000 3 340 01:47 27.07.2019
4641 Clouds 17 1001 77 10000 4 280 00:59 27.07.2019
4642 Clouds 18 1001 72 10000 2 230 00:32 27.07.2019
4643 Clouds 18 1001 77 10000 2 250 23:53 26.07.2019
4644 Rain 19 1002 72 10000 3 240 23:33 26.07.2019
4645 Clear 19 1002 72 10000 2 240 22:56 26.07.2019
4646 Clear 19 1003 72 10000 2 230 22:38 26.07.2019
4647 Clear 19 1003 72 10000 2 230 22:20 26.07.2019
4648 Clear 17 1003 82 10000 2 220 21:48 26.07.2019
4649 Clear 18 1003 77 10000 3.95 243.759 21:19 26.07.2019
4650 Clear 19 1004 72 10000 5.01 213.865 20:42 26.07.2019
4651 Clear 19 1004 72 10000 5.01 213.865 20:22 26.07.2019
4652 Clear 19 1005 68 10000 2 270 19:43 26.07.2019
4653 Clear 19 1005 68 10000 2 270 19:24 26.07.2019
4654 Clear 20 1005 60 10000 2 270 18:56 26.07.2019
4655 Clear 21 1005 56 10000 2 250 18:36 26.07.2019
4656 Clear 21 1006 52 10000 2 270 18:18 26.07.2019
4657 Clear 22 1006 49 10000 2 280 17:42 26.07.2019
4658 Clear 22 1006 49 10000 2 280 17:19 26.07.2019
4659 Clear 23 1006 43 10000 2 270 16:56 26.07.2019
4660 Clear 23 1006 43 10000 2 270 16:56 26.07.2019
4661 Clear 23 1006 43 10000 2 330 16:37 26.07.2019
4662 Clear 23 1006 43 10000 2 330 16:19 26.07.2019
4663 Clear 24 1007 41 10000 3 350 15:45 26.07.2019
4664 Clear 24 1007 41 10000 3 350 15:26 26.07.2019
4665 Clear 24 1007 41 10000 5 330 14:59 26.07.2019
4666 Clear 25 1008 36 10000 4 320 14:40 26.07.2019
4667 Clear 25 1008 36 10000 4 320 14:21 26.07.2019
4668 Clear 25 1008 31 10000 3 360 13:40 26.07.2019
4669 Clear 25 1008 31 10000 3 360 13:22 26.07.2019
4670 Clear 25 1009 31 10000 5 340 12:47 26.07.2019
4671 Clear 25 1009 31 10000 5 340 12:20 26.07.2019
4672 Clear 23 1009 38 10000 6 330 11:40 26.07.2019
4673 Clear 23 1009 38 10000 6 330 11:20 26.07.2019
4674 Clear 24 1009 36 10000 6 310 10:55 26.07.2019
4675 Clear 23 1010 38 10000 5 350 10:37 26.07.2019
4676 Clear 24 1010 33 10000 6 330 09:55 26.07.2019
4677 Clear 24 1010 36 10000 6 330 09:37 26.07.2019
4678 Clear 22 1010 49 10000 6 330 08:44 26.07.2019
4679 Clear 22 1010 49 10000 6 330 08:23 26.07.2019
4680 Clear 22 1010 49 10000 5 330 07:59 26.07.2019
4681 Clear 21 1010 56 10000 6 310 07:29 26.07.2019
4682 -273 0 0 0 0 0 06:56 26.07.2019
4683 Clear 20 1011 64 10000 5 330 05:23 26.07.2019
4684 Clear 18 1011 72 10000 4 340 04:29 26.07.2019
4685 Clear 17 1011 77 10000 3 330 03:43 26.07.2019
4686 Clear 15 1011 87 10000 3 320 01:44 26.07.2019
4687 Clear 16 1011 82 10000 3 330 00:49 26.07.2019
4688 Clear 16 1011 82 10000 4 340 00:23 26.07.2019
4689 Clear 17 1011 77 10000 3 330 23:25 25.07.2019
4690 Clear 18 1011 72 10000 3 340 22:59 25.07.2019
4691 Clear 18 1011 77 10000 3 340 22:40 25.07.2019
4692 Clear 18 1011 77 10000 3 340 22:21 25.07.2019
4693 Clear 18 1011 77 10000 4 330 21:46 25.07.2019
4694 Clear 18 1011 77 10000 4 330 21:22 25.07.2019
4695 Clear 18 1011 77 10000 4 330 20:49 25.07.2019
4696 Clear 18 1011 72 10000 4 320 20:30 25.07.2019
4697 Clear 19 1011 68 10000 4 330 19:54 25.07.2019
4698 Clear 19 1011 68 10000 3 330 19:36 25.07.2019
4699 Clear 19 1011 68 10000 3 330 19:18 25.07.2019
4700 Clear 20 1011 60 10000 4 330 18:39 25.07.2019
4701 Clear 20 1011 60 10000 4 330 18:21 25.07.2019
4702 Clear 22 1010 53 10000 4 340 17:45 25.07.2019
4703 Clear 22 1010 53 10000 4 340 17:25 25.07.2019
4704 Clear 23 1010 49 10000 6 340 16:47 25.07.2019
4705 Clear 23 1010 49 10000 6 340 16:29 25.07.2019
4706 Clear 23 1010 49 10000 5 350 15:58 25.07.2019
4707 Clear 23 1010 49 10000 5 350 15:38 25.07.2019
4708 Clear 23 1010 49 10000 5 350 15:18 25.07.2019
4709 Clear 23 1010 49 10000 5 360 14:41 25.07.2019
4710 Clear 23 1010 49 10000 5 360 14:22 25.07.2019
4711 Clear 21 1011 56 10000 6 350 13:44 25.07.2019
4712 Clear 21 1011 56 10000 6 350 13:25 25.07.2019
4713 Clear 21 1011 49 10000 6 350 12:55 25.07.2019
4714 Clear 20 1011 49 10000 7 350 12:28 25.07.2019
4715 Clear 19 1010 55 10000 7 360 11:43 25.07.2019
4716 Clear 19 1010 55 10000 7 360 11:23 25.07.2019
4717 Clouds 18 1010 63 10000 7 340 10:46 25.07.2019
4718 Clouds 18 1010 63 10000 7 340 10:46 25.07.2019
4719 Clouds 18 1010 63 10000 7 340 10:26 25.07.2019
4720 Clouds 18 1010 63 10000 8 330 09:59 25.07.2019
4721 Clouds 18 1010 63 10000 6 340 09:40 25.07.2019
4722 Clouds 18 1010 63 10000 6 350 08:55 25.07.2019
4723 Clouds 18 1010 63 10000 6 350 08:55 25.07.2019
4724 Clouds 17 1010 67 10000 7 340 08:37 25.07.2019
4725 Clouds 17 1010 67 10000 7 340 07:51 25.07.2019
4726 Clouds 17 1009 67 10000 7 340 07:27 25.07.2019
4727 Clouds 16 1009 77 10000 7 310 06:41 25.07.2019
4728 Clouds 16 1009 77 10000 6 310 05:37 25.07.2019
4729 Clouds 16 1009 77 10000 6 330 04:57 25.07.2019
4730 Clouds 15 1009 82 10000 4 330 04:19 25.07.2019
4731 Clouds 16 1009 82 10000 4 330 01:31 25.07.2019
4732 Clouds 17 1009 77 10000 4 330 00:45 25.07.2019
4733 Clouds 17 1009 77 10000 4 330 00:19 25.07.2019
4734 Clouds 16 1009 87 10000 4 320 23:44 24.07.2019
4735 Clouds 16 1009 87 10000 4 320 23:25 24.07.2019
4736 Clouds 16 1009 87 10000 4 320 22:47 24.07.2019
4737 Clouds 16 1009 82 10000 4 310 22:25 24.07.2019
4738 Clouds 16 1009 82 10000 4 330 21:59 24.07.2019
4739 Clouds 17 1009 72 10000 4 340 21:41 24.07.2019
4740 Clouds 17 1009 72 10000 4 340 21:20 24.07.2019
4741 Clouds 17 1009 72 10000 4 340 20:48 24.07.2019
4742 Clouds 17 1009 72 10000 3 360 20:29 24.07.2019
4743 Clouds 17 1009 72 10000 4 360 19:59 24.07.2019
4744 Clouds 17 1009 72 10000 4 10 19:41 24.07.2019
4745 Clouds 17 1009 72 10000 4 10 19:21 24.07.2019
4746 Clouds 18 1008 68 10000 5 360 18:45 24.07.2019
4747 Clouds 18 1008 68 10000 5 360 18:24 24.07.2019
4748 Clouds 18 1008 68 10000 3 360 17:48 24.07.2019
4749 Clouds 18 1008 72 10000 4 340 17:24 24.07.2019
4750 Clouds 19 1008 68 10000 4 330 16:59 24.07.2019
4751 Clouds 19 1008 68 10000 4 330 16:59 24.07.2019
4752 Clouds 18 1008 72 10000 5 330 16:39 24.07.2019
4753 Clouds 18 1008 72 10000 5 330 16:21 24.07.2019
4754 Clouds 18 1008 72 10000 5 330 15:38 24.07.2019
4755 Clouds 18 1008 72 10000 5 330 15:20 24.07.2019
4756 Clouds 19 1008 68 10000 4 320 14:46 24.07.2019
4757 Clouds 19 1008 68 10000 4 320 14:22 24.07.2019
4758 Clouds 18 1007 72 10000 4 330 13:41 24.07.2019
4759 Clouds 18 1007 72 10000 4 330 13:23 24.07.2019
4760 Clouds 18 1007 72 10000 4 340 12:54 24.07.2019
4761 Clouds 18 1007 72 10000 4 340 12:35 24.07.2019
4762 Clouds 18 1007 72 10000 4 340 11:57 24.07.2019
4763 Clouds 17 1007 77 10000 5 350 11:37 24.07.2019
4764 Clouds 17 1007 77 10000 5 350 11:18 24.07.2019
4765 Clouds 17 1007 77 10000 5 350 11:18 24.07.2019
4766 Clouds 17 1007 77 10000 5 340 10:41 24.07.2019
4767 Clouds 17 1007 77 10000 5 340 10:23 24.07.2019
4768 Clouds 17 1007 77 10000 5 350 09:44 24.07.2019
4769 Clouds 17 1007 77 10000 5 350 09:22 24.07.2019
4770 Clouds 17 1007 77 10000 6 330 08:52 24.07.2019
4771 Clouds 17 1006 77 10000 5 340 08:26 24.07.2019
4772 Clouds 17 1006 77 10000 5 360 07:46 24.07.2019
4773 Clouds 17 1006 77 10000 5 360 07:20 24.07.2019
4774 Clouds 17 1006 82 10000 6 350 06:28 24.07.2019
4775 Clouds 17 1006 82 10000 4 360 05:24 24.07.2019
4776 Clear 17 1005 82 10000 5 20 01:55 24.07.2019
4777 Clear 17 1005 82 10000 5 20 00:58 24.07.2019
4778 Clear 17 1005 82 10000 5 20 00:39 24.07.2019
4779 Clear 17 1005 82 10000 5 20 23:57 23.07.2019
4780 Clear 18 1006 77 10000 4 20 23:37 23.07.2019
4781 Clear 18 1006 77 10000 4 20 23:18 23.07.2019
4782 Clear 19 1005 77 10000 4 20 22:38 23.07.2019
4783 Clear 19 1005 77 10000 4 20 22:19 23.07.2019
4784 Clear 20 1005 68 10000 5 20 21:45 23.07.2019
4785 Clear 20 1005 68 10000 5 20 21:27 23.07.2019
4786 Clear 20 1005 72 10000 4 20 20:49 23.07.2019
4787 Clear 21 1005 68 10000 5 20 20:30 23.07.2019
4788 Clear 21 1005 68 10000 4 20 19:44 23.07.2019
4789 Clear 21 1005 68 10000 4 20 19:24 23.07.2019
4790 Clear 22 1005 64 10000 3 10 18:59 23.07.2019
4791 Clear 22 1005 60 10000 2 350 18:40 23.07.2019
4792 Clear 22 1005 60 10000 2 350 18:40 23.07.2019
4793 Clear 22 1005 60 10000 2 350 18:20 23.07.2019
4794 Clear 23 1005 46 10000 3 340 17:43 23.07.2019
4795 Clear 23 1005 46 10000 3 340 17:22 23.07.2019
4796 Clear 24 1005 44 10000 3 330 16:48 23.07.2019
4797 Clear 25 1005 41 10000 3 360 16:27 23.07.2019
4798 Clear 25 1005 38 10000 3 360 15:52 23.07.2019
4799 Clear 26 1005 34 10000 3 20 15:34 23.07.2019
4800 Clear 26 1005 31 10000 4 20 14:59 23.07.2019
4801 Clear 26 1005 34 10000 3 360 14:37 23.07.2019
4802 Clear 26 1005 31 10000 3 10 14:18 23.07.2019
4803 -273 0 0 0 0 0 13:56 23.07.2019
4804 Clear 25 1005 33 10000 3 30 13:37 23.07.2019
4805 Clear 25 1005 33 10000 3 30 13:19 23.07.2019
4806 Clear 25 1005 36 10000 5 30 12:42 23.07.2019
4807 Clear 26 1005 34 10000 6 50 12:22 23.07.2019
4808 Clear 25 1006 33 10000 5 60 11:41 23.07.2019
4809 Clear 25 1006 33 10000 5 60 11:21 23.07.2019
4810 Clear 26 1005 31 10000 5 60 10:49 23.07.2019
4811 Clear 26 1005 31 10000 6 80 10:23 23.07.2019
4812 Clouds 25 1005 33 10000 4 60 09:43 23.07.2019
4813 Clouds 25 1005 33 10000 4 60 09:43 23.07.2019
4814 Clouds 25 1005 33 10000 4 60 09:22 23.07.2019
4815 Clouds 25 1005 38 10000 5 60 08:54 23.07.2019
4816 Clouds 26 1005 34 10000 5 60 08:36 23.07.2019
4817 Clouds 26 1005 34 10000 5 60 08:36 23.07.2019
4818 Clouds 26 1005 34 10000 5 60 08:18 23.07.2019
4819 Clear 25 1005 36 10000 5 60 07:39 23.07.2019
4820 Clear 26 1005 34 10000 4 50 06:57 23.07.2019
4821 Clear 25 1006 38 10000 3 50 06:36 23.07.2019
4822 Clear 22 1006 56 10000 2 30 04:28 23.07.2019
4823 Clear 17 1006 77 10000 4 40 01:46 23.07.2019
4824 Clear 17 1006 77 10000 4 30 00:46 23.07.2019
4825 Clear 18 1006 77 10000 3 20 00:20 23.07.2019
4826 Clear 17 1006 88 10000 1 0 23:39 22.07.2019
4827 Clear 17 1006 88 10000 1 0 23:20 22.07.2019
4828 Clear 16 1006 82 10000 2 330 22:45 22.07.2019
4829 Clear 16 1006 82 10000 2 330 22:24 22.07.2019
4830 Clear 17 1006 72 10000 2 340 21:56 22.07.2019
4831 Clear 17 1006 67 10000 2 340 21:36 22.07.2019
4832 Clear 17 1006 67 10000 2 340 21:18 22.07.2019
4833 Clear 17 1006 67 10000 2 340 21:18 22.07.2019
4834 Clear 16 1007 77 10000 1 310 20:41 22.07.2019
4835 Clear 16 1007 77 10000 1 310 20:22 22.07.2019
4836 Clear 17 1007 72 10000 1 340 19:42 22.07.2019
4837 Clear 17 1007 72 10000 1 340 19:23 22.07.2019
4838 Clear 20 1007 64 10000 2.79 20.686 18:48 22.07.2019
4839 Clear 20 1007 64 10000 2.79 20.686 18:28 22.07.2019
4840 Clear 21 1008 56 10000 1 70 17:59 22.07.2019
4841 Clear 22 1007 53 10000 1 80 17:38 22.07.2019
4842 Clear 22 1007 53 10000 1 80 17:20 22.07.2019
4843 Clear 24 1007 44 10000 3 90 16:41 22.07.2019
4844 Clear 24 1007 44 10000 3 90 16:21 22.07.2019
4845 Clear 25 1007 38 10000 4 80 15:46 22.07.2019
4846 Clear 25 1007 38 10000 4 80 15:22 22.07.2019
4847 Clear 25 1007 38 10000 5 70 14:59 22.07.2019
4848 Clear 25 1007 38 10000 5 70 14:41 22.07.2019
4849 Clear 25 1007 38 10000 5 70 14:19 22.07.2019
4850 Clear 26 1007 39 10000 2 130 13:44 22.07.2019
4851 Clear 26 1007 39 10000 2 130 13:22 22.07.2019
4852 Clear 25 1007 41 10000 3 120 12:43 22.07.2019
4853 Clear 25 1007 41 10000 3 120 12:23 22.07.2019
4854 Clear 26 1007 34 10000 3 70 11:44 22.07.2019
4855 Clear 26 1007 34 10000 3 70 11:20 22.07.2019
4856 Clear 25 1007 38 10000 4 140 10:43 22.07.2019
4857 Clear 25 1007 38 10000 4 140 10:24 22.07.2019
4858 Clear 25 1008 38 10000 3 140 09:42 22.07.2019
4859 Clear 25 1008 38 10000 3 140 09:23 22.07.2019
4860 Clear 24 1008 41 10000 4 140 08:44 22.07.2019
4861 Clear 24 1008 41 10000 4 140 08:44 22.07.2019
4862 Clear 24 1008 41 10000 4 140 08:24 22.07.2019
4863 Clear 23 1008 40 10000 4 130 07:54 22.07.2019
4864 Clear 23 1008 46 10000 4 110 07:32 22.07.2019
4865 Clear 22 1009 53 10000 3 120 06:42 22.07.2019
4866 Clear 16 1009 93 10000 3 100 03:55 22.07.2019
4867 Clear 12 1009 100 10000 3 100 01:53 22.07.2019
4868 Clouds 12 1009 100 10000 3 90 00:54 22.07.2019
4869 Clouds 12 1009 100 10000 3 90 00:24 22.07.2019
4870 Clouds 13 1009 93 10000 3 100 23:54 21.07.2019
4871 Clouds 13 1009 93 10000 3 90 23:27 21.07.2019
4872 Clouds 14 1009 82 10000 3 100 22:42 21.07.2019
4873 Clouds 14 1009 82 10000 3 100 22:22 21.07.2019
4874 Clouds 14 1009 82 10000 3 100 21:57 21.07.2019
4875 Clouds 15 1010 77 10000 3 100 21:37 21.07.2019
4876 Clouds 15 1010 77 10000 3 100 21:18 21.07.2019
4877 Clouds 16 1010 72 10000 3 110 20:44 21.07.2019
4878 Clouds 16 1010 72 10000 3 110 20:25 21.07.2019
4879 Clouds 16 1010 72 10000 3 110 20:25 21.07.2019
4880 Clouds 17 1010 72 8000 3 110 19:55 21.07.2019
4881 Clouds 18 1010 68 8000 3 120 19:36 21.07.2019
4882 Clouds 19 1010 63 8000 3 120 19:18 21.07.2019
4883 Clouds 20 1010 64 7000 3 120 18:44 21.07.2019
4884 Clouds 20 1010 64 7000 3 120 18:24 21.07.2019
4885 Haze 21 1010 64 5000 3 130 17:42 21.07.2019
4886 Haze 21 1010 64 5000 3 130 17:20 21.07.2019
4887 Haze 23 1010 56 4600 5 120 16:45 21.07.2019
4888 Haze 23 1010 56 4600 5 120 16:25 21.07.2019
4889 Haze 23 1010 60 4100 5 110 15:54 21.07.2019
4890 Haze 24 1010 53 3800 6 110 15:36 21.07.2019
4891 Haze 24 1010 53 3800 6 110 15:18 21.07.2019
4892 Haze 25 1010 53 3600 6 120 14:41 21.07.2019
4893 Haze 25 1010 53 3600 6 120 14:20 21.07.2019
4894 Haze 26 1010 50 3400 5 120 13:44 21.07.2019
4895 Haze 26 1010 50 3400 5 120 13:25 21.07.2019
4896 Haze 26 1010 47 3500 6 120 12:42 21.07.2019
4897 Haze 26 1010 47 3500 6 120 12:24 21.07.2019
4898 Haze 26 1010 50 3500 6 130 11:47 21.07.2019
4899 Haze 26 1010 54 4000 5 130 11:28 21.07.2019
4900 Haze 26 1010 57 4000 5 140 10:56 21.07.2019
4901 Haze 26 1010 61 5000 5 120 10:38 21.07.2019
4902 Haze 26 1010 61 5000 5 120 10:19 21.07.2019
4903 Clouds 26 1010 65 7000 5 130 09:37 21.07.2019
4904 Clouds 26 1010 65 7000 5 130 09:19 21.07.2019
4905 Clouds 24 1010 73 7000 5 120 08:40 21.07.2019
4906 Clouds 24 1010 73 7000 5 120 08:22 21.07.2019
4907 Clouds 24 1010 83 8000 4 130 07:32 21.07.2019
4908 Clouds 24 1010 83 8000 4 130 06:42 21.07.2019
4909 Clouds 21 1011 100 6000 3 100 04:23 21.07.2019
4910 Clouds 19 1011 100 8000 2 80 01:57 21.07.2019
4911 Fog 18 1011 100 10000 1 80 00:48 21.07.2019
4912 Fog 18 1011 100 10000 3.33 131.748 00:22 21.07.2019
4913 Fog 18 1011 100 10000 3.33 131.748 23:54 20.07.2019
4914 Clear 19 1011 100 10000 3.33 131.748 23:36 20.07.2019
4915 Clear 19 1011 100 10000 3.33 131.748 23:18 20.07.2019
4916 Clear 19 1011 100 10000 3.33 131.748 23:18 20.07.2019
4917 Clear 19 1011 100 10000 1 90 22:41 20.07.2019
4918 Clear 19 1011 100 10000 1 90 22:19 20.07.2019
4919 Clear 20 1011 100 10000 3.33 131.748 21:44 20.07.2019
4920 Clear 20 1011 100 10000 0.59 312.869 21:24 20.07.2019
4921 Clear 21 1011 100 10000 1.6 181.898 20:44 20.07.2019
4922 Clear 21 1011 100 10000 1.6 181.898 20:23 20.07.2019
4923 Clear 22 1011 94 10000 1.6 181.898 19:52 20.07.2019
4924 Clear 22 1012 94 10000 1.6 181.898 19:33 20.07.2019
4925 Clear 23 1011 83 10000 1.6 181.898 18:57 20.07.2019
4926 Clear 24 1011 78 10000 1.6 181.898 18:38 20.07.2019
4927 Clear 25 1011 73 10000 2 20 18:19 20.07.2019
4928 Clear 26 1011 65 10000 1.63 82.403 17:46 20.07.2019
4929 Clear 26 1011 65 10000 1.63 82.403 17:20 20.07.2019
4930 Clear 27 1011 61 10000 2 10 16:42 20.07.2019
4931 Clear 27 1011 61 10000 2 10 16:23 20.07.2019
4932 Clouds 28 1011 58 10000 2 10 15:43 20.07.2019
4933 Clouds 28 1011 58 10000 2 10 15:21 20.07.2019
4934 Clouds 28 1011 58 10000 3 340 14:54 20.07.2019
4935 Clouds 28 1012 58 10000 3 280 14:36 20.07.2019
4936 Clouds 28 1012 58 10000 3 280 14:18 20.07.2019
4937 Clouds 29 1012 54 10000 3 240 13:38 20.07.2019
4938 Clouds 29 1012 54 10000 3 240 13:19 20.07.2019
4939 Clouds 29 1012 51 10000 3 220 12:49 20.07.2019
4940 Clouds 29 1012 54 10000 3 240 12:20 20.07.2019
4941 Clouds 28 1012 58 10000 2 230 11:49 20.07.2019
4942 Clouds 27 1012 57 10000 3 230 11:22 20.07.2019
4943 Clouds 28 1012 58 10000 3 310 10:45 20.07.2019
4944 Clouds 28 1012 58 10000 3 310 10:25 20.07.2019
4945 Clouds 28 1012 54 10000 1 0 09:52 20.07.2019
4946 Clouds 27 1012 61 10000 2 290 09:27 20.07.2019
4947 Clouds 27 1012 65 10000 2 300 08:54 20.07.2019
4948 Clouds 26 1012 65 10000 1 0 08:24 20.07.2019
4949 Clouds 26 1012 65 10000 2 320 07:48 20.07.2019
4950 Clear 25 1013 69 10000 3 310 06:47 20.07.2019
4951 Clear 25 1013 69 10000 3 290 05:52 20.07.2019
4952 Clear 23 1012 78 10000 2 290 04:31 20.07.2019
4953 Clouds 20 1012 94 10000 1 0 02:33 20.07.2019
4954 Clouds 19 1012 100 10000 3 280 01:19 20.07.2019
4955 Clouds 18 1012 100 10000 3 280 00:39 20.07.2019
4956 Clouds 18 1012 100 10000 2 280 00:18 20.07.2019
4957 Clear 19 1012 100 10000 2.71 336.304 23:40 19.07.2019
4958 Clear 19 1012 100 10000 2.71 336.304 23:21 19.07.2019
4959 Clear 19 1011 100 10000 2 280 22:43 19.07.2019
4960 Clear 19 1011 100 10000 2 280 22:23 19.07.2019
4961 Clear 19 1011 100 10000 3 280 21:45 19.07.2019
4962 Clear 19 1011 100 10000 3 280 21:26 19.07.2019
4963 Clear 20 1011 94 10000 2 280 20:49 19.07.2019
4964 Clear 20 1011 94 10000 3 280 20:31 19.07.2019
4965 Clouds 22 1011 78 10000 1 270 19:48 19.07.2019
4966 Clouds 22 1011 78 10000 1 270 19:27 19.07.2019
4967 Clouds 22 1011 78 10000 2 280 18:42 19.07.2019
4968 Clouds 22 1011 78 10000 2 280 18:21 19.07.2019
4969 Clouds 23 1011 73 10000 1 280 17:54 19.07.2019
4970 Clouds 23 1010 73 10000 3 310 17:28 19.07.2019
4971 Clouds 24 1011 69 10000 3 290 16:49 19.07.2019
4972 Clouds 24 1010 69 10000 3 300 16:27 19.07.2019
4973 Clouds 24 1010 69 10000 4 300 15:53 19.07.2019
4974 Clouds 25 1010 65 10000 4 300 15:31 19.07.2019
4975 Clouds 25 1010 65 10000 5 300 14:58 19.07.2019
4976 Clear 25 1010 65 10000 5 300 14:39 19.07.2019
4977 Clear 25 1010 65 10000 5 300 14:21 19.07.2019
4978 Clear 26 1010 61 10000 4 310 13:44 19.07.2019
4979 Clear 26 1010 61 10000 4 310 13:44 19.07.2019
4980 Clear 26 1010 61 10000 4 310 13:44 19.07.2019
4981 Clear 26 1010 61 10000 4 310 13:44 19.07.2019
4982 Clear 26 1010 61 10000 4 310 13:25 19.07.2019
4983 Clear 26 1009 61 10000 5 340 12:55 19.07.2019
4984 Clear 25 1010 61 10000 5 340 12:31 19.07.2019
4985 Clear 25 1010 61 10000 5 350 11:59 19.07.2019
4986 Clear 25 1010 61 10000 5 350 11:41 19.07.2019
4987 Clear 24 1010 64 10000 4 350 11:18 19.07.2019
4988 Clouds 24 1010 64 10000 5 10 10:42 19.07.2019
4989 Clouds 24 1010 64 10000 5 10 10:22 19.07.2019
4990 Clouds 24 1010 64 10000 6 320 09:57 19.07.2019
4991 Clouds 23 1010 69 10000 6 320 09:39 19.07.2019
4992 Clouds 23 1010 69 10000 6 320 09:21 19.07.2019
4993 Clear 23 1010 69 10000 6 330 08:47 19.07.2019
4994 Clouds 21 1010 73 10000 6 320 07:53 19.07.2019
4995 Clouds 21 1010 73 10000 6 320 07:53 19.07.2019
4996 Clouds 21 1010 73 10000 7 320 07:29 19.07.2019
4997 -273 0 0 0 0 0 05:56 19.07.2019
4998 Clear 17 1010 88 10000 5 300 02:23 19.07.2019
4999 Clear 17 1010 88 10000 4 310 01:18 19.07.2019
5000 Clear 17 1009 88 10000 3 310 00:38 19.07.2019
5001 Clear 17 1009 88 10000 4 310 23:45 18.07.2019
5002 Clear 17 1009 88 10000 4 310 23:24 18.07.2019
5003 Clear 18 1009 77 10000 3 310 22:59 18.07.2019
5004 Clear 18 1009 77 10000 4 310 22:40 18.07.2019
5005 Clear 18 1009 77 10000 4 310 22:19 18.07.2019
5006 Clear 18 1009 77 10000 4 310 21:44 18.07.2019
5007 Clear 18 1009 77 10000 4 310 21:26 18.07.2019
5008 Clear 18 1009 77 10000 3 310 20:51 18.07.2019
5009 Clear 18 1009 77 10000 2 320 20:29 18.07.2019
5010 Clear 18 1009 77 10000 3 290 19:57 18.07.2019
5011 Clear 18 1010 77 10000 3 300 19:38 18.07.2019
5012 Clear 18 1010 77 10000 3 290 19:18 18.07.2019
5013 Clear 19 1010 72 10000 4 280 18:41 18.07.2019
5014 Clear 19 1010 72 10000 4 280 18:20 18.07.2019
5015 Clear 20 1010 68 10000 5 280 17:43 18.07.2019
5016 Clear 20 1010 68 10000 5 280 17:24 18.07.2019
5017 Clear 21 1010 64 10000 5 280 16:56 18.07.2019
5018 Clear 21 1009 64 10000 5 260 16:30 18.07.2019
5019 Clear 22 1009 60 10000 6 280 15:59 18.07.2019
5020 Clear 22 1009 64 10000 6 260 15:39 18.07.2019
5021 Clear 22 1009 64 10000 6 260 15:21 18.07.2019
5022 Clouds 24 1009 57 10000 5 270 14:43 18.07.2019
5023 Clouds 24 1009 57 10000 5 270 14:25 18.07.2019
5024 Clouds 24 1009 57 10000 4 260 13:48 18.07.2019
5025 Clouds 24 1009 53 10000 4 220 13:23 18.07.2019
5026 Clouds 24 1009 53 10000 4 240 12:50 18.07.2019
5027 Clouds 24 1009 53 10000 4 230 12:21 18.07.2019
5028 Clouds 24 1009 53 10000 4 230 11:57 18.07.2019
5029 Clouds 24 1009 53 10000 4 250 11:39 18.07.2019
5030 Clouds 24 1009 53 10000 4 250 11:20 18.07.2019
5031 Clouds 23 1009 60 10000 3 200 10:41 18.07.2019
5032 Clear 23 1008 56 10000 3 230 09:50 18.07.2019
5033 Clear 23 1008 56 10000 3 230 09:26 18.07.2019
5034 Clouds 21 1009 60 10000 3 250 08:51 18.07.2019
5035 Clouds 21 1008 64 10000 4 240 08:23 18.07.2019
5036 Clouds 20 1008 68 10000 3 250 07:55 18.07.2019
5037 Clouds 20 1008 68 10000 3 250 07:34 18.07.2019
5038 Clouds 20 1008 72 10000 4 230 06:46 18.07.2019
5039 Clouds 21 1008 68 10000 3 240 06:19 18.07.2019
5040 Clouds 20 1008 88 10000 3 270 03:29 18.07.2019
5041 Clouds 18 1007 100 10000 3 270 01:52 18.07.2019
5042 Clouds 18 1007 100 10000 3 270 01:33 18.07.2019
5043 Clouds 19 1007 100 10000 4 260 23:57 17.07.2019
5044 Clouds 19 1007 100 10000 3 280 23:21 17.07.2019
5045 Clouds 20 1007 100 9000 3 240 22:58 17.07.2019
5046 Clouds 20 1006 100 10000 3.83 260.707 22:40 17.07.2019
5047 Clouds 19 1006 100 10000 1 0 22:21 17.07.2019
5048 Clouds 19 1006 100 10000 1 0 21:56 17.07.2019
5049 Clouds 20 1006 100 10000 1 0 21:36 17.07.2019
5050 Rain 19 1006 100 10000 2 100 21:18 17.07.2019
5051 Clouds 22 1006 100 10000 2 160 20:41 17.07.2019
5052 Clouds 21 1006 100 10000 2 150 20:21 17.07.2019
5053 Clouds 21 1006 100 10000 2 150 19:59 17.07.2019
5054 Clouds 21 1006 100 10000 2 100 19:39 17.07.2019
5055 Clouds 22 1006 88 10000 2 120 19:18 17.07.2019
5056 Clouds 23 1006 83 10000 2 130 18:42 17.07.2019
5057 Clouds 24 1006 83 10000 2 130 18:21 17.07.2019
5058 Clouds 24 1006 83 10000 2 130 18:21 17.07.2019
5059 Clouds 24 1006 83 10000 2 130 17:55 17.07.2019
5060 Clouds 24 1006 83 10000 2 130 17:37 17.07.2019
5061 Clouds 24 1006 83 10000 2 110 17:18 17.07.2019
5062 Clouds 24 1006 83 10000 2 120 16:38 17.07.2019
5063 Clouds 25 1006 73 10000 2 110 16:19 17.07.2019
5064 Clouds 25 1006 73 10000 3 120 15:51 17.07.2019
5065 Clouds 25 1006 73 10000 3 120 15:29 17.07.2019
5066 Clouds 25 1006 73 10000 3 120 15:29 17.07.2019
5067 Clouds 25 1006 73 10000 3 130 14:55 17.07.2019
5068 Clouds 25 1006 73 10000 4 120 14:37 17.07.2019
5069 Clouds 25 1006 73 10000 4 130 14:18 17.07.2019
5070 Clouds 25 1006 73 10000 4 140 13:42 17.07.2019
5071 Clouds 24 1006 78 10000 4 130 13:24 17.07.2019
5072 Clouds 26 1005 57 0 3.93 110.13 12:41 17.07.2019
5073 Clouds 24 1006 78 10000 4 110 12:21 17.07.2019
5074 Clouds 24 1006 78 10000 4 110 11:46 17.07.2019
5075 Clouds 24 1006 78 10000 4 110 11:22 17.07.2019
5076 Clouds 24 1006 78 10000 5 100 10:56 17.07.2019
5077 Clouds 24 1006 78 10000 4 80 10:37 17.07.2019
5078 Clouds 23 1006 83 10000 2 70 10:18 17.07.2019
5079 Clouds 22 1006 94 10000 3 120 09:44 17.07.2019
5080 Clouds 22 1006 94 10000 3 120 09:24 17.07.2019
5081 Clouds 21 1006 100 10000 2 70 08:43 17.07.2019
5082 Rain 20 1006 100 7000 2 80 08:22 17.07.2019
5083 Rain 20 1006 100 6000 2 60 07:51 17.07.2019
5084 Rain 20 1006 100 6000 2 60 07:24 17.07.2019
5085 Rain 20 1007 100 10000 5 110 06:57 17.07.2019
5086 Rain 21 1007 100 9000 5 130 06:30 17.07.2019
5087 Rain 21 1007 100 9000 4 120 05:50 17.07.2019
5088 Rain 21 1007 100 9000 4 120 05:30 17.07.2019
5089 Rain 22 1006 88 10000 4 100 04:45 17.07.2019
5090 Clear 21 1006 94 10000 3 100 03:29 17.07.2019
5091 Clear 20 1006 100 10000 2 90 02:21 17.07.2019
5092 Clear 20 1006 100 10000 3 100 01:27 17.07.2019
5093 Clear 20 1006 100 10000 2 110 00:59 17.07.2019
5094 Clear 20 1006 100 10000 2 100 00:37 17.07.2019
5095 Clear 20 1007 100 10000 3 100 00:19 17.07.2019
5096 Clear 20 1007 100 10000 3 100 00:19 17.07.2019
5097 Clear 20 1007 100 10000 3 110 23:38 16.07.2019
5098 Clear 20 1007 100 10000 3 110 23:18 16.07.2019
5099 Clear 20 1007 94 10000 4 110 22:43 16.07.2019
5100 Clear 20 1007 94 10000 4 110 22:24 16.07.2019
5101 Clear 20 1007 88 10000 4 100 21:47 16.07.2019
5102 Clear 20 1007 88 10000 4 100 21:47 16.07.2019
5103 Clear 20 1007 88 10000 4 100 21:22 16.07.2019
5104 Clear 21 1007 83 10000 4 100 20:58 16.07.2019
5105 Clear 20 1007 88 10000 3 110 20:39 16.07.2019
5106 Clouds 21 1007 83 10000 3 100 20:21 16.07.2019
5107 Clouds 22 1008 78 10000 3 90 19:52 16.07.2019
5108 Clouds 22 1008 78 10000 3 90 19:29 16.07.2019
5109 Clouds 23 1008 73 10000 3 120 18:58 16.07.2019
5110 Clouds 24 1008 69 10000 3 130 18:39 16.07.2019
5111 Clear 25 1008 61 10000 3 130 18:20 16.07.2019
5112 Clear 26 1008 57 10000 4 130 17:44 16.07.2019
5113 Clear 26 1008 57 10000 4 130 17:23 16.07.2019
5114 Clear 27 1008 51 10000 4 130 16:48 16.07.2019
5115 Clear 27 1008 51 10000 4 130 16:25 16.07.2019
5116 Clear 27 1008 51 10000 4 130 15:56 16.07.2019
5117 Clear 28 1008 48 10000 5 130 15:38 16.07.2019
5118 Clear 28 1008 48 10000 5 120 15:18 16.07.2019
5119 Clear 29 1009 45 10000 6 120 14:45 16.07.2019
5120 Clear 29 1009 45 10000 6 120 14:27 16.07.2019
5121 Clear 29 1009 45 10000 5 130 13:57 16.07.2019
5122 Clear 29 1009 45 10000 5 130 13:57 16.07.2019
5123 Clear 29 1009 45 10000 6 120 13:37 16.07.2019
5124 Clouds 30 1009 42 10000 6 130 13:18 16.07.2019
5125 Clouds 30 1009 35 10000 6 140 12:42 16.07.2019
5126 Clouds 30 1009 40 10000 7 120 12:19 16.07.2019
5127 Clouds 30 1009 45 10000 6 120 11:45 16.07.2019
5128 Clouds 30 1009 45 10000 6 120 11:25 16.07.2019
5129 Clear 30 1009 48 10000 6 120 10:59 16.07.2019
5130 Clear 30 1010 48 10000 6 120 10:41 16.07.2019
5131 Clear 30 1010 48 10000 5 140 10:19 16.07.2019
5132 Clear 31 1010 45 10000 5 150 09:43 16.07.2019
5133 Clear 30 1010 45 10000 5 130 09:20 16.07.2019
5134 Clear 30 1010 45 10000 5 130 08:47 16.07.2019
5135 -273 0 0 0 0 0 08:27 16.07.2019
5136 Clear 30 1010 45 10000 5 130 08:27 16.07.2019
5137 Clear 29 1011 51 10000 3 130 07:51 16.07.2019
5138 Clear 29 1011 51 10000 3 130 07:32 16.07.2019
5139 Clear 29 1011 51 10000 3 150 06:58 16.07.2019
5140 Clear 28 1011 54 10000 3 140 06:36 16.07.2019
5141 Clear 27 1011 57 10000 2 160 05:51 16.07.2019
5142 Clear 27 1011 57 10000 2 160 05:26 16.07.2019
5143 Clear 25 1011 65 10000 3 160 04:32 16.07.2019
5144 Clear 23 1012 78 10000 3 130 03:42 16.07.2019
5145 Clear 21 1012 94 10000 3 130 02:44 16.07.2019
5146 Clear 21 1012 94 10000 3 130 02:22 16.07.2019
5147 Clear 20 1012 100 10000 2 100 01:24 16.07.2019
5148 Fog 19 1011 100 10000 2 100 00:23 16.07.2019
5149 Fog 19 1011 100 10000 2 90 23:58 15.07.2019
5150 Fog 20 1011 100 10000 3 90 23:38 15.07.2019
5151 Fog 21 1011 94 10000 2 90 23:18 15.07.2019
5152 Clear 21 1011 94 10000 2 80 22:43 15.07.2019
5153 Clear 22 1011 88 10000 2 100 22:20 15.07.2019
5154 Clear 22 1011 88 10000 2 100 22:20 15.07.2019
5155 Clear 22 1011 88 10000 2 100 21:57 15.07.2019
5156 Clear 22 1012 83 10000 3.48 151.954 21:38 15.07.2019
5157 Clear 22 1012 83 10000 4.32 152.07 21:19 15.07.2019
5158 Clear 23 1012 78 10000 4.32 152.07 20:42 15.07.2019
5159 Clear 23 1012 78 10000 4.32 152.07 20:22 15.07.2019
5160 Clear 23 1012 78 10000 1 60 19:56 15.07.2019
5161 Clear 23 1012 78 10000 2 90 19:38 15.07.2019
5162 Clear 24 1012 73 10000 2 80 19:18 15.07.2019
5163 Clear 26 1012 65 10000 1 0 18:43 15.07.2019
5164 Clear 27 1012 61 10000 2 130 18:20 15.07.2019
5165 Clear 27 1012 61 10000 2 130 17:56 15.07.2019
5166 Clear 28 1012 58 10000 2 170 17:37 15.07.2019
5167 Clear 30 1012 48 10000 3 160 17:19 15.07.2019
5168 Clear 30 1012 42 10000 3 160 16:40 15.07.2019
5169 Clear 30 1012 42 10000 3 160 16:21 15.07.2019
5170 Clear 30 1012 42 10000 3 160 16:21 15.07.2019
5171 Clear 31 1012 38 10000 4 170 15:59 15.07.2019
5172 Clear 31 1012 40 10000 4 180 15:38 15.07.2019
5173 Clear 31 1012 38 10000 4 170 15:20 15.07.2019
5174 Clear 32 1012 38 10000 4 170 14:45 15.07.2019
5175 Clear 32 1012 38 10000 4 170 14:27 15.07.2019
5176 Clear 32 1012 38 10000 4 160 13:57 15.07.2019
5177 Clear 31 1012 43 10000 4 160 13:36 15.07.2019
5178 Clear 32 1013 43 10000 4 170 13:18 15.07.2019
5179 Clear 31 1013 45 10000 5 150 12:42 15.07.2019
5180 Clear 31 1013 48 10000 4 150 12:22 15.07.2019
5181 Clouds 31 1013 48 10000 4 140 11:44 15.07.2019
5182 Clouds 31 1013 48 10000 4 140 11:26 15.07.2019
5183 Clouds 30 1013 51 10000 4 130 10:49 15.07.2019
5184 Clouds 30 1013 51 10000 4 130 10:30 15.07.2019
5185 Clear 30 1013 51 10000 4 150 09:58 15.07.2019
5186 Clear 30 1013 51 10000 4 150 09:39 15.07.2019
5187 Clear 30 1013 51 10000 4 140 09:18 15.07.2019
5188 Clear 29 1013 54 10000 4 140 08:42 15.07.2019
5189 Clear 29 1013 54 10000 4 140 08:23 15.07.2019
5190 Clear 28 1014 54 10000 4 150 07:41 15.07.2019
5191 Clear 28 1014 54 10000 3 160 07:20 15.07.2019
5192 Clear 27 1014 54 10000 3 180 06:39 15.07.2019
5193 Clear 26 1014 54 10000 3 190 05:50 15.07.2019
5194 Clear 26 1014 54 10000 3 190 05:30 15.07.2019
5195 Clear 24 1014 57 10000 3 190 04:43 15.07.2019
5196 Clear 23 1014 60 10000 3 180 03:58 15.07.2019
5197 Clear 23 1014 60 10000 3 180 03:58 15.07.2019
5198 Clear 23 1014 60 10000 2 160 02:47 15.07.2019
5199 Clear 22 1014 64 10000 2 160 01:53 15.07.2019
5200 Clear 23 1014 56 10000 2 180 01:28 15.07.2019
5201 Clear 23 1015 56 10000 2 220 00:53 15.07.2019
5202 Clear 24 1014 53 10000 2 200 00:23 15.07.2019
5203 Clear 24 1014 53 10000 2 200 23:57 14.07.2019
5204 Clear 24 1014 50 10000 3 210 23:37 14.07.2019
5205 Clear 24 1014 53 10000 2 210 23:18 14.07.2019
5206 Clear 24 1014 53 10000 2 210 23:18 14.07.2019
5207 Clear 24 1014 53 10000 2 210 22:55 14.07.2019
5208 Clear 24 1014 57 10000 3 200 22:37 14.07.2019
5209 Clear 23 1014 64 10000 3 150 22:18 14.07.2019
5210 Clear 23 1014 64 10000 3 150 21:42 14.07.2019
5211 Clear 24 1015 60 10000 3 150 21:19 14.07.2019
5212 Clear 24 1015 60 10000 3 150 20:57 14.07.2019
5213 Clear 24 1015 60 10000 3 150 20:57 14.07.2019
5214 Clear 25 1015 53 10000 3 160 20:37 14.07.2019
5215 Clear 25 1015 53 10000 3 160 20:19 14.07.2019
5216 Clear 26 1015 50 10000 2 150 19:44 14.07.2019
5217 Clear 26 1015 50 10000 2 150 19:25 14.07.2019
5218 Clear 26 1015 50 10000 3 150 18:57 14.07.2019
5219 Clear 27 1015 51 10000 3 150 18:38 14.07.2019
5220 Clear 27 1015 51 10000 3 160 18:20 14.07.2019
5221 Clear 28 1015 54 10000 4 160 17:47 14.07.2019
5222 Clear 28 1015 54 10000 4 160 17:21 14.07.2019
5223 Clear 29 1015 45 10000 4 160 16:47 14.07.2019
5224 Clear 29 1015 42 10000 4 160 16:24 14.07.2019
5225 Clear 29 1015 42 10000 4 160 15:54 14.07.2019
5226 Clear 30 1015 42 10000 4 160 15:29 14.07.2019
5227 Clear 30 1015 40 10000 4 150 14:50 14.07.2019
5228 Clear 30 1015 40 10000 4 150 14:22 14.07.2019
5229 Clear 30 1016 42 10000 5 160 13:57 14.07.2019
5230 Clear 30 1016 42 10000 4 150 13:37 14.07.2019
5231 Clear 30 1016 40 10000 4 150 13:19 14.07.2019
5232 Clear 29 1016 45 10000 5 150 12:42 14.07.2019
5233 Clear 30 1016 40 10000 5 150 12:22 14.07.2019
5234 Clear 29 1016 45 10000 5 150 11:53 14.07.2019
5235 Clear 29 1016 45 10000 5 150 11:27 14.07.2019
5236 Clear 29 1016 45 10000 5 150 10:58 14.07.2019
5237 Clear 28 1016 48 10000 4 150 10:40 14.07.2019
5238 Clear 28 1017 48 10000 4 150 10:19 14.07.2019
5239 Clear 28 1017 51 10000 5 160 09:42 14.07.2019
5240 Clear 28 1017 51 10000 5 160 09:23 14.07.2019
5241 Clear 27 1017 54 10000 5 150 08:41 14.07.2019
5242 Clear 26 1017 57 10000 4 150 07:58 14.07.2019
5243 Clear 26 1017 57 10000 4 150 07:38 14.07.2019
5244 Clear 25 1018 61 10000 4 150 06:55 14.07.2019
5245 Clear 24 1018 64 10000 3 190 05:44 14.07.2019
5246 Clear 21 1018 68 10000 2 150 03:47 14.07.2019
5247 Clear 21 1018 68 10000 2 150 03:29 14.07.2019
5248 Clear 20 1018 72 10000 2 150 02:41 14.07.2019
5249 Clear 19 1018 77 10000 2 150 02:21 14.07.2019
5250 Clear 18 1018 93 10000 3 160 01:32 14.07.2019
5251 Clear 17 1018 100 10000 2 150 00:56 14.07.2019
5252 Clear 17 1018 100 10000 2 140 00:37 14.07.2019
5253 Clear 17 1018 100 10000 2 130 00:19 14.07.2019
5254 Clear 18 1018 100 10000 2 120 23:43 13.07.2019
5255 Clear 18 1018 100 10000 2 120 23:23 13.07.2019
5256 Clear 18 1018 88 10000 3 90 22:47 13.07.2019
5257 Clear 18 1018 88 10000 3 90 22:23 13.07.2019
5258 Clear 18 1018 88 10000 3 100 21:58 13.07.2019
5259 Clear 18 1018 88 10000 3 100 21:39 13.07.2019
5260 Clear 19 1018 88 10000 3 90 21:19 13.07.2019
5261 Clear 19 1018 93 10000 3 90 20:41 13.07.2019
5262 Clear 19 1018 93 10000 3 90 20:23 13.07.2019
5263 Clear 20 1018 82 10000 2 90 19:43 13.07.2019
5264 Clear 20 1018 82 10000 2 90 19:25 13.07.2019
5265 Clear 22 1018 73 10000 2 90 18:42 13.07.2019
5266 Clear 24 1018 60 10000 1 0 18:20 13.07.2019
5267 Clear 24 1018 60 10000 3 180 17:38 13.07.2019
5268 Clear 25 1018 61 10000 2 160 17:19 13.07.2019
5269 Clear 25 1018 61 10000 3 150 16:46 13.07.2019
5270 Clear 25 1018 61 10000 3 150 16:26 13.07.2019
5271 Clear 25 1018 61 10000 3 150 15:54 13.07.2019
5272 Clear 26 1018 54 10000 3 130 15:36 13.07.2019
5273 Clear 26 1018 57 10000 3 130 15:18 13.07.2019
5274 Clear 26 1018 57 10000 2 140 14:41 13.07.2019
5275 Clouds 25 1018 61 10000 3 120 14:20 13.07.2019
5276 Clear 27 1018 54 10000 2 50 13:44 13.07.2019
5277 Clear 27 1018 54 10000 2 50 13:23 13.07.2019
5278 Clear 26 1018 50 10000 2 100 12:42 13.07.2019
5279 Clear 27 1018 42 10000 3 20 12:23 13.07.2019
5280 Clear 27 1018 42 10000 3 20 11:58 13.07.2019
5281 Clear 27 1018 42 10000 2 60 11:37 13.07.2019
5282 Clear 27 1018 39 10000 3 30 11:18 13.07.2019
5283 Clear 26 1018 41 10000 2 340 10:41 13.07.2019
5284 Clear 26 1018 41 10000 2 340 10:23 13.07.2019
5285 Clouds 25 1018 53 10000 1 0 09:48 13.07.2019
5286 Clouds 25 1018 53 10000 1 0 09:28 13.07.2019
5287 Clouds 25 1018 53 10000 2 310 08:56 13.07.2019
5288 Clouds 25 1018 61 10000 2 320 08:28 13.07.2019
5289 Clouds 25 1018 61 10000 2 320 08:28 13.07.2019
5290 Clouds 24 1018 64 10000 1 0 07:53 13.07.2019
5291 Clouds 24 1018 64 10000 1 0 07:25 13.07.2019
5292 Clouds 23 1018 73 10000 2 180 06:31 13.07.2019
5293 Clouds 21 1018 94 10000 2 230 05:47 13.07.2019
5294 Clear 20 1017 100 10000 1 0 04:40 13.07.2019
5295 Clear 19 1017 100 10000 2 50 04:20 13.07.2019
5296 Clear 19 1017 100 10000 2 30 03:41 13.07.2019
5297 Clear 18 1016 100 10000 2 130 03:18 13.07.2019
5298 Clouds 17 1016 100 9000 1 0 01:53 13.07.2019
5299 Clear 17 1016 100 10000 1.75 41.356 01:21 13.07.2019
5300 Clear 17 1016 100 10000 1.75 41.356 00:58 13.07.2019
5301 Clouds 18 1016 100 10000 1 0 00:21 13.07.2019
5302 Clouds 18 1016 100 10000 1 0 23:53 12.07.2019
5303 Clouds 18 1016 100 10000 2 60 23:33 12.07.2019
5304 Rain 18 1016 100 10000 2 60 22:58 12.07.2019
5305 Clouds 18 1016 100 10000 2 10 22:40 12.07.2019
5306 Clouds 18 1016 100 10000 2 10 22:21 12.07.2019
5307 Clouds 18 1015 100 10000 1 0 21:42 12.07.2019
5308 Rain 18 1014 100 10000 1 0 21:19 12.07.2019
5309 Rain 18 1015 100 10000 3 330 20:47 12.07.2019
5310 Rain 18 1015 100 10000 3 330 20:23 12.07.2019
5311 Clouds 21 1014 68 10000 4 320 19:44 12.07.2019
5312 Clouds 21 1014 68 10000 4 320 19:26 12.07.2019
5313 Clouds 22 1015 78 10000 3 290 18:57 12.07.2019
5314 Clouds 22 1014 83 10000 1 0 18:37 12.07.2019
5315 Clouds 23 1014 73 10000 1 0 18:18 12.07.2019
5316 Rain 23 1014 73 10000 1 160 17:43 12.07.2019
5317 Rain 23 1014 73 10000 1 160 17:23 12.07.2019
5318 Clouds 24 1014 73 10000 2 150 16:37 12.07.2019
5319 Clouds 25 1014 65 10000 3 160 16:19 12.07.2019
5320 Clouds 25 1014 61 10000 4 150 15:40 12.07.2019
5321 Clouds 25 1014 61 10000 3 150 15:20 12.07.2019
5322 Clouds 26 1014 47 10000 3 200 14:46 12.07.2019
5323 Clouds 26 1014 47 10000 3 200 14:46 12.07.2019
5324 Clouds 26 1014 47 10000 3 200 14:22 12.07.2019
5325 Clouds 26 1014 47 10000 3 200 14:22 12.07.2019
5326 Clouds 27 1014 44 10000 3 220 13:55 12.07.2019
5327 Clouds 28 1014 39 10000 2 240 13:37 12.07.2019
5328 Clouds 28 1014 42 10000 3 190 12:55 12.07.2019
5329 Clouds 27 1014 44 10000 3 200 12:37 12.07.2019
5330 -273 0 0 0 0 0 12:18 12.07.2019
5331 Clouds 26 1014 57 10000 4 160 11:43 12.07.2019
5332 Clouds 26 1014 61 10000 3 130 11:20 12.07.2019
5333 Clouds 26 1014 61 10000 3 160 10:43 12.07.2019
5334 Clouds 26 1014 61 10000 3 160 10:23 12.07.2019
5335 Clouds 26 1014 65 10000 3 140 09:54 12.07.2019
5336 Clouds 25 1013 65 10000 3 150 09:29 12.07.2019
5337 Clouds 24 1013 64 10000 3 160 08:58 12.07.2019
5338 Clouds 24 1013 53 10000 3 180 08:26 12.07.2019
5339 Clouds 24 1013 60 10000 2 200 07:55 12.07.2019
5340 Clouds 24 1013 60 10000 2 200 07:55 12.07.2019
5341 Clear 24 1013 60 10000 2 180 07:32 12.07.2019
5342 Clear 23 1013 64 10000 2 200 06:59 12.07.2019
5343 Clear 23 1012 69 10000 2 240 06:28 12.07.2019
5344 Clear 22 1012 73 10000 2 210 05:42 12.07.2019
5345 Clear 20 1011 82 10000 3 230 03:21 12.07.2019
5346 Clear 20 1011 77 10000 3 200 01:39 12.07.2019
5347 Clear 21 1011 73 10000 4 210 00:54 12.07.2019
5348 Clear 21 1010 73 10000 4 210 00:20 12.07.2019
5349 Clear 21 1010 73 10000 4 210 23:47 11.07.2019
5350 Clear 21 1010 73 10000 4 210 23:26 11.07.2019
5351 Clear 20 1010 77 10000 3 210 22:52 11.07.2019
5352 Clear 18 1010 100 10000 2 230 22:27 11.07.2019
5353 Clouds 19 1010 88 10000 3 240 21:59 11.07.2019
5354 Clouds 21 1009 77 10000 3 200 21:40 11.07.2019
5355 Rain 21 1009 77 8000 3 220 21:18 11.07.2019
5356 Clouds 23 1009 60 10000 5 210 20:42 11.07.2019
5357 Clouds 23 1009 60 10000 5 210 20:24 11.07.2019
5358 Clouds 24 1009 57 10000 7 200 19:58 11.07.2019
5359 Clouds 24 1009 57 10000 5 190 19:39 11.07.2019
5360 Clouds 24 1009 57 10000 6 190 19:21 11.07.2019
5361 Clouds 24 1008 60 10000 6 190 18:43 11.07.2019
5362 Clouds 24 1008 60 10000 6 190 18:43 11.07.2019
5363 Clouds 24 1008 60 10000 6 190 18:24 11.07.2019
5364 Clouds 24 1008 64 10000 5 180 17:50 11.07.2019
5365 Clouds 24 1008 64 10000 5 180 17:31 11.07.2019
5366 Clouds 22 1008 78 10000 3 150 16:56 11.07.2019
5367 Rain 24 1009 64 10000 4 190 16:37 11.07.2019
5368 Rain 25 1008 57 10000 5 180 16:18 11.07.2019
5369 Clouds 25 1008 57 10000 5 180 15:40 11.07.2019
5370 Clouds 25 1008 57 10000 5 180 15:21 11.07.2019
5371 Rain 25 1008 57 10000 5 200 14:45 11.07.2019
5372 Rain 25 1008 57 10000 5 200 14:25 11.07.2019
5373 Clouds 25 1008 57 10000 5 200 13:59 11.07.2019
5374 Clouds 25 1008 57 10000 6 200 13:40 11.07.2019
5375 Clouds 25 1008 57 10000 6 170 13:22 11.07.2019
5376 Clear 24 1008 60 10000 5 170 12:38 11.07.2019
5377 Clear 25 1008 57 10000 6 180 12:19 11.07.2019
5378 Clear 25 1008 53 10000 7 190 11:45 11.07.2019
5379 Clear 25 1008 53 10000 7 190 11:27 11.07.2019
5380 Clear 25 1008 57 10000 5 170 10:52 11.07.2019
5381 Clear 25 1008 57 10000 8 180 10:20 11.07.2019
5382 Clear 25 1008 57 10000 8 180 09:52 11.07.2019
5383 Clear 25 1008 57 10000 8 180 09:32 11.07.2019
5384 Clouds 24 1008 64 10000 6 170 08:59 11.07.2019
5385 Clouds 21 1008 73 10000 5 160 08:39 11.07.2019
5386 Rain 20 1009 77 10000 5 180 08:19 11.07.2019
5387 Clouds 20 1009 77 10000 4 160 07:43 11.07.2019
5388 Clouds 20 1009 77 10000 5 170 06:55 11.07.2019
5389 Clouds 19 1009 82 10000 5 170 06:18 11.07.2019
5390 Clouds 19 1009 77 10000 5 180 05:32 11.07.2019
5391 Clouds 19 1009 77 10000 4 190 04:56 11.07.2019
5392 Clouds 19 1009 77 10000 5 180 03:43 11.07.2019
5393 Clouds 19 1008 77 10000 6 180 02:20 11.07.2019
5394 Clouds 18 1009 77 10000 4 160 00:33 11.07.2019
5395 Clouds 18 1009 77 10000 5 160 23:50 10.07.2019
5396 Clouds 18 1009 77 10000 5 160 23:24 10.07.2019
5397 Clouds 18 1009 77 10000 4 150 22:57 10.07.2019
5398 Clouds 18 1009 77 10000 4 150 22:25 10.07.2019
5399 Clouds 18 1009 77 10000 4 150 21:56 10.07.2019
5400 Rain 18 1009 82 10000 3 160 21:38 10.07.2019
5401 Clouds 19 1009 72 10000 5 180 21:19 10.07.2019
5402 Clouds 19 1010 72 10000 5 190 20:44 10.07.2019
5403 Clouds 19 1010 72 10000 5 190 20:26 10.07.2019
5404 Clear 19 1010 72 10000 4 160 19:56 10.07.2019
5405 Clear 19 1010 68 10000 3 160 19:37 10.07.2019
5406 Clear 19 1010 68 10000 4 180 19:19 10.07.2019
5407 Clear 19 1010 68 10000 3 190 18:44 10.07.2019
5408 Clear 19 1010 68 10000 3 190 18:23 10.07.2019
5409 Clear 19 1010 68 10000 3 190 18:23 10.07.2019
5410 Clear 19 1010 68 10000 4 200 17:46 10.07.2019
5411 Clear 19 1010 68 10000 4 200 17:27 10.07.2019
5412 Clear 20 1009 60 10000 3 140 16:46 10.07.2019
5413 Clear 20 1009 60 10000 2 150 16:21 10.07.2019
5414 Clouds 21 1009 52 10000 3 190 15:47 10.07.2019
5415 Clouds 21 1009 52 10000 3 190 15:25 10.07.2019
5416 Clear 21 1009 49 10000 3 190 14:48 10.07.2019
5417 Clear 21 1009 49 10000 3 190 14:29 10.07.2019
5418 Clear 21 1010 49 10000 3 200 13:59 10.07.2019
5419 Clear 21 1009 49 10000 4 220 13:36 10.07.2019
5420 Clear 21 1009 46 10000 5 200 13:18 10.07.2019
5421 Clear 21 1009 46 10000 5 200 13:18 10.07.2019
5422 Clear 21 1009 46 10000 4 220 12:40 10.07.2019
5423 Clear 21 1009 43 10000 4 240 12:21 10.07.2019
5424 Clear 21 1009 46 10000 3 230 11:48 10.07.2019
5425 Clear 21 1009 46 10000 3 230 11:22 10.07.2019
5426 Clear 20 1009 45 10000 2 310 10:58 10.07.2019
5427 Clear 20 1009 42 10000 4 290 10:24 10.07.2019
5428 Clouds 19 1009 45 10000 3 310 09:55 10.07.2019
5429 Clouds 19 1009 45 10000 3 310 09:55 10.07.2019
5430 Clear 19 1009 52 10000 4 210 09:36 10.07.2019
5431 Clear 20 1009 45 10000 3 300 09:18 10.07.2019
5432 Clouds 19 1009 45 10000 1 0 08:45 10.07.2019
5433 Clouds 19 1009 45 10000 1 0 08:22 10.07.2019
5434 Clear 18 1008 48 10000 2 260 07:45 10.07.2019
5435 Clear 18 1008 48 10000 2 260 07:23 10.07.2019
5436 Clouds 17 1008 59 10000 2 300 06:33 10.07.2019
5437 Clouds 16 1008 67 10000 3 280 05:40 10.07.2019
5438 Clear 16 1008 77 10000 2 310 04:30 10.07.2019
5439 Clear 10 1007 100 10000 1 0 01:59 10.07.2019
5440 Clear 10 1006 100 10000 2 320 00:43 10.07.2019
5441 Clear 9 1006 100 10000 2 310 23:42 09.07.2019
5442 Clear 9 1006 100 10000 2 310 23:23 09.07.2019
5443 Clear 10 1005 100 10000 2 310 22:57 09.07.2019
5444 Clear 10 1005 100 10000 1 0 22:36 09.07.2019
5445 Clear 10 1005 100 10000 1 310 22:18 09.07.2019
5446 Clear 10 1005 100 10000 1 310 22:18 09.07.2019
5447 Clear 11 1005 100 10000 1 0 21:43 09.07.2019
5448 Clear 11 1005 100 10000 1 0 21:25 09.07.2019
5449 Clear 11 1005 100 10000 1 300 20:44 09.07.2019
5450 Clear 11 1005 100 10000 1 300 20:26 09.07.2019
5451 Clouds 11 1005 100 10000 3.16 4.591 19:45 09.07.2019
5452 Clouds 11 1005 100 10000 3.16 4.591 19:26 09.07.2019
5453 Clouds 12 1004 100 10000 3.16 4.591 18:58 09.07.2019
5454 Clouds 13 1004 93 10000 3.16 4.591 18:36 09.07.2019
5455 Clouds 15 1004 77 10000 3.64 348.055 18:18 09.07.2019
5456 Clouds 16 1004 67 10000 1 0 17:42 09.07.2019
5457 Clouds 16 1004 67 10000 1 0 17:21 09.07.2019
5458 Clouds 15 1003 72 10000 2 30 16:50 09.07.2019
5459 Clouds 15 1003 72 10000 2 30 16:25 09.07.2019
5460 Clouds 16 1003 67 10000 3 30 15:56 09.07.2019
5461 Clouds 16 1003 67 10000 4 50 15:36 09.07.2019
5462 Clouds 16 1003 67 10000 4 20 14:59 09.07.2019
5463 Clouds 16 1002 67 10000 2 30 14:40 09.07.2019
5464 Clouds 16 1002 67 10000 5 40 14:21 09.07.2019
5465 Clouds 17 1002 63 10000 3 360 13:45 09.07.2019
5466 Clouds 17 1002 63 10000 3 360 13:27 09.07.2019
5467 Clouds 17 1001 59 10000 4 350 12:42 09.07.2019
5468 Clouds 17 1001 59 10000 3 10 12:24 09.07.2019
5469 Clouds 17 1001 59 10000 3 10 11:59 09.07.2019
5470 Clouds 16 1001 72 10000 2 360 11:41 09.07.2019
5471 Clouds 16 1001 72 10000 2 360 11:22 09.07.2019
5472 Clouds 16 1001 67 10000 3 30 10:58 09.07.2019
5473 Clouds 16 1001 77 10000 2 20 10:34 09.07.2019
5474 Clouds 15 1000 77 10000 2 350 09:56 09.07.2019
5475 Clouds 15 1000 77 10000 2 80 09:37 09.07.2019
5476 Clouds 13 1000 93 10000 3 70 09:18 09.07.2019
5477 Rain 12 1000 100 9000 6 50 08:41 09.07.2019
5478 Clear 20 998 82 10000 3 200 04:18 05.07.2019
5479 Clear 20 998 88 10000 2 200 03:39 05.07.2019
5480 Clear 20 998 82 10000 2 190 03:19 05.07.2019
5481 Clear 19 998 100 10000 2 200 02:49 05.07.2019
5482 Clear 18 999 100 10000 1 0 01:52 05.07.2019
5483 Clear 17 999 100 10000 1 0 01:28 05.07.2019
5484 Fog 17 999 100 10000 4.17 83.716 00:51 05.07.2019
5485 Fog 17 999 100 10000 4.17 83.716 00:27 05.07.2019
5486 Fog 17 999 100 10000 2 80 23:38 04.07.2019
5487 Fog 17 999 100 10000 2 80 23:18 04.07.2019
5488 Clear 18 999 100 10000 2 100 22:41 04.07.2019
5489 Clear 19 999 100 10000 3 100 22:20 04.07.2019
5490 Clear 19 1000 100 10000 2 130 21:44 04.07.2019
5491 Clear 19 1000 100 10000 2 130 21:25 04.07.2019
5492 Clear 20 1000 100 10000 3 120 20:58 04.07.2019
5493 Clear 20 1000 88 10000 3 120 20:37 04.07.2019
5494 Clear 20 1000 88 10000 3 130 20:18 04.07.2019
5495 Clear 20 1000 82 10000 3 100 19:41 04.07.2019
5496 Clear 21 1000 83 10000 3 120 19:21 04.07.2019
5497 Clear 22 1000 78 10000 2 110 18:47 04.07.2019
5498 Clear 22 1000 78 10000 2 110 18:28 04.07.2019
5499 Clear 23 1001 73 10000 4 120 17:58 04.07.2019
5500 Clear 24 1001 69 10000 3 90 17:40 04.07.2019
5501 Clear 25 1001 65 10000 3 120 17:18 04.07.2019
5502 Clouds 27 1002 51 10000 3 130 15:45 04.07.2019
5503 Clouds 27 1002 51 10000 3 130 15:25 04.07.2019
5504 Clouds 26 1002 57 10000 3 140 14:59 04.07.2019
5505 Clouds 26 1002 57 10000 3 140 14:59 04.07.2019
5506 Clear 26 1002 54 10000 3 140 14:39 04.07.2019
5507 Clear 26 1002 54 10000 4 100 14:19 04.07.2019
5508 Clear 26 1002 54 10000 4 100 13:57 04.07.2019
5509 Clear 26 1002 54 10000 4 100 13:56 04.07.2019
5510 Clear 26 1003 54 10000 3 160 13:38 04.07.2019
5511 Clear 26 1003 54 10000 2 150 13:19 04.07.2019
5512 Clear 27 1003 51 10000 1 0 12:38 04.07.2019
5513 Clear 26 1003 54 10000 1 0 12:19 04.07.2019
5514 Clear 25 1004 61 10000 3 150 11:45 04.07.2019
5515 Clouds 24 1004 64 10000 3 140 11:20 04.07.2019
5516 Clouds 24 1004 64 10000 3 140 11:20 04.07.2019
5517 Clouds 24 1004 64 10000 4 170 10:46 04.07.2019
5518 Clouds 24 1004 64 10000 4 170 10:27 04.07.2019
5519 Clouds 24 1004 64 10000 3 160 09:57 04.07.2019
5520 Clouds 24 1005 60 10000 3 170 09:38 04.07.2019
5521 Clouds 23 1005 60 10000 3 130 09:19 04.07.2019
5522 Clouds 23 1005 64 10000 3 120 08:44 04.07.2019
5523 Clouds 23 1005 64 10000 3 100 08:18 04.07.2019
5524 Clouds 22 1005 73 10000 3 130 07:39 04.07.2019
5525 Clouds 22 1005 73 10000 3 140 07:18 04.07.2019
5526 Clouds 22 1005 78 10000 2 130 06:30 04.07.2019
5527 Clouds 22 1006 78 10000 2 160 05:41 04.07.2019
5528 Clouds 20 1006 88 10000 3 200 04:18 04.07.2019
5529 Clear 20 1005 100 10000 2 150 01:52 04.07.2019
5530 Clear 20 1005 100 10000 3 150 01:26 04.07.2019
5531 Clear 21 1004 88 10000 4 160 00:41 04.07.2019
5532 Clouds 20 1004 88 10000 2 140 23:52 03.07.2019
5533 Clouds 20 1005 94 10000 3 110 23:21 03.07.2019
5534 Clouds 20 1005 94 10000 3 110 22:56 03.07.2019
5535 Clouds 20 1005 94 10000 3 110 22:56 03.07.2019
5536 Clouds 21 1005 83 10000 3 120 22:37 03.07.2019
5537 Clouds 21 1005 88 10000 3 100 22:19 03.07.2019
5538 Clouds 21 1005 88 10000 3 100 21:54 03.07.2019
5539 Clouds 22 1005 83 10000 3 100 21:35 03.07.2019
5540 Clouds 23 1006 78 10000 4 160 20:48 03.07.2019
5541 Clouds 23 1006 78 10000 4 160 20:29 03.07.2019
5542 Clouds 23 1006 78 10000 4 120 19:59 03.07.2019
5543 Clouds 24 1006 69 10000 4 120 19:40 03.07.2019
5544 Clouds 24 1005 69 10000 5 110 18:58 03.07.2019
5545 Clouds 25 1005 65 10000 5 110 18:39 03.07.2019
5546 Clouds 25 1006 65 10000 6 120 18:21 03.07.2019
5547 Clear 26 1006 61 10000 5 110 17:49 03.07.2019
5548 Clear 26 1006 61 10000 7 110 17:19 03.07.2019
5549 Clear 26 1006 61 10000 6 110 16:45 03.07.2019
5550 Clear 26 1006 61 10000 6 110 16:25 03.07.2019
5551 Clear 27 1006 57 10000 7 110 15:55 03.07.2019
5552 Clear 27 1006 57 10000 6 110 15:37 03.07.2019
5553 Clear 27 1006 57 10000 7 110 15:18 03.07.2019
5554 Clear 27 1006 57 10000 6 110 14:43 03.07.2019
5555 Clear 26 1006 65 10000 6 100 14:20 03.07.2019
5556 Clear 26 1007 65 10000 5 90 13:45 03.07.2019
5557 Clear 26 1007 65 10000 5 90 13:27 03.07.2019
5558 Clear 26 1008 57 10000 5 110 12:51 03.07.2019
5559 Clear 26 1008 57 10000 5 100 12:19 03.07.2019
5560 Clouds 24 1008 64 10000 4 110 11:43 03.07.2019
5561 Clouds 24 1008 64 10000 4 110 11:24 03.07.2019
5562 Clouds 24 1008 64 10000 1 0 10:58 03.07.2019
5563 Rain 24 1009 69 10000 5 190 10:37 03.07.2019
5564 Thunderstorm 28 1008 58 10000 7 130 10:19 03.07.2019
5565 Clouds 30 1008 48 10000 6 130 09:40 03.07.2019
5566 Clear 29 1008 54 10000 6 130 09:20 03.07.2019
5567 Clear 29 1008 54 10000 6 130 08:52 03.07.2019
5568 Clouds 29 1008 51 10000 5 110 08:31 03.07.2019
5569 Clouds 26 1009 65 10000 4 130 07:45 03.07.2019
5570 Clouds 26 1009 65 10000 4 130 07:27 03.07.2019
5571 Clear 27 1009 61 10000 5 120 06:27 03.07.2019
5572 Clear 25 1009 69 10000 4 110 05:34 03.07.2019
5573 Clear 24 1010 78 10000 3 100 04:44 03.07.2019
5574 Clear 22 1010 88 10000 3 100 03:25 03.07.2019
5575 Clear 20 1010 100 10000 3 100 02:23 03.07.2019
5576 Clear 18 1011 100 10000 4 100 01:21 03.07.2019
5577 Clear 19 1010 100 10000 2 90 00:46 03.07.2019
5578 Clear 19 1010 100 10000 2 90 00:24 03.07.2019
5579 Clear 20 1010 94 10000 3 100 23:38 02.07.2019
5580 Clear 20 1011 94 10000 3 130 23:20 02.07.2019
5581 Clear 21 1010 88 10000 2 120 22:57 02.07.2019
5582 Clear 21 1010 88 10000 2 120 22:38 02.07.2019
5583 Clear 20 1011 88 10000 3 110 22:19 02.07.2019
5584 Clear 20 1011 88 10000 3 100 21:44 02.07.2019
5585 Clear 20 1011 88 10000 2 100 21:23 02.07.2019
5586 Clear 21 1011 83 10000 3 110 20:58 02.07.2019
5587 Clear 21 1011 83 10000 3 110 20:39 02.07.2019
5588 Clear 21 1011 83 10000 3 110 20:21 02.07.2019
5589 Clear 22 1011 73 10000 1 0 19:43 02.07.2019
5590 Clear 23 1011 69 10000 3 100 19:23 02.07.2019
5591 Clear 23 1011 69 10000 3 100 18:50 02.07.2019
5592 Clear 24 1011 64 10000 3 110 18:19 02.07.2019
5593 Clear 26 1011 54 10000 4 100 17:45 02.07.2019
5594 Clear 26 1011 54 10000 4 100 17:45 02.07.2019
5595 Clear 27 1011 47 10000 4 110 17:24 02.07.2019
5596 Clear 27 1011 47 10000 5 120 16:55 02.07.2019
5597 Clear 27 1011 47 10000 5 120 16:36 02.07.2019
5598 Clear 27 1011 47 10000 6 110 15:59 02.07.2019
5599 Clear 27 1011 47 10000 5 110 15:38 02.07.2019
5600 Clear 27 1011 44 10000 5 120 15:20 02.07.2019
5601 Clear 27 1012 44 10000 5 110 14:45 02.07.2019
5602 Clear 27 1012 44 10000 4 130 14:25 02.07.2019
5603 Clear 27 1012 44 10000 5 120 13:43 02.07.2019
5604 Clear 27 1012 44 10000 5 120 13:19 02.07.2019
5605 Clear 27 1012 42 10000 4 130 12:45 02.07.2019
5606 Clear 27 1013 44 10000 5 120 12:23 02.07.2019
5607 Clear 26 1013 44 10000 5 100 11:45 02.07.2019
5608 Clear 26 1013 44 10000 5 100 11:24 02.07.2019
5609 Clear 26 1013 44 10000 4 130 10:59 02.07.2019
5610 Clear 26 1013 41 10000 4 130 10:37 02.07.2019
5611 Clear 26 1013 41 10000 4 130 10:19 02.07.2019
5612 Clear 26 1014 39 10000 4 130 09:37 02.07.2019
5613 Clear 25 1014 44 10000 4 120 09:19 02.07.2019
5614 Clear 25 1014 41 10000 6 130 08:40 02.07.2019
5615 Clear 25 1014 44 10000 4 130 08:20 02.07.2019
5616 Clear 24 1014 44 10000 4 130 07:47 02.07.2019
5617 Clear 24 1014 44 10000 4 130 07:20 02.07.2019
5618 Clear 24 1015 41 10000 4 120 06:40 02.07.2019
5619 Clear 23 1015 49 10000 2 160 05:55 02.07.2019
5620 Clear 17 1015 77 10000 2 100 02:43 02.07.2019
5621 Clear 14 1015 87 10000 3 100 00:41 02.07.2019
5622 Clear 14 1015 87 10000 1 80 23:40 01.07.2019
5623 Clear 15 1015 87 10000 1 110 23:19 01.07.2019
5624 Clear 14 1015 87 10000 2.21 138.629 22:44 01.07.2019
5625 Clear 14 1015 87 10000 2.21 138.629 22:26 01.07.2019
5626 Clear 17 1015 77 10000 2 80 21:45 01.07.2019
5627 Clear 17 1015 77 10000 2 80 21:25 01.07.2019
5628 Clear 18 1015 72 10000 1 0 20:51 01.07.2019
5629 Clear 19 1015 72 10000 1 0 20:21 01.07.2019
5630 Clear 19 1015 72 10000 1 0 19:57 01.07.2019
5631 Clouds 20 1015 68 10000 2 100 19:38 01.07.2019
5632 Clouds 21 1015 64 10000 1 0 19:20 01.07.2019
5633 Clear 23 1015 56 10000 2 140 18:50 01.07.2019
5634 Clear 23 1015 56 10000 2 140 18:28 01.07.2019
5635 Clear 24 1015 53 10000 3 140 17:48 01.07.2019
5636 Clear 24 1015 53 10000 3 140 17:27 01.07.2019
5637 Clear 25 1015 47 10000 3 130 16:58 01.07.2019
5638 Clear 26 1015 41 10000 3 140 16:40 01.07.2019
5639 Clear 26 1015 41 10000 3 140 16:22 01.07.2019
5640 Clear 26 1015 41 10000 3 150 15:44 01.07.2019
5641 Clear 26 1015 41 10000 3 150 15:23 01.07.2019
5642 Clear 26 1015 44 10000 2 190 14:44 01.07.2019
5643 Clear 26 1015 44 10000 2 190 14:22 01.07.2019
5644 Clear 27 1016 42 10000 2 190 13:48 01.07.2019
5645 Clear 27 1016 42 10000 2 190 13:24 01.07.2019
5646 Clear 27 1016 39 10000 3 190 12:58 01.07.2019
5647 Clear 27 1016 42 10000 4 180 12:38 01.07.2019
5648 Clear 26 1016 44 10000 3 200 12:20 01.07.2019
5649 Clear 26 1016 41 10000 4 180 11:45 01.07.2019
5650 Clear 26 1016 41 10000 4 180 11:23 01.07.2019
5651 Clear 26 1016 41 10000 4 170 10:48 01.07.2019
5652 Clear 26 1016 41 10000 4 170 10:25 01.07.2019
5653 Clear 26 1016 41 10000 4 200 09:59 01.07.2019
5654 Clear 25 1017 44 10000 4 180 09:40 01.07.2019
5655 Clear 25 1017 44 10000 4 180 09:22 01.07.2019
5656 Clear 24 1017 50 10000 3 170 08:39 01.07.2019
5657 Clear 24 1017 50 10000 3 170 08:21 01.07.2019
5658 Clouds 22 1017 56 10000 3 170 07:28 01.07.2019
5659 Clouds 21 1017 56 10000 4 160 06:30 01.07.2019
5660 Clear 17 1017 72 10000 2 160 02:27 01.07.2019
5661 Clear 16 1017 82 10000 1 0 00:51 01.07.2019
5662 Clear 16 1017 82 10000 1 0 00:30 01.07.2019
5663 Clear 15 1017 82 10000 1 110 23:57 30.06.2019
5664 Clear 15 1017 82 10000 2 100 23:22 30.06.2019
5665 Clear 16 1017 72 10000 4.53 145.497 22:53 30.06.2019
5666 Clear 17 1017 67 10000 4.53 145.497 22:22 30.06.2019
5667 Clear 19 1017 59 10000 4.53 145.497 21:44 30.06.2019
5668 Clear 19 1017 59 10000 2.71 162.548 21:26 30.06.2019
5669 Clear 19 1017 59 10000 2.71 162.548 21:26 30.06.2019
5670 Clear 19 1017 59 10000 2 190 20:58 30.06.2019
5671 Clear 20 1017 52 10000 1 0 20:39 30.06.2019
5672 Clear 20 1017 52 10000 1 0 20:21 30.06.2019
5673 Clear 21 1017 49 10000 2 150 19:46 30.06.2019
5674 Clear 21 1017 49 10000 2 150 19:25 30.06.2019
5675 Clear 21 1016 52 10000 2 170 18:41 30.06.2019
5676 Clear 21 1016 52 10000 2 150 18:20 30.06.2019
5677 Clear 22 1016 46 10000 2 130 17:40 30.06.2019
5678 Clear 23 1016 40 10000 2 210 17:19 30.06.2019
5679 Clear 24 1016 36 10000 3 220 16:51 30.06.2019
5680 Clear 24 1016 36 10000 3 220 16:32 30.06.2019
5681 Clear 24 1016 36 10000 3 190 15:38 30.06.2019
5682 Clear 24 1017 36 10000 3 240 15:19 30.06.2019
5683 Clear 24 1017 36 10000 3 240 14:57 30.06.2019
5684 Clear 24 1017 36 10000 3 240 14:57 30.06.2019
5685 Clear 24 1017 33 10000 5 250 14:38 30.06.2019
5686 Clear 25 1017 33 10000 3 240 13:57 30.06.2019
5687 Clear 24 1017 33 10000 3 200 13:38 30.06.2019
5688 Clear 24 1017 31 10000 2 240 13:19 30.06.2019
5689 Clear 24 1017 31 10000 2 250 12:45 30.06.2019
5690 Clear 24 1017 31 10000 2 250 12:23 30.06.2019
5691 Clear 24 1017 31 10000 4 230 11:47 30.06.2019
5692 Clear 24 1017 31 10000 4 230 11:22 30.06.2019
5693 Clear 24 1018 31 10000 4 230 10:56 30.06.2019
5694 Clear 23 1018 31 10000 4 250 10:37 30.06.2019
5695 Clear 23 1018 33 10000 3 220 10:18 30.06.2019
5696 Clear 23 1018 33 10000 3 220 10:18 30.06.2019
5697 Clear 23 1018 31 10000 4 220 09:43 30.06.2019
5698 Clear 23 1018 31 10000 4 220 09:22 30.06.2019
5699 Clear 22 1018 35 10000 2 250 08:47 30.06.2019
5700 Clear 22 1018 35 10000 2 250 08:27 30.06.2019
5701 Clear 22 1019 33 10000 1 0 07:54 30.06.2019
5702 Clear 22 1019 33 10000 3 220 07:27 30.06.2019
5703 Clear 20 1019 40 10000 3 240 06:40 30.06.2019
5704 Clear 20 1019 42 10000 3 240 05:33 30.06.2019
5705 Clear 15 1019 67 10000 2 250 02:50 30.06.2019
5706 Clear 10 1019 87 10000 2.5 226.784 01:27 30.06.2019
5707 Clear 9 1019 87 10000 2.5 226.784 00:29 30.06.2019
5708 Clear 9 1019 87 10000 3.38 224.701 23:55 29.06.2019
5709 Clear 9 1019 87 10000 3.38 224.701 23:24 29.06.2019
5710 Clear 10 1019 81 10000 3.38 224.701 22:57 29.06.2019
5711 Clear 11 1019 76 10000 3.38 224.701 22:37 29.06.2019
5712 Clear 10 1019 87 10000 3.38 224.701 22:18 29.06.2019
5713 Clear 11 1019 81 10000 3.98 222.626 21:41 29.06.2019
5714 Clear 13 1019 71 10000 3.75 220.578 21:22 29.06.2019
5715 Clear 13 1019 71 10000 3.75 220.578 20:41 29.06.2019
5716 Clear 13 1019 71 10000 3.75 220.578 20:22 29.06.2019
5717 Clear 14 1019 67 10000 2 270 19:48 29.06.2019
5718 Clear 14 1019 67 10000 2 270 19:23 29.06.2019
5719 Clear 17 1019 55 10000 2 260 18:51 29.06.2019
5720 Clear 17 1019 55 10000 2 260 18:26 29.06.2019
5721 Clear 19 1018 45 10000 3 250 17:42 29.06.2019
5722 Clear 19 1018 45 10000 3 250 17:22 29.06.2019
5723 Clear 19 1018 45 10000 4 240 16:57 29.06.2019
5724 Clear 20 1018 42 10000 4 230 16:36 29.06.2019
5725 Clear 19 1018 45 10000 3 210 15:48 29.06.2019
5726 Clear 19 1018 45 10000 3 210 15:24 29.06.2019
5727 Clear 19 1018 45 10000 4 230 14:44 29.06.2019
5728 Clear 19 1018 45 10000 4 230 14:25 29.06.2019
5729 Clear 21 1018 40 10000 3 270 13:46 29.06.2019
5730 Clear 21 1018 40 10000 3 270 13:26 29.06.2019
5731 Clear 20 1018 40 10000 2 290 12:51 29.06.2019
5732 Clear 19 1018 42 10000 2 360 12:33 29.06.2019
5733 Clear 19 1018 42 10000 2 260 11:54 29.06.2019
5734 Clear 18 1018 42 10000 2 20 11:33 29.06.2019
5735 Clear 18 1018 45 10000 1 0 10:56 29.06.2019
5736 Clear 19 1018 42 10000 2 190 10:38 29.06.2019
5737 Clear 18 1018 48 10000 3 330 10:20 29.06.2019
5738 Clear 18 1018 45 10000 1 0 09:44 29.06.2019
5739 Clear 18 1018 48 10000 1 0 08:50 29.06.2019
5740 Clouds 16 1018 51 10000 2 10 07:59 29.06.2019
5741 Clouds 16 1018 55 10000 3 270 07:36 29.06.2019
5742 Clear 17 1018 51 10000 2 280 06:45 29.06.2019
5743 Clear 17 1018 51 10000 2 280 06:23 29.06.2019
5744 Clear 11 1017 76 10000 2 280 02:51 29.06.2019
5745 Clear 8 1017 100 10000 2 290 01:21 29.06.2019
5746 Clear 6 1016 100 10000 2 280 00:24 29.06.2019
5747 Clear 7 1016 93 10000 2 280 23:36 28.06.2019
5748 Clear 7 1016 100 10000 2 290 23:18 28.06.2019
5749 Clear 8 1016 93 10000 3 280 22:44 28.06.2019
5750 Clear 8 1015 93 10000 3 280 21:53 28.06.2019
5751 Clear 9 1015 87 10000 2 280 21:26 28.06.2019
5752 Clouds 10 1015 81 10000 2 280 20:49 28.06.2019
5753 Clouds 10 1015 81 10000 2 280 20:29 28.06.2019
5754 Clear 10 1015 81 10000 2 280 19:57 28.06.2019
5755 Clear 11 1015 76 10000 2 280 19:37 28.06.2019
5756 Clear 11 1014 76 10000 2 290 19:18 28.06.2019
5757 Clear 11 1014 76 10000 2 300 18:40 28.06.2019
5758 Clear 12 1014 71 10000 2 300 18:20 28.06.2019
5759 Clear 12 1014 71 10000 2 300 18:20 28.06.2019
5760 Clear 12 1014 66 10000 2 290 17:34 28.06.2019
5761 Clear 12 1014 66 10000 2 330 16:55 28.06.2019
5762 Clear 12 1014 62 10000 3 320 16:29 28.06.2019
5763 Clear 13 1014 58 10000 3 330 15:49 28.06.2019
5764 Clear 13 1014 58 10000 3 330 15:29 28.06.2019
5765 Clear 13 1013 58 10000 4 320 14:59 28.06.2019
5766 Clouds 13 1013 58 10000 5 320 14:39 28.06.2019
5767 Clouds 13 1013 62 10000 4 320 14:20 28.06.2019
5768 Clouds 13 1013 58 10000 4 330 13:45 28.06.2019
5769 Clouds 13 1013 58 10000 4 330 13:22 28.06.2019
5770 Clear 14 1013 54 10000 4 340 12:50 28.06.2019
5771 Clear 14 1013 54 10000 4 340 12:25 28.06.2019
5772 Clouds 14 1012 54 10000 4 330 11:29 28.06.2019
5773 Clouds 15 1012 47 10000 5 340 10:47 28.06.2019
5774 Clouds 15 1012 47 10000 5 340 10:23 28.06.2019
5775 Clouds 15 1012 51 10000 5 360 09:59 28.06.2019
5776 Clouds 15 1011 51 10000 5 340 09:41 28.06.2019
5777 Clouds 15 1011 51 10000 5 340 09:22 28.06.2019
5778 Clouds 13 1012 58 10000 4 350 08:41 28.06.2019
5779 Clouds 13 1012 58 10000 4 350 08:23 28.06.2019
5780 Clouds 13 1011 58 10000 5 350 07:41 28.06.2019
5781 Clouds 12 1011 66 10000 4 360 06:40 28.06.2019
5782 Rain 10 1010 100 10000 4 320 02:56 28.06.2019
5783 Rain 9 1010 100 10000 2 310 00:45 28.06.2019
5784 Rain 9 1010 100 10000 3 330 23:58 27.06.2019
5785 Rain 9 1010 100 7000 4 310 23:40 27.06.2019
5786 Rain 9 1010 100 7000 4 310 23:21 27.06.2019
5787 Rain 9 1010 100 10000 3 320 22:42 27.06.2019
5788 Rain 9 1010 100 10000 3 320 22:24 27.06.2019
5789 Rain 9 1010 100 10000 3 320 21:56 27.06.2019
5790 Rain 9 1010 100 10000 4 320 21:37 27.06.2019
5791 Rain 9 1010 100 9000 3 320 21:19 27.06.2019
5792 Rain 9 1010 100 10000 3 330 20:45 27.06.2019
5793 Rain 9 1010 100 10000 3 330 20:45 27.06.2019
5794 Rain 9 1010 100 10000 3 330 20:26 27.06.2019
5795 Rain 9 1010 100 10000 4 300 19:46 27.06.2019
5796 Rain 9 1010 100 10000 4 300 19:27 27.06.2019
5797 Rain 10 1011 93 10000 4 300 18:44 27.06.2019
5798 Rain 10 1011 93 10000 4 300 18:26 27.06.2019
5799 Clouds 11 1011 76 10000 4 330 17:47 27.06.2019
5800 Clouds 11 1011 76 10000 4 330 17:23 27.06.2019
5801 Clouds 11 1010 71 10000 5 330 16:55 27.06.2019
5802 Clouds 11 1011 71 10000 5 330 16:36 27.06.2019
5803 Clouds 12 1011 66 10000 5 330 16:18 27.06.2019
5804 Clouds 12 1011 66 10000 5 330 15:44 27.06.2019
5805 Clouds 12 1011 66 10000 5 330 15:18 27.06.2019
5806 Clouds 12 1011 66 10000 6 340 14:42 27.06.2019
5807 Clouds 12 1011 71 10000 6 360 14:24 27.06.2019
5808 Clouds 12 1011 66 10000 5 350 13:46 27.06.2019
5809 Clouds 12 1011 66 10000 5 350 13:27 27.06.2019
5810 Clouds 12 1010 71 10000 6 330 12:51 27.06.2019
5811 Clouds 12 1010 71 10000 6 330 12:33 27.06.2019
5812 Clouds 13 1010 62 10000 6 340 11:55 27.06.2019
5813 Clouds 13 1010 66 10000 5 330 11:36 27.06.2019
5814 Clouds 13 1010 62 10000 6 340 11:18 27.06.2019
5815 Clouds 13 1009 62 10000 7 340 10:42 27.06.2019
5816 Clouds 13 1009 62 10000 7 340 10:20 27.06.2019
5817 Clouds 13 1009 62 10000 6 340 09:50 27.06.2019
5818 Clouds 13 1009 62 10000 6 340 09:21 27.06.2019
5819 Clouds 12 1009 62 10000 7 340 08:51 27.06.2019
5820 Clouds 12 1009 62 10000 7 340 08:30 27.06.2019
5821 Clouds 12 1009 66 10000 6 340 07:48 27.06.2019
5822 Clouds 12 1009 66 10000 6 340 07:48 27.06.2019
5823 Clouds 12 1009 66 10000 6 340 07:25 27.06.2019
5824 Clouds 12 1009 66 10000 7 330 06:39 27.06.2019
5825 Clouds 11 1008 76 10000 7 330 03:53 27.06.2019
5826 Clouds 10 1008 87 10000 5 340 02:43 27.06.2019
5827 Clouds 11 1007 76 10000 6 340 01:48 27.06.2019
5828 Clouds 11 1007 76 10000 7 340 00:56 27.06.2019
5829 Clouds 11 1007 81 10000 6 330 00:36 27.06.2019
5830 Clouds 10 1006 87 10000 5 340 00:18 27.06.2019
5831 Clear 10 1006 87 10000 5 340 23:24 26.06.2019
5832 Clouds 10 1006 87 10000 6 340 22:59 26.06.2019
5833 Clouds 10 1007 93 10000 6 340 22:41 26.06.2019
5834 Clouds 10 1007 93 10000 6 340 22:20 26.06.2019
5835 Rain 10 1007 93 10000 6 350 21:55 26.06.2019
5836 Rain 10 1007 93 10000 7 350 21:37 26.06.2019
5837 Rain 9 1007 100 10000 6 340 21:18 26.06.2019
5838 Rain 9 1007 100 10000 6 340 20:40 26.06.2019
5839 Rain 9 1007 100 10000 6 340 20:40 26.06.2019
5840 Rain 9 1007 100 10000 6 340 20:22 26.06.2019
5841 Rain 9 1007 100 10000 6 340 19:44 26.06.2019
5842 Rain 9 1007 100 10000 6 340 19:25 26.06.2019
5843 Rain 9 1008 100 8000 6 340 18:48 26.06.2019
5844 Rain 9 1008 100 8000 6 340 18:23 26.06.2019
5845 Rain 9 1008 100 9000 7 350 17:59 26.06.2019
5846 Clouds 9 1008 100 10000 7 360 17:38 26.06.2019
5847 Rain 9 1008 100 9000 7 360 17:19 26.06.2019
5848 Rain 9 1008 100 6000 6 350 16:46 26.06.2019
5849 Rain 9 1008 100 6000 6 350 16:24 26.06.2019
5850 Clouds 10 1008 93 10000 5 360 15:48 26.06.2019
5851 Clouds 10 1008 93 10000 5 360 15:26 26.06.2019
5852 Rain 9 1008 100 4500 4 20 14:38 26.06.2019
5853 Rain 9 1009 100 5000 5 20 14:20 26.06.2019
5854 Rain 9 1009 100 5000 5 20 13:45 26.06.2019
5855 Rain 9 1009 100 5000 5 20 13:21 26.06.2019
5856 Clouds 10 1009 76 10000 5 30 12:43 26.06.2019
5857 Clouds 10 1009 76 10000 5 30 12:25 26.06.2019
5858 Rain 10 1009 76 9000 6 40 11:51 26.06.2019
5859 Rain 10 1010 76 10000 6 40 11:23 26.06.2019
5860 Rain 11 1010 66 10000 6 40 10:48 26.06.2019
5861 Rain 11 1010 66 10000 6 40 10:29 26.06.2019
5862 Clouds 11 1010 62 10000 7 50 09:51 26.06.2019
5863 Clouds 11 1010 62 10000 6 40 09:26 26.06.2019
5864 Rain 11 1010 66 10000 6 40 08:49 26.06.2019
5865 Rain 11 1010 66 10000 6 40 08:20 26.06.2019
5866 Rain 10 1010 71 10000 5 60 07:52 26.06.2019
5867 Rain 10 1010 71 10000 5 60 07:34 26.06.2019
5868 Rain 10 1012 76 10000 6 50 06:32 26.06.2019
5869 Clear 10 1014 76 10000 3 50 01:31 26.06.2019
5870 Clear 10 1015 76 10000 3 40 00:25 26.06.2019
5871 Clear 11 1015 71 10000 3 40 23:48 25.06.2019
5872 Clear 11 1015 71 10000 3 40 23:28 25.06.2019
5873 Clear 11 1015 66 10000 4 40 22:59 25.06.2019
5874 Clear 11 1015 66 10000 3 40 22:40 25.06.2019
5875 Clear 11 1015 66 10000 3 40 22:21 25.06.2019
5876 Clear 12 1015 62 10000 3 30 21:45 25.06.2019
5877 Clear 12 1015 62 10000 3 30 21:22 25.06.2019
5878 Clear 12 1015 62 10000 2 40 20:47 25.06.2019
5879 Clear 12 1015 62 10000 2 40 20:47 25.06.2019
5880 Clear 12 1015 62 10000 2 40 20:47 25.06.2019
5881 Clear 12 1015 62 10000 2 40 20:47 25.06.2019
5882 Clear 12 1015 62 10000 2 40 20:47 25.06.2019
5883 Clear 12 1015 62 10000 2 40 20:23 25.06.2019
5884 Clear 13 1015 58 10000 3 10 19:54 25.06.2019
5885 Clear 13 1015 58 10000 2 10 19:36 25.06.2019
5886 Clear 14 1015 58 10000 3 10 19:18 25.06.2019
5887 Clear 14 1015 58 10000 3 20 18:40 25.06.2019
5888 Clear 15 1015 54 10000 3 20 18:21 25.06.2019
5889 -273 0 0 0 0 0 17:38 25.06.2019
5890 Clear 15 1015 54 10000 4 20 17:19 25.06.2019
5891 Clear 15 1015 54 10000 4 20 17:19 25.06.2019
5892 Clear 15 1015 54 10000 4 20 17:19 25.06.2019
5893 Clear 15 1015 54 10000 4 20 17:19 25.06.2019
5894 Clear 15 1015 54 10000 3 360 16:42 25.06.2019
5895 Clear 15 1015 54 10000 3 360 16:24 25.06.2019
5896 Clear 17 1015 48 10000 4 340 15:43 25.06.2019
5897 Clear 17 1015 48 10000 4 340 15:24 25.06.2019
5898 Clear 17 1015 45 10000 4 20 14:55 25.06.2019
5899 Clear 17 1014 48 10000 4 10 14:36 25.06.2019
5900 Clear 17 1014 48 10000 5 20 13:50 25.06.2019
5901 Clouds 17 1014 48 10000 4 10 13:30 25.06.2019
5902 Clouds 16 1014 55 10000 5 20 12:58 25.06.2019
5903 Clear 17 1014 51 10000 4 10 12:38 25.06.2019
5904 Clear 17 1014 51 10000 5 350 12:20 25.06.2019
5905 Clouds 17 1014 51 10000 5 20 11:44 25.06.2019
5906 Clouds 17 1014 51 10000 5 20 11:21 25.06.2019
5907 Clouds 17 1013 55 10000 5 340 10:46 25.06.2019
5908 Clouds 17 1013 55 10000 5 340 10:24 25.06.2019
5909 Clouds 17 1013 55 10000 5 350 09:56 25.06.2019
5910 Clouds 16 1013 59 10000 4 360 09:38 25.06.2019
5911 Clouds 16 1013 63 10000 4 350 09:19 25.06.2019
5912 Clouds 16 1012 72 10000 5 340 08:48 25.06.2019
5913 Clouds 16 1012 72 10000 5 340 08:28 25.06.2019
5914 Clouds 15 1012 72 10000 6 330 07:42 25.06.2019
5915 Clouds 15 1012 67 10000 6 340 06:59 25.06.2019
5916 Clouds 16 1011 72 10000 7 340 06:40 25.06.2019
5917 Clouds 16 1010 77 10000 4 20 04:24 25.06.2019
5918 Clear 13 1009 93 10000 3 300 02:23 25.06.2019
5919 Clear 11 1008 100 10000 1 0 00:38 25.06.2019
5920 Clear 11 1008 100 10000 2.73 359.161 00:18 25.06.2019
5921 Clear 12 1008 93 10000 2.73 359.161 23:42 24.06.2019
5922 Clear 12 1008 93 10000 2.73 359.161 23:23 24.06.2019
5923 Clear 14 1008 76 10000 2 320 22:44 24.06.2019
5924 Clouds 14 1008 76 10000 5 310 22:19 24.06.2019
5925 Clear 13 1007 82 10000 1 0 21:42 24.06.2019
5926 Clear 14 1007 76 10000 2 330 21:19 24.06.2019
5927 Clear 14 1007 76 10000 2 330 20:58 24.06.2019
5928 Clear 16 1007 67 10000 2 360 20:40 24.06.2019
5929 Clear 16 1007 67 10000 2 360 20:21 24.06.2019
5930 Clear 17 1007 63 10000 4 330 19:46 24.06.2019
5931 Clear 17 1007 63 10000 4 330 19:21 24.06.2019
5932 Clouds 19 1007 59 10000 3 240 18:48 24.06.2019
5933 Clouds 19 1007 59 10000 3 240 18:29 24.06.2019
5934 Clouds 20 1007 56 10000 4 250 17:57 24.06.2019
5935 Clouds 21 1007 52 10000 5 250 17:36 24.06.2019
5936 Clouds 21 1006 52 10000 5 240 16:55 24.06.2019
5937 Clouds 21 1006 64 10000 4 220 16:36 24.06.2019
5938 Clear 21 1006 68 10000 4 230 16:18 24.06.2019
5939 Clear 20 1006 77 10000 3 210 15:38 24.06.2019
5940 Clear 21 1006 68 10000 4 240 15:19 24.06.2019
5941 Clouds 20 1006 77 10000 4 230 14:34 24.06.2019
5942 Clouds 19 1006 82 10000 4 250 13:51 24.06.2019
5943 Clouds 19 1006 82 10000 4 250 13:29 24.06.2019
5944 Clouds 18 1006 93 10000 4 220 12:45 24.06.2019
5945 Clouds 18 1006 93 10000 4 220 12:22 24.06.2019
5946 Clouds 17 1006 100 10000 4 210 11:58 24.06.2019
5947 Clouds 17 1006 100 10000 3 200 11:40 24.06.2019
5948 Clouds 16 1006 100 10000 3 220 11:20 24.06.2019
5949 Rain 16 1006 100 9000 4 240 10:46 24.06.2019
5950 Rain 17 1006 82 8000 4 240 10:25 24.06.2019
5951 Rain 19 1005 68 9000 6 220 09:49 24.06.2019
5952 Rain 19 1005 68 9000 6 220 09:22 24.06.2019
5953 Clouds 20 1005 60 10000 5 200 08:51 24.06.2019
5954 Clouds 20 1005 56 10000 6 200 08:25 24.06.2019
5955 Clouds 20 1005 56 10000 6 200 08:25 24.06.2019
5956 Clouds 20 1006 56 10000 6 200 07:44 24.06.2019
5957 Clouds 20 1006 56 10000 6 200 07:25 24.06.2019
5958 Clear 20 1006 60 10000 5 190 06:31 24.06.2019
5959 Clear 18 1006 68 10000 5 200 05:57 24.06.2019
5960 Clear 17 1006 67 10000 4 180 04:59 24.06.2019
5961 Clear 16 1006 67 10000 3 190 04:23 24.06.2019
5962 Clear 15 1007 62 10000 4 190 02:55 24.06.2019
5963 Clear 15 1007 62 10000 3 190 01:59 24.06.2019
5964 Clear 14 1007 67 10000 2 200 01:41 24.06.2019
5965 Clear 14 1007 67 10000 2 180 01:21 24.06.2019
5966 Clear 13 1007 71 10000 2 160 00:38 24.06.2019
5967 Clear 13 1008 71 10000 3 160 00:18 24.06.2019
5968 Clear 13 1008 76 10000 2 140 23:43 23.06.2019
5969 Clear 13 1008 76 10000 2 140 23:21 23.06.2019
5970 Clear 13 1008 76 10000 3 140 22:42 23.06.2019
5971 Clear 13 1008 76 10000 4 140 22:20 23.06.2019
5972 Clear 12 1009 81 10000 4 140 21:44 23.06.2019
5973 Clear 12 1009 81 10000 4 140 21:25 23.06.2019
5974 Clear 12 1009 76 10000 3 130 20:58 23.06.2019
5975 Clear 13 1009 71 10000 3 130 20:38 23.06.2019
5976 Clear 13 1009 71 10000 4 130 20:20 23.06.2019
5977 Clear 14 1009 62 10000 3 130 19:43 23.06.2019
5978 Clear 14 1009 62 10000 4 130 19:20 23.06.2019
5979 Clear 15 1009 58 10000 3 110 18:48 23.06.2019
5980 Clear 16 1009 55 10000 3 110 18:20 23.06.2019
5981 Clear 17 1009 51 10000 3 130 17:46 23.06.2019
5982 Clear 17 1009 51 10000 3 130 17:25 23.06.2019
5983 Clear 18 1009 48 10000 3 130 16:47 23.06.2019
5984 Clear 18 1009 48 10000 3 130 16:27 23.06.2019
5985 Clear 18 1009 48 10000 3 130 15:59 23.06.2019
5986 Clear 18 1010 45 10000 1 0 15:40 23.06.2019
5987 Clear 18 1010 48 10000 2 170 15:19 23.06.2019
5988 Clear 18 1010 45 10000 3 150 14:39 23.06.2019
5989 Clear 18 1010 45 10000 3 150 14:21 23.06.2019
5990 Clear 17 1010 48 10000 3 180 13:54 23.06.2019
5991 Clear 18 1010 45 10000 1 0 13:36 23.06.2019
5992 Clouds 18 1010 45 10000 3 140 13:18 23.06.2019
5993 Clear 18 1010 45 10000 3 160 12:42 23.06.2019
5994 Clear 18 1010 45 10000 1 0 12:20 23.06.2019
5995 Clear 18 1010 42 10000 3 10 11:49 23.06.2019
5996 Clear 18 1010 42 10000 3 10 11:28 23.06.2019
5997 Clear 18 1010 42 10000 3 10 11:28 23.06.2019
5998 Clear 18 1010 42 10000 2 30 10:51 23.06.2019
5999 Clear 17 1011 45 10000 2 350 10:22 23.06.2019
6000 Clouds 16 1011 48 10000 3 80 09:58 23.06.2019
6001 Clouds 17 1011 45 10000 2 10 09:25 23.06.2019
6002 Clear 16 1012 44 10000 4 50 08:55 23.06.2019
6003 Clear 16 1012 44 10000 4 50 08:36 23.06.2019
6004 Clear 15 1012 47 10000 3 40 08:18 23.06.2019
6005 Clear 15 1012 47 10000 3 50 07:45 23.06.2019
6006 Clear 14 1012 50 10000 3 20 07:19 23.06.2019
6007 Clear 14 1013 54 10000 2 330 06:52 23.06.2019
6008 Clear 13 1013 54 10000 2 40 05:53 23.06.2019
6009 Clear 11 1013 71 10000 1.47 74.284 02:52 23.06.2019
6010 Clear 6 1013 87 10000 1.47 74.284 01:42 23.06.2019
6011 Clear 6 1013 87 10000 1.5 76.417 01:24 23.06.2019
6012 Clear 3 1013 100 10000 1.5 76.417 00:32 23.06.2019
6013 Clear 5 1013 100 10000 1.83 26.453 23:49 22.06.2019
6014 Clear 5 1013 100 10000 1.83 26.453 23:26 22.06.2019
6015 Clear 5 1013 100 10000 1 290 22:47 22.06.2019
6016 Clear 5 1013 100 10000 1 290 22:29 22.06.2019
6017 Clear 5 1013 100 10000 2 300 21:59 22.06.2019
6018 Clear 6 1013 100 10000 2 280 21:36 22.06.2019
6019 Clear 7 1013 87 10000 1 360 21:18 22.06.2019
6020 Clear 8 1013 81 10000 2 360 20:45 22.06.2019
6021 Clear 9 1013 76 10000 2 10 20:24 22.06.2019
6022 Clear 10 1013 71 10000 2 340 19:42 22.06.2019
6023 Clear 10 1013 71 10000 2 340 19:21 22.06.2019
6024 Clear 11 1013 62 10000 4 350 18:43 22.06.2019
6025 Clear 11 1013 62 10000 4 350 18:23 22.06.2019
6026 Clear 12 1013 58 10000 4 360 17:46 22.06.2019
6027 Clear 12 1013 58 10000 4 360 17:26 22.06.2019
6028 Clear 13 1013 58 10000 5 10 16:44 22.06.2019
6029 Clear 13 1013 58 10000 5 10 16:24 22.06.2019
6030 Clouds 14 1012 54 10000 5 360 15:46 22.06.2019
6031 Clouds 14 1012 54 10000 5 360 15:27 22.06.2019
6032 Clouds 13 1012 58 10000 4 360 14:52 22.06.2019
6033 Clouds 14 1012 50 10000 4 10 14:32 22.06.2019
6034 Clouds 14 1012 50 10000 5 360 13:58 22.06.2019
6035 Clouds 15 1012 51 10000 5 360 13:39 22.06.2019
6036 Clouds 14 1012 50 10000 5 350 13:19 22.06.2019
6037 Clouds 15 1011 51 10000 5 360 12:43 22.06.2019
6038 Clouds 14 1011 54 10000 5 360 12:20 22.06.2019
6039 Clouds 14 1011 50 10000 4 350 11:41 22.06.2019
6040 Clouds 14 1011 50 10000 6 360 11:19 22.06.2019
6041 Clouds 13 1011 54 10000 5 10 10:22 22.06.2019
6042 Clouds 13 1011 54 10000 5 10 09:58 22.06.2019
6043 Clouds 12 1011 58 10000 5 10 09:36 22.06.2019
6044 Clouds 11 1011 66 10000 5 360 08:49 22.06.2019
6045 Clouds 11 1011 66 10000 5 360 08:31 22.06.2019
6046 Clouds 10 1011 66 10000 5 350 07:52 22.06.2019
6047 Clouds 10 1010 71 10000 5 350 07:24 22.06.2019
6048 Clouds 10 1009 66 10000 6 340 06:41 22.06.2019
6049 Clouds 9 1008 76 10000 6 340 03:42 22.06.2019
6050 Clouds 8 1008 81 10000 5 340 02:24 22.06.2019
6051 Clouds 9 1007 76 10000 4 330 00:54 22.06.2019
6052 Clouds 8 1007 81 10000 4 320 00:30 22.06.2019
6053 Clouds 8 1005 81 10000 4 330 23:50 21.06.2019
6054 Clouds 8 1005 81 10000 4 330 23:23 21.06.2019
6055 Clouds 8 1005 87 10000 3 320 22:57 21.06.2019
6056 Clear 9 1005 81 10000 3 320 22:39 21.06.2019
6057 Clear 9 1005 81 10000 5 330 22:19 21.06.2019
6058 Clouds 10 1005 81 10000 5 330 21:39 21.06.2019
6059 Clouds 11 1005 87 10000 5 300 21:20 21.06.2019
6060 Clouds 11 1005 87 10000 4 300 20:48 21.06.2019
6061 Clouds 11 1005 87 10000 4 300 20:26 21.06.2019
6062 Clouds 12 1004 76 10000 6 310 19:48 21.06.2019
6063 Clouds 12 1004 76 10000 6 310 19:22 21.06.2019
6064 Clouds 13 1004 71 10000 3 280 18:41 21.06.2019
6065 Clouds 13 1004 71 10000 3 280 18:22 21.06.2019
6066 Clouds 14 1003 62 10000 6 280 17:31 21.06.2019
6067 Clouds 14 1003 67 10000 6 280 16:56 21.06.2019
6068 Clouds 14 1003 62 10000 7 280 16:36 21.06.2019
6069 Clouds 14 1003 62 10000 8 280 16:18 21.06.2019
6070 Clouds 14 1003 62 10000 9 280 15:37 21.06.2019
6071 Clear 15 1002 62 10000 10 290 14:57 21.06.2019
6072 Clouds 15 1002 67 10000 9 280 14:38 21.06.2019
6073 Clouds 16 1001 63 10000 10 280 14:20 21.06.2019
6074 Clouds 15 1001 67 10000 11 270 13:39 21.06.2019
6075 Clouds 17 1000 59 10000 11 260 13:21 21.06.2019
6076 Clouds 17 999 63 10000 11 250 12:49 21.06.2019
6077 Clouds 17 999 63 10000 11 250 12:23 21.06.2019
6078 Clouds 17 999 63 10000 11 250 12:23 21.06.2019
6079 Clouds 17 999 63 10000 10 250 11:49 21.06.2019
6080 Clouds 17 999 63 10000 10 250 11:28 21.06.2019
6081 Clouds 17 998 72 10000 9 250 10:59 21.06.2019
6082 Clouds 16 998 87 10000 9 250 10:40 21.06.2019
6083 Clouds 16 997 93 10000 8 230 10:20 21.06.2019
6084 Clouds 17 997 82 10000 8 220 09:43 21.06.2019
6085 Clouds 17 997 82 10000 8 220 09:22 21.06.2019
6086 Rain 17 997 88 10000 6 230 08:55 21.06.2019
6087 Clouds 16 997 100 10000 5 230 08:37 21.06.2019
6088 Rain 15 997 100 10000 5 210 08:18 21.06.2019
6089 Rain 15 997 100 9000 5 190 07:40 21.06.2019
6090 Rain 14 998 100 9000 5 190 06:59 21.06.2019
6091 Clouds 14 998 100 10000 4 170 06:25 21.06.2019
6092 Rain 13 999 100 10000 5 150 05:33 21.06.2019
6093 Rain 12 1000 100 8000 4 120 04:36 21.06.2019
6094 Rain 13 1001 100 10000 3 100 03:35 21.06.2019
6095 Rain 13 1002 100 10000 3 110 02:59 21.06.2019
6096 Rain 13 1003 100 10000 1 0 01:59 21.06.2019
6097 Clouds 14 1003 100 10000 2.44 142.797 01:25 21.06.2019
6098 Clear 14 1004 100 10000 2 170 00:27 21.06.2019
6099 Clear 14 1004 100 10000 2 180 23:54 20.06.2019
6100 Clear 13 1004 100 10000 2 110 23:24 20.06.2019
6101 Clear 14 1005 100 10000 3 170 22:59 20.06.2019
6102 Clear 14 1005 100 10000 3 180 22:40 20.06.2019
6103 Clear 14 1005 100 10000 3 180 22:21 20.06.2019
6104 Clear 15 1005 87 10000 3 190 21:54 20.06.2019
6105 Clouds 15 1006 82 10000 2 200 21:36 20.06.2019
6106 Clouds 16 1006 82 10000 3 180 21:18 20.06.2019
6107 Clouds 16 1006 77 10000 3 190 20:41 20.06.2019
6108 Clouds 16 1006 77 10000 3 190 20:21 20.06.2019
6109 Clouds 16 1006 77 10000 3 200 19:43 20.06.2019
6110 Clouds 16 1006 72 10000 3 190 19:19 20.06.2019
6111 Clouds 16 1006 72 10000 3 190 18:56 20.06.2019
6112 Clear 17 1006 67 10000 3 200 18:38 20.06.2019
6113 Clear 17 1006 72 10000 4 180 18:20 20.06.2019
6114 Clear 17 1006 67 10000 3 140 17:45 20.06.2019
6115 Clear 17 1006 67 10000 3 140 17:22 20.06.2019
6116 Clear 18 1006 59 10000 1 0 16:41 20.06.2019
6117 Clear 18 1006 55 10000 3 150 16:19 20.06.2019
6118 Clear 19 1006 52 10000 3 160 15:43 20.06.2019
6119 Clear 19 1006 52 10000 3 160 15:23 20.06.2019
6120 -273 0 0 0 0 0 14:57 20.06.2019
6121 Clouds 19 1007 55 10000 4 200 14:38 20.06.2019
6122 Clouds 19 1007 52 10000 6 200 14:19 20.06.2019
6123 Clouds 19 1006 52 10000 5 180 13:39 20.06.2019
6124 Clouds 20 1006 42 10000 4 140 13:18 20.06.2019
6125 Clear 20 1006 42 10000 3 150 12:42 20.06.2019
6126 Clear 19 1007 42 10000 2 170 12:21 20.06.2019
6127 Clear 19 1007 48 10000 1 0 11:41 20.06.2019
6128 Clear 19 1007 48 10000 1 0 11:23 20.06.2019
6129 Clouds 19 1007 45 10000 2 200 10:45 20.06.2019
6130 Clouds 19 1007 45 10000 2 200 10:24 20.06.2019
6131 Clear 18 1007 42 10000 3 220 09:55 20.06.2019
6132 Clouds 18 1007 42 10000 3 190 09:37 20.06.2019
6133 Clouds 18 1007 45 10000 4 230 09:19 20.06.2019
6134 Clouds 18 1007 45 10000 3 200 08:44 20.06.2019
6135 Clouds 18 1007 45 10000 3 200 08:23 20.06.2019
6136 Clouds 17 1007 59 10000 3 230 07:47 20.06.2019
6137 Clouds 17 1007 59 10000 3 230 07:25 20.06.2019
6138 Clear 14 1007 76 10000 4 190 06:20 20.06.2019
6139 Rain 10 1007 100 10000 1 0 03:41 20.06.2019
6140 Rain 10 1008 76 10000 1 0 02:26 20.06.2019
6141 Clouds 12 1007 58 10000 2 180 00:33 20.06.2019
6142 Clear 13 1007 50 10000 3 190 23:48 19.06.2019
6143 Clear 13 1007 50 10000 3 190 23:29 19.06.2019
6144 Clear 11 1007 62 10000 2 170 22:49 19.06.2019
6145 Clear 11 1007 62 10000 2 170 22:24 19.06.2019
6146 Clear 11 1007 62 10000 2 170 21:58 19.06.2019
6147 Clear 10 1007 66 10000 1 0 21:38 19.06.2019
6148 Clear 10 1007 66 10000 2 160 21:19 19.06.2019
6149 Clear 8 1007 75 10000 2 150 20:41 19.06.2019
6150 Clear 8 1007 75 10000 2 150 20:21 19.06.2019
6151 Clear 9 1007 70 10000 1 130 19:46 19.06.2019
6152 Clear 9 1007 70 10000 1 130 19:26 19.06.2019
6153 Clear 10 1006 71 10000 1 0 18:56 19.06.2019
6154 Clear 12 1006 58 10000 2 180 18:24 19.06.2019
6155 Clear 14 1006 41 10000 2 190 17:48 19.06.2019
6156 Clear 14 1006 41 10000 2 190 17:27 19.06.2019
6157 Clear 15 1006 38 10000 2 250 16:56 19.06.2019
6158 Clear 15 1006 38 10000 1 0 16:37 19.06.2019
6159 Clear 15 1005 38 10000 3 290 16:19 19.06.2019
6160 Clear 15 1005 38 10000 3 320 15:44 19.06.2019
6161 Clear 15 1005 38 10000 3 320 15:24 19.06.2019
6162 Clear 15 1005 44 10000 5 300 14:43 19.06.2019
6163 Clear 15 1005 44 10000 5 300 14:25 19.06.2019
6164 Clear 15 1005 44 10000 6 290 13:48 19.06.2019
6165 Clear 15 1005 46 10000 6 290 13:29 19.06.2019
6166 Clear 14 1004 46 10000 6 300 12:59 19.06.2019
6167 Clear 15 1004 41 10000 6 300 12:41 19.06.2019
6168 Clouds 14 1004 50 10000 5 310 12:19 19.06.2019
6169 Clouds 14 1003 54 10000 4 330 11:43 19.06.2019
6170 Clouds 14 1003 54 10000 4 330 11:21 19.06.2019
6171 Clear 14 1003 50 10000 5 330 10:49 19.06.2019
6172 Clear 14 1003 50 10000 5 330 10:28 19.06.2019
6173 Clear 14 1003 50 10000 5 330 10:28 19.06.2019
6174 Clouds 13 1003 54 10000 7 330 09:56 19.06.2019
6175 Clouds 12 1002 58 10000 5 340 09:38 19.06.2019
6176 Clouds 12 1002 58 10000 5 340 09:38 19.06.2019
6177 Clouds 13 1002 54 10000 5 320 09:18 19.06.2019
6178 Clouds 10 1002 71 10000 5 330 08:43 19.06.2019
6179 Clouds 10 1002 71 10000 5 330 08:25 19.06.2019
6180 Clouds 12 1001 62 10000 6 310 07:44 19.06.2019
6181 Clouds 12 1001 62 10000 6 310 07:23 19.06.2019
6182 Clouds 10 1001 76 10000 4 320 06:42 19.06.2019
6183 Clouds 11 1001 66 10000 6 290 06:19 19.06.2019
6184 Clouds 12 1001 62 10000 6 290 05:32 19.06.2019
6185 Clear 11 1000 71 10000 5 310 03:58 19.06.2019
6186 Clear 10 1000 81 10000 3 290 02:52 19.06.2019
6187 Clear 8 1000 100 10000 3 290 01:44 19.06.2019
6188 Clear 8 1000 100 10000 2 290 00:56 19.06.2019
6189 Clear 8 1000 100 10000 2 290 00:56 19.06.2019
6190 Clear 8 1000 100 10000 3 290 00:38 19.06.2019
6191 Clear 8 1000 100 10000 3 290 00:18 19.06.2019
6192 Clear 8 1000 100 10000 3 300 23:42 18.06.2019
6193 Clear 8 1000 100 10000 3 300 23:24 18.06.2019
6194 Clear 9 1000 100 10000 3 300 22:41 18.06.2019
6195 Clear 9 1000 100 10000 3 300 22:23 18.06.2019
6196 Clear 10 1000 100 10000 2 290 21:47 18.06.2019
6197 Clear 10 1000 100 10000 2 290 21:23 18.06.2019
6198 Clouds 10 1000 100 10000 3 290 20:59 18.06.2019
6199 Clouds 11 1000 100 10000 2 270 20:40 18.06.2019
6200 Clouds 11 1000 100 10000 2 270 20:21 18.06.2019
6201 Clouds 11 1000 87 10000 2 300 19:40 18.06.2019
6202 Clouds 11 1000 87 10000 2 300 19:22 18.06.2019
6203 Clouds 11 1000 87 10000 2 310 18:55 18.06.2019
6204 Clouds 12 1000 76 10000 2 350 18:25 18.06.2019
6205 Clouds 11 1000 87 10000 2 340 17:55 18.06.2019
6206 Clouds 11 1000 87 10000 2 340 17:36 18.06.2019
6207 Clouds 12 1000 81 10000 2 20 17:18 18.06.2019
6208 Rain 13 1000 71 10000 4 230 16:42 18.06.2019
6209 Rain 13 1000 71 10000 4 230 16:22 18.06.2019
6210 Rain 16 1000 55 10000 7 300 15:42 18.06.2019
6211 Rain 16 1000 55 10000 7 300 15:23 18.06.2019
6212 Rain 16 1000 55 10000 6 270 14:56 18.06.2019
6213 Clouds 18 999 42 10000 3 300 14:38 18.06.2019
6214 Rain 17 999 48 10000 5 290 14:19 18.06.2019
6215 Clouds 18 999 45 10000 5 250 13:49 18.06.2019
6216 Clouds 18 999 45 10000 5 250 13:29 18.06.2019
6217 Rain 18 999 42 10000 5 250 12:46 18.06.2019
6218 Rain 18 999 42 10000 5 250 12:28 18.06.2019
6219 Rain 18 999 39 10000 6 230 11:50 18.06.2019
6220 Rain 18 999 39 10000 6 230 11:24 18.06.2019
6221 Rain 18 999 39 10000 5 200 10:59 18.06.2019
6222 Clouds 18 999 39 10000 5 200 10:40 18.06.2019
6223 Clouds 18 1000 39 10000 5 200 10:21 18.06.2019
6224 Clouds 18 1000 39 10000 5 200 09:51 18.06.2019
6225 Clouds 17 1000 42 10000 5 220 09:24 18.06.2019
6226 Rain 16 1000 44 10000 5 230 08:49 18.06.2019
6227 Rain 16 1000 44 10000 5 230 08:23 18.06.2019
6228 Rain 17 1000 42 10000 6 220 07:55 18.06.2019
6229 Clear 16 1000 44 10000 5 220 07:25 18.06.2019
6230 Clear 16 1000 44 10000 5 230 06:52 18.06.2019
6231 Clear 14 1000 50 10000 4 230 05:24 18.06.2019
6232 Clear 12 1000 62 10000 4 220 04:21 18.06.2019
6233 Clear 10 1000 76 10000 2 230 02:47 18.06.2019
6234 Clear 8 1000 87 10000 2 220 01:27 18.06.2019
6235 Clear 6 1000 100 10000 1 0 00:58 18.06.2019
6236 Clear 5 1000 100 10000 4.04 243.276 00:30 18.06.2019
6237 Clear 5 1000 100 10000 3.77 260.755 23:42 17.06.2019
6238 Clear 5 1000 100 10000 3.77 260.755 23:42 17.06.2019
6239 Clear 5 1000 100 10000 1 0 23:24 17.06.2019
6240 Clear 5 1000 100 10000 1 0 22:58 17.06.2019
6241 Clear 5 1000 100 10000 3.77 260.755 22:39 17.06.2019
6242 Clear 6 1000 87 10000 3.77 260.755 22:20 17.06.2019
6243 Clear 6 1000 87 10000 3.77 260.755 21:45 17.06.2019
6244 Clear 6 1000 87 10000 2.81 259.382 21:23 17.06.2019
6245 Clear 6 1000 87 10000 2.81 259.382 21:23 17.06.2019
6246 Clear 7 1001 87 10000 2.81 259.382 20:42 17.06.2019
6247 Clear 7 1001 87 10000 2.75 260.469 20:23 17.06.2019
6248 Clear 8 1001 81 10000 1 0 19:57 17.06.2019
6249 Clear 8 1001 81 10000 2.75 260.469 19:39 17.06.2019
6250 Clear 10 1001 71 10000 1 0 19:20 17.06.2019
6251 Clear 11 1001 66 10000 2 280 18:39 17.06.2019
6252 Clear 11 1001 66 10000 2 280 18:39 17.06.2019
6253 Clear 13 1000 50 10000 4 270 18:18 17.06.2019
6254 Clear 13 1000 50 10000 4 270 18:18 17.06.2019
6255 Clear 13 1000 50 10000 4 270 17:48 17.06.2019
6256 Clear 13 1000 50 10000 4 270 17:29 17.06.2019
6257 Clear 14 1000 44 10000 5 270 16:59 17.06.2019
6258 Clear 14 1000 47 10000 4 290 16:39 17.06.2019
6259 Clouds 14 1000 50 10000 3 230 16:21 17.06.2019
6260 Clouds 14 1000 54 10000 3 280 15:44 17.06.2019
6261 Clouds 14 1000 54 10000 6 290 15:20 17.06.2019
6262 Clouds 14 1000 54 10000 6 290 14:56 17.06.2019
6263 Clouds 14 1000 54 10000 6 270 14:37 17.06.2019
6264 Rain 14 1000 50 10000 5 270 14:18 17.06.2019
6265 Clouds 14 1000 47 10000 6 290 13:41 17.06.2019
6266 Clouds 15 999 47 10000 4 320 13:21 17.06.2019
6267 Clouds 15 999 51 10000 5 270 12:42 17.06.2019
6268 Clouds 15 999 54 10000 5 280 12:21 17.06.2019
6269 Clouds 14 999 54 10000 5 290 11:43 17.06.2019
6270 Clouds 14 999 54 10000 5 290 11:25 17.06.2019
6271 -273 0 0 0 0 0 10:48 17.06.2019
6272 Clouds 11 999 81 10000 2 300 10:48 17.06.2019
6273 Clouds 11 999 81 10000 2 300 10:29 17.06.2019
6274 Clouds 11 999 81 10000 3 300 09:56 17.06.2019
6275 Rain 11 999 100 10000 4 270 09:35 17.06.2019
6276 Clouds 11 999 93 10000 4 290 08:58 17.06.2019
6277 Rain 11 999 93 10000 4 280 08:38 17.06.2019
6278 Rain 10 999 100 10000 6 280 08:20 17.06.2019
6279 Rain 10 999 100 10000 5 250 07:39 17.06.2019
6280 Rain 10 998 100 10000 6 270 07:19 17.06.2019
6281 Rain 12 998 76 10000 5 200 06:23 17.06.2019
6282 Rain 12 998 81 10000 4 200 05:31 17.06.2019
6283 Clouds 11 998 87 10000 3 180 04:33 17.06.2019
6284 Clouds 11 998 87 10000 3 200 03:33 17.06.2019
6285 Clouds 11 998 87 10000 4 190 02:49 17.06.2019
6286 Clouds 11 998 87 10000 4 190 02:31 17.06.2019
6287 Clouds 11 998 81 10000 4 190 01:38 17.06.2019
6288 Clouds 11 998 81 10000 4 190 00:58 17.06.2019
6289 Clouds 11 998 81 10000 3 190 00:38 17.06.2019
6290 Clouds 11 999 81 10000 4 190 00:19 17.06.2019
6291 Clouds 11 999 81 10000 4 190 23:40 16.06.2019
6292 Clouds 12 999 76 10000 5 190 23:20 16.06.2019
6293 Clouds 12 999 76 10000 3 170 22:45 16.06.2019
6294 Clouds 12 999 76 10000 3 160 22:21 16.06.2019
6295 Clouds 12 999 76 10000 3 160 21:59 16.06.2019
6296 Clouds 12 999 76 10000 3 190 21:40 16.06.2019
6297 Clouds 12 999 76 10000 3 200 21:21 16.06.2019
6298 Clouds 12 999 76 10000 3 200 20:54 16.06.2019
6299 Rain 12 999 76 10000 3 190 20:36 16.06.2019
6300 Rain 12 1000 81 10000 2 190 20:18 16.06.2019
6301 Clouds 12 1000 81 10000 1 0 19:39 16.06.2019
6302 Clouds 12 1000 81 10000 2 110 19:21 16.06.2019
6303 Clouds 12 1000 81 10000 2 110 18:57 16.06.2019
6304 Clouds 13 1000 71 10000 1 0 18:36 16.06.2019
6305 Clouds 13 1000 76 10000 2 150 18:18 16.06.2019
6306 Rain 13 1000 76 10000 1 0 17:42 16.06.2019
6307 Clouds 13 1000 71 10000 2 240 17:21 16.06.2019
6308 Clouds 13 1000 71 10000 2 240 16:56 16.06.2019
6309 Clouds 13 1000 66 10000 3 200 16:38 16.06.2019
6310 Clouds 16 1000 48 10000 6 180 16:19 16.06.2019
6311 Clouds 16 1000 44 10000 5 170 15:41 16.06.2019
6312 Clouds 16 1000 44 10000 5 170 15:41 16.06.2019
6313 Clear 16 1000 41 10000 5 160 15:23 16.06.2019
6314 Clear 16 1000 41 10000 5 180 14:41 16.06.2019
6315 Clear 17 1000 39 10000 5 160 14:22 16.06.2019
6316 Clear 16 1000 41 10000 5 160 13:51 16.06.2019
6317 Clear 16 1000 41 10000 5 160 13:51 16.06.2019
6318 Clear 16 1000 41 10000 5 160 13:51 16.06.2019
6319 Clear 16 1000 41 10000 5 160 13:26 16.06.2019
6320 Clear 16 1000 41 10000 5 160 12:56 16.06.2019
6321 Clear 16 1001 38 10000 4 180 12:37 16.06.2019
6322 Clear 16 1001 38 10000 5 210 12:18 16.06.2019
6323 Clear 16 1000 38 10000 4 200 11:38 16.06.2019
6324 Clear 15 1001 41 10000 5 200 11:19 16.06.2019
6325 Clear 15 1001 44 10000 5 210 10:45 16.06.2019
6326 Clear 15 1001 41 10000 5 200 10:20 16.06.2019
6327 Clear 15 1001 41 10000 5 200 10:20 16.06.2019
6328 Clouds 15 1001 44 10000 5 200 09:47 16.06.2019
6329 Clouds 15 1001 44 10000 5 200 09:25 16.06.2019
6330 Clouds 13 1002 50 10000 5 200 08:50 16.06.2019
6331 Clouds 13 1002 50 10000 5 190 08:22 16.06.2019
6332 Clouds 13 1002 54 10000 5 170 07:50 16.06.2019
6333 Clouds 13 1002 54 10000 5 170 07:32 16.06.2019
6334 Clear 13 1002 54 10000 4 170 06:55 16.06.2019
6335 Clear 10 1003 66 10000 4 150 06:20 16.06.2019
6336 Clear 10 1003 66 10000 3 160 05:28 16.06.2019
6337 Clear 9 1003 66 10000 4 190 04:33 16.06.2019
6338 Clear 9 1004 66 10000 3 170 03:44 16.06.2019
6339 Clear 9 1004 66 10000 3 170 03:26 16.06.2019
6340 Clear 8 1004 70 10000 3 180 01:55 16.06.2019
6341 Clear 8 1004 70 10000 3 180 01:37 16.06.2019
6342 Clear 8 1004 70 10000 4 190 00:59 16.06.2019
6343 Clear 8 1004 70 10000 3 190 00:37 16.06.2019
6344 Clear 9 1004 66 10000 2 200 00:18 16.06.2019
6345 Clear 9 1004 66 10000 3 200 23:40 15.06.2019
6346 Clear 9 1004 66 10000 3 200 23:20 15.06.2019
6347 Clear 9 1005 66 10000 2 200 22:49 15.06.2019
6348 Clear 9 1005 66 10000 2 200 22:26 15.06.2019
6349 Clear 9 1005 70 10000 2 190 21:45 15.06.2019
6350 -273 0 0 0 0 0 21:27 15.06.2019
6351 Clear 10 1006 66 10000 3 190 20:46 15.06.2019
6352 Clear 10 1006 66 10000 3 190 20:24 15.06.2019
6353 Clouds 10 1006 66 10000 2 200 19:53 15.06.2019
6354 Clouds 10 1006 66 10000 2 200 19:30 15.06.2019
6355 Clear 11 1006 62 10000 4 200 18:59 15.06.2019
6356 Clear 11 1006 62 10000 2 170 18:37 15.06.2019
6357 Clear 11 1006 57 10000 2 180 18:19 15.06.2019
6358 Clear 11 1006 57 10000 3 190 17:41 15.06.2019
6359 Clouds 11 1006 57 10000 3 200 17:21 15.06.2019
6360 Clouds 11 1006 53 10000 3 200 16:44 15.06.2019
6361 Clouds 11 1006 50 10000 2 210 16:18 15.06.2019
6362 Clear 11 1006 50 10000 2 220 15:42 15.06.2019
6363 Clear 12 1007 36 10000 3 240 15:22 15.06.2019
6364 Clear 11 1007 36 10000 2 180 14:39 15.06.2019
6365 Clouds 11 1007 36 10000 2 220 14:18 15.06.2019
6366 -273 0 0 0 0 0 13:44 15.06.2019
6367 Clouds 11 1007 50 10000 3 220 13:22 15.06.2019
6368 Clouds 11 1007 50 10000 3 220 13:00 15.06.2019
6369 Clouds 11 1007 50 10000 3 230 12:41 15.06.2019
6370 Clouds 11 1007 41 10000 4 200 12:23 15.06.2019
6371 Clouds 11 1007 40 10000 4 210 11:47 15.06.2019
6372 Clouds 11 1007 40 10000 4 210 11:28 15.06.2019
6373 Clouds 10 1007 53 10000 3 220 10:43 15.06.2019
6374 Clouds 10 1007 53 10000 3 220 10:25 15.06.2019
6375 Clouds 10 1007 53 10000 2 210 09:48 15.06.2019
6376 Clouds 10 1007 53 10000 2 210 09:27 15.06.2019
6377 Clouds 9 1007 57 10000 4 250 08:54 15.06.2019
6378 Clouds 9 1007 57 10000 4 250 08:36 15.06.2019
6379 Clouds 9 1007 57 10000 3 270 08:18 15.06.2019
6380 Clouds 8 1007 52 10000 2 270 07:25 15.06.2019
6381 Clouds 7 1007 39 10000 2 310 06:48 15.06.2019
6382 Clouds 7 1007 45 10000 2 290 06:22 15.06.2019
6383 Clouds 6 1007 45 10000 3 270 05:37 15.06.2019
6384 Clouds 6 1007 70 10000 4 270 04:51 15.06.2019
6385 Clear 4 1006 80 10000 3 280 03:51 15.06.2019
6386 Clear 4 1006 80 10000 3 280 03:21 15.06.2019
6387 Clouds 3 1006 93 10000 3 280 02:30 15.06.2019
6388 Clouds 3 1005 100 10000 3 290 01:53 15.06.2019
6389 Clouds 3 1005 93 10000 2 300 01:19 15.06.2019
6390 Clear 3 1005 100 10000 3 310 00:40 15.06.2019
6391 Clouds 3 1005 100 10000 3 310 00:20 15.06.2019
6392 Clouds 3 1005 100 10000 4 300 23:42 14.06.2019
6393 Rain 3 1004 100 10000 5 320 23:18 14.06.2019
6394 Clouds 4 1004 100 10000 3 280 22:41 14.06.2019
6395 Clouds 3 1004 100 10000 3 290 22:21 14.06.2019
6396 Clouds 3 1004 100 10000 2 280 21:48 14.06.2019
6397 Clouds 3 1004 100 10000 2 280 21:27 14.06.2019
6398 Clouds 3 1004 100 10000 1 300 20:44 14.06.2019
6399 Clouds 3 1003 100 10000 2 280 20:19 14.06.2019
6400 Clouds 3 1003 100 10000 2 280 19:58 14.06.2019
6401 Clouds 4 1003 100 10000 2 290 19:39 14.06.2019
6402 Clouds 4 1003 86 10000 2 280 19:19 14.06.2019
6403 Rain 4 1003 93 9000 7 310 18:45 14.06.2019
6404 Rain 4 1003 93 9000 7 310 18:27 14.06.2019
6405 Clouds 6 1003 70 10000 4 250 17:58 14.06.2019
6406 Clouds 6 1002 75 10000 4 240 17:40 14.06.2019
6407 Clear 6 1002 75 10000 4 250 17:21 14.06.2019
6408 Clouds 6 1002 70 10000 4 240 16:48 14.06.2019
6409 -273 0 0 0 0 0 16:22 14.06.2019
6410 -273 0 0 0 0 0 16:22 14.06.2019
6411 Rain 5 1002 75 10000 9 270 15:57 14.06.2019
6412 Clouds 8 1002 52 10000 5 270 15:38 14.06.2019
6413 Clouds 8 1002 52 10000 5 270 15:38 14.06.2019
6414 Clear 8 1002 40 10000 5 260 15:19 14.06.2019
6415 Clear 8 1002 40 10000 5 260 15:19 14.06.2019
6416 Clouds 9 1002 61 10000 6 270 14:43 14.06.2019
6417 Clouds 8 1001 61 10000 6 270 14:25 14.06.2019
6418 Clouds 7 1001 65 10000 4 270 13:45 14.06.2019
6419 Clouds 7 1001 65 10000 4 270 13:26 14.06.2019
6420 Clouds 8 1001 61 10000 7 270 12:49 14.06.2019
6421 Clouds 8 1001 61 10000 7 270 12:49 14.06.2019
6422 Clouds 8 1001 61 10000 7 270 12:27 14.06.2019
6423 Clouds 7 1001 46 10000 7 300 11:59 14.06.2019
6424 Clouds 7 1000 70 10000 9 320 11:41 14.06.2019
6425 Clouds 7 1000 65 10000 6 310 11:23 14.06.2019
6426 Clouds 9 999 49 10000 9 270 10:46 14.06.2019
6427 Clouds 7 999 46 10000 7 290 10:20 14.06.2019
6428 Clouds 7 999 46 10000 7 290 10:20 14.06.2019
6429 Clouds 7 999 46 10000 7 280 09:52 14.06.2019
6430 Clouds 7 999 62 10000 7 280 09:33 14.06.2019
6431 Clouds 7 999 72 10000 6 250 08:48 14.06.2019
6432 Clouds 6 999 75 10000 6 250 08:21 14.06.2019
6433 -273 0 0 0 0 0 07:54 14.06.2019
6434 Clouds 3 999 100 9000 6 230 07:23 14.06.2019
6435 Clouds 7 998 72 10000 7 260 06:52 14.06.2019
6436 Clouds 7 998 72 10000 7 260 06:52 14.06.2019
6437 Clouds 6 998 76 10000 6 260 06:18 14.06.2019
6438 Clouds 5 998 76 10000 5 260 05:35 14.06.2019
6439 Clouds 5 998 75 10000 6 290 04:51 14.06.2019
6440 Clouds 4 998 80 10000 5 280 04:18 14.06.2019
6441 Clouds 4 998 86 10000 5 270 03:26 14.06.2019
6442 Clouds 3 998 100 10000 4 280 02:58 14.06.2019
6443 Clouds 2 998 100 10000 5 280 02:35 14.06.2019
6444 Clear 2 998 100 10000 5 280 01:35 14.06.2019
6445 Clear 1 998 100 10000 4 270 00:36 14.06.2019
6446 Clear 1 998 100 10000 5 280 00:18 14.06.2019
6447 Clear 2 998 100 10000 4 260 23:48 13.06.2019
6448 Clear 2 998 100 10000 4 260 23:24 13.06.2019
6449 Clouds 2 998 100 10000 5 280 22:40 13.06.2019
6450 Rain 2 998 100 10000 3 280 22:22 13.06.2019
6451 Rain 2 998 100 10000 3 280 21:56 13.06.2019
6452 Clouds 2 998 100 10000 4 270 21:36 13.06.2019
6453 Clouds 2 998 100 10000 4 270 21:36 13.06.2019
6454 Clear 3 998 100 10000 4 260 21:18 13.06.2019
6455 Clouds 3 998 100 10000 5 280 20:42 13.06.2019
6456 Clouds 3 998 100 10000 5 280 20:20 13.06.2019
6457 Clouds 3 998 100 10000 5 290 19:43 13.06.2019
6458 Rain 3 998 100 10000 5 290 19:24 13.06.2019
6459 Rain 3 998 100 10000 5 290 18:58 13.06.2019
6460 Rain 3 998 100 8000 6 300 18:40 13.06.2019
6461 Rain 4 998 100 9000 5 290 18:21 13.06.2019
6462 Rain 4 997 100 10000 6 290 17:44 13.06.2019
6463 Rain 5 997 100 10000 6 290 17:21 13.06.2019
6464 Rain 5 997 100 10000 6 290 16:58 13.06.2019
6465 Rain 5 997 100 9000 6 290 16:38 13.06.2019
6466 Rain 6 997 87 10000 5 280 16:18 13.06.2019
6467 Clouds 6 997 81 10000 5 310 15:40 13.06.2019
6468 Rain 8 996 70 10000 7 280 15:22 13.06.2019
6469 Clouds 8 996 65 10000 7 280 14:49 13.06.2019
6470 Clouds 8 996 65 10000 7 280 14:31 13.06.2019
6471 Clouds 8 996 70 10000 7 280 13:54 13.06.2019
6472 Clouds 9 996 61 10000 7 300 13:36 13.06.2019
6473 Clouds 8 996 70 10000 4 310 13:18 13.06.2019
6474 Rain 7 996 70 10000 8 290 12:39 13.06.2019
6475 Clouds 7 996 70 10000 6 310 12:21 13.06.2019
6476 Rain 6 995 75 10000 10 320 11:44 13.06.2019
6477 Rain 6 995 75 10000 10 320 11:25 13.06.2019
6478 Rain 6 995 81 9000 8 320 10:49 13.06.2019
6479 Rain 6 995 81 9000 8 320 10:29 13.06.2019
6480 Rain 6 994 93 10000 8 310 09:53 13.06.2019
6481 Rain 6 994 93 10000 8 310 09:31 13.06.2019
6482 Rain 6 993 93 10000 7 310 08:56 13.06.2019
6483 Rain 6 993 93 10000 7 310 08:56 13.06.2019
6484 Rain 6 993 100 7000 9 310 08:38 13.06.2019
6485 Rain 5 992 100 6000 8 300 08:19 13.06.2019
6486 Rain 5 992 100 8000 9 300 07:39 13.06.2019
6487 Clouds 6 991 87 10000 9 310 07:21 13.06.2019
6488 Rain 6 990 100 5000 9 300 06:40 13.06.2019
6489 Rain 7 990 100 6000 9 290 06:22 13.06.2019
6490 Rain 7 989 100 9000 9 290 05:44 13.06.2019
6491 Rain 7 989 100 9000 9 290 05:26 13.06.2019
6492 Clouds 10 989 100 10000 9 280 03:50 13.06.2019
6493 Clouds 12 989 93 10000 6 250 02:20 13.06.2019
6494 Clouds 12 989 100 10000 5 250 00:36 13.06.2019
6495 Clouds 12 989 100 10000 5 240 23:38 12.06.2019
6496 Clouds 12 990 100 10000 5 240 23:20 12.06.2019
6497 Clouds 12 990 100 10000 4 230 22:41 12.06.2019
6498 Clouds 12 990 100 10000 4 230 22:41 12.06.2019
6499 Clouds 12 990 100 10000 4 240 22:22 12.06.2019
6500 Clouds 13 991 100 10000 5 250 21:47 12.06.2019
6501 Clouds 13 991 100 10000 5 250 21:28 12.06.2019
6502 Rain 13 991 100 7000 4 240 20:49 12.06.2019
6503 Rain 13 991 100 7000 4 240 20:31 12.06.2019
6504 Rain 13 992 100 3800 4 210 19:59 12.06.2019
6505 Rain 13 992 100 8000 3 190 19:41 12.06.2019
6506 Clouds 13 992 100 10000 3 200 19:22 12.06.2019
6507 Clouds 13 993 100 10000 3 190 18:51 12.06.2019
6508 Clouds 13 993 100 10000 3 190 18:29 12.06.2019
6509 Clouds 13 993 100 10000 3 190 18:29 12.06.2019
6510 Clouds 13 993 100 10000 3 190 17:58 12.06.2019
6511 Clouds 13 993 100 10000 2 190 17:39 12.06.2019
6512 Clouds 13 994 100 10000 3 210 17:18 12.06.2019
6513 Clouds 12 994 100 10000 2 210 16:40 12.06.2019
6514 Rain 12 994 100 8000 4 200 16:22 12.06.2019
6515 Rain 13 994 100 5000 5 160 15:47 12.06.2019
6516 Rain 13 994 100 5000 5 160 15:29 12.06.2019
6517 Thunderstorm 16 995 77 10000 4 160 14:42 12.06.2019
6518 -273 0 0 0 0 0 14:22 12.06.2019
6519 Clouds 16 996 72 10000 4 130 13:42 12.06.2019
6520 Clouds 17 996 67 10000 5 130 13:20 12.06.2019
6521 Clouds 17 996 67 10000 5 130 12:56 12.06.2019
6522 Clouds 16 997 72 10000 5 130 12:37 12.06.2019
6523 Clear 16 997 72 10000 4 140 12:19 12.06.2019
6524 Clear 16 997 72 10000 4 140 12:19 12.06.2019
6525 Clear 16 998 67 10000 5 130 11:44 12.06.2019
6526 Clear 16 998 67 10000 5 130 11:26 12.06.2019
6527 Clouds 15 999 72 10000 4 140 10:50 12.06.2019
6528 Clouds 15 999 72 10000 4 140 10:25 12.06.2019
6529 Clouds 15 999 72 10000 3 150 09:45 12.06.2019
6530 Clouds 15 1000 67 10000 4 150 09:23 12.06.2019
6531 Clouds 15 1000 67 10000 4 150 08:53 12.06.2019
6532 Clouds 14 1000 71 10000 3 160 08:21 12.06.2019
6533 Clouds 15 1000 72 10000 2 150 07:39 12.06.2019
6534 Clouds 13 1001 76 10000 1 0 06:54 12.06.2019
6535 Clouds 13 1001 76 10000 1 0 05:27 12.06.2019
6536 Clouds 13 1002 76 10000 1 0 04:34 12.06.2019
6537 Mist 9 1003 100 2600 2 310 01:32 12.06.2019
6538 Mist 10 1002 100 3100 2 280 00:40 12.06.2019
6539 Mist 9 1002 100 2000 1 50 23:48 11.06.2019
6540 Mist 9 1002 100 2000 1 50 23:29 11.06.2019
6541 Mist 10 1003 100 5000 2 20 22:44 11.06.2019
6542 Clouds 10 1003 100 10000 1 0 22:20 11.06.2019
6543 Clouds 10 1003 100 10000 1 0 21:57 11.06.2019
6544 Clouds 10 1003 100 10000 1 350 21:38 11.06.2019
6545 Clouds 10 1003 100 8000 2.5 21.362 21:20 11.06.2019
6546 Clouds 10 1003 100 10000 1 0 20:48 11.06.2019
6547 Mist 10 1003 100 3600 1 0 20:26 11.06.2019
6548 Mist 10 1003 100 5000 2 50 19:56 11.06.2019
6549 -273 0 0 0 0 0 19:37 11.06.2019
6550 Mist 10 1003 100 5000 2 50 19:36 11.06.2019
6551 Mist 10 1003 100 5000 2 50 19:36 11.06.2019
6552 -273 0 0 0 0 0 18:58 11.06.2019
6553 Drizzle 10 1003 100 2900 2 50 18:56 11.06.2019
6554 Drizzle 10 1003 100 2300 2 30 18:22 11.06.2019
6555 Mist 11 1003 100 2100 1 0 17:42 11.06.2019
6556 Mist 11 1003 100 2100 1 0 17:42 11.06.2019
6557 Mist 11 1003 100 3200 1 0 17:22 11.06.2019
6558 Mist 11 1003 100 3200 1 0 16:57 11.06.2019
6559 Clouds 11 1003 100 10000 3 80 16:39 11.06.2019
6560 Clouds 11 1003 100 10000 2 70 16:21 11.06.2019
6561 Clouds 11 1003 100 10000 3 70 15:42 11.06.2019
6562 Clouds 11 1003 100 10000 3 90 15:23 11.06.2019
6563 Clouds 11 1003 100 10000 3 120 14:49 11.06.2019
6564 Clouds 11 1003 100 10000 2 100 14:22 11.06.2019
6565 Clouds 10 1003 100 10000 2 130 13:52 11.06.2019
6566 Clouds 10 1003 100 10000 6 120 13:24 11.06.2019
6567 Clouds 10 1003 100 10000 6 120 12:58 11.06.2019
6568 Clouds 10 1003 100 10000 4 120 12:40 11.06.2019
6569 Clouds 9 1004 100 10000 5 120 12:19 11.06.2019
6570 Rain 9 1004 100 10000 6 110 11:40 11.06.2019
6571 Rain 9 1004 100 9000 5 120 11:19 11.06.2019
6572 Rain 9 1005 100 10000 4 130 10:46 11.06.2019
6573 Rain 9 1005 100 10000 4 130 10:46 11.06.2019
6574 Rain 9 1005 100 10000 4 130 10:26 11.06.2019
6575 Rain 9 1005 100 9000 6 140 09:49 11.06.2019
6576 Rain 9 1005 100 9000 6 140 09:24 11.06.2019
6577 Rain 8 1006 100 9000 6 140 08:46 11.06.2019
6578 Rain 8 1006 100 9000 6 140 08:28 11.06.2019
6579 Clouds 8 1007 100 10000 5 130 07:46 11.06.2019
6580 Clouds 8 1007 100 10000 5 130 07:27 11.06.2019
6581 Rain 8 1008 100 9000 4 120 06:50 11.06.2019
6582 Clear 9 1010 70 10000 5 130 04:55 11.06.2019
6583 Clear 8 1011 70 10000 4 140 03:43 11.06.2019
6584 Clear 7 1011 75 10000 4 130 01:41 11.06.2019
6585 Clear 6 1012 81 10000 3 90 00:48 11.06.2019
6586 Clear 6 1012 75 10000 2 130 23:50 10.06.2019
6587 Clear 6 1012 75 10000 2 130 23:32 10.06.2019
6588 Clear 5 1012 80 10000 3 90 22:56 10.06.2019
6589 Clear 5 1012 80 10000 3 100 22:37 10.06.2019
6590 Clear 5 1012 86 10000 2 90 22:19 10.06.2019
6591 Clear 6 1012 75 10000 2 80 21:41 10.06.2019
6592 Clear 7 1012 70 10000 3 60 21:22 10.06.2019
6593 Clear 8 1012 65 10000 2 80 20:46 10.06.2019
6594 Clear 8 1012 65 10000 2 80 20:25 10.06.2019
6595 Clear 8 1012 70 10000 3 60 19:56 10.06.2019
6596 Clear 9 1012 61 10000 2 20 19:36 10.06.2019
6597 Clear 10 1012 57 10000 3 20 19:18 10.06.2019
6598 Clear 11 1012 57 10000 2 20 18:55 10.06.2019
6599 Clear 11 1012 57 10000 2 20 18:36 10.06.2019
6600 Clear 12 1012 54 10000 3 20 18:18 10.06.2019
6601 Clear 12 1011 54 10000 3 20 17:39 10.06.2019
6602 Clear 13 1011 50 10000 4 360 17:20 10.06.2019
6603 Clear 13 1011 50 10000 4 20 16:44 10.06.2019
6604 Clear 13 1011 50 10000 4 20 16:25 10.06.2019
6605 Clear 14 1011 47 10000 6 350 15:42 10.06.2019
6606 Clear 14 1011 47 10000 6 350 15:24 10.06.2019
6607 Clear 14 1010 50 10000 5 360 14:58 10.06.2019
6608 Clear 14 1010 47 10000 7 330 14:38 10.06.2019
6609 Clear 14 1009 50 10000 6 350 14:20 10.06.2019
6610 Clouds 14 1009 54 10000 6 350 13:43 10.06.2019
6611 Clouds 15 1009 51 10000 6 350 13:21 10.06.2019
6612 Clouds 15 1009 54 10000 6 360 12:44 10.06.2019
6613 Clouds 15 1009 54 10000 6 360 12:25 10.06.2019
6614 Clouds 14 1008 62 10000 6 350 11:44 10.06.2019
6615 Clouds 14 1008 62 10000 6 350 11:26 10.06.2019
6616 Clouds 14 1007 62 10000 7 340 10:43 10.06.2019
6617 Clouds 14 1006 67 10000 8 340 10:21 10.06.2019
6618 Clouds 14 1006 67 10000 8 340 09:57 10.06.2019
6619 Clouds 15 1006 67 10000 7 350 09:38 10.06.2019
6620 Clouds 16 1005 63 10000 7 340 09:19 10.06.2019
6621 Clouds 16 1004 67 10000 7 340 08:45 10.06.2019
6622 Clouds 16 1004 67 10000 7 340 08:25 10.06.2019
6623 Clouds 17 1003 77 10000 7 350 07:20 10.06.2019
6624 Clouds 18 1001 72 10000 5 300 04:29 10.06.2019
6625 Clouds 14 1001 71 10000 3 250 01:59 10.06.2019
6626 Clouds 14 1001 71 10000 3 250 01:59 10.06.2019
6627 Clouds 14 1001 71 10000 3 250 01:26 10.06.2019
6628 Clouds 14 1001 67 10000 3 250 00:58 10.06.2019
6629 Clouds 14 1002 62 10000 3 230 00:20 10.06.2019
6630 Rain 14 1002 62 10000 3 220 23:43 09.06.2019
6631 Rain 13 1003 71 10000 3 210 23:20 09.06.2019
6632 Rain 14 1004 58 8000 4 240 22:45 09.06.2019
6633 Rain 14 1004 58 8000 4 240 22:25 09.06.2019
6634 Clear 15 1004 47 10000 3 200 21:46 09.06.2019
6635 Clear 15 1004 47 10000 3 200 21:27 09.06.2019
6636 Clear 15 1006 44 10000 3 200 20:45 09.06.2019
6637 Clear 14 1006 50 10000 2 190 20:23 09.06.2019
6638 Clear 14 1006 50 10000 2 190 19:58 09.06.2019
6639 Clear 14 1007 44 10000 2 200 19:39 09.06.2019
6640 Clear 15 1007 41 10000 2 210 19:18 09.06.2019
6641 Clear 15 1008 41 10000 2 220 18:42 09.06.2019
6642 Clear 15 1008 41 10000 3 280 18:24 09.06.2019
6643 Clear 15 1008 41 10000 3 280 17:48 09.06.2019
6644 Clear 15 1008 41 10000 3 280 17:28 09.06.2019
6645 Clear 16 1008 56 10000 4 290 16:55 09.06.2019
6646 Clear 16 1008 38 10000 3 310 16:37 09.06.2019
6647 Clear 16 1009 36 10000 3 310 16:19 09.06.2019
6648 Clear 17 1009 33 10000 4 300 15:47 09.06.2019
6649 Clear 17 1009 33 10000 4 300 15:27 09.06.2019
6650 Clear 16 1009 31 10000 4 320 14:46 09.06.2019
6651 Clear 16 1009 31 10000 4 320 14:27 09.06.2019
6652 Clear 16 1010 30 10000 6 300 13:56 09.06.2019
6653 Clear 16 1010 36 10000 5 320 13:36 09.06.2019
6654 Clear 16 1010 38 10000 5 350 12:44 09.06.2019
6655 Clear 16 1010 36 10000 5 360 12:26 09.06.2019
6656 Clear 15 1010 38 10000 5 340 11:48 09.06.2019
6657 Clear 15 1010 38 10000 5 340 11:29 09.06.2019
6658 Clear 15 1010 41 10000 6 330 10:47 09.06.2019
6659 Clear 15 1010 41 10000 6 330 10:24 09.06.2019
6660 Clear 14 1010 44 10000 6 350 09:42 09.06.2019
6661 Clear 14 1010 44 10000 6 350 09:24 09.06.2019
6662 Clear 14 1011 44 10000 6 350 08:58 09.06.2019
6663 Clear 13 1010 43 10000 6 360 08:40 09.06.2019
6664 Clear 13 1010 50 10000 7 340 07:50 09.06.2019
6665 Clear 12 1010 62 10000 7 350 06:33 09.06.2019
6666 Clear 12 1010 62 10000 6 350 05:47 09.06.2019
6667 Clear 10 1009 66 10000 6 360 02:52 09.06.2019
6668 Clear 10 1009 71 10000 4 10 01:36 09.06.2019
6669 Clear 10 1009 71 10000 4 10 01:36 09.06.2019
6670 Clear 10 1009 71 10000 5 360 01:18 09.06.2019
6671 Clear 10 1009 71 10000 5 360 01:18 09.06.2019
6672 Clear 11 1008 71 10000 7 20 00:22 09.06.2019
6673 Clear 11 1008 71 10000 6 10 23:40 08.06.2019
6674 Clear 12 1008 66 10000 6 10 23:22 08.06.2019
6675 Clear 13 1008 66 10000 6 10 22:45 08.06.2019
6676 Clear 13 1008 66 10000 6 10 22:26 08.06.2019
6677 Clear 13 1008 66 10000 6 10 21:56 08.06.2019
6678 Clear 13 1008 62 10000 7 20 21:38 08.06.2019
6679 Clear 13 1008 62 10000 7 20 21:38 08.06.2019
6680 Clear 13 1008 66 10000 7 20 21:19 08.06.2019
6681 Clear 13 1008 66 10000 7 20 20:42 08.06.2019
6682 Clear 13 1008 66 10000 7 20 20:24 08.06.2019
6683 Clouds 14 1008 62 10000 7 20 19:43 08.06.2019
6684 Clear 14 1008 58 10000 7 20 19:23 08.06.2019
6685 Clear 14 1008 58 10000 7 20 18:59 08.06.2019
6686 Clear 14 1008 62 10000 7 20 18:40 08.06.2019
6687 Clear 14 1007 62 10000 8 10 18:20 08.06.2019
6688 Clear 14 1007 62 10000 7 10 17:42 08.06.2019
6689 Clear 14 1007 58 10000 8 20 17:19 08.06.2019
6690 Clear 14 1007 62 10000 8 10 16:45 08.06.2019
6691 Clear 14 1007 62 10000 8 10 16:26 08.06.2019
6692 Clear 14 1006 62 10000 8 10 15:42 08.06.2019
6693 Clouds 13 1006 66 10000 7 20 15:22 08.06.2019
6694 Clouds 13 1006 66 10000 7 20 14:47 08.06.2019
6695 Clouds 13 1006 66 10000 7 20 14:27 08.06.2019
6696 Clouds 14 1006 67 10000 9 10 13:40 08.06.2019
6697 Clouds 13 1005 76 10000 7 20 12:52 08.06.2019
6698 Clouds 13 1005 76 10000 7 20 12:32 08.06.2019
6699 Clouds 13 1005 82 10000 9 20 11:44 08.06.2019
6700 Clouds 13 1005 82 10000 9 20 11:44 08.06.2019
6701 Clouds 13 1005 82 10000 9 20 11:25 08.06.2019
6702 Rain 11 1005 100 6000 6 20 10:46 08.06.2019
6703 Rain 11 1005 100 6000 6 20 10:24 08.06.2019
6704 Rain 11 1004 100 5000 7 20 09:52 08.06.2019
6705 Rain 11 1004 100 5000 7 20 09:25 08.06.2019
6706 Clouds 14 1004 76 10000 8 30 08:38 08.06.2019
6707 Clouds 16 1003 67 10000 8 30 08:18 08.06.2019
6708 Clouds 16 1002 67 10000 8 30 06:51 08.06.2019
6709 Clouds 16 1002 67 10000 8 40 05:53 08.06.2019
6710 Clear 15 1001 77 10000 6 40 03:33 08.06.2019
6711 Clouds 14 1001 82 10000 5 30 01:59 08.06.2019
6712 Clear 14 1001 100 10000 4 30 00:29 08.06.2019
6713 Clouds 14 1002 93 10000 4 40 23:47 07.06.2019
6714 Clouds 14 1001 93 10000 4 50 23:20 07.06.2019
6715 Clouds 14 1001 100 10000 4 40 22:47 07.06.2019
6716 Clouds 14 1001 100 10000 4 40 22:25 07.06.2019
6717 Clouds 14 1001 100 10000 6 50 21:54 07.06.2019
6718 Clouds 14 1001 100 10000 6 50 21:54 07.06.2019
6719 Clouds 14 1001 100 10000 6 50 21:31 07.06.2019
6720 Clouds 14 1001 100 10000 7 40 20:57 07.06.2019
6721 Clouds 15 1001 93 10000 6 40 20:37 07.06.2019
6722 Clouds 15 1002 93 10000 4 20 19:50 07.06.2019
6723 Clouds 15 1002 100 10000 4 20 19:24 07.06.2019
6724 Clouds 15 1002 100 10000 4 20 18:59 07.06.2019
6725 Clouds 15 1002 93 10000 4 30 18:37 07.06.2019
6726 Rain 15 1002 93 10000 4 40 18:18 07.06.2019
6727 Rain 15 1002 100 10000 3 40 17:38 07.06.2019
6728 Rain 15 1003 100 9000 3 60 17:18 07.06.2019
6729 Rain 16 1002 87 10000 3 80 16:40 07.06.2019
6730 Rain 18 1002 68 10000 5 120 15:54 07.06.2019
6731 Clear 20 1001 49 10000 6 40 15:23 07.06.2019
6732 Clear 20 1001 49 10000 6 40 14:48 07.06.2019
6733 -273 0 0 0 0 0 14:27 07.06.2019
6734 Clouds 20 1001 49 10000 5 20 13:49 07.06.2019
6735 Clouds 20 1001 49 10000 5 20 13:25 07.06.2019
6736 Rain 20 1001 49 10000 5 40 12:50 07.06.2019
6737 Rain 20 1001 49 10000 5 40 12:24 07.06.2019
6738 Clear 20 1001 49 10000 7 50 11:53 07.06.2019
6739 Clear 20 1001 49 10000 7 50 11:31 07.06.2019
6740 Clouds 21 1001 46 10000 6 50 10:51 07.06.2019
6741 Clouds 21 1001 46 10000 6 50 10:31 07.06.2019
6742 Clear 21 1001 46 10000 6 50 09:57 07.06.2019
6743 Clear 21 1001 46 10000 6 60 09:37 07.06.2019
6744 Clear 20 1001 49 10000 7 50 09:18 07.06.2019
6745 Clear 19 1001 48 10000 8 60 08:42 07.06.2019
6746 Clear 19 1001 48 10000 8 60 08:24 07.06.2019
6747 Clear 20 1001 49 10000 9 70 07:47 07.06.2019
6748 Clear 19 1000 48 10000 9 50 07:21 07.06.2019
6749 Clear 19 1000 48 10000 9 50 07:21 07.06.2019
6750 Clouds 18 1000 52 10000 7 40 06:46 07.06.2019
6751 Clear 18 1000 52 10000 8 40 06:22 07.06.2019
6752 Clear 18 1001 52 10000 7 40 05:42 07.06.2019
6753 Clear 17 1001 51 10000 6 40 02:21 07.06.2019
6754 Clear 17 1002 51 10000 6 40 01:36 07.06.2019
6755 Clear 18 1002 52 10000 6 50 00:44 07.06.2019
6756 Clear 18 1003 55 10000 6 50 23:45 06.06.2019
6757 Clear 19 1003 52 10000 7 60 23:24 06.06.2019
6758 Clear 19 1003 48 10000 6 60 22:45 06.06.2019
6759 Clear 19 1003 48 10000 6 60 22:25 06.06.2019